<?xml version="1.0" encoding="UTF-8" standalone="no" ?>
<gpx xmlns="http://www.topografix.com/GPX/1/1" xmlns:xsi="http://www.w3.org/2001/XMLSchema-instance" xsi:schemaLocation="http://www.topografix.com/GPX/1/1 http://www.topografix.com/GPX/1/1/gpx.xsd" version="1.1" creator="VisuGPX - https://www.visugpx.com">
  <metadata>
    <name>Sortie cyclo Arlay/Beaufort</name>
    <desc><![CDATA[Groupe de 26 cyclos, scindés en deux, avec circuit sans la monté de St-Laurent la Roche pour le second. Repas pour tous à Beaufort, fin et bien arrosé. Journée ensoleillée mais fraîche.]]></desc>
  </metadata>
  <wpt lat="46.75964" lon="5.5423">
    <ele>248</ele>
  </wpt>
  <trk>
    <name><![CDATA[Sortie cyclo Arlay/Beaufort_1]]></name>
    <trkseg>
      <trkpt lat="46.75964" lon="5.5423">
        <ele>248</ele>
        <time>2011-09-20T07:19:16Z</time>
      </trkpt>
      <trkpt lat="46.75974" lon="5.54208">
        <ele>230</ele>
        <time>2011-09-20T07:19:18Z</time>
      </trkpt>
      <trkpt lat="46.75966" lon="5.54215">
        <ele>240</ele>
        <time>2011-09-20T07:20:01Z</time>
      </trkpt>
      <trkpt lat="46.75974" lon="5.54208">
        <ele>228</ele>
        <time>2011-09-20T07:22:49Z</time>
      </trkpt>
      <trkpt lat="46.75966" lon="5.54215">
        <ele>234</ele>
        <time>2011-09-20T07:23:02Z</time>
      </trkpt>
      <trkpt lat="46.75975" lon="5.54211">
        <ele>242</ele>
        <time>2011-09-20T07:25:21Z</time>
      </trkpt>
      <trkpt lat="46.75966" lon="5.54216">
        <ele>242</ele>
        <time>2011-09-20T07:25:52Z</time>
      </trkpt>
      <trkpt lat="46.75971" lon="5.54204">
        <ele>242</ele>
        <time>2011-09-20T07:30:02Z</time>
      </trkpt>
      <trkpt lat="46.75967" lon="5.54217">
        <ele>242</ele>
        <time>2011-09-20T07:30:57Z</time>
      </trkpt>
      <trkpt lat="46.75959" lon="5.54223">
        <ele>242</ele>
        <time>2011-09-20T07:31:50Z</time>
      </trkpt>
      <trkpt lat="46.7595" lon="5.54222">
        <ele>242</ele>
        <time>2011-09-20T07:34:25Z</time>
      </trkpt>
      <trkpt lat="46.75959" lon="5.54221">
        <ele>236</ele>
        <time>2011-09-20T07:35:24Z</time>
      </trkpt>
      <trkpt lat="46.75964" lon="5.54234">
        <ele>236</ele>
        <time>2011-09-20T07:35:42Z</time>
      </trkpt>
      <trkpt lat="46.75955" lon="5.54242">
        <ele>236</ele>
        <time>2011-09-20T07:35:50Z</time>
      </trkpt>
      <trkpt lat="46.75945" lon="5.54244">
        <ele>236</ele>
        <time>2011-09-20T07:35:55Z</time>
      </trkpt>
      <trkpt lat="46.75936" lon="5.54245">
        <ele>236</ele>
        <time>2011-09-20T07:35:59Z</time>
      </trkpt>
      <trkpt lat="46.75926" lon="5.54244">
        <ele>236</ele>
        <time>2011-09-20T07:36:04Z</time>
      </trkpt>
      <trkpt lat="46.75916" lon="5.54244">
        <ele>236</ele>
        <time>2011-09-20T07:36:09Z</time>
      </trkpt>
      <trkpt lat="46.75906" lon="5.54243">
        <ele>236</ele>
        <time>2011-09-20T07:36:14Z</time>
      </trkpt>
      <trkpt lat="46.75897" lon="5.54239">
        <ele>243</ele>
        <time>2011-09-20T07:36:20Z</time>
      </trkpt>
      <trkpt lat="46.75887" lon="5.54237">
        <ele>243</ele>
        <time>2011-09-20T07:36:25Z</time>
      </trkpt>
      <trkpt lat="46.75877" lon="5.54235">
        <ele>243</ele>
        <time>2011-09-20T07:36:29Z</time>
      </trkpt>
      <trkpt lat="46.75867" lon="5.54232">
        <ele>243</ele>
        <time>2011-09-20T07:36:33Z</time>
      </trkpt>
      <trkpt lat="46.75858" lon="5.54229">
        <ele>249</ele>
        <time>2011-09-20T07:36:37Z</time>
      </trkpt>
      <trkpt lat="46.75848" lon="5.54228">
        <ele>249</ele>
        <time>2011-09-20T07:36:41Z</time>
      </trkpt>
      <trkpt lat="46.75837" lon="5.54227">
        <ele>249</ele>
        <time>2011-09-20T07:36:45Z</time>
      </trkpt>
      <trkpt lat="46.75826" lon="5.54228">
        <ele>249</ele>
        <time>2011-09-20T07:36:49Z</time>
      </trkpt>
      <trkpt lat="46.75816" lon="5.54228">
        <ele>249</ele>
        <time>2011-09-20T07:36:53Z</time>
      </trkpt>
      <trkpt lat="46.75805" lon="5.54227">
        <ele>249</ele>
        <time>2011-09-20T07:36:57Z</time>
      </trkpt>
      <trkpt lat="46.75795" lon="5.54225">
        <ele>249</ele>
        <time>2011-09-20T07:37:01Z</time>
      </trkpt>
      <trkpt lat="46.75784" lon="5.54224">
        <ele>249</ele>
        <time>2011-09-20T07:37:04Z</time>
      </trkpt>
      <trkpt lat="46.75774" lon="5.54222">
        <ele>249</ele>
        <time>2011-09-20T07:37:07Z</time>
      </trkpt>
      <trkpt lat="46.75763" lon="5.5422">
        <ele>249</ele>
        <time>2011-09-20T07:37:11Z</time>
      </trkpt>
      <trkpt lat="46.75754" lon="5.54217">
        <ele>249</ele>
        <time>2011-09-20T07:37:14Z</time>
      </trkpt>
      <trkpt lat="46.75743" lon="5.54216">
        <ele>249</ele>
        <time>2011-09-20T07:37:18Z</time>
      </trkpt>
      <trkpt lat="46.75732" lon="5.54212">
        <ele>249</ele>
        <time>2011-09-20T07:37:22Z</time>
      </trkpt>
      <trkpt lat="46.75722" lon="5.5421">
        <ele>249</ele>
        <time>2011-09-20T07:37:25Z</time>
      </trkpt>
      <trkpt lat="46.75713" lon="5.54207">
        <ele>249</ele>
        <time>2011-09-20T07:37:28Z</time>
      </trkpt>
      <trkpt lat="46.75703" lon="5.54199">
        <ele>249</ele>
        <time>2011-09-20T07:37:32Z</time>
      </trkpt>
      <trkpt lat="46.75694" lon="5.54191">
        <ele>249</ele>
        <time>2011-09-20T07:37:36Z</time>
      </trkpt>
      <trkpt lat="46.75684" lon="5.54186">
        <ele>254</ele>
        <time>2011-09-20T07:37:39Z</time>
      </trkpt>
      <trkpt lat="46.75673" lon="5.54182">
        <ele>254</ele>
        <time>2011-09-20T07:37:42Z</time>
      </trkpt>
      <trkpt lat="46.75663" lon="5.54176">
        <ele>254</ele>
        <time>2011-09-20T07:37:45Z</time>
      </trkpt>
      <trkpt lat="46.75653" lon="5.54173">
        <ele>254</ele>
        <time>2011-09-20T07:37:48Z</time>
      </trkpt>
      <trkpt lat="46.75644" lon="5.54168">
        <ele>260</ele>
        <time>2011-09-20T07:37:51Z</time>
      </trkpt>
      <trkpt lat="46.75635" lon="5.54165">
        <ele>260</ele>
        <time>2011-09-20T07:37:54Z</time>
      </trkpt>
      <trkpt lat="46.75625" lon="5.54162">
        <ele>260</ele>
        <time>2011-09-20T07:37:57Z</time>
      </trkpt>
      <trkpt lat="46.75614" lon="5.5416">
        <ele>260</ele>
        <time>2011-09-20T07:38:00Z</time>
      </trkpt>
      <trkpt lat="46.75604" lon="5.54156">
        <ele>260</ele>
        <time>2011-09-20T07:38:03Z</time>
      </trkpt>
      <trkpt lat="46.75594" lon="5.54149">
        <ele>266</ele>
        <time>2011-09-20T07:38:07Z</time>
      </trkpt>
      <trkpt lat="46.75585" lon="5.54144">
        <ele>266</ele>
        <time>2011-09-20T07:38:10Z</time>
      </trkpt>
      <trkpt lat="46.75573" lon="5.54141">
        <ele>266</ele>
        <time>2011-09-20T07:38:13Z</time>
      </trkpt>
      <trkpt lat="46.75561" lon="5.54137">
        <ele>266</ele>
        <time>2011-09-20T07:38:16Z</time>
      </trkpt>
      <trkpt lat="46.75551" lon="5.54136">
        <ele>266</ele>
        <time>2011-09-20T07:38:18Z</time>
      </trkpt>
      <trkpt lat="46.75538" lon="5.54138">
        <ele>266</ele>
        <time>2011-09-20T07:38:21Z</time>
      </trkpt>
      <trkpt lat="46.75527" lon="5.54136">
        <ele>266</ele>
        <time>2011-09-20T07:38:24Z</time>
      </trkpt>
      <trkpt lat="46.75514" lon="5.54136">
        <ele>266</ele>
        <time>2011-09-20T07:38:27Z</time>
      </trkpt>
      <trkpt lat="46.75502" lon="5.54135">
        <ele>266</ele>
        <time>2011-09-20T07:38:30Z</time>
      </trkpt>
      <trkpt lat="46.75491" lon="5.54134">
        <ele>266</ele>
        <time>2011-09-20T07:38:33Z</time>
      </trkpt>
      <trkpt lat="46.75478" lon="5.54134">
        <ele>266</ele>
        <time>2011-09-20T07:38:36Z</time>
      </trkpt>
      <trkpt lat="46.75467" lon="5.54134">
        <ele>266</ele>
        <time>2011-09-20T07:38:39Z</time>
      </trkpt>
      <trkpt lat="46.75456" lon="5.54133">
        <ele>266</ele>
        <time>2011-09-20T07:38:42Z</time>
      </trkpt>
      <trkpt lat="46.75445" lon="5.54133">
        <ele>266</ele>
        <time>2011-09-20T07:38:45Z</time>
      </trkpt>
      <trkpt lat="46.75435" lon="5.54132">
        <ele>266</ele>
        <time>2011-09-20T07:38:48Z</time>
      </trkpt>
      <trkpt lat="46.75424" lon="5.54129">
        <ele>266</ele>
        <time>2011-09-20T07:38:51Z</time>
      </trkpt>
      <trkpt lat="46.75415" lon="5.54124">
        <ele>266</ele>
        <time>2011-09-20T07:38:54Z</time>
      </trkpt>
      <trkpt lat="46.75404" lon="5.54119">
        <ele>266</ele>
        <time>2011-09-20T07:38:58Z</time>
      </trkpt>
      <trkpt lat="46.75394" lon="5.54113">
        <ele>266</ele>
        <time>2011-09-20T07:39:03Z</time>
      </trkpt>
      <trkpt lat="46.75385" lon="5.54111">
        <ele>266</ele>
        <time>2011-09-20T07:39:06Z</time>
      </trkpt>
      <trkpt lat="46.75377" lon="5.54102">
        <ele>274</ele>
        <time>2011-09-20T07:39:11Z</time>
      </trkpt>
      <trkpt lat="46.75369" lon="5.54091">
        <ele>274</ele>
        <time>2011-09-20T07:39:16Z</time>
      </trkpt>
      <trkpt lat="46.75359" lon="5.54086">
        <ele>274</ele>
        <time>2011-09-20T07:39:20Z</time>
      </trkpt>
      <trkpt lat="46.75351" lon="5.5408">
        <ele>281</ele>
        <time>2011-09-20T07:39:23Z</time>
      </trkpt>
      <trkpt lat="46.75342" lon="5.54074">
        <ele>281</ele>
        <time>2011-09-20T07:39:27Z</time>
      </trkpt>
      <trkpt lat="46.75333" lon="5.54067">
        <ele>281</ele>
        <time>2011-09-20T07:39:31Z</time>
      </trkpt>
      <trkpt lat="46.75324" lon="5.54067">
        <ele>281</ele>
        <time>2011-09-20T07:39:34Z</time>
      </trkpt>
      <trkpt lat="46.75315" lon="5.54062">
        <ele>281</ele>
        <time>2011-09-20T07:39:37Z</time>
      </trkpt>
      <trkpt lat="46.75305" lon="5.54057">
        <ele>281</ele>
        <time>2011-09-20T07:39:41Z</time>
      </trkpt>
      <trkpt lat="46.75297" lon="5.5405">
        <ele>281</ele>
        <time>2011-09-20T07:39:44Z</time>
      </trkpt>
      <trkpt lat="46.75288" lon="5.54045">
        <ele>281</ele>
        <time>2011-09-20T07:39:47Z</time>
      </trkpt>
      <trkpt lat="46.75278" lon="5.54039">
        <ele>281</ele>
        <time>2011-09-20T07:39:51Z</time>
      </trkpt>
      <trkpt lat="46.75269" lon="5.54033">
        <ele>281</ele>
        <time>2011-09-20T07:39:55Z</time>
      </trkpt>
      <trkpt lat="46.75258" lon="5.5403">
        <ele>281</ele>
        <time>2011-09-20T07:39:59Z</time>
      </trkpt>
      <trkpt lat="46.75247" lon="5.54025">
        <ele>281</ele>
        <time>2011-09-20T07:40:03Z</time>
      </trkpt>
      <trkpt lat="46.75235" lon="5.54022">
        <ele>281</ele>
        <time>2011-09-20T07:40:07Z</time>
      </trkpt>
      <trkpt lat="46.75227" lon="5.54018">
        <ele>281</ele>
        <time>2011-09-20T07:40:10Z</time>
      </trkpt>
      <trkpt lat="46.75215" lon="5.54012">
        <ele>281</ele>
        <time>2011-09-20T07:40:14Z</time>
      </trkpt>
      <trkpt lat="46.75204" lon="5.54005">
        <ele>281</ele>
        <time>2011-09-20T07:40:18Z</time>
      </trkpt>
      <trkpt lat="46.75193" lon="5.54">
        <ele>281</ele>
        <time>2011-09-20T07:40:22Z</time>
      </trkpt>
      <trkpt lat="46.75185" lon="5.53996">
        <ele>281</ele>
        <time>2011-09-20T07:40:25Z</time>
      </trkpt>
      <trkpt lat="46.75174" lon="5.53989">
        <ele>281</ele>
        <time>2011-09-20T07:40:29Z</time>
      </trkpt>
      <trkpt lat="46.75165" lon="5.53985">
        <ele>281</ele>
        <time>2011-09-20T07:40:32Z</time>
      </trkpt>
      <trkpt lat="46.75156" lon="5.5398">
        <ele>281</ele>
        <time>2011-09-20T07:40:35Z</time>
      </trkpt>
      <trkpt lat="46.75147" lon="5.53976">
        <ele>281</ele>
        <time>2011-09-20T07:40:38Z</time>
      </trkpt>
      <trkpt lat="46.75138" lon="5.53969">
        <ele>281</ele>
        <time>2011-09-20T07:40:41Z</time>
      </trkpt>
      <trkpt lat="46.75127" lon="5.53961">
        <ele>281</ele>
        <time>2011-09-20T07:40:45Z</time>
      </trkpt>
      <trkpt lat="46.75116" lon="5.53954">
        <ele>281</ele>
        <time>2011-09-20T07:40:49Z</time>
      </trkpt>
      <trkpt lat="46.75105" lon="5.53948">
        <ele>281</ele>
        <time>2011-09-20T07:40:53Z</time>
      </trkpt>
      <trkpt lat="46.75094" lon="5.53942">
        <ele>281</ele>
        <time>2011-09-20T07:40:57Z</time>
      </trkpt>
      <trkpt lat="46.75083" lon="5.53934">
        <ele>281</ele>
        <time>2011-09-20T07:41:01Z</time>
      </trkpt>
      <trkpt lat="46.75072" lon="5.53928">
        <ele>286</ele>
        <time>2011-09-20T07:41:05Z</time>
      </trkpt>
      <trkpt lat="46.75064" lon="5.53924">
        <ele>286</ele>
        <time>2011-09-20T07:41:08Z</time>
      </trkpt>
      <trkpt lat="46.75054" lon="5.53917">
        <ele>286</ele>
        <time>2011-09-20T07:41:12Z</time>
      </trkpt>
      <trkpt lat="46.75043" lon="5.53911">
        <ele>286</ele>
        <time>2011-09-20T07:41:16Z</time>
      </trkpt>
      <trkpt lat="46.75031" lon="5.53906">
        <ele>286</ele>
        <time>2011-09-20T07:41:20Z</time>
      </trkpt>
      <trkpt lat="46.75021" lon="5.53899">
        <ele>286</ele>
        <time>2011-09-20T07:41:24Z</time>
      </trkpt>
      <trkpt lat="46.75012" lon="5.53895">
        <ele>286</ele>
        <time>2011-09-20T07:41:27Z</time>
      </trkpt>
      <trkpt lat="46.75004" lon="5.53891">
        <ele>286</ele>
        <time>2011-09-20T07:41:30Z</time>
      </trkpt>
      <trkpt lat="46.74994" lon="5.53887">
        <ele>286</ele>
        <time>2011-09-20T07:41:34Z</time>
      </trkpt>
      <trkpt lat="46.74986" lon="5.53881">
        <ele>286</ele>
        <time>2011-09-20T07:41:38Z</time>
      </trkpt>
      <trkpt lat="46.74977" lon="5.53877">
        <ele>286</ele>
        <time>2011-09-20T07:41:55Z</time>
      </trkpt>
      <trkpt lat="46.74973" lon="5.53864">
        <ele>286</ele>
        <time>2011-09-20T07:42:00Z</time>
      </trkpt>
      <trkpt lat="46.74975" lon="5.53847">
        <ele>286</ele>
        <time>2011-09-20T07:42:04Z</time>
      </trkpt>
      <trkpt lat="46.74979" lon="5.53832">
        <ele>286</ele>
        <time>2011-09-20T07:42:07Z</time>
      </trkpt>
      <trkpt lat="46.74982" lon="5.5382">
        <ele>286</ele>
        <time>2011-09-20T07:42:09Z</time>
      </trkpt>
      <trkpt lat="46.74986" lon="5.53806">
        <ele>286</ele>
        <time>2011-09-20T07:42:11Z</time>
      </trkpt>
      <trkpt lat="46.74989" lon="5.53793">
        <ele>286</ele>
        <time>2011-09-20T07:42:13Z</time>
      </trkpt>
      <trkpt lat="46.7499" lon="5.53777">
        <ele>286</ele>
        <time>2011-09-20T07:42:15Z</time>
      </trkpt>
      <trkpt lat="46.74992" lon="5.5376">
        <ele>286</ele>
        <time>2011-09-20T07:42:17Z</time>
      </trkpt>
      <trkpt lat="46.74994" lon="5.53742">
        <ele>286</ele>
        <time>2011-09-20T07:42:19Z</time>
      </trkpt>
      <trkpt lat="46.74995" lon="5.53727">
        <ele>286</ele>
        <time>2011-09-20T07:42:21Z</time>
      </trkpt>
      <trkpt lat="46.74997" lon="5.53708">
        <ele>286</ele>
        <time>2011-09-20T07:42:24Z</time>
      </trkpt>
      <trkpt lat="46.74999" lon="5.53692">
        <ele>286</ele>
        <time>2011-09-20T07:42:27Z</time>
      </trkpt>
      <trkpt lat="46.75" lon="5.53676">
        <ele>286</ele>
        <time>2011-09-20T07:42:31Z</time>
      </trkpt>
      <trkpt lat="46.75001" lon="5.5366">
        <ele>286</ele>
        <time>2011-09-20T07:42:35Z</time>
      </trkpt>
      <trkpt lat="46.75002" lon="5.53645">
        <ele>286</ele>
        <time>2011-09-20T07:42:38Z</time>
      </trkpt>
      <trkpt lat="46.75005" lon="5.53631">
        <ele>286</ele>
        <time>2011-09-20T07:42:41Z</time>
      </trkpt>
      <trkpt lat="46.75007" lon="5.53616">
        <ele>286</ele>
        <time>2011-09-20T07:42:44Z</time>
      </trkpt>
      <trkpt lat="46.75009" lon="5.53603">
        <ele>286</ele>
        <time>2011-09-20T07:42:47Z</time>
      </trkpt>
      <trkpt lat="46.75004" lon="5.53589">
        <ele>286</ele>
        <time>2011-09-20T07:42:50Z</time>
      </trkpt>
      <trkpt lat="46.74998" lon="5.53574">
        <ele>286</ele>
        <time>2011-09-20T07:42:53Z</time>
      </trkpt>
      <trkpt lat="46.74993" lon="5.5356">
        <ele>286</ele>
        <time>2011-09-20T07:42:57Z</time>
      </trkpt>
      <trkpt lat="46.74989" lon="5.53543">
        <ele>294</ele>
        <time>2011-09-20T07:43:00Z</time>
      </trkpt>
      <trkpt lat="46.74982" lon="5.53533">
        <ele>294</ele>
        <time>2011-09-20T07:43:03Z</time>
      </trkpt>
      <trkpt lat="46.74974" lon="5.53522">
        <ele>294</ele>
        <time>2011-09-20T07:43:07Z</time>
      </trkpt>
      <trkpt lat="46.74964" lon="5.53517">
        <ele>300</ele>
        <time>2011-09-20T07:43:11Z</time>
      </trkpt>
      <trkpt lat="46.74954" lon="5.53511">
        <ele>300</ele>
        <time>2011-09-20T07:43:14Z</time>
      </trkpt>
      <trkpt lat="46.74945" lon="5.53506">
        <ele>300</ele>
        <time>2011-09-20T07:43:17Z</time>
      </trkpt>
      <trkpt lat="46.74936" lon="5.53501">
        <ele>300</ele>
        <time>2011-09-20T07:43:20Z</time>
      </trkpt>
      <trkpt lat="46.74928" lon="5.53496">
        <ele>300</ele>
        <time>2011-09-20T07:43:23Z</time>
      </trkpt>
      <trkpt lat="46.74917" lon="5.53491">
        <ele>306</ele>
        <time>2011-09-20T07:43:26Z</time>
      </trkpt>
      <trkpt lat="46.74905" lon="5.53485">
        <ele>306</ele>
        <time>2011-09-20T07:43:29Z</time>
      </trkpt>
      <trkpt lat="46.74894" lon="5.53482">
        <ele>306</ele>
        <time>2011-09-20T07:43:33Z</time>
      </trkpt>
      <trkpt lat="46.74883" lon="5.53478">
        <ele>306</ele>
        <time>2011-09-20T07:43:36Z</time>
      </trkpt>
      <trkpt lat="46.7487" lon="5.53477">
        <ele>306</ele>
        <time>2011-09-20T07:43:39Z</time>
      </trkpt>
      <trkpt lat="46.74861" lon="5.53478">
        <ele>306</ele>
        <time>2011-09-20T07:43:41Z</time>
      </trkpt>
      <trkpt lat="46.74848" lon="5.53478">
        <ele>306</ele>
        <time>2011-09-20T07:43:44Z</time>
      </trkpt>
      <trkpt lat="46.74839" lon="5.53472">
        <ele>306</ele>
        <time>2011-09-20T07:43:46Z</time>
      </trkpt>
      <trkpt lat="46.74826" lon="5.53465">
        <ele>297</ele>
        <time>2011-09-20T07:43:49Z</time>
      </trkpt>
      <trkpt lat="46.74815" lon="5.53459">
        <ele>297</ele>
        <time>2011-09-20T07:43:51Z</time>
      </trkpt>
      <trkpt lat="46.74802" lon="5.53456">
        <ele>297</ele>
        <time>2011-09-20T07:43:54Z</time>
      </trkpt>
      <trkpt lat="46.74793" lon="5.53449">
        <ele>297</ele>
        <time>2011-09-20T07:43:56Z</time>
      </trkpt>
      <trkpt lat="46.74783" lon="5.53443">
        <ele>297</ele>
        <time>2011-09-20T07:43:58Z</time>
      </trkpt>
      <trkpt lat="46.74773" lon="5.53438">
        <ele>297</ele>
        <time>2011-09-20T07:44:00Z</time>
      </trkpt>
      <trkpt lat="46.74763" lon="5.53428">
        <ele>303</ele>
        <time>2011-09-20T07:44:03Z</time>
      </trkpt>
      <trkpt lat="46.74749" lon="5.53427">
        <ele>303</ele>
        <time>2011-09-20T07:44:05Z</time>
      </trkpt>
      <trkpt lat="46.74734" lon="5.53424">
        <ele>303</ele>
        <time>2011-09-20T07:44:07Z</time>
      </trkpt>
      <trkpt lat="46.74719" lon="5.53421">
        <ele>303</ele>
        <time>2011-09-20T07:44:09Z</time>
      </trkpt>
      <trkpt lat="46.74706" lon="5.53414">
        <ele>297</ele>
        <time>2011-09-20T07:44:11Z</time>
      </trkpt>
      <trkpt lat="46.74695" lon="5.53403">
        <ele>297</ele>
        <time>2011-09-20T07:44:13Z</time>
      </trkpt>
      <trkpt lat="46.74686" lon="5.53389">
        <ele>297</ele>
        <time>2011-09-20T07:44:15Z</time>
      </trkpt>
      <trkpt lat="46.74676" lon="5.53373">
        <ele>297</ele>
        <time>2011-09-20T07:44:17Z</time>
      </trkpt>
      <trkpt lat="46.74665" lon="5.53363">
        <ele>297</ele>
        <time>2011-09-20T07:44:19Z</time>
      </trkpt>
      <trkpt lat="46.74653" lon="5.53354">
        <ele>297</ele>
        <time>2011-09-20T07:44:21Z</time>
      </trkpt>
      <trkpt lat="46.74641" lon="5.53343">
        <ele>297</ele>
        <time>2011-09-20T07:44:23Z</time>
      </trkpt>
      <trkpt lat="46.74626" lon="5.53335">
        <ele>297</ele>
        <time>2011-09-20T07:44:25Z</time>
      </trkpt>
      <trkpt lat="46.74612" lon="5.53321">
        <ele>292</ele>
        <time>2011-09-20T07:44:27Z</time>
      </trkpt>
      <trkpt lat="46.74597" lon="5.53309">
        <ele>292</ele>
        <time>2011-09-20T07:44:29Z</time>
      </trkpt>
      <trkpt lat="46.74584" lon="5.53299">
        <ele>292</ele>
        <time>2011-09-20T07:44:31Z</time>
      </trkpt>
      <trkpt lat="46.74569" lon="5.53295">
        <ele>287</ele>
        <time>2011-09-20T07:44:33Z</time>
      </trkpt>
      <trkpt lat="46.74555" lon="5.5329">
        <ele>287</ele>
        <time>2011-09-20T07:44:35Z</time>
      </trkpt>
      <trkpt lat="46.74538" lon="5.53288">
        <ele>287</ele>
        <time>2011-09-20T07:44:37Z</time>
      </trkpt>
      <trkpt lat="46.74521" lon="5.53281">
        <ele>287</ele>
        <time>2011-09-20T07:44:39Z</time>
      </trkpt>
      <trkpt lat="46.74505" lon="5.53276">
        <ele>287</ele>
        <time>2011-09-20T07:44:41Z</time>
      </trkpt>
      <trkpt lat="46.74496" lon="5.53272">
        <ele>287</ele>
        <time>2011-09-20T07:44:42Z</time>
      </trkpt>
      <trkpt lat="46.74486" lon="5.53271">
        <ele>287</ele>
        <time>2011-09-20T07:44:43Z</time>
      </trkpt>
      <trkpt lat="46.74476" lon="5.53266">
        <ele>287</ele>
        <time>2011-09-20T07:44:44Z</time>
      </trkpt>
      <trkpt lat="46.74467" lon="5.53262">
        <ele>287</ele>
        <time>2011-09-20T07:44:45Z</time>
      </trkpt>
      <trkpt lat="46.74458" lon="5.53258">
        <ele>287</ele>
        <time>2011-09-20T07:44:46Z</time>
      </trkpt>
      <trkpt lat="46.74448" lon="5.53256">
        <ele>287</ele>
        <time>2011-09-20T07:44:47Z</time>
      </trkpt>
      <trkpt lat="46.74437" lon="5.53254">
        <ele>281</ele>
        <time>2011-09-20T07:44:48Z</time>
      </trkpt>
      <trkpt lat="46.74427" lon="5.5325">
        <ele>281</ele>
        <time>2011-09-20T07:44:49Z</time>
      </trkpt>
      <trkpt lat="46.74416" lon="5.53247">
        <ele>281</ele>
        <time>2011-09-20T07:44:50Z</time>
      </trkpt>
      <trkpt lat="46.74407" lon="5.53244">
        <ele>281</ele>
        <time>2011-09-20T07:44:51Z</time>
      </trkpt>
      <trkpt lat="46.74397" lon="5.53242">
        <ele>281</ele>
        <time>2011-09-20T07:44:52Z</time>
      </trkpt>
      <trkpt lat="46.74387" lon="5.53237">
        <ele>275</ele>
        <time>2011-09-20T07:44:53Z</time>
      </trkpt>
      <trkpt lat="46.74378" lon="5.53231">
        <ele>275</ele>
        <time>2011-09-20T07:44:54Z</time>
      </trkpt>
      <trkpt lat="46.74368" lon="5.53228">
        <ele>275</ele>
        <time>2011-09-20T07:44:55Z</time>
      </trkpt>
      <trkpt lat="46.74359" lon="5.53224">
        <ele>275</ele>
        <time>2011-09-20T07:44:56Z</time>
      </trkpt>
      <trkpt lat="46.74349" lon="5.53221">
        <ele>275</ele>
        <time>2011-09-20T07:44:57Z</time>
      </trkpt>
      <trkpt lat="46.74337" lon="5.53219">
        <ele>275</ele>
        <time>2011-09-20T07:44:58Z</time>
      </trkpt>
      <trkpt lat="46.74326" lon="5.53218">
        <ele>270</ele>
        <time>2011-09-20T07:44:59Z</time>
      </trkpt>
      <trkpt lat="46.74315" lon="5.53216">
        <ele>270</ele>
        <time>2011-09-20T07:45:00Z</time>
      </trkpt>
      <trkpt lat="46.74303" lon="5.53215">
        <ele>270</ele>
        <time>2011-09-20T07:45:01Z</time>
      </trkpt>
      <trkpt lat="46.74293" lon="5.53211">
        <ele>270</ele>
        <time>2011-09-20T07:45:02Z</time>
      </trkpt>
      <trkpt lat="46.74282" lon="5.5321">
        <ele>270</ele>
        <time>2011-09-20T07:45:03Z</time>
      </trkpt>
      <trkpt lat="46.74271" lon="5.53207">
        <ele>270</ele>
        <time>2011-09-20T07:45:04Z</time>
      </trkpt>
      <trkpt lat="46.7426" lon="5.53206">
        <ele>270</ele>
        <time>2011-09-20T07:45:05Z</time>
      </trkpt>
      <trkpt lat="46.74248" lon="5.53203">
        <ele>270</ele>
        <time>2011-09-20T07:45:06Z</time>
      </trkpt>
      <trkpt lat="46.74236" lon="5.53201">
        <ele>270</ele>
        <time>2011-09-20T07:45:07Z</time>
      </trkpt>
      <trkpt lat="46.74225" lon="5.53195">
        <ele>270</ele>
        <time>2011-09-20T07:45:08Z</time>
      </trkpt>
      <trkpt lat="46.74214" lon="5.53192">
        <ele>270</ele>
        <time>2011-09-20T07:45:09Z</time>
      </trkpt>
      <trkpt lat="46.74203" lon="5.53186">
        <ele>270</ele>
        <time>2011-09-20T07:45:10Z</time>
      </trkpt>
      <trkpt lat="46.7419" lon="5.53183">
        <ele>270</ele>
        <time>2011-09-20T07:45:11Z</time>
      </trkpt>
      <trkpt lat="46.74179" lon="5.53178">
        <ele>270</ele>
        <time>2011-09-20T07:45:12Z</time>
      </trkpt>
      <trkpt lat="46.74166" lon="5.53175">
        <ele>264</ele>
        <time>2011-09-20T07:45:13Z</time>
      </trkpt>
      <trkpt lat="46.74154" lon="5.53172">
        <ele>264</ele>
        <time>2011-09-20T07:45:14Z</time>
      </trkpt>
      <trkpt lat="46.74142" lon="5.53167">
        <ele>264</ele>
        <time>2011-09-20T07:45:15Z</time>
      </trkpt>
      <trkpt lat="46.74131" lon="5.53162">
        <ele>264</ele>
        <time>2011-09-20T07:45:16Z</time>
      </trkpt>
      <trkpt lat="46.74119" lon="5.53157">
        <ele>264</ele>
        <time>2011-09-20T07:45:17Z</time>
      </trkpt>
      <trkpt lat="46.74109" lon="5.53151">
        <ele>264</ele>
        <time>2011-09-20T07:45:18Z</time>
      </trkpt>
      <trkpt lat="46.74098" lon="5.53145">
        <ele>264</ele>
        <time>2011-09-20T07:45:19Z</time>
      </trkpt>
      <trkpt lat="46.74089" lon="5.53139">
        <ele>259</ele>
        <time>2011-09-20T07:45:20Z</time>
      </trkpt>
      <trkpt lat="46.74079" lon="5.53134">
        <ele>259</ele>
        <time>2011-09-20T07:45:21Z</time>
      </trkpt>
      <trkpt lat="46.74069" lon="5.53128">
        <ele>259</ele>
        <time>2011-09-20T07:45:22Z</time>
      </trkpt>
      <trkpt lat="46.7406" lon="5.53122">
        <ele>259</ele>
        <time>2011-09-20T07:45:23Z</time>
      </trkpt>
      <trkpt lat="46.7405" lon="5.53115">
        <ele>259</ele>
        <time>2011-09-20T07:45:24Z</time>
      </trkpt>
      <trkpt lat="46.7404" lon="5.53109">
        <ele>259</ele>
        <time>2011-09-20T07:45:25Z</time>
      </trkpt>
      <trkpt lat="46.7403" lon="5.53103">
        <ele>259</ele>
        <time>2011-09-20T07:45:26Z</time>
      </trkpt>
      <trkpt lat="46.74021" lon="5.53097">
        <ele>259</ele>
        <time>2011-09-20T07:45:27Z</time>
      </trkpt>
      <trkpt lat="46.74012" lon="5.53091">
        <ele>259</ele>
        <time>2011-09-20T07:45:28Z</time>
      </trkpt>
      <trkpt lat="46.74003" lon="5.53086">
        <ele>259</ele>
        <time>2011-09-20T07:45:29Z</time>
      </trkpt>
      <trkpt lat="46.73986" lon="5.53075">
        <ele>253</ele>
        <time>2011-09-20T07:45:31Z</time>
      </trkpt>
      <trkpt lat="46.73971" lon="5.53066">
        <ele>253</ele>
        <time>2011-09-20T07:45:33Z</time>
      </trkpt>
      <trkpt lat="46.73955" lon="5.53057">
        <ele>253</ele>
        <time>2011-09-20T07:45:35Z</time>
      </trkpt>
      <trkpt lat="46.73946" lon="5.53051">
        <ele>253</ele>
        <time>2011-09-20T07:45:36Z</time>
      </trkpt>
      <trkpt lat="46.7393" lon="5.53045">
        <ele>253</ele>
        <time>2011-09-20T07:45:38Z</time>
      </trkpt>
      <trkpt lat="46.73914" lon="5.53046">
        <ele>253</ele>
        <time>2011-09-20T07:45:40Z</time>
      </trkpt>
      <trkpt lat="46.73901" lon="5.53051">
        <ele>253</ele>
        <time>2011-09-20T07:45:42Z</time>
      </trkpt>
      <trkpt lat="46.73888" lon="5.53059">
        <ele>253</ele>
        <time>2011-09-20T07:45:44Z</time>
      </trkpt>
      <trkpt lat="46.73874" lon="5.53061">
        <ele>253</ele>
        <time>2011-09-20T07:45:46Z</time>
      </trkpt>
      <trkpt lat="46.73858" lon="5.5306">
        <ele>248</ele>
        <time>2011-09-20T07:45:48Z</time>
      </trkpt>
      <trkpt lat="46.73843" lon="5.53054">
        <ele>248</ele>
        <time>2011-09-20T07:45:50Z</time>
      </trkpt>
      <trkpt lat="46.73829" lon="5.53046">
        <ele>248</ele>
        <time>2011-09-20T07:45:52Z</time>
      </trkpt>
      <trkpt lat="46.73815" lon="5.53037">
        <ele>248</ele>
        <time>2011-09-20T07:45:54Z</time>
      </trkpt>
      <trkpt lat="46.73802" lon="5.53028">
        <ele>248</ele>
        <time>2011-09-20T07:45:56Z</time>
      </trkpt>
      <trkpt lat="46.73789" lon="5.53019">
        <ele>248</ele>
        <time>2011-09-20T07:45:58Z</time>
      </trkpt>
      <trkpt lat="46.73775" lon="5.53011">
        <ele>248</ele>
        <time>2011-09-20T07:46:00Z</time>
      </trkpt>
      <trkpt lat="46.73762" lon="5.53">
        <ele>248</ele>
        <time>2011-09-20T07:46:02Z</time>
      </trkpt>
      <trkpt lat="46.73749" lon="5.5299">
        <ele>248</ele>
        <time>2011-09-20T07:46:04Z</time>
      </trkpt>
      <trkpt lat="46.73737" lon="5.5298">
        <ele>248</ele>
        <time>2011-09-20T07:46:06Z</time>
      </trkpt>
      <trkpt lat="46.73725" lon="5.5297">
        <ele>248</ele>
        <time>2011-09-20T07:46:08Z</time>
      </trkpt>
      <trkpt lat="46.73715" lon="5.52959">
        <ele>248</ele>
        <time>2011-09-20T07:46:10Z</time>
      </trkpt>
      <trkpt lat="46.73704" lon="5.52948">
        <ele>248</ele>
        <time>2011-09-20T07:46:12Z</time>
      </trkpt>
      <trkpt lat="46.73695" lon="5.52936">
        <ele>248</ele>
        <time>2011-09-20T07:46:14Z</time>
      </trkpt>
      <trkpt lat="46.73685" lon="5.52926">
        <ele>248</ele>
        <time>2011-09-20T07:46:16Z</time>
      </trkpt>
      <trkpt lat="46.73675" lon="5.52916">
        <ele>248</ele>
        <time>2011-09-20T07:46:18Z</time>
      </trkpt>
      <trkpt lat="46.73665" lon="5.52905">
        <ele>248</ele>
        <time>2011-09-20T07:46:20Z</time>
      </trkpt>
      <trkpt lat="46.73656" lon="5.52893">
        <ele>248</ele>
        <time>2011-09-20T07:46:22Z</time>
      </trkpt>
      <trkpt lat="46.73645" lon="5.52882">
        <ele>248</ele>
        <time>2011-09-20T07:46:24Z</time>
      </trkpt>
      <trkpt lat="46.73635" lon="5.5287">
        <ele>248</ele>
        <time>2011-09-20T07:46:26Z</time>
      </trkpt>
      <trkpt lat="46.73624" lon="5.52859">
        <ele>248</ele>
        <time>2011-09-20T07:46:28Z</time>
      </trkpt>
      <trkpt lat="46.73614" lon="5.52848">
        <ele>248</ele>
        <time>2011-09-20T07:46:30Z</time>
      </trkpt>
      <trkpt lat="46.73602" lon="5.5284">
        <ele>248</ele>
        <time>2011-09-20T07:46:32Z</time>
      </trkpt>
      <trkpt lat="46.73591" lon="5.52837">
        <ele>248</ele>
        <time>2011-09-20T07:46:34Z</time>
      </trkpt>
      <trkpt lat="46.7358" lon="5.5284">
        <ele>248</ele>
        <time>2011-09-20T07:46:36Z</time>
      </trkpt>
      <trkpt lat="46.7357" lon="5.52848">
        <ele>248</ele>
        <time>2011-09-20T07:46:38Z</time>
      </trkpt>
      <trkpt lat="46.7356" lon="5.52856">
        <ele>248</ele>
        <time>2011-09-20T07:46:40Z</time>
      </trkpt>
      <trkpt lat="46.73552" lon="5.52865">
        <ele>248</ele>
        <time>2011-09-20T07:46:42Z</time>
      </trkpt>
      <trkpt lat="46.73543" lon="5.5287">
        <ele>248</ele>
        <time>2011-09-20T07:46:44Z</time>
      </trkpt>
      <trkpt lat="46.73532" lon="5.52873">
        <ele>248</ele>
        <time>2011-09-20T07:46:46Z</time>
      </trkpt>
      <trkpt lat="46.73522" lon="5.52873">
        <ele>248</ele>
        <time>2011-09-20T07:46:48Z</time>
      </trkpt>
      <trkpt lat="46.73513" lon="5.52868">
        <ele>248</ele>
        <time>2011-09-20T07:46:50Z</time>
      </trkpt>
      <trkpt lat="46.73504" lon="5.5286">
        <ele>248</ele>
        <time>2011-09-20T07:46:52Z</time>
      </trkpt>
      <trkpt lat="46.73496" lon="5.52851">
        <ele>248</ele>
        <time>2011-09-20T07:46:54Z</time>
      </trkpt>
      <trkpt lat="46.73488" lon="5.52841">
        <ele>248</ele>
        <time>2011-09-20T07:46:56Z</time>
      </trkpt>
      <trkpt lat="46.73481" lon="5.5283">
        <ele>248</ele>
        <time>2011-09-20T07:46:58Z</time>
      </trkpt>
      <trkpt lat="46.73473" lon="5.52821">
        <ele>248</ele>
        <time>2011-09-20T07:47:00Z</time>
      </trkpt>
      <trkpt lat="46.73464" lon="5.52812">
        <ele>248</ele>
        <time>2011-09-20T07:47:02Z</time>
      </trkpt>
      <trkpt lat="46.73456" lon="5.52803">
        <ele>248</ele>
        <time>2011-09-20T07:47:04Z</time>
      </trkpt>
      <trkpt lat="46.73448" lon="5.52793">
        <ele>248</ele>
        <time>2011-09-20T07:47:06Z</time>
      </trkpt>
      <trkpt lat="46.73439" lon="5.52784">
        <ele>248</ele>
        <time>2011-09-20T07:47:08Z</time>
      </trkpt>
      <trkpt lat="46.73431" lon="5.52774">
        <ele>248</ele>
        <time>2011-09-20T07:47:10Z</time>
      </trkpt>
      <trkpt lat="46.73423" lon="5.52766">
        <ele>248</ele>
        <time>2011-09-20T07:47:12Z</time>
      </trkpt>
      <trkpt lat="46.73415" lon="5.52758">
        <ele>248</ele>
        <time>2011-09-20T07:47:14Z</time>
      </trkpt>
      <trkpt lat="46.73405" lon="5.52751">
        <ele>248</ele>
        <time>2011-09-20T07:47:16Z</time>
      </trkpt>
      <trkpt lat="46.73397" lon="5.52744">
        <ele>248</ele>
        <time>2011-09-20T07:47:18Z</time>
      </trkpt>
      <trkpt lat="46.73387" lon="5.52738">
        <ele>248</ele>
        <time>2011-09-20T07:47:20Z</time>
      </trkpt>
      <trkpt lat="46.73377" lon="5.52732">
        <ele>248</ele>
        <time>2011-09-20T07:47:22Z</time>
      </trkpt>
      <trkpt lat="46.7337" lon="5.52724">
        <ele>248</ele>
        <time>2011-09-20T07:47:24Z</time>
      </trkpt>
      <trkpt lat="46.73362" lon="5.52717">
        <ele>248</ele>
        <time>2011-09-20T07:47:26Z</time>
      </trkpt>
      <trkpt lat="46.73361" lon="5.52698">
        <ele>248</ele>
        <time>2011-09-20T07:47:29Z</time>
      </trkpt>
      <trkpt lat="46.73366" lon="5.52683">
        <ele>248</ele>
        <time>2011-09-20T07:47:31Z</time>
      </trkpt>
      <trkpt lat="46.73375" lon="5.52666">
        <ele>253</ele>
        <time>2011-09-20T07:47:33Z</time>
      </trkpt>
      <trkpt lat="46.73383" lon="5.52651">
        <ele>253</ele>
        <time>2011-09-20T07:47:35Z</time>
      </trkpt>
      <trkpt lat="46.73391" lon="5.52635">
        <ele>253</ele>
        <time>2011-09-20T07:47:37Z</time>
      </trkpt>
      <trkpt lat="46.73399" lon="5.52618">
        <ele>253</ele>
        <time>2011-09-20T07:47:39Z</time>
      </trkpt>
      <trkpt lat="46.73407" lon="5.526">
        <ele>253</ele>
        <time>2011-09-20T07:47:41Z</time>
      </trkpt>
      <trkpt lat="46.73415" lon="5.52583">
        <ele>247</ele>
        <time>2011-09-20T07:47:43Z</time>
      </trkpt>
      <trkpt lat="46.73421" lon="5.52566">
        <ele>247</ele>
        <time>2011-09-20T07:47:45Z</time>
      </trkpt>
      <trkpt lat="46.73425" lon="5.52553">
        <ele>247</ele>
        <time>2011-09-20T07:47:47Z</time>
      </trkpt>
      <trkpt lat="46.73427" lon="5.52533">
        <ele>247</ele>
        <time>2011-09-20T07:47:50Z</time>
      </trkpt>
      <trkpt lat="46.73424" lon="5.5252">
        <ele>247</ele>
        <time>2011-09-20T07:47:52Z</time>
      </trkpt>
      <trkpt lat="46.73414" lon="5.52508">
        <ele>247</ele>
        <time>2011-09-20T07:47:55Z</time>
      </trkpt>
      <trkpt lat="46.73404" lon="5.52497">
        <ele>247</ele>
        <time>2011-09-20T07:47:58Z</time>
      </trkpt>
      <trkpt lat="46.73396" lon="5.52488">
        <ele>247</ele>
        <time>2011-09-20T07:48:00Z</time>
      </trkpt>
      <trkpt lat="46.73391" lon="5.52477">
        <ele>247</ele>
        <time>2011-09-20T07:48:02Z</time>
      </trkpt>
      <trkpt lat="46.73383" lon="5.52468">
        <ele>247</ele>
        <time>2011-09-20T07:48:04Z</time>
      </trkpt>
      <trkpt lat="46.73375" lon="5.5246">
        <ele>247</ele>
        <time>2011-09-20T07:48:06Z</time>
      </trkpt>
      <trkpt lat="46.73368" lon="5.52451">
        <ele>247</ele>
        <time>2011-09-20T07:48:08Z</time>
      </trkpt>
      <trkpt lat="46.73362" lon="5.52441">
        <ele>247</ele>
        <time>2011-09-20T07:48:10Z</time>
      </trkpt>
      <trkpt lat="46.73353" lon="5.52428">
        <ele>254</ele>
        <time>2011-09-20T07:48:13Z</time>
      </trkpt>
      <trkpt lat="46.73346" lon="5.52419">
        <ele>254</ele>
        <time>2011-09-20T07:48:15Z</time>
      </trkpt>
      <trkpt lat="46.73336" lon="5.52408">
        <ele>254</ele>
        <time>2011-09-20T07:48:18Z</time>
      </trkpt>
      <trkpt lat="46.73326" lon="5.52402">
        <ele>254</ele>
        <time>2011-09-20T07:48:20Z</time>
      </trkpt>
      <trkpt lat="46.73316" lon="5.52397">
        <ele>254</ele>
        <time>2011-09-20T07:48:22Z</time>
      </trkpt>
      <trkpt lat="46.73307" lon="5.52393">
        <ele>254</ele>
        <time>2011-09-20T07:48:24Z</time>
      </trkpt>
      <trkpt lat="46.73297" lon="5.52387">
        <ele>254</ele>
        <time>2011-09-20T07:48:26Z</time>
      </trkpt>
      <trkpt lat="46.73287" lon="5.52383">
        <ele>254</ele>
        <time>2011-09-20T07:48:28Z</time>
      </trkpt>
      <trkpt lat="46.73275" lon="5.52381">
        <ele>254</ele>
        <time>2011-09-20T07:48:30Z</time>
      </trkpt>
      <trkpt lat="46.73265" lon="5.52378">
        <ele>254</ele>
        <time>2011-09-20T07:48:32Z</time>
      </trkpt>
      <trkpt lat="46.73255" lon="5.52374">
        <ele>254</ele>
        <time>2011-09-20T07:48:34Z</time>
      </trkpt>
      <trkpt lat="46.73245" lon="5.5237">
        <ele>254</ele>
        <time>2011-09-20T07:48:36Z</time>
      </trkpt>
      <trkpt lat="46.73236" lon="5.52365">
        <ele>254</ele>
        <time>2011-09-20T07:48:38Z</time>
      </trkpt>
      <trkpt lat="46.73226" lon="5.52359">
        <ele>254</ele>
        <time>2011-09-20T07:48:40Z</time>
      </trkpt>
      <trkpt lat="46.73216" lon="5.52353">
        <ele>254</ele>
        <time>2011-09-20T07:48:42Z</time>
      </trkpt>
      <trkpt lat="46.73208" lon="5.52346">
        <ele>254</ele>
        <time>2011-09-20T07:48:44Z</time>
      </trkpt>
      <trkpt lat="46.732" lon="5.5234">
        <ele>254</ele>
        <time>2011-09-20T07:48:46Z</time>
      </trkpt>
      <trkpt lat="46.73191" lon="5.52335">
        <ele>254</ele>
        <time>2011-09-20T07:48:48Z</time>
      </trkpt>
      <trkpt lat="46.73182" lon="5.52329">
        <ele>254</ele>
        <time>2011-09-20T07:48:50Z</time>
      </trkpt>
      <trkpt lat="46.73173" lon="5.52325">
        <ele>254</ele>
        <time>2011-09-20T07:48:52Z</time>
      </trkpt>
      <trkpt lat="46.73163" lon="5.52321">
        <ele>254</ele>
        <time>2011-09-20T07:48:54Z</time>
      </trkpt>
      <trkpt lat="46.73153" lon="5.52319">
        <ele>254</ele>
        <time>2011-09-20T07:48:56Z</time>
      </trkpt>
      <trkpt lat="46.73144" lon="5.52318">
        <ele>254</ele>
        <time>2011-09-20T07:48:58Z</time>
      </trkpt>
      <trkpt lat="46.73134" lon="5.52319">
        <ele>254</ele>
        <time>2011-09-20T07:49:00Z</time>
      </trkpt>
      <trkpt lat="46.73124" lon="5.52321">
        <ele>254</ele>
        <time>2011-09-20T07:49:02Z</time>
      </trkpt>
      <trkpt lat="46.73111" lon="5.52324">
        <ele>254</ele>
        <time>2011-09-20T07:49:05Z</time>
      </trkpt>
      <trkpt lat="46.73102" lon="5.52327">
        <ele>254</ele>
        <time>2011-09-20T07:49:07Z</time>
      </trkpt>
      <trkpt lat="46.73089" lon="5.5233">
        <ele>254</ele>
        <time>2011-09-20T07:49:10Z</time>
      </trkpt>
      <trkpt lat="46.7308" lon="5.52334">
        <ele>254</ele>
        <time>2011-09-20T07:49:12Z</time>
      </trkpt>
      <trkpt lat="46.73067" lon="5.52337">
        <ele>254</ele>
        <time>2011-09-20T07:49:15Z</time>
      </trkpt>
      <trkpt lat="46.73054" lon="5.52342">
        <ele>254</ele>
        <time>2011-09-20T07:49:18Z</time>
      </trkpt>
      <trkpt lat="46.73045" lon="5.52344">
        <ele>254</ele>
        <time>2011-09-20T07:49:20Z</time>
      </trkpt>
      <trkpt lat="46.73032" lon="5.52348">
        <ele>254</ele>
        <time>2011-09-20T07:49:23Z</time>
      </trkpt>
      <trkpt lat="46.73019" lon="5.52353">
        <ele>254</ele>
        <time>2011-09-20T07:49:26Z</time>
      </trkpt>
      <trkpt lat="46.7301" lon="5.52355">
        <ele>254</ele>
        <time>2011-09-20T07:49:28Z</time>
      </trkpt>
      <trkpt lat="46.73" lon="5.52358">
        <ele>254</ele>
        <time>2011-09-20T07:49:30Z</time>
      </trkpt>
      <trkpt lat="46.72991" lon="5.52361">
        <ele>254</ele>
        <time>2011-09-20T07:49:32Z</time>
      </trkpt>
      <trkpt lat="46.72979" lon="5.52365">
        <ele>254</ele>
        <time>2011-09-20T07:49:35Z</time>
      </trkpt>
      <trkpt lat="46.72969" lon="5.52368">
        <ele>254</ele>
        <time>2011-09-20T07:49:37Z</time>
      </trkpt>
      <trkpt lat="46.7296" lon="5.52371">
        <ele>259</ele>
        <time>2011-09-20T07:49:39Z</time>
      </trkpt>
      <trkpt lat="46.72947" lon="5.52375">
        <ele>259</ele>
        <time>2011-09-20T07:49:42Z</time>
      </trkpt>
      <trkpt lat="46.72935" lon="5.52379">
        <ele>259</ele>
        <time>2011-09-20T07:49:45Z</time>
      </trkpt>
      <trkpt lat="46.72922" lon="5.52382">
        <ele>259</ele>
        <time>2011-09-20T07:49:48Z</time>
      </trkpt>
      <trkpt lat="46.72913" lon="5.52386">
        <ele>259</ele>
        <time>2011-09-20T07:49:50Z</time>
      </trkpt>
      <trkpt lat="46.72904" lon="5.52388">
        <ele>259</ele>
        <time>2011-09-20T07:49:52Z</time>
      </trkpt>
      <trkpt lat="46.72892" lon="5.52393">
        <ele>259</ele>
        <time>2011-09-20T07:49:55Z</time>
      </trkpt>
      <trkpt lat="46.72879" lon="5.52397">
        <ele>259</ele>
        <time>2011-09-20T07:49:58Z</time>
      </trkpt>
      <trkpt lat="46.72869" lon="5.524">
        <ele>259</ele>
        <time>2011-09-20T07:50:00Z</time>
      </trkpt>
      <trkpt lat="46.72856" lon="5.52404">
        <ele>264</ele>
        <time>2011-09-20T07:50:03Z</time>
      </trkpt>
      <trkpt lat="46.72843" lon="5.52408">
        <ele>264</ele>
        <time>2011-09-20T07:50:06Z</time>
      </trkpt>
      <trkpt lat="46.72831" lon="5.52413">
        <ele>264</ele>
        <time>2011-09-20T07:50:09Z</time>
      </trkpt>
      <trkpt lat="46.72819" lon="5.52417">
        <ele>264</ele>
        <time>2011-09-20T07:50:12Z</time>
      </trkpt>
      <trkpt lat="46.72806" lon="5.52422">
        <ele>264</ele>
        <time>2011-09-20T07:50:15Z</time>
      </trkpt>
      <trkpt lat="46.72793" lon="5.52426">
        <ele>264</ele>
        <time>2011-09-20T07:50:18Z</time>
      </trkpt>
      <trkpt lat="46.72784" lon="5.52429">
        <ele>264</ele>
        <time>2011-09-20T07:50:20Z</time>
      </trkpt>
      <trkpt lat="46.72775" lon="5.52431">
        <ele>264</ele>
        <time>2011-09-20T07:50:22Z</time>
      </trkpt>
      <trkpt lat="46.72761" lon="5.52433">
        <ele>264</ele>
        <time>2011-09-20T07:50:25Z</time>
      </trkpt>
      <trkpt lat="46.72752" lon="5.52433">
        <ele>264</ele>
        <time>2011-09-20T07:50:27Z</time>
      </trkpt>
      <trkpt lat="46.72741" lon="5.52434">
        <ele>264</ele>
        <time>2011-09-20T07:50:29Z</time>
      </trkpt>
      <trkpt lat="46.72732" lon="5.52433">
        <ele>264</ele>
        <time>2011-09-20T07:50:31Z</time>
      </trkpt>
      <trkpt lat="46.72722" lon="5.52432">
        <ele>264</ele>
        <time>2011-09-20T07:50:33Z</time>
      </trkpt>
      <trkpt lat="46.72709" lon="5.52427">
        <ele>264</ele>
        <time>2011-09-20T07:50:36Z</time>
      </trkpt>
      <trkpt lat="46.72698" lon="5.52421">
        <ele>270</ele>
        <time>2011-09-20T07:50:39Z</time>
      </trkpt>
      <trkpt lat="46.72684" lon="5.52417">
        <ele>270</ele>
        <time>2011-09-20T07:50:42Z</time>
      </trkpt>
      <trkpt lat="46.72672" lon="5.52409">
        <ele>270</ele>
        <time>2011-09-20T07:50:45Z</time>
      </trkpt>
      <trkpt lat="46.72659" lon="5.52401">
        <ele>270</ele>
        <time>2011-09-20T07:50:48Z</time>
      </trkpt>
      <trkpt lat="46.72651" lon="5.52394">
        <ele>270</ele>
        <time>2011-09-20T07:50:50Z</time>
      </trkpt>
      <trkpt lat="46.72642" lon="5.52388">
        <ele>270</ele>
        <time>2011-09-20T07:50:52Z</time>
      </trkpt>
      <trkpt lat="46.72633" lon="5.52381">
        <ele>270</ele>
        <time>2011-09-20T07:50:54Z</time>
      </trkpt>
      <trkpt lat="46.72625" lon="5.52377">
        <ele>270</ele>
        <time>2011-09-20T07:50:56Z</time>
      </trkpt>
      <trkpt lat="46.72615" lon="5.52372">
        <ele>270</ele>
        <time>2011-09-20T07:50:58Z</time>
      </trkpt>
      <trkpt lat="46.72607" lon="5.52369">
        <ele>270</ele>
        <time>2011-09-20T07:51:00Z</time>
      </trkpt>
      <trkpt lat="46.72598" lon="5.52365">
        <ele>270</ele>
        <time>2011-09-20T07:51:02Z</time>
      </trkpt>
      <trkpt lat="46.72589" lon="5.52363">
        <ele>270</ele>
        <time>2011-09-20T07:51:04Z</time>
      </trkpt>
      <trkpt lat="46.72579" lon="5.52363">
        <ele>270</ele>
        <time>2011-09-20T07:51:06Z</time>
      </trkpt>
      <trkpt lat="46.72565" lon="5.52362">
        <ele>270</ele>
        <time>2011-09-20T07:51:09Z</time>
      </trkpt>
      <trkpt lat="46.72556" lon="5.52363">
        <ele>270</ele>
        <time>2011-09-20T07:51:11Z</time>
      </trkpt>
      <trkpt lat="46.72546" lon="5.52364">
        <ele>270</ele>
        <time>2011-09-20T07:51:13Z</time>
      </trkpt>
      <trkpt lat="46.72536" lon="5.52364">
        <ele>270</ele>
        <time>2011-09-20T07:51:15Z</time>
      </trkpt>
      <trkpt lat="46.72526" lon="5.52365">
        <ele>270</ele>
        <time>2011-09-20T07:51:17Z</time>
      </trkpt>
      <trkpt lat="46.72517" lon="5.52365">
        <ele>270</ele>
        <time>2011-09-20T07:51:19Z</time>
      </trkpt>
      <trkpt lat="46.72507" lon="5.52365">
        <ele>270</ele>
        <time>2011-09-20T07:51:21Z</time>
      </trkpt>
      <trkpt lat="46.72497" lon="5.52366">
        <ele>270</ele>
        <time>2011-09-20T07:51:23Z</time>
      </trkpt>
      <trkpt lat="46.72484" lon="5.52367">
        <ele>270</ele>
        <time>2011-09-20T07:51:26Z</time>
      </trkpt>
      <trkpt lat="46.72471" lon="5.52369">
        <ele>270</ele>
        <time>2011-09-20T07:51:29Z</time>
      </trkpt>
      <trkpt lat="46.72461" lon="5.52371">
        <ele>270</ele>
        <time>2011-09-20T07:51:31Z</time>
      </trkpt>
      <trkpt lat="46.72452" lon="5.52372">
        <ele>270</ele>
        <time>2011-09-20T07:51:33Z</time>
      </trkpt>
      <trkpt lat="46.72442" lon="5.52375">
        <ele>270</ele>
        <time>2011-09-20T07:51:35Z</time>
      </trkpt>
      <trkpt lat="46.72428" lon="5.52379">
        <ele>276</ele>
        <time>2011-09-20T07:51:38Z</time>
      </trkpt>
      <trkpt lat="46.72418" lon="5.52383">
        <ele>276</ele>
        <time>2011-09-20T07:51:40Z</time>
      </trkpt>
      <trkpt lat="46.72409" lon="5.52387">
        <ele>276</ele>
        <time>2011-09-20T07:51:42Z</time>
      </trkpt>
      <trkpt lat="46.72396" lon="5.52388">
        <ele>276</ele>
        <time>2011-09-20T07:51:45Z</time>
      </trkpt>
      <trkpt lat="46.72386" lon="5.5239">
        <ele>276</ele>
        <time>2011-09-20T07:51:47Z</time>
      </trkpt>
      <trkpt lat="46.72376" lon="5.52393">
        <ele>276</ele>
        <time>2011-09-20T07:51:49Z</time>
      </trkpt>
      <trkpt lat="46.72366" lon="5.52395">
        <ele>276</ele>
        <time>2011-09-20T07:51:51Z</time>
      </trkpt>
      <trkpt lat="46.72357" lon="5.52398">
        <ele>276</ele>
        <time>2011-09-20T07:51:53Z</time>
      </trkpt>
      <trkpt lat="46.72347" lon="5.52401">
        <ele>276</ele>
        <time>2011-09-20T07:51:55Z</time>
      </trkpt>
      <trkpt lat="46.72337" lon="5.52404">
        <ele>276</ele>
        <time>2011-09-20T07:51:57Z</time>
      </trkpt>
      <trkpt lat="46.72326" lon="5.52407">
        <ele>276</ele>
        <time>2011-09-20T07:51:59Z</time>
      </trkpt>
      <trkpt lat="46.72316" lon="5.5241">
        <ele>276</ele>
        <time>2011-09-20T07:52:01Z</time>
      </trkpt>
      <trkpt lat="46.72307" lon="5.52413">
        <ele>276</ele>
        <time>2011-09-20T07:52:03Z</time>
      </trkpt>
      <trkpt lat="46.72296" lon="5.52415">
        <ele>276</ele>
        <time>2011-09-20T07:52:05Z</time>
      </trkpt>
      <trkpt lat="46.72282" lon="5.52416">
        <ele>276</ele>
        <time>2011-09-20T07:52:07Z</time>
      </trkpt>
      <trkpt lat="46.7227" lon="5.52418">
        <ele>276</ele>
        <time>2011-09-20T07:52:09Z</time>
      </trkpt>
      <trkpt lat="46.7226" lon="5.52419">
        <ele>276</ele>
        <time>2011-09-20T07:52:11Z</time>
      </trkpt>
      <trkpt lat="46.72249" lon="5.52417">
        <ele>276</ele>
        <time>2011-09-20T07:52:13Z</time>
      </trkpt>
      <trkpt lat="46.72237" lon="5.52416">
        <ele>276</ele>
        <time>2011-09-20T07:52:15Z</time>
      </trkpt>
      <trkpt lat="46.72227" lon="5.52415">
        <ele>276</ele>
        <time>2011-09-20T07:52:17Z</time>
      </trkpt>
      <trkpt lat="46.72218" lon="5.52413">
        <ele>276</ele>
        <time>2011-09-20T07:52:19Z</time>
      </trkpt>
      <trkpt lat="46.72206" lon="5.52414">
        <ele>276</ele>
        <time>2011-09-20T07:52:21Z</time>
      </trkpt>
      <trkpt lat="46.72194" lon="5.52412">
        <ele>276</ele>
        <time>2011-09-20T07:52:23Z</time>
      </trkpt>
      <trkpt lat="46.72179" lon="5.52411">
        <ele>276</ele>
        <time>2011-09-20T07:52:25Z</time>
      </trkpt>
      <trkpt lat="46.72166" lon="5.52411">
        <ele>276</ele>
        <time>2011-09-20T07:52:27Z</time>
      </trkpt>
      <trkpt lat="46.72153" lon="5.52414">
        <ele>276</ele>
        <time>2011-09-20T07:52:29Z</time>
      </trkpt>
      <trkpt lat="46.72137" lon="5.52414">
        <ele>276</ele>
        <time>2011-09-20T07:52:31Z</time>
      </trkpt>
      <trkpt lat="46.72127" lon="5.52413">
        <ele>276</ele>
        <time>2011-09-20T07:52:32Z</time>
      </trkpt>
      <trkpt lat="46.72111" lon="5.52414">
        <ele>276</ele>
        <time>2011-09-20T07:52:34Z</time>
      </trkpt>
      <trkpt lat="46.72095" lon="5.52415">
        <ele>271</ele>
        <time>2011-09-20T07:52:36Z</time>
      </trkpt>
      <trkpt lat="46.72085" lon="5.52416">
        <ele>271</ele>
        <time>2011-09-20T07:52:37Z</time>
      </trkpt>
      <trkpt lat="46.72074" lon="5.52417">
        <ele>271</ele>
        <time>2011-09-20T07:52:38Z</time>
      </trkpt>
      <trkpt lat="46.72064" lon="5.52418">
        <ele>271</ele>
        <time>2011-09-20T07:52:39Z</time>
      </trkpt>
      <trkpt lat="46.72054" lon="5.52419">
        <ele>271</ele>
        <time>2011-09-20T07:52:40Z</time>
      </trkpt>
      <trkpt lat="46.72043" lon="5.5242">
        <ele>266</ele>
        <time>2011-09-20T07:52:41Z</time>
      </trkpt>
      <trkpt lat="46.72034" lon="5.52421">
        <ele>266</ele>
        <time>2011-09-20T07:52:42Z</time>
      </trkpt>
      <trkpt lat="46.72023" lon="5.52423">
        <ele>266</ele>
        <time>2011-09-20T07:52:43Z</time>
      </trkpt>
      <trkpt lat="46.72014" lon="5.52425">
        <ele>266</ele>
        <time>2011-09-20T07:52:44Z</time>
      </trkpt>
      <trkpt lat="46.71998" lon="5.52435">
        <ele>266</ele>
        <time>2011-09-20T07:52:46Z</time>
      </trkpt>
      <trkpt lat="46.71988" lon="5.52446">
        <ele>266</ele>
        <time>2011-09-20T07:52:48Z</time>
      </trkpt>
      <trkpt lat="46.71981" lon="5.52455">
        <ele>266</ele>
        <time>2011-09-20T07:52:50Z</time>
      </trkpt>
      <trkpt lat="46.71972" lon="5.52459">
        <ele>266</ele>
        <time>2011-09-20T07:52:55Z</time>
      </trkpt>
      <trkpt lat="46.71965" lon="5.52468">
        <ele>260</ele>
        <time>2011-09-20T07:54:04Z</time>
      </trkpt>
      <trkpt lat="46.71961" lon="5.52485">
        <ele>260</ele>
        <time>2011-09-20T07:54:08Z</time>
      </trkpt>
      <trkpt lat="46.71955" lon="5.52501">
        <ele>260</ele>
        <time>2011-09-20T07:54:11Z</time>
      </trkpt>
      <trkpt lat="46.71947" lon="5.52518">
        <ele>260</ele>
        <time>2011-09-20T07:54:14Z</time>
      </trkpt>
      <trkpt lat="46.7194" lon="5.5253">
        <ele>260</ele>
        <time>2011-09-20T07:54:16Z</time>
      </trkpt>
      <trkpt lat="46.71932" lon="5.52541">
        <ele>260</ele>
        <time>2011-09-20T07:54:18Z</time>
      </trkpt>
      <trkpt lat="46.71924" lon="5.52553">
        <ele>260</ele>
        <time>2011-09-20T07:54:20Z</time>
      </trkpt>
      <trkpt lat="46.71917" lon="5.52565">
        <ele>260</ele>
        <time>2011-09-20T07:54:22Z</time>
      </trkpt>
      <trkpt lat="46.71911" lon="5.52577">
        <ele>260</ele>
        <time>2011-09-20T07:54:24Z</time>
      </trkpt>
      <trkpt lat="46.71904" lon="5.5259">
        <ele>265</ele>
        <time>2011-09-20T07:54:26Z</time>
      </trkpt>
      <trkpt lat="46.71899" lon="5.52602">
        <ele>265</ele>
        <time>2011-09-20T07:54:28Z</time>
      </trkpt>
      <trkpt lat="46.71894" lon="5.52615">
        <ele>265</ele>
        <time>2011-09-20T07:54:30Z</time>
      </trkpt>
      <trkpt lat="46.71889" lon="5.52633">
        <ele>274</ele>
        <time>2011-09-20T07:54:33Z</time>
      </trkpt>
      <trkpt lat="46.71883" lon="5.52651">
        <ele>274</ele>
        <time>2011-09-20T07:54:36Z</time>
      </trkpt>
      <trkpt lat="46.71879" lon="5.52664">
        <ele>274</ele>
        <time>2011-09-20T07:54:38Z</time>
      </trkpt>
      <trkpt lat="46.71875" lon="5.52677">
        <ele>274</ele>
        <time>2011-09-20T07:54:40Z</time>
      </trkpt>
      <trkpt lat="46.71869" lon="5.52697">
        <ele>274</ele>
        <time>2011-09-20T07:54:43Z</time>
      </trkpt>
      <trkpt lat="46.71866" lon="5.52716">
        <ele>281</ele>
        <time>2011-09-20T07:54:46Z</time>
      </trkpt>
      <trkpt lat="46.71856" lon="5.52733">
        <ele>275</ele>
        <time>2011-09-20T07:54:48Z</time>
      </trkpt>
      <trkpt lat="46.71849" lon="5.5275">
        <ele>275</ele>
        <time>2011-09-20T07:54:50Z</time>
      </trkpt>
      <trkpt lat="46.71844" lon="5.52764">
        <ele>269</ele>
        <time>2011-09-20T07:54:52Z</time>
      </trkpt>
      <trkpt lat="46.7184" lon="5.52777">
        <ele>269</ele>
        <time>2011-09-20T07:54:54Z</time>
      </trkpt>
      <trkpt lat="46.71836" lon="5.52792">
        <ele>269</ele>
        <time>2011-09-20T07:54:56Z</time>
      </trkpt>
      <trkpt lat="46.71835" lon="5.52806">
        <ele>269</ele>
        <time>2011-09-20T07:54:58Z</time>
      </trkpt>
      <trkpt lat="46.71833" lon="5.52821">
        <ele>269</ele>
        <time>2011-09-20T07:55:00Z</time>
      </trkpt>
      <trkpt lat="46.7183" lon="5.52834">
        <ele>269</ele>
        <time>2011-09-20T07:55:02Z</time>
      </trkpt>
      <trkpt lat="46.71827" lon="5.52848">
        <ele>269</ele>
        <time>2011-09-20T07:55:04Z</time>
      </trkpt>
      <trkpt lat="46.71825" lon="5.5286">
        <ele>269</ele>
        <time>2011-09-20T07:55:06Z</time>
      </trkpt>
      <trkpt lat="46.71822" lon="5.52874">
        <ele>269</ele>
        <time>2011-09-20T07:55:08Z</time>
      </trkpt>
      <trkpt lat="46.71819" lon="5.52888">
        <ele>269</ele>
        <time>2011-09-20T07:55:10Z</time>
      </trkpt>
      <trkpt lat="46.71815" lon="5.52902">
        <ele>269</ele>
        <time>2011-09-20T07:55:12Z</time>
      </trkpt>
      <trkpt lat="46.71812" lon="5.52915">
        <ele>269</ele>
        <time>2011-09-20T07:55:14Z</time>
      </trkpt>
      <trkpt lat="46.7181" lon="5.52929">
        <ele>269</ele>
        <time>2011-09-20T07:55:16Z</time>
      </trkpt>
      <trkpt lat="46.71807" lon="5.52943">
        <ele>269</ele>
        <time>2011-09-20T07:55:18Z</time>
      </trkpt>
      <trkpt lat="46.71804" lon="5.52957">
        <ele>269</ele>
        <time>2011-09-20T07:55:20Z</time>
      </trkpt>
      <trkpt lat="46.71801" lon="5.52971">
        <ele>269</ele>
        <time>2011-09-20T07:55:22Z</time>
      </trkpt>
      <trkpt lat="46.71798" lon="5.52984">
        <ele>269</ele>
        <time>2011-09-20T07:55:24Z</time>
      </trkpt>
      <trkpt lat="46.71794" lon="5.52998">
        <ele>269</ele>
        <time>2011-09-20T07:55:26Z</time>
      </trkpt>
      <trkpt lat="46.71791" lon="5.53016">
        <ele>269</ele>
        <time>2011-09-20T07:55:29Z</time>
      </trkpt>
      <trkpt lat="46.71788" lon="5.5303">
        <ele>269</ele>
        <time>2011-09-20T07:55:31Z</time>
      </trkpt>
      <trkpt lat="46.71786" lon="5.53044">
        <ele>269</ele>
        <time>2011-09-20T07:55:33Z</time>
      </trkpt>
      <trkpt lat="46.71783" lon="5.53058">
        <ele>269</ele>
        <time>2011-09-20T07:55:35Z</time>
      </trkpt>
      <trkpt lat="46.71781" lon="5.53072">
        <ele>269</ele>
        <time>2011-09-20T07:55:37Z</time>
      </trkpt>
      <trkpt lat="46.71778" lon="5.53086">
        <ele>269</ele>
        <time>2011-09-20T07:55:39Z</time>
      </trkpt>
      <trkpt lat="46.71775" lon="5.531">
        <ele>269</ele>
        <time>2011-09-20T07:55:41Z</time>
      </trkpt>
      <trkpt lat="46.71773" lon="5.53115">
        <ele>269</ele>
        <time>2011-09-20T07:55:43Z</time>
      </trkpt>
      <trkpt lat="46.7177" lon="5.5313">
        <ele>269</ele>
        <time>2011-09-20T07:55:45Z</time>
      </trkpt>
      <trkpt lat="46.71766" lon="5.53145">
        <ele>269</ele>
        <time>2011-09-20T07:55:47Z</time>
      </trkpt>
      <trkpt lat="46.71762" lon="5.5316">
        <ele>269</ele>
        <time>2011-09-20T07:55:49Z</time>
      </trkpt>
      <trkpt lat="46.71757" lon="5.53175">
        <ele>269</ele>
        <time>2011-09-20T07:55:51Z</time>
      </trkpt>
      <trkpt lat="46.71752" lon="5.53189">
        <ele>269</ele>
        <time>2011-09-20T07:55:53Z</time>
      </trkpt>
      <trkpt lat="46.71747" lon="5.53203">
        <ele>269</ele>
        <time>2011-09-20T07:55:55Z</time>
      </trkpt>
      <trkpt lat="46.71743" lon="5.53218">
        <ele>269</ele>
        <time>2011-09-20T07:55:57Z</time>
      </trkpt>
      <trkpt lat="46.71738" lon="5.53232">
        <ele>269</ele>
        <time>2011-09-20T07:55:59Z</time>
      </trkpt>
      <trkpt lat="46.71733" lon="5.53245">
        <ele>269</ele>
        <time>2011-09-20T07:56:01Z</time>
      </trkpt>
      <trkpt lat="46.71728" lon="5.53259">
        <ele>269</ele>
        <time>2011-09-20T07:56:03Z</time>
      </trkpt>
      <trkpt lat="46.71724" lon="5.53273">
        <ele>269</ele>
        <time>2011-09-20T07:56:05Z</time>
      </trkpt>
      <trkpt lat="46.7172" lon="5.53287">
        <ele>269</ele>
        <time>2011-09-20T07:56:07Z</time>
      </trkpt>
      <trkpt lat="46.71715" lon="5.53299">
        <ele>269</ele>
        <time>2011-09-20T07:56:09Z</time>
      </trkpt>
      <trkpt lat="46.71712" lon="5.53313">
        <ele>269</ele>
        <time>2011-09-20T07:56:11Z</time>
      </trkpt>
      <trkpt lat="46.71708" lon="5.53325">
        <ele>269</ele>
        <time>2011-09-20T07:56:13Z</time>
      </trkpt>
      <trkpt lat="46.71704" lon="5.53338">
        <ele>269</ele>
        <time>2011-09-20T07:56:15Z</time>
      </trkpt>
      <trkpt lat="46.71701" lon="5.53351">
        <ele>269</ele>
        <time>2011-09-20T07:56:17Z</time>
      </trkpt>
      <trkpt lat="46.71697" lon="5.53365">
        <ele>269</ele>
        <time>2011-09-20T07:56:19Z</time>
      </trkpt>
      <trkpt lat="46.71693" lon="5.53378">
        <ele>269</ele>
        <time>2011-09-20T07:56:21Z</time>
      </trkpt>
      <trkpt lat="46.71689" lon="5.53391">
        <ele>269</ele>
        <time>2011-09-20T07:56:23Z</time>
      </trkpt>
      <trkpt lat="46.71686" lon="5.53404">
        <ele>269</ele>
        <time>2011-09-20T07:56:25Z</time>
      </trkpt>
      <trkpt lat="46.71682" lon="5.53417">
        <ele>269</ele>
        <time>2011-09-20T07:56:27Z</time>
      </trkpt>
      <trkpt lat="46.71676" lon="5.53429">
        <ele>269</ele>
        <time>2011-09-20T07:56:29Z</time>
      </trkpt>
      <trkpt lat="46.71671" lon="5.53441">
        <ele>269</ele>
        <time>2011-09-20T07:56:31Z</time>
      </trkpt>
      <trkpt lat="46.71662" lon="5.53457">
        <ele>269</ele>
        <time>2011-09-20T07:56:34Z</time>
      </trkpt>
      <trkpt lat="46.71654" lon="5.53466">
        <ele>275</ele>
        <time>2011-09-20T07:56:36Z</time>
      </trkpt>
      <trkpt lat="46.71645" lon="5.53474">
        <ele>275</ele>
        <time>2011-09-20T07:56:38Z</time>
      </trkpt>
      <trkpt lat="46.71636" lon="5.53481">
        <ele>275</ele>
        <time>2011-09-20T07:56:40Z</time>
      </trkpt>
      <trkpt lat="46.71626" lon="5.53488">
        <ele>275</ele>
        <time>2011-09-20T07:56:42Z</time>
      </trkpt>
      <trkpt lat="46.71616" lon="5.53493">
        <ele>275</ele>
        <time>2011-09-20T07:56:44Z</time>
      </trkpt>
      <trkpt lat="46.71607" lon="5.535">
        <ele>275</ele>
        <time>2011-09-20T07:56:46Z</time>
      </trkpt>
      <trkpt lat="46.71597" lon="5.53506">
        <ele>275</ele>
        <time>2011-09-20T07:56:48Z</time>
      </trkpt>
      <trkpt lat="46.71587" lon="5.53512">
        <ele>275</ele>
        <time>2011-09-20T07:56:50Z</time>
      </trkpt>
      <trkpt lat="46.71577" lon="5.53518">
        <ele>280</ele>
        <time>2011-09-20T07:56:52Z</time>
      </trkpt>
      <trkpt lat="46.71567" lon="5.53524">
        <ele>280</ele>
        <time>2011-09-20T07:56:54Z</time>
      </trkpt>
      <trkpt lat="46.71558" lon="5.5353">
        <ele>280</ele>
        <time>2011-09-20T07:56:56Z</time>
      </trkpt>
      <trkpt lat="46.71549" lon="5.53536">
        <ele>280</ele>
        <time>2011-09-20T07:56:58Z</time>
      </trkpt>
      <trkpt lat="46.71539" lon="5.53543">
        <ele>280</ele>
        <time>2011-09-20T07:57:00Z</time>
      </trkpt>
      <trkpt lat="46.7153" lon="5.53552">
        <ele>280</ele>
        <time>2011-09-20T07:57:02Z</time>
      </trkpt>
      <trkpt lat="46.71521" lon="5.53561">
        <ele>280</ele>
        <time>2011-09-20T07:57:04Z</time>
      </trkpt>
      <trkpt lat="46.71512" lon="5.5357">
        <ele>280</ele>
        <time>2011-09-20T07:57:06Z</time>
      </trkpt>
      <trkpt lat="46.71504" lon="5.5358">
        <ele>280</ele>
        <time>2011-09-20T07:57:08Z</time>
      </trkpt>
      <trkpt lat="46.71495" lon="5.53589">
        <ele>280</ele>
        <time>2011-09-20T07:57:10Z</time>
      </trkpt>
      <trkpt lat="46.71487" lon="5.53598">
        <ele>280</ele>
        <time>2011-09-20T07:57:12Z</time>
      </trkpt>
      <trkpt lat="46.71478" lon="5.53606">
        <ele>280</ele>
        <time>2011-09-20T07:57:14Z</time>
      </trkpt>
      <trkpt lat="46.71469" lon="5.53615">
        <ele>280</ele>
        <time>2011-09-20T07:57:16Z</time>
      </trkpt>
      <trkpt lat="46.71461" lon="5.53624">
        <ele>280</ele>
        <time>2011-09-20T07:57:18Z</time>
      </trkpt>
      <trkpt lat="46.71453" lon="5.53633">
        <ele>280</ele>
        <time>2011-09-20T07:57:20Z</time>
      </trkpt>
      <trkpt lat="46.71445" lon="5.53643">
        <ele>280</ele>
        <time>2011-09-20T07:57:22Z</time>
      </trkpt>
      <trkpt lat="46.71437" lon="5.53652">
        <ele>280</ele>
        <time>2011-09-20T07:57:24Z</time>
      </trkpt>
      <trkpt lat="46.71427" lon="5.53661">
        <ele>280</ele>
        <time>2011-09-20T07:57:26Z</time>
      </trkpt>
      <trkpt lat="46.71419" lon="5.53667">
        <ele>280</ele>
        <time>2011-09-20T07:57:28Z</time>
      </trkpt>
      <trkpt lat="46.7141" lon="5.53672">
        <ele>280</ele>
        <time>2011-09-20T07:57:30Z</time>
      </trkpt>
      <trkpt lat="46.71401" lon="5.53676">
        <ele>280</ele>
        <time>2011-09-20T07:57:32Z</time>
      </trkpt>
      <trkpt lat="46.71392" lon="5.53678">
        <ele>280</ele>
        <time>2011-09-20T07:57:34Z</time>
      </trkpt>
      <trkpt lat="46.71378" lon="5.53681">
        <ele>280</ele>
        <time>2011-09-20T07:57:37Z</time>
      </trkpt>
      <trkpt lat="46.71364" lon="5.53685">
        <ele>280</ele>
        <time>2011-09-20T07:57:40Z</time>
      </trkpt>
      <trkpt lat="46.71355" lon="5.53687">
        <ele>280</ele>
        <time>2011-09-20T07:57:42Z</time>
      </trkpt>
      <trkpt lat="46.71346" lon="5.53688">
        <ele>280</ele>
        <time>2011-09-20T07:57:44Z</time>
      </trkpt>
      <trkpt lat="46.71336" lon="5.53689">
        <ele>280</ele>
        <time>2011-09-20T07:57:46Z</time>
      </trkpt>
      <trkpt lat="46.71327" lon="5.53692">
        <ele>280</ele>
        <time>2011-09-20T07:57:48Z</time>
      </trkpt>
      <trkpt lat="46.71317" lon="5.53695">
        <ele>285</ele>
        <time>2011-09-20T07:57:50Z</time>
      </trkpt>
      <trkpt lat="46.71308" lon="5.53696">
        <ele>285</ele>
        <time>2011-09-20T07:57:52Z</time>
      </trkpt>
      <trkpt lat="46.71299" lon="5.53698">
        <ele>285</ele>
        <time>2011-09-20T07:57:54Z</time>
      </trkpt>
      <trkpt lat="46.7129" lon="5.53701">
        <ele>285</ele>
        <time>2011-09-20T07:57:56Z</time>
      </trkpt>
      <trkpt lat="46.71277" lon="5.53705">
        <ele>285</ele>
        <time>2011-09-20T07:57:59Z</time>
      </trkpt>
      <trkpt lat="46.71264" lon="5.53711">
        <ele>285</ele>
        <time>2011-09-20T07:58:02Z</time>
      </trkpt>
      <trkpt lat="46.71252" lon="5.53719">
        <ele>285</ele>
        <time>2011-09-20T07:58:05Z</time>
      </trkpt>
      <trkpt lat="46.7124" lon="5.53725">
        <ele>291</ele>
        <time>2011-09-20T07:58:08Z</time>
      </trkpt>
      <trkpt lat="46.7123" lon="5.53722">
        <ele>291</ele>
        <time>2011-09-20T07:58:10Z</time>
      </trkpt>
      <trkpt lat="46.71222" lon="5.53708">
        <ele>291</ele>
        <time>2011-09-20T07:58:13Z</time>
      </trkpt>
      <trkpt lat="46.71212" lon="5.537">
        <ele>291</ele>
        <time>2011-09-20T07:58:16Z</time>
      </trkpt>
      <trkpt lat="46.71206" lon="5.53687">
        <ele>291</ele>
        <time>2011-09-20T07:58:19Z</time>
      </trkpt>
      <trkpt lat="46.71197" lon="5.53674">
        <ele>291</ele>
        <time>2011-09-20T07:58:22Z</time>
      </trkpt>
      <trkpt lat="46.7119" lon="5.53663">
        <ele>291</ele>
        <time>2011-09-20T07:58:25Z</time>
      </trkpt>
      <trkpt lat="46.7118" lon="5.53654">
        <ele>291</ele>
        <time>2011-09-20T07:58:28Z</time>
      </trkpt>
      <trkpt lat="46.71172" lon="5.53643">
        <ele>291</ele>
        <time>2011-09-20T07:58:31Z</time>
      </trkpt>
      <trkpt lat="46.71162" lon="5.53635">
        <ele>291</ele>
        <time>2011-09-20T07:58:34Z</time>
      </trkpt>
      <trkpt lat="46.71152" lon="5.53625">
        <ele>291</ele>
        <time>2011-09-20T07:58:37Z</time>
      </trkpt>
      <trkpt lat="46.71145" lon="5.53616">
        <ele>291</ele>
        <time>2011-09-20T07:58:39Z</time>
      </trkpt>
      <trkpt lat="46.71136" lon="5.53608">
        <ele>291</ele>
        <time>2011-09-20T07:58:41Z</time>
      </trkpt>
      <trkpt lat="46.71127" lon="5.53597">
        <ele>291</ele>
        <time>2011-09-20T07:58:43Z</time>
      </trkpt>
      <trkpt lat="46.71115" lon="5.53585">
        <ele>291</ele>
        <time>2011-09-20T07:58:45Z</time>
      </trkpt>
      <trkpt lat="46.71104" lon="5.53572">
        <ele>291</ele>
        <time>2011-09-20T07:58:47Z</time>
      </trkpt>
      <trkpt lat="46.71095" lon="5.53559">
        <ele>291</ele>
        <time>2011-09-20T07:58:49Z</time>
      </trkpt>
      <trkpt lat="46.71088" lon="5.53546">
        <ele>291</ele>
        <time>2011-09-20T07:58:51Z</time>
      </trkpt>
      <trkpt lat="46.71081" lon="5.53532">
        <ele>291</ele>
        <time>2011-09-20T07:58:53Z</time>
      </trkpt>
      <trkpt lat="46.71073" lon="5.53518">
        <ele>291</ele>
        <time>2011-09-20T07:58:55Z</time>
      </trkpt>
      <trkpt lat="46.71067" lon="5.53503">
        <ele>285</ele>
        <time>2011-09-20T07:58:57Z</time>
      </trkpt>
      <trkpt lat="46.7106" lon="5.5349">
        <ele>285</ele>
        <time>2011-09-20T07:58:59Z</time>
      </trkpt>
      <trkpt lat="46.71052" lon="5.53474">
        <ele>285</ele>
        <time>2011-09-20T07:59:01Z</time>
      </trkpt>
      <trkpt lat="46.71044" lon="5.53457">
        <ele>285</ele>
        <time>2011-09-20T07:59:03Z</time>
      </trkpt>
      <trkpt lat="46.71036" lon="5.5344">
        <ele>285</ele>
        <time>2011-09-20T07:59:05Z</time>
      </trkpt>
      <trkpt lat="46.71028" lon="5.53423">
        <ele>280</ele>
        <time>2011-09-20T07:59:07Z</time>
      </trkpt>
      <trkpt lat="46.71019" lon="5.53406">
        <ele>280</ele>
        <time>2011-09-20T07:59:09Z</time>
      </trkpt>
      <trkpt lat="46.7101" lon="5.53388">
        <ele>280</ele>
        <time>2011-09-20T07:59:11Z</time>
      </trkpt>
      <trkpt lat="46.70999" lon="5.53369">
        <ele>280</ele>
        <time>2011-09-20T07:59:13Z</time>
      </trkpt>
      <trkpt lat="46.70992" lon="5.5336">
        <ele>280</ele>
        <time>2011-09-20T07:59:14Z</time>
      </trkpt>
      <trkpt lat="46.70986" lon="5.53351">
        <ele>280</ele>
        <time>2011-09-20T07:59:15Z</time>
      </trkpt>
      <trkpt lat="46.70979" lon="5.53341">
        <ele>274</ele>
        <time>2011-09-20T07:59:16Z</time>
      </trkpt>
      <trkpt lat="46.70973" lon="5.5333">
        <ele>274</ele>
        <time>2011-09-20T07:59:17Z</time>
      </trkpt>
      <trkpt lat="46.70966" lon="5.53318">
        <ele>274</ele>
        <time>2011-09-20T07:59:18Z</time>
      </trkpt>
      <trkpt lat="46.7096" lon="5.53306">
        <ele>274</ele>
        <time>2011-09-20T07:59:19Z</time>
      </trkpt>
      <trkpt lat="46.70954" lon="5.53292">
        <ele>274</ele>
        <time>2011-09-20T07:59:20Z</time>
      </trkpt>
      <trkpt lat="46.7095" lon="5.53278">
        <ele>274</ele>
        <time>2011-09-20T07:59:21Z</time>
      </trkpt>
      <trkpt lat="46.70945" lon="5.53263">
        <ele>274</ele>
        <time>2011-09-20T07:59:22Z</time>
      </trkpt>
      <trkpt lat="46.7094" lon="5.53248">
        <ele>274</ele>
        <time>2011-09-20T07:59:23Z</time>
      </trkpt>
      <trkpt lat="46.70934" lon="5.53233">
        <ele>269</ele>
        <time>2011-09-20T07:59:24Z</time>
      </trkpt>
      <trkpt lat="46.70929" lon="5.53218">
        <ele>269</ele>
        <time>2011-09-20T07:59:25Z</time>
      </trkpt>
      <trkpt lat="46.70923" lon="5.53202">
        <ele>269</ele>
        <time>2011-09-20T07:59:26Z</time>
      </trkpt>
      <trkpt lat="46.70916" lon="5.53187">
        <ele>269</ele>
        <time>2011-09-20T07:59:27Z</time>
      </trkpt>
      <trkpt lat="46.7091" lon="5.53172">
        <ele>269</ele>
        <time>2011-09-20T07:59:28Z</time>
      </trkpt>
      <trkpt lat="46.70904" lon="5.53156">
        <ele>269</ele>
        <time>2011-09-20T07:59:29Z</time>
      </trkpt>
      <trkpt lat="46.70898" lon="5.5314">
        <ele>269</ele>
        <time>2011-09-20T07:59:30Z</time>
      </trkpt>
      <trkpt lat="46.70894" lon="5.53124">
        <ele>269</ele>
        <time>2011-09-20T07:59:31Z</time>
      </trkpt>
      <trkpt lat="46.70889" lon="5.53108">
        <ele>269</ele>
        <time>2011-09-20T07:59:32Z</time>
      </trkpt>
      <trkpt lat="46.70884" lon="5.53092">
        <ele>269</ele>
        <time>2011-09-20T07:59:33Z</time>
      </trkpt>
      <trkpt lat="46.70879" lon="5.53077">
        <ele>263</ele>
        <time>2011-09-20T07:59:34Z</time>
      </trkpt>
      <trkpt lat="46.70874" lon="5.5306">
        <ele>263</ele>
        <time>2011-09-20T07:59:35Z</time>
      </trkpt>
      <trkpt lat="46.70869" lon="5.53045">
        <ele>263</ele>
        <time>2011-09-20T07:59:36Z</time>
      </trkpt>
      <trkpt lat="46.70864" lon="5.5303">
        <ele>263</ele>
        <time>2011-09-20T07:59:37Z</time>
      </trkpt>
      <trkpt lat="46.70858" lon="5.53015">
        <ele>263</ele>
        <time>2011-09-20T07:59:38Z</time>
      </trkpt>
      <trkpt lat="46.70853" lon="5.52998">
        <ele>263</ele>
        <time>2011-09-20T07:59:39Z</time>
      </trkpt>
      <trkpt lat="46.70847" lon="5.52983">
        <ele>263</ele>
        <time>2011-09-20T07:59:40Z</time>
      </trkpt>
      <trkpt lat="46.70842" lon="5.52969">
        <ele>263</ele>
        <time>2011-09-20T07:59:41Z</time>
      </trkpt>
      <trkpt lat="46.70837" lon="5.52954">
        <ele>263</ele>
        <time>2011-09-20T07:59:42Z</time>
      </trkpt>
      <trkpt lat="46.70834" lon="5.52938">
        <ele>263</ele>
        <time>2011-09-20T07:59:43Z</time>
      </trkpt>
      <trkpt lat="46.70831" lon="5.52923">
        <ele>263</ele>
        <time>2011-09-20T07:59:44Z</time>
      </trkpt>
      <trkpt lat="46.70828" lon="5.52908">
        <ele>263</ele>
        <time>2011-09-20T07:59:45Z</time>
      </trkpt>
      <trkpt lat="46.70826" lon="5.52892">
        <ele>263</ele>
        <time>2011-09-20T07:59:46Z</time>
      </trkpt>
      <trkpt lat="46.70824" lon="5.52877">
        <ele>263</ele>
        <time>2011-09-20T07:59:47Z</time>
      </trkpt>
      <trkpt lat="46.7082" lon="5.52864">
        <ele>263</ele>
        <time>2011-09-20T07:59:48Z</time>
      </trkpt>
      <trkpt lat="46.70816" lon="5.5285">
        <ele>263</ele>
        <time>2011-09-20T07:59:49Z</time>
      </trkpt>
      <trkpt lat="46.70811" lon="5.52839">
        <ele>263</ele>
        <time>2011-09-20T07:59:50Z</time>
      </trkpt>
      <trkpt lat="46.70802" lon="5.52818">
        <ele>263</ele>
        <time>2011-09-20T07:59:52Z</time>
      </trkpt>
      <trkpt lat="46.70792" lon="5.52798">
        <ele>263</ele>
        <time>2011-09-20T07:59:54Z</time>
      </trkpt>
      <trkpt lat="46.7078" lon="5.52779">
        <ele>263</ele>
        <time>2011-09-20T07:59:56Z</time>
      </trkpt>
      <trkpt lat="46.70768" lon="5.52765">
        <ele>263</ele>
        <time>2011-09-20T07:59:58Z</time>
      </trkpt>
      <trkpt lat="46.70755" lon="5.52755">
        <ele>258</ele>
        <time>2011-09-20T08:00:00Z</time>
      </trkpt>
      <trkpt lat="46.70743" lon="5.52747">
        <ele>258</ele>
        <time>2011-09-20T08:00:02Z</time>
      </trkpt>
      <trkpt lat="46.70731" lon="5.52738">
        <ele>258</ele>
        <time>2011-09-20T08:00:04Z</time>
      </trkpt>
      <trkpt lat="46.70722" lon="5.52729">
        <ele>258</ele>
        <time>2011-09-20T08:00:06Z</time>
      </trkpt>
      <trkpt lat="46.70716" lon="5.52718">
        <ele>258</ele>
        <time>2011-09-20T08:00:09Z</time>
      </trkpt>
      <trkpt lat="46.70719" lon="5.52704">
        <ele>258</ele>
        <time>2011-09-20T08:00:15Z</time>
      </trkpt>
      <trkpt lat="46.70711" lon="5.52711">
        <ele>258</ele>
        <time>2011-09-20T08:00:46Z</time>
      </trkpt>
      <trkpt lat="46.70719" lon="5.52703">
        <ele>258</ele>
        <time>2011-09-20T08:00:58Z</time>
      </trkpt>
      <trkpt lat="46.70727" lon="5.52692">
        <ele>258</ele>
        <time>2011-09-20T08:01:03Z</time>
      </trkpt>
      <trkpt lat="46.70736" lon="5.52681">
        <ele>258</ele>
        <time>2011-09-20T08:01:07Z</time>
      </trkpt>
      <trkpt lat="46.70745" lon="5.52671">
        <ele>258</ele>
        <time>2011-09-20T08:01:11Z</time>
      </trkpt>
      <trkpt lat="46.70753" lon="5.52662">
        <ele>258</ele>
        <time>2011-09-20T08:01:14Z</time>
      </trkpt>
      <trkpt lat="46.70761" lon="5.52653">
        <ele>258</ele>
        <time>2011-09-20T08:01:17Z</time>
      </trkpt>
      <trkpt lat="46.70767" lon="5.52644">
        <ele>264</ele>
        <time>2011-09-20T08:01:20Z</time>
      </trkpt>
      <trkpt lat="46.70774" lon="5.52635">
        <ele>264</ele>
        <time>2011-09-20T08:01:23Z</time>
      </trkpt>
      <trkpt lat="46.7078" lon="5.52626">
        <ele>264</ele>
        <time>2011-09-20T08:01:26Z</time>
      </trkpt>
      <trkpt lat="46.70789" lon="5.52617">
        <ele>264</ele>
        <time>2011-09-20T08:01:30Z</time>
      </trkpt>
      <trkpt lat="46.70796" lon="5.52608">
        <ele>264</ele>
        <time>2011-09-20T08:01:34Z</time>
      </trkpt>
      <trkpt lat="46.70803" lon="5.52597">
        <ele>264</ele>
        <time>2011-09-20T08:01:38Z</time>
      </trkpt>
      <trkpt lat="46.70813" lon="5.52587">
        <ele>264</ele>
        <time>2011-09-20T08:01:42Z</time>
      </trkpt>
      <trkpt lat="46.7082" lon="5.52578">
        <ele>264</ele>
        <time>2011-09-20T08:01:46Z</time>
      </trkpt>
      <trkpt lat="46.70829" lon="5.52569">
        <ele>270</ele>
        <time>2011-09-20T08:01:50Z</time>
      </trkpt>
      <trkpt lat="46.70836" lon="5.52559">
        <ele>270</ele>
        <time>2011-09-20T08:01:54Z</time>
      </trkpt>
      <trkpt lat="46.70846" lon="5.52552">
        <ele>270</ele>
        <time>2011-09-20T08:01:58Z</time>
      </trkpt>
      <trkpt lat="46.70856" lon="5.52547">
        <ele>270</ele>
        <time>2011-09-20T08:02:02Z</time>
      </trkpt>
      <trkpt lat="46.70865" lon="5.52543">
        <ele>270</ele>
        <time>2011-09-20T08:02:05Z</time>
      </trkpt>
      <trkpt lat="46.70876" lon="5.52538">
        <ele>275</ele>
        <time>2011-09-20T08:02:09Z</time>
      </trkpt>
      <trkpt lat="46.70886" lon="5.52536">
        <ele>275</ele>
        <time>2011-09-20T08:02:12Z</time>
      </trkpt>
      <trkpt lat="46.70896" lon="5.52535">
        <ele>275</ele>
        <time>2011-09-20T08:02:15Z</time>
      </trkpt>
      <trkpt lat="46.70907" lon="5.52532">
        <ele>275</ele>
        <time>2011-09-20T08:02:18Z</time>
      </trkpt>
      <trkpt lat="46.70918" lon="5.52529">
        <ele>275</ele>
        <time>2011-09-20T08:02:21Z</time>
      </trkpt>
      <trkpt lat="46.70929" lon="5.52524">
        <ele>275</ele>
        <time>2011-09-20T08:02:24Z</time>
      </trkpt>
      <trkpt lat="46.70939" lon="5.52517">
        <ele>275</ele>
        <time>2011-09-20T08:02:27Z</time>
      </trkpt>
      <trkpt lat="46.70949" lon="5.52508">
        <ele>275</ele>
        <time>2011-09-20T08:02:30Z</time>
      </trkpt>
      <trkpt lat="46.70958" lon="5.52499">
        <ele>275</ele>
        <time>2011-09-20T08:02:33Z</time>
      </trkpt>
      <trkpt lat="46.70968" lon="5.52488">
        <ele>275</ele>
        <time>2011-09-20T08:02:36Z</time>
      </trkpt>
      <trkpt lat="46.70974" lon="5.52477">
        <ele>275</ele>
        <time>2011-09-20T08:02:39Z</time>
      </trkpt>
      <trkpt lat="46.70978" lon="5.52463">
        <ele>275</ele>
        <time>2011-09-20T08:02:42Z</time>
      </trkpt>
      <trkpt lat="46.70981" lon="5.5245">
        <ele>281</ele>
        <time>2011-09-20T08:02:45Z</time>
      </trkpt>
      <trkpt lat="46.70983" lon="5.52436">
        <ele>281</ele>
        <time>2011-09-20T08:02:48Z</time>
      </trkpt>
      <trkpt lat="46.70984" lon="5.52421">
        <ele>281</ele>
        <time>2011-09-20T08:02:51Z</time>
      </trkpt>
      <trkpt lat="46.70986" lon="5.52406">
        <ele>287</ele>
        <time>2011-09-20T08:02:54Z</time>
      </trkpt>
      <trkpt lat="46.70991" lon="5.52391">
        <ele>287</ele>
        <time>2011-09-20T08:02:57Z</time>
      </trkpt>
      <trkpt lat="46.70997" lon="5.52374">
        <ele>287</ele>
        <time>2011-09-20T08:03:00Z</time>
      </trkpt>
      <trkpt lat="46.71005" lon="5.52357">
        <ele>287</ele>
        <time>2011-09-20T08:03:03Z</time>
      </trkpt>
      <trkpt lat="46.71013" lon="5.52342">
        <ele>287</ele>
        <time>2011-09-20T08:03:06Z</time>
      </trkpt>
      <trkpt lat="46.71021" lon="5.52327">
        <ele>287</ele>
        <time>2011-09-20T08:03:09Z</time>
      </trkpt>
      <trkpt lat="46.71031" lon="5.52315">
        <ele>287</ele>
        <time>2011-09-20T08:03:12Z</time>
      </trkpt>
      <trkpt lat="46.71042" lon="5.52306">
        <ele>287</ele>
        <time>2011-09-20T08:03:15Z</time>
      </trkpt>
      <trkpt lat="46.71054" lon="5.52299">
        <ele>287</ele>
        <time>2011-09-20T08:03:18Z</time>
      </trkpt>
      <trkpt lat="46.71062" lon="5.52292">
        <ele>287</ele>
        <time>2011-09-20T08:03:20Z</time>
      </trkpt>
      <trkpt lat="46.71072" lon="5.52285">
        <ele>287</ele>
        <time>2011-09-20T08:03:22Z</time>
      </trkpt>
      <trkpt lat="46.71083" lon="5.52276">
        <ele>287</ele>
        <time>2011-09-20T08:03:24Z</time>
      </trkpt>
      <trkpt lat="46.71094" lon="5.52265">
        <ele>287</ele>
        <time>2011-09-20T08:03:26Z</time>
      </trkpt>
      <trkpt lat="46.71105" lon="5.52249">
        <ele>287</ele>
        <time>2011-09-20T08:03:28Z</time>
      </trkpt>
      <trkpt lat="46.71114" lon="5.52229">
        <ele>280</ele>
        <time>2011-09-20T08:03:30Z</time>
      </trkpt>
      <trkpt lat="46.71121" lon="5.52204">
        <ele>280</ele>
        <time>2011-09-20T08:03:32Z</time>
      </trkpt>
      <trkpt lat="46.71123" lon="5.52191">
        <ele>280</ele>
        <time>2011-09-20T08:03:33Z</time>
      </trkpt>
      <trkpt lat="46.71125" lon="5.52176">
        <ele>280</ele>
        <time>2011-09-20T08:03:34Z</time>
      </trkpt>
      <trkpt lat="46.71125" lon="5.5216">
        <ele>280</ele>
        <time>2011-09-20T08:03:35Z</time>
      </trkpt>
      <trkpt lat="46.71125" lon="5.52144">
        <ele>275</ele>
        <time>2011-09-20T08:03:36Z</time>
      </trkpt>
      <trkpt lat="46.71122" lon="5.52129">
        <ele>275</ele>
        <time>2011-09-20T08:03:37Z</time>
      </trkpt>
      <trkpt lat="46.71118" lon="5.52114">
        <ele>275</ele>
        <time>2011-09-20T08:03:38Z</time>
      </trkpt>
      <trkpt lat="46.71112" lon="5.52099">
        <ele>275</ele>
        <time>2011-09-20T08:03:39Z</time>
      </trkpt>
      <trkpt lat="46.71105" lon="5.52085">
        <ele>275</ele>
        <time>2011-09-20T08:03:40Z</time>
      </trkpt>
      <trkpt lat="46.71098" lon="5.52071">
        <ele>275</ele>
        <time>2011-09-20T08:03:41Z</time>
      </trkpt>
      <trkpt lat="46.71091" lon="5.52058">
        <ele>270</ele>
        <time>2011-09-20T08:03:42Z</time>
      </trkpt>
      <trkpt lat="46.71083" lon="5.52045">
        <ele>270</ele>
        <time>2011-09-20T08:03:43Z</time>
      </trkpt>
      <trkpt lat="46.71076" lon="5.52032">
        <ele>270</ele>
        <time>2011-09-20T08:03:44Z</time>
      </trkpt>
      <trkpt lat="46.71068" lon="5.52019">
        <ele>270</ele>
        <time>2011-09-20T08:03:45Z</time>
      </trkpt>
      <trkpt lat="46.71062" lon="5.52007">
        <ele>270</ele>
        <time>2011-09-20T08:03:46Z</time>
      </trkpt>
      <trkpt lat="46.71055" lon="5.51994">
        <ele>270</ele>
        <time>2011-09-20T08:03:47Z</time>
      </trkpt>
      <trkpt lat="46.71049" lon="5.51981">
        <ele>270</ele>
        <time>2011-09-20T08:03:48Z</time>
      </trkpt>
      <trkpt lat="46.71042" lon="5.51966">
        <ele>270</ele>
        <time>2011-09-20T08:03:49Z</time>
      </trkpt>
      <trkpt lat="46.71038" lon="5.51952">
        <ele>270</ele>
        <time>2011-09-20T08:03:50Z</time>
      </trkpt>
      <trkpt lat="46.71034" lon="5.51937">
        <ele>270</ele>
        <time>2011-09-20T08:03:51Z</time>
      </trkpt>
      <trkpt lat="46.71032" lon="5.51922">
        <ele>270</ele>
        <time>2011-09-20T08:03:52Z</time>
      </trkpt>
      <trkpt lat="46.71029" lon="5.51908">
        <ele>270</ele>
        <time>2011-09-20T08:03:53Z</time>
      </trkpt>
      <trkpt lat="46.71028" lon="5.51894">
        <ele>270</ele>
        <time>2011-09-20T08:03:54Z</time>
      </trkpt>
      <trkpt lat="46.71026" lon="5.51881">
        <ele>270</ele>
        <time>2011-09-20T08:03:55Z</time>
      </trkpt>
      <trkpt lat="46.71022" lon="5.51858">
        <ele>270</ele>
        <time>2011-09-20T08:03:57Z</time>
      </trkpt>
      <trkpt lat="46.71017" lon="5.51837">
        <ele>270</ele>
        <time>2011-09-20T08:03:59Z</time>
      </trkpt>
      <trkpt lat="46.71011" lon="5.5182">
        <ele>270</ele>
        <time>2011-09-20T08:04:01Z</time>
      </trkpt>
      <trkpt lat="46.71004" lon="5.51805">
        <ele>270</ele>
        <time>2011-09-20T08:04:03Z</time>
      </trkpt>
      <trkpt lat="46.70996" lon="5.51789">
        <ele>270</ele>
        <time>2011-09-20T08:04:05Z</time>
      </trkpt>
      <trkpt lat="46.70987" lon="5.51779">
        <ele>270</ele>
        <time>2011-09-20T08:04:07Z</time>
      </trkpt>
      <trkpt lat="46.70978" lon="5.51767">
        <ele>270</ele>
        <time>2011-09-20T08:04:09Z</time>
      </trkpt>
      <trkpt lat="46.70969" lon="5.51757">
        <ele>270</ele>
        <time>2011-09-20T08:04:11Z</time>
      </trkpt>
      <trkpt lat="46.7096" lon="5.51747">
        <ele>270</ele>
        <time>2011-09-20T08:04:13Z</time>
      </trkpt>
      <trkpt lat="46.70949" lon="5.51736">
        <ele>270</ele>
        <time>2011-09-20T08:04:16Z</time>
      </trkpt>
      <trkpt lat="46.70937" lon="5.51726">
        <ele>270</ele>
        <time>2011-09-20T08:04:19Z</time>
      </trkpt>
      <trkpt lat="46.70926" lon="5.51716">
        <ele>275</ele>
        <time>2011-09-20T08:04:22Z</time>
      </trkpt>
      <trkpt lat="46.70916" lon="5.51705">
        <ele>275</ele>
        <time>2011-09-20T08:04:25Z</time>
      </trkpt>
      <trkpt lat="46.70905" lon="5.51693">
        <ele>275</ele>
        <time>2011-09-20T08:04:28Z</time>
      </trkpt>
      <trkpt lat="46.70895" lon="5.51682">
        <ele>275</ele>
        <time>2011-09-20T08:04:31Z</time>
      </trkpt>
      <trkpt lat="46.70886" lon="5.5167">
        <ele>275</ele>
        <time>2011-09-20T08:04:34Z</time>
      </trkpt>
      <trkpt lat="46.70876" lon="5.51657">
        <ele>275</ele>
        <time>2011-09-20T08:04:37Z</time>
      </trkpt>
      <trkpt lat="46.70868" lon="5.51645">
        <ele>275</ele>
        <time>2011-09-20T08:04:40Z</time>
      </trkpt>
      <trkpt lat="46.70858" lon="5.51632">
        <ele>281</ele>
        <time>2011-09-20T08:04:43Z</time>
      </trkpt>
      <trkpt lat="46.70848" lon="5.5162">
        <ele>281</ele>
        <time>2011-09-20T08:04:46Z</time>
      </trkpt>
      <trkpt lat="46.70839" lon="5.51608">
        <ele>281</ele>
        <time>2011-09-20T08:04:49Z</time>
      </trkpt>
      <trkpt lat="46.70829" lon="5.51596">
        <ele>281</ele>
        <time>2011-09-20T08:04:52Z</time>
      </trkpt>
      <trkpt lat="46.70818" lon="5.51584">
        <ele>281</ele>
        <time>2011-09-20T08:04:55Z</time>
      </trkpt>
      <trkpt lat="46.7081" lon="5.51576">
        <ele>281</ele>
        <time>2011-09-20T08:04:57Z</time>
      </trkpt>
      <trkpt lat="46.70803" lon="5.51567">
        <ele>281</ele>
        <time>2011-09-20T08:04:59Z</time>
      </trkpt>
      <trkpt lat="46.70796" lon="5.51558">
        <ele>281</ele>
        <time>2011-09-20T08:05:01Z</time>
      </trkpt>
      <trkpt lat="46.70789" lon="5.51546">
        <ele>281</ele>
        <time>2011-09-20T08:05:03Z</time>
      </trkpt>
      <trkpt lat="46.70784" lon="5.51533">
        <ele>281</ele>
        <time>2011-09-20T08:05:05Z</time>
      </trkpt>
      <trkpt lat="46.70781" lon="5.5152">
        <ele>281</ele>
        <time>2011-09-20T08:05:07Z</time>
      </trkpt>
      <trkpt lat="46.70779" lon="5.51506">
        <ele>281</ele>
        <time>2011-09-20T08:05:09Z</time>
      </trkpt>
      <trkpt lat="46.70778" lon="5.51492">
        <ele>281</ele>
        <time>2011-09-20T08:05:11Z</time>
      </trkpt>
      <trkpt lat="46.70776" lon="5.51473">
        <ele>281</ele>
        <time>2011-09-20T08:05:14Z</time>
      </trkpt>
      <trkpt lat="46.70772" lon="5.51461">
        <ele>281</ele>
        <time>2011-09-20T08:05:16Z</time>
      </trkpt>
      <trkpt lat="46.7077" lon="5.51442">
        <ele>286</ele>
        <time>2011-09-20T08:05:19Z</time>
      </trkpt>
      <trkpt lat="46.70767" lon="5.51428">
        <ele>286</ele>
        <time>2011-09-20T08:05:21Z</time>
      </trkpt>
      <trkpt lat="46.70766" lon="5.51413">
        <ele>286</ele>
        <time>2011-09-20T08:05:23Z</time>
      </trkpt>
      <trkpt lat="46.70765" lon="5.51396">
        <ele>286</ele>
        <time>2011-09-20T08:05:25Z</time>
      </trkpt>
      <trkpt lat="46.70765" lon="5.5138">
        <ele>286</ele>
        <time>2011-09-20T08:05:27Z</time>
      </trkpt>
      <trkpt lat="46.70765" lon="5.51363">
        <ele>286</ele>
        <time>2011-09-20T08:05:29Z</time>
      </trkpt>
      <trkpt lat="46.70767" lon="5.51344">
        <ele>281</ele>
        <time>2011-09-20T08:05:31Z</time>
      </trkpt>
      <trkpt lat="46.70776" lon="5.51326">
        <ele>281</ele>
        <time>2011-09-20T08:05:33Z</time>
      </trkpt>
      <trkpt lat="46.70785" lon="5.51309">
        <ele>281</ele>
        <time>2011-09-20T08:05:35Z</time>
      </trkpt>
      <trkpt lat="46.70797" lon="5.51293">
        <ele>281</ele>
        <time>2011-09-20T08:05:37Z</time>
      </trkpt>
      <trkpt lat="46.70811" lon="5.51276">
        <ele>281</ele>
        <time>2011-09-20T08:05:39Z</time>
      </trkpt>
      <trkpt lat="46.70819" lon="5.51268">
        <ele>281</ele>
        <time>2011-09-20T08:05:40Z</time>
      </trkpt>
      <trkpt lat="46.70826" lon="5.5126">
        <ele>281</ele>
        <time>2011-09-20T08:05:41Z</time>
      </trkpt>
      <trkpt lat="46.70834" lon="5.5125">
        <ele>275</ele>
        <time>2011-09-20T08:05:42Z</time>
      </trkpt>
      <trkpt lat="46.7084" lon="5.5124">
        <ele>275</ele>
        <time>2011-09-20T08:05:43Z</time>
      </trkpt>
      <trkpt lat="46.70847" lon="5.51228">
        <ele>275</ele>
        <time>2011-09-20T08:05:44Z</time>
      </trkpt>
      <trkpt lat="46.70852" lon="5.51215">
        <ele>275</ele>
        <time>2011-09-20T08:05:45Z</time>
      </trkpt>
      <trkpt lat="46.70856" lon="5.51202">
        <ele>275</ele>
        <time>2011-09-20T08:05:46Z</time>
      </trkpt>
      <trkpt lat="46.7086" lon="5.51187">
        <ele>275</ele>
        <time>2011-09-20T08:05:47Z</time>
      </trkpt>
      <trkpt lat="46.70861" lon="5.51174">
        <ele>275</ele>
        <time>2011-09-20T08:05:48Z</time>
      </trkpt>
      <trkpt lat="46.70863" lon="5.5116">
        <ele>275</ele>
        <time>2011-09-20T08:05:49Z</time>
      </trkpt>
      <trkpt lat="46.70864" lon="5.51146">
        <ele>275</ele>
        <time>2011-09-20T08:05:50Z</time>
      </trkpt>
      <trkpt lat="46.70864" lon="5.51133">
        <ele>275</ele>
        <time>2011-09-20T08:05:51Z</time>
      </trkpt>
      <trkpt lat="46.70861" lon="5.51108">
        <ele>275</ele>
        <time>2011-09-20T08:05:53Z</time>
      </trkpt>
      <trkpt lat="46.70859" lon="5.51086">
        <ele>275</ele>
        <time>2011-09-20T08:05:55Z</time>
      </trkpt>
      <trkpt lat="46.70856" lon="5.51065">
        <ele>275</ele>
        <time>2011-09-20T08:05:57Z</time>
      </trkpt>
      <trkpt lat="46.70854" lon="5.51046">
        <ele>275</ele>
        <time>2011-09-20T08:05:59Z</time>
      </trkpt>
      <trkpt lat="46.7085" lon="5.51026">
        <ele>275</ele>
        <time>2011-09-20T08:06:01Z</time>
      </trkpt>
      <trkpt lat="46.70841" lon="5.51008">
        <ele>275</ele>
        <time>2011-09-20T08:06:03Z</time>
      </trkpt>
      <trkpt lat="46.70829" lon="5.50989">
        <ele>275</ele>
        <time>2011-09-20T08:06:05Z</time>
      </trkpt>
      <trkpt lat="46.70823" lon="5.50978">
        <ele>270</ele>
        <time>2011-09-20T08:06:06Z</time>
      </trkpt>
      <trkpt lat="46.70812" lon="5.50957">
        <ele>270</ele>
        <time>2011-09-20T08:06:08Z</time>
      </trkpt>
      <trkpt lat="46.70801" lon="5.50937">
        <ele>270</ele>
        <time>2011-09-20T08:06:10Z</time>
      </trkpt>
      <trkpt lat="46.70792" lon="5.50918">
        <ele>270</ele>
        <time>2011-09-20T08:06:12Z</time>
      </trkpt>
      <trkpt lat="46.70783" lon="5.50895">
        <ele>265</ele>
        <time>2011-09-20T08:06:14Z</time>
      </trkpt>
      <trkpt lat="46.7078" lon="5.50882">
        <ele>265</ele>
        <time>2011-09-20T08:06:15Z</time>
      </trkpt>
      <trkpt lat="46.70779" lon="5.50869">
        <ele>265</ele>
        <time>2011-09-20T08:06:16Z</time>
      </trkpt>
      <trkpt lat="46.70778" lon="5.50843">
        <ele>265</ele>
        <time>2011-09-20T08:06:18Z</time>
      </trkpt>
      <trkpt lat="46.70777" lon="5.50818">
        <ele>265</ele>
        <time>2011-09-20T08:06:20Z</time>
      </trkpt>
      <trkpt lat="46.70777" lon="5.50795">
        <ele>259</ele>
        <time>2011-09-20T08:06:22Z</time>
      </trkpt>
      <trkpt lat="46.70776" lon="5.50771">
        <ele>259</ele>
        <time>2011-09-20T08:06:24Z</time>
      </trkpt>
      <trkpt lat="46.70776" lon="5.50747">
        <ele>259</ele>
        <time>2011-09-20T08:06:26Z</time>
      </trkpt>
      <trkpt lat="46.70777" lon="5.50724">
        <ele>259</ele>
        <time>2011-09-20T08:06:28Z</time>
      </trkpt>
      <trkpt lat="46.7078" lon="5.50711">
        <ele>254</ele>
        <time>2011-09-20T08:06:29Z</time>
      </trkpt>
      <trkpt lat="46.70788" lon="5.50691">
        <ele>254</ele>
        <time>2011-09-20T08:06:31Z</time>
      </trkpt>
      <trkpt lat="46.70797" lon="5.50671">
        <ele>254</ele>
        <time>2011-09-20T08:06:33Z</time>
      </trkpt>
      <trkpt lat="46.70806" lon="5.50653">
        <ele>254</ele>
        <time>2011-09-20T08:06:35Z</time>
      </trkpt>
      <trkpt lat="46.70814" lon="5.50635">
        <ele>254</ele>
        <time>2011-09-20T08:06:37Z</time>
      </trkpt>
      <trkpt lat="46.70819" lon="5.50613">
        <ele>247</ele>
        <time>2011-09-20T08:06:39Z</time>
      </trkpt>
      <trkpt lat="46.70819" lon="5.50589">
        <ele>247</ele>
        <time>2011-09-20T08:06:41Z</time>
      </trkpt>
      <trkpt lat="46.70813" lon="5.50564">
        <ele>247</ele>
        <time>2011-09-20T08:06:43Z</time>
      </trkpt>
      <trkpt lat="46.70809" lon="5.50551">
        <ele>247</ele>
        <time>2011-09-20T08:06:44Z</time>
      </trkpt>
      <trkpt lat="46.70805" lon="5.50539">
        <ele>242</ele>
        <time>2011-09-20T08:06:45Z</time>
      </trkpt>
      <trkpt lat="46.70803" lon="5.50526">
        <ele>242</ele>
        <time>2011-09-20T08:06:46Z</time>
      </trkpt>
      <trkpt lat="46.70801" lon="5.50513">
        <ele>242</ele>
        <time>2011-09-20T08:06:47Z</time>
      </trkpt>
      <trkpt lat="46.70801" lon="5.50499">
        <ele>242</ele>
        <time>2011-09-20T08:06:48Z</time>
      </trkpt>
      <trkpt lat="46.70803" lon="5.50485">
        <ele>242</ele>
        <time>2011-09-20T08:06:49Z</time>
      </trkpt>
      <trkpt lat="46.70804" lon="5.50471">
        <ele>242</ele>
        <time>2011-09-20T08:06:50Z</time>
      </trkpt>
      <trkpt lat="46.70806" lon="5.50456">
        <ele>236</ele>
        <time>2011-09-20T08:06:51Z</time>
      </trkpt>
      <trkpt lat="46.70808" lon="5.5044">
        <ele>236</ele>
        <time>2011-09-20T08:06:52Z</time>
      </trkpt>
      <trkpt lat="46.7081" lon="5.50425">
        <ele>236</ele>
        <time>2011-09-20T08:06:53Z</time>
      </trkpt>
      <trkpt lat="46.70811" lon="5.50409">
        <ele>236</ele>
        <time>2011-09-20T08:06:54Z</time>
      </trkpt>
      <trkpt lat="46.70811" lon="5.50394">
        <ele>236</ele>
        <time>2011-09-20T08:06:55Z</time>
      </trkpt>
      <trkpt lat="46.7081" lon="5.5038">
        <ele>236</ele>
        <time>2011-09-20T08:06:56Z</time>
      </trkpt>
      <trkpt lat="46.70805" lon="5.50365">
        <ele>236</ele>
        <time>2011-09-20T08:06:57Z</time>
      </trkpt>
      <trkpt lat="46.70801" lon="5.50352">
        <ele>230</ele>
        <time>2011-09-20T08:06:58Z</time>
      </trkpt>
      <trkpt lat="46.70794" lon="5.50339">
        <ele>230</ele>
        <time>2011-09-20T08:06:59Z</time>
      </trkpt>
      <trkpt lat="46.70787" lon="5.50325">
        <ele>230</ele>
        <time>2011-09-20T08:07:00Z</time>
      </trkpt>
      <trkpt lat="46.70779" lon="5.50313">
        <ele>230</ele>
        <time>2011-09-20T08:07:01Z</time>
      </trkpt>
      <trkpt lat="46.70771" lon="5.50301">
        <ele>230</ele>
        <time>2011-09-20T08:07:02Z</time>
      </trkpt>
      <trkpt lat="46.70763" lon="5.50289">
        <ele>230</ele>
        <time>2011-09-20T08:07:03Z</time>
      </trkpt>
      <trkpt lat="46.70755" lon="5.50277">
        <ele>230</ele>
        <time>2011-09-20T08:07:04Z</time>
      </trkpt>
      <trkpt lat="46.70747" lon="5.50266">
        <ele>230</ele>
        <time>2011-09-20T08:07:05Z</time>
      </trkpt>
      <trkpt lat="46.7074" lon="5.50255">
        <ele>230</ele>
        <time>2011-09-20T08:07:06Z</time>
      </trkpt>
      <trkpt lat="46.70732" lon="5.50243">
        <ele>230</ele>
        <time>2011-09-20T08:07:07Z</time>
      </trkpt>
      <trkpt lat="46.70725" lon="5.50233">
        <ele>230</ele>
        <time>2011-09-20T08:07:08Z</time>
      </trkpt>
      <trkpt lat="46.70719" lon="5.50221">
        <ele>230</ele>
        <time>2011-09-20T08:07:09Z</time>
      </trkpt>
      <trkpt lat="46.70712" lon="5.50209">
        <ele>230</ele>
        <time>2011-09-20T08:07:10Z</time>
      </trkpt>
      <trkpt lat="46.70708" lon="5.50196">
        <ele>225</ele>
        <time>2011-09-20T08:07:11Z</time>
      </trkpt>
      <trkpt lat="46.70704" lon="5.50183">
        <ele>225</ele>
        <time>2011-09-20T08:07:12Z</time>
      </trkpt>
      <trkpt lat="46.70702" lon="5.5017">
        <ele>225</ele>
        <time>2011-09-20T08:07:13Z</time>
      </trkpt>
      <trkpt lat="46.70698" lon="5.50145">
        <ele>225</ele>
        <time>2011-09-20T08:07:15Z</time>
      </trkpt>
      <trkpt lat="46.70695" lon="5.50123">
        <ele>225</ele>
        <time>2011-09-20T08:07:17Z</time>
      </trkpt>
      <trkpt lat="46.70693" lon="5.501">
        <ele>225</ele>
        <time>2011-09-20T08:07:19Z</time>
      </trkpt>
      <trkpt lat="46.70693" lon="5.5008">
        <ele>225</ele>
        <time>2011-09-20T08:07:21Z</time>
      </trkpt>
      <trkpt lat="46.70693" lon="5.50059">
        <ele>225</ele>
        <time>2011-09-20T08:07:23Z</time>
      </trkpt>
      <trkpt lat="46.70691" lon="5.50038">
        <ele>225</ele>
        <time>2011-09-20T08:07:25Z</time>
      </trkpt>
      <trkpt lat="46.7069" lon="5.50019">
        <ele>225</ele>
        <time>2011-09-20T08:07:27Z</time>
      </trkpt>
      <trkpt lat="46.70686" lon="5.5">
        <ele>225</ele>
        <time>2011-09-20T08:07:29Z</time>
      </trkpt>
      <trkpt lat="46.70683" lon="5.49982">
        <ele>225</ele>
        <time>2011-09-20T08:07:31Z</time>
      </trkpt>
      <trkpt lat="46.70679" lon="5.49966">
        <ele>225</ele>
        <time>2011-09-20T08:07:33Z</time>
      </trkpt>
      <trkpt lat="46.70677" lon="5.4995">
        <ele>225</ele>
        <time>2011-09-20T08:07:35Z</time>
      </trkpt>
      <trkpt lat="46.70675" lon="5.49933">
        <ele>225</ele>
        <time>2011-09-20T08:07:37Z</time>
      </trkpt>
      <trkpt lat="46.70669" lon="5.49918">
        <ele>225</ele>
        <time>2011-09-20T08:07:39Z</time>
      </trkpt>
      <trkpt lat="46.70666" lon="5.49902">
        <ele>225</ele>
        <time>2011-09-20T08:07:41Z</time>
      </trkpt>
      <trkpt lat="46.70664" lon="5.49885">
        <ele>230</ele>
        <time>2011-09-20T08:07:43Z</time>
      </trkpt>
      <trkpt lat="46.7066" lon="5.49869">
        <ele>230</ele>
        <time>2011-09-20T08:07:45Z</time>
      </trkpt>
      <trkpt lat="46.70656" lon="5.49852">
        <ele>230</ele>
        <time>2011-09-20T08:07:47Z</time>
      </trkpt>
      <trkpt lat="46.70653" lon="5.49837">
        <ele>230</ele>
        <time>2011-09-20T08:07:49Z</time>
      </trkpt>
      <trkpt lat="46.70649" lon="5.49822">
        <ele>230</ele>
        <time>2011-09-20T08:07:51Z</time>
      </trkpt>
      <trkpt lat="46.70646" lon="5.49805">
        <ele>230</ele>
        <time>2011-09-20T08:07:53Z</time>
      </trkpt>
      <trkpt lat="46.70641" lon="5.49789">
        <ele>230</ele>
        <time>2011-09-20T08:07:55Z</time>
      </trkpt>
      <trkpt lat="46.70638" lon="5.49771">
        <ele>230</ele>
        <time>2011-09-20T08:07:57Z</time>
      </trkpt>
      <trkpt lat="46.70633" lon="5.49755">
        <ele>236</ele>
        <time>2011-09-20T08:07:59Z</time>
      </trkpt>
      <trkpt lat="46.70632" lon="5.49738">
        <ele>236</ele>
        <time>2011-09-20T08:08:01Z</time>
      </trkpt>
      <trkpt lat="46.70631" lon="5.4972">
        <ele>236</ele>
        <time>2011-09-20T08:08:03Z</time>
      </trkpt>
      <trkpt lat="46.70629" lon="5.49702">
        <ele>236</ele>
        <time>2011-09-20T08:08:05Z</time>
      </trkpt>
      <trkpt lat="46.70626" lon="5.49684">
        <ele>236</ele>
        <time>2011-09-20T08:08:07Z</time>
      </trkpt>
      <trkpt lat="46.70622" lon="5.49665">
        <ele>236</ele>
        <time>2011-09-20T08:08:09Z</time>
      </trkpt>
      <trkpt lat="46.70619" lon="5.49647">
        <ele>236</ele>
        <time>2011-09-20T08:08:11Z</time>
      </trkpt>
      <trkpt lat="46.70615" lon="5.49629">
        <ele>236</ele>
        <time>2011-09-20T08:08:13Z</time>
      </trkpt>
      <trkpt lat="46.70612" lon="5.49612">
        <ele>236</ele>
        <time>2011-09-20T08:08:15Z</time>
      </trkpt>
      <trkpt lat="46.70607" lon="5.49593">
        <ele>236</ele>
        <time>2011-09-20T08:08:17Z</time>
      </trkpt>
      <trkpt lat="46.70604" lon="5.49575">
        <ele>236</ele>
        <time>2011-09-20T08:08:19Z</time>
      </trkpt>
      <trkpt lat="46.706" lon="5.49557">
        <ele>236</ele>
        <time>2011-09-20T08:08:21Z</time>
      </trkpt>
      <trkpt lat="46.70595" lon="5.49539">
        <ele>231</ele>
        <time>2011-09-20T08:08:23Z</time>
      </trkpt>
      <trkpt lat="46.70591" lon="5.49521">
        <ele>231</ele>
        <time>2011-09-20T08:08:25Z</time>
      </trkpt>
      <trkpt lat="46.70586" lon="5.49504">
        <ele>231</ele>
        <time>2011-09-20T08:08:27Z</time>
      </trkpt>
      <trkpt lat="46.70584" lon="5.49487">
        <ele>231</ele>
        <time>2011-09-20T08:08:29Z</time>
      </trkpt>
      <trkpt lat="46.70582" lon="5.4947">
        <ele>231</ele>
        <time>2011-09-20T08:08:31Z</time>
      </trkpt>
      <trkpt lat="46.70579" lon="5.49454">
        <ele>231</ele>
        <time>2011-09-20T08:08:33Z</time>
      </trkpt>
      <trkpt lat="46.70576" lon="5.49438">
        <ele>231</ele>
        <time>2011-09-20T08:08:35Z</time>
      </trkpt>
      <trkpt lat="46.70573" lon="5.49423">
        <ele>231</ele>
        <time>2011-09-20T08:08:37Z</time>
      </trkpt>
      <trkpt lat="46.7057" lon="5.49409">
        <ele>231</ele>
        <time>2011-09-20T08:08:39Z</time>
      </trkpt>
      <trkpt lat="46.70567" lon="5.49395">
        <ele>231</ele>
        <time>2011-09-20T08:08:41Z</time>
      </trkpt>
      <trkpt lat="46.70565" lon="5.49381">
        <ele>231</ele>
        <time>2011-09-20T08:08:43Z</time>
      </trkpt>
      <trkpt lat="46.70562" lon="5.49367">
        <ele>231</ele>
        <time>2011-09-20T08:08:45Z</time>
      </trkpt>
      <trkpt lat="46.70557" lon="5.49352">
        <ele>231</ele>
        <time>2011-09-20T08:08:47Z</time>
      </trkpt>
      <trkpt lat="46.70554" lon="5.49337">
        <ele>231</ele>
        <time>2011-09-20T08:08:49Z</time>
      </trkpt>
      <trkpt lat="46.70554" lon="5.49319">
        <ele>231</ele>
        <time>2011-09-20T08:08:51Z</time>
      </trkpt>
      <trkpt lat="46.70549" lon="5.49301">
        <ele>231</ele>
        <time>2011-09-20T08:08:53Z</time>
      </trkpt>
      <trkpt lat="46.70544" lon="5.49282">
        <ele>231</ele>
        <time>2011-09-20T08:08:55Z</time>
      </trkpt>
      <trkpt lat="46.7054" lon="5.49262">
        <ele>231</ele>
        <time>2011-09-20T08:08:57Z</time>
      </trkpt>
      <trkpt lat="46.70535" lon="5.49243">
        <ele>231</ele>
        <time>2011-09-20T08:08:59Z</time>
      </trkpt>
      <trkpt lat="46.70529" lon="5.49223">
        <ele>231</ele>
        <time>2011-09-20T08:09:01Z</time>
      </trkpt>
      <trkpt lat="46.70523" lon="5.49201">
        <ele>231</ele>
        <time>2011-09-20T08:09:03Z</time>
      </trkpt>
      <trkpt lat="46.70518" lon="5.49178">
        <ele>231</ele>
        <time>2011-09-20T08:09:05Z</time>
      </trkpt>
      <trkpt lat="46.70515" lon="5.49155">
        <ele>231</ele>
        <time>2011-09-20T08:09:07Z</time>
      </trkpt>
      <trkpt lat="46.7051" lon="5.49134">
        <ele>231</ele>
        <time>2011-09-20T08:09:09Z</time>
      </trkpt>
      <trkpt lat="46.70506" lon="5.49113">
        <ele>231</ele>
        <time>2011-09-20T08:09:11Z</time>
      </trkpt>
      <trkpt lat="46.70502" lon="5.49093">
        <ele>231</ele>
        <time>2011-09-20T08:09:13Z</time>
      </trkpt>
      <trkpt lat="46.70501" lon="5.49076">
        <ele>236</ele>
        <time>2011-09-20T08:09:15Z</time>
      </trkpt>
      <trkpt lat="46.70497" lon="5.49058">
        <ele>236</ele>
        <time>2011-09-20T08:09:17Z</time>
      </trkpt>
      <trkpt lat="46.7049" lon="5.4904">
        <ele>236</ele>
        <time>2011-09-20T08:09:19Z</time>
      </trkpt>
      <trkpt lat="46.70485" lon="5.49021">
        <ele>236</ele>
        <time>2011-09-20T08:09:21Z</time>
      </trkpt>
      <trkpt lat="46.70481" lon="5.49004">
        <ele>236</ele>
        <time>2011-09-20T08:09:23Z</time>
      </trkpt>
      <trkpt lat="46.70478" lon="5.48985">
        <ele>236</ele>
        <time>2011-09-20T08:09:25Z</time>
      </trkpt>
      <trkpt lat="46.70475" lon="5.48966">
        <ele>230</ele>
        <time>2011-09-20T08:09:27Z</time>
      </trkpt>
      <trkpt lat="46.70471" lon="5.48947">
        <ele>230</ele>
        <time>2011-09-20T08:09:29Z</time>
      </trkpt>
      <trkpt lat="46.70468" lon="5.48929">
        <ele>230</ele>
        <time>2011-09-20T08:09:31Z</time>
      </trkpt>
      <trkpt lat="46.70465" lon="5.48912">
        <ele>230</ele>
        <time>2011-09-20T08:09:33Z</time>
      </trkpt>
      <trkpt lat="46.70462" lon="5.48896">
        <ele>230</ele>
        <time>2011-09-20T08:09:35Z</time>
      </trkpt>
      <trkpt lat="46.70458" lon="5.48879">
        <ele>230</ele>
        <time>2011-09-20T08:09:37Z</time>
      </trkpt>
      <trkpt lat="46.70455" lon="5.48862">
        <ele>230</ele>
        <time>2011-09-20T08:09:39Z</time>
      </trkpt>
      <trkpt lat="46.70451" lon="5.48846">
        <ele>230</ele>
        <time>2011-09-20T08:09:41Z</time>
      </trkpt>
      <trkpt lat="46.70447" lon="5.48828">
        <ele>230</ele>
        <time>2011-09-20T08:09:43Z</time>
      </trkpt>
      <trkpt lat="46.70444" lon="5.48811">
        <ele>230</ele>
        <time>2011-09-20T08:09:45Z</time>
      </trkpt>
      <trkpt lat="46.7044" lon="5.48793">
        <ele>230</ele>
        <time>2011-09-20T08:09:47Z</time>
      </trkpt>
      <trkpt lat="46.70436" lon="5.48777">
        <ele>230</ele>
        <time>2011-09-20T08:09:49Z</time>
      </trkpt>
      <trkpt lat="46.70432" lon="5.4876">
        <ele>230</ele>
        <time>2011-09-20T08:09:51Z</time>
      </trkpt>
      <trkpt lat="46.70428" lon="5.48744">
        <ele>230</ele>
        <time>2011-09-20T08:09:53Z</time>
      </trkpt>
      <trkpt lat="46.70425" lon="5.48727">
        <ele>230</ele>
        <time>2011-09-20T08:09:55Z</time>
      </trkpt>
      <trkpt lat="46.70422" lon="5.48711">
        <ele>230</ele>
        <time>2011-09-20T08:09:57Z</time>
      </trkpt>
      <trkpt lat="46.70419" lon="5.48696">
        <ele>230</ele>
        <time>2011-09-20T08:09:59Z</time>
      </trkpt>
      <trkpt lat="46.70415" lon="5.4868">
        <ele>230</ele>
        <time>2011-09-20T08:10:01Z</time>
      </trkpt>
      <trkpt lat="46.70412" lon="5.48663">
        <ele>230</ele>
        <time>2011-09-20T08:10:03Z</time>
      </trkpt>
      <trkpt lat="46.70408" lon="5.48647">
        <ele>230</ele>
        <time>2011-09-20T08:10:05Z</time>
      </trkpt>
      <trkpt lat="46.70405" lon="5.48633">
        <ele>235</ele>
        <time>2011-09-20T08:10:07Z</time>
      </trkpt>
      <trkpt lat="46.70402" lon="5.48616">
        <ele>235</ele>
        <time>2011-09-20T08:10:09Z</time>
      </trkpt>
      <trkpt lat="46.70399" lon="5.48599">
        <ele>235</ele>
        <time>2011-09-20T08:10:11Z</time>
      </trkpt>
      <trkpt lat="46.70396" lon="5.48583">
        <ele>235</ele>
        <time>2011-09-20T08:10:13Z</time>
      </trkpt>
      <trkpt lat="46.70393" lon="5.48567">
        <ele>235</ele>
        <time>2011-09-20T08:10:15Z</time>
      </trkpt>
      <trkpt lat="46.70387" lon="5.48552">
        <ele>235</ele>
        <time>2011-09-20T08:10:17Z</time>
      </trkpt>
      <trkpt lat="46.70383" lon="5.48537">
        <ele>235</ele>
        <time>2011-09-20T08:10:19Z</time>
      </trkpt>
      <trkpt lat="46.70381" lon="5.48522">
        <ele>235</ele>
        <time>2011-09-20T08:10:21Z</time>
      </trkpt>
      <trkpt lat="46.70378" lon="5.48508">
        <ele>235</ele>
        <time>2011-09-20T08:10:23Z</time>
      </trkpt>
      <trkpt lat="46.70376" lon="5.48494">
        <ele>235</ele>
        <time>2011-09-20T08:10:25Z</time>
      </trkpt>
      <trkpt lat="46.70373" lon="5.4848">
        <ele>235</ele>
        <time>2011-09-20T08:10:27Z</time>
      </trkpt>
      <trkpt lat="46.70371" lon="5.48467">
        <ele>235</ele>
        <time>2011-09-20T08:10:29Z</time>
      </trkpt>
      <trkpt lat="46.70368" lon="5.48451">
        <ele>235</ele>
        <time>2011-09-20T08:10:32Z</time>
      </trkpt>
      <trkpt lat="46.70365" lon="5.48438">
        <ele>235</ele>
        <time>2011-09-20T08:10:35Z</time>
      </trkpt>
      <trkpt lat="46.7036" lon="5.48425">
        <ele>235</ele>
        <time>2011-09-20T08:10:38Z</time>
      </trkpt>
      <trkpt lat="46.7036" lon="5.48411">
        <ele>235</ele>
        <time>2011-09-20T08:10:41Z</time>
      </trkpt>
      <trkpt lat="46.7036" lon="5.48397">
        <ele>235</ele>
        <time>2011-09-20T08:11:02Z</time>
      </trkpt>
      <trkpt lat="46.70349" lon="5.48391">
        <ele>235</ele>
        <time>2011-09-20T08:11:07Z</time>
      </trkpt>
      <trkpt lat="46.70339" lon="5.48395">
        <ele>235</ele>
        <time>2011-09-20T08:11:10Z</time>
      </trkpt>
      <trkpt lat="46.70329" lon="5.48399">
        <ele>235</ele>
        <time>2011-09-20T08:11:12Z</time>
      </trkpt>
      <trkpt lat="46.70319" lon="5.48406">
        <ele>241</ele>
        <time>2011-09-20T08:11:14Z</time>
      </trkpt>
      <trkpt lat="46.7031" lon="5.48412">
        <ele>241</ele>
        <time>2011-09-20T08:11:16Z</time>
      </trkpt>
      <trkpt lat="46.70299" lon="5.48416">
        <ele>241</ele>
        <time>2011-09-20T08:11:18Z</time>
      </trkpt>
      <trkpt lat="46.70289" lon="5.48421">
        <ele>241</ele>
        <time>2011-09-20T08:11:20Z</time>
      </trkpt>
      <trkpt lat="46.7028" lon="5.48427">
        <ele>241</ele>
        <time>2011-09-20T08:11:22Z</time>
      </trkpt>
      <trkpt lat="46.70271" lon="5.48433">
        <ele>241</ele>
        <time>2011-09-20T08:11:24Z</time>
      </trkpt>
      <trkpt lat="46.70261" lon="5.48439">
        <ele>241</ele>
        <time>2011-09-20T08:11:26Z</time>
      </trkpt>
      <trkpt lat="46.70251" lon="5.48445">
        <ele>246</ele>
        <time>2011-09-20T08:11:28Z</time>
      </trkpt>
      <trkpt lat="46.7024" lon="5.48449">
        <ele>246</ele>
        <time>2011-09-20T08:11:30Z</time>
      </trkpt>
      <trkpt lat="46.70229" lon="5.48455">
        <ele>246</ele>
        <time>2011-09-20T08:11:32Z</time>
      </trkpt>
      <trkpt lat="46.70221" lon="5.48461">
        <ele>246</ele>
        <time>2011-09-20T08:11:34Z</time>
      </trkpt>
      <trkpt lat="46.70211" lon="5.48466">
        <ele>246</ele>
        <time>2011-09-20T08:11:36Z</time>
      </trkpt>
      <trkpt lat="46.70199" lon="5.48475">
        <ele>246</ele>
        <time>2011-09-20T08:11:39Z</time>
      </trkpt>
      <trkpt lat="46.70189" lon="5.48481">
        <ele>246</ele>
        <time>2011-09-20T08:11:41Z</time>
      </trkpt>
      <trkpt lat="46.70176" lon="5.48488">
        <ele>246</ele>
        <time>2011-09-20T08:11:44Z</time>
      </trkpt>
      <trkpt lat="46.70164" lon="5.48497">
        <ele>246</ele>
        <time>2011-09-20T08:11:47Z</time>
      </trkpt>
      <trkpt lat="46.70155" lon="5.48502">
        <ele>246</ele>
        <time>2011-09-20T08:11:49Z</time>
      </trkpt>
      <trkpt lat="46.70145" lon="5.48509">
        <ele>246</ele>
        <time>2011-09-20T08:11:51Z</time>
      </trkpt>
      <trkpt lat="46.70135" lon="5.48517">
        <ele>252</ele>
        <time>2011-09-20T08:11:53Z</time>
      </trkpt>
      <trkpt lat="46.70126" lon="5.48524">
        <ele>252</ele>
        <time>2011-09-20T08:11:55Z</time>
      </trkpt>
      <trkpt lat="46.70116" lon="5.48531">
        <ele>252</ele>
        <time>2011-09-20T08:11:57Z</time>
      </trkpt>
      <trkpt lat="46.70107" lon="5.48537">
        <ele>252</ele>
        <time>2011-09-20T08:11:59Z</time>
      </trkpt>
      <trkpt lat="46.70098" lon="5.48547">
        <ele>252</ele>
        <time>2011-09-20T08:12:02Z</time>
      </trkpt>
      <trkpt lat="46.70088" lon="5.48561">
        <ele>252</ele>
        <time>2011-09-20T08:12:05Z</time>
      </trkpt>
      <trkpt lat="46.7008" lon="5.4857">
        <ele>252</ele>
        <time>2011-09-20T08:12:07Z</time>
      </trkpt>
      <trkpt lat="46.70072" lon="5.48577">
        <ele>252</ele>
        <time>2011-09-20T08:12:09Z</time>
      </trkpt>
      <trkpt lat="46.70064" lon="5.48584">
        <ele>252</ele>
        <time>2011-09-20T08:12:11Z</time>
      </trkpt>
      <trkpt lat="46.70053" lon="5.48596">
        <ele>252</ele>
        <time>2011-09-20T08:12:14Z</time>
      </trkpt>
      <trkpt lat="46.70042" lon="5.48604">
        <ele>252</ele>
        <time>2011-09-20T08:12:17Z</time>
      </trkpt>
      <trkpt lat="46.70033" lon="5.48604">
        <ele>252</ele>
        <time>2011-09-20T08:12:19Z</time>
      </trkpt>
      <trkpt lat="46.70022" lon="5.48599">
        <ele>252</ele>
        <time>2011-09-20T08:12:21Z</time>
      </trkpt>
      <trkpt lat="46.70013" lon="5.48591">
        <ele>252</ele>
        <time>2011-09-20T08:12:23Z</time>
      </trkpt>
      <trkpt lat="46.70004" lon="5.48581">
        <ele>246</ele>
        <time>2011-09-20T08:12:25Z</time>
      </trkpt>
      <trkpt lat="46.69997" lon="5.48571">
        <ele>246</ele>
        <time>2011-09-20T08:12:27Z</time>
      </trkpt>
      <trkpt lat="46.69989" lon="5.4856">
        <ele>246</ele>
        <time>2011-09-20T08:12:29Z</time>
      </trkpt>
      <trkpt lat="46.6998" lon="5.48548">
        <ele>246</ele>
        <time>2011-09-20T08:12:31Z</time>
      </trkpt>
      <trkpt lat="46.69972" lon="5.48537">
        <ele>246</ele>
        <time>2011-09-20T08:12:33Z</time>
      </trkpt>
      <trkpt lat="46.69964" lon="5.48524">
        <ele>240</ele>
        <time>2011-09-20T08:12:35Z</time>
      </trkpt>
      <trkpt lat="46.69956" lon="5.4851">
        <ele>240</ele>
        <time>2011-09-20T08:12:37Z</time>
      </trkpt>
      <trkpt lat="46.69948" lon="5.48499">
        <ele>240</ele>
        <time>2011-09-20T08:12:39Z</time>
      </trkpt>
      <trkpt lat="46.69939" lon="5.48486">
        <ele>240</ele>
        <time>2011-09-20T08:12:41Z</time>
      </trkpt>
      <trkpt lat="46.6993" lon="5.48474">
        <ele>240</ele>
        <time>2011-09-20T08:12:43Z</time>
      </trkpt>
      <trkpt lat="46.69921" lon="5.4846">
        <ele>240</ele>
        <time>2011-09-20T08:12:45Z</time>
      </trkpt>
      <trkpt lat="46.69912" lon="5.48449">
        <ele>240</ele>
        <time>2011-09-20T08:12:47Z</time>
      </trkpt>
      <trkpt lat="46.69904" lon="5.48437">
        <ele>240</ele>
        <time>2011-09-20T08:12:49Z</time>
      </trkpt>
      <trkpt lat="46.69897" lon="5.48426">
        <ele>240</ele>
        <time>2011-09-20T08:12:51Z</time>
      </trkpt>
      <trkpt lat="46.69889" lon="5.48413">
        <ele>240</ele>
        <time>2011-09-20T08:12:53Z</time>
      </trkpt>
      <trkpt lat="46.6988" lon="5.484">
        <ele>240</ele>
        <time>2011-09-20T08:12:55Z</time>
      </trkpt>
      <trkpt lat="46.6987" lon="5.48388">
        <ele>240</ele>
        <time>2011-09-20T08:12:57Z</time>
      </trkpt>
      <trkpt lat="46.69861" lon="5.48378">
        <ele>240</ele>
        <time>2011-09-20T08:12:59Z</time>
      </trkpt>
      <trkpt lat="46.69854" lon="5.48364">
        <ele>240</ele>
        <time>2011-09-20T08:13:01Z</time>
      </trkpt>
      <trkpt lat="46.69847" lon="5.48352">
        <ele>240</ele>
        <time>2011-09-20T08:13:03Z</time>
      </trkpt>
      <trkpt lat="46.69839" lon="5.48338">
        <ele>245</ele>
        <time>2011-09-20T08:13:06Z</time>
      </trkpt>
      <trkpt lat="46.69832" lon="5.48327">
        <ele>245</ele>
        <time>2011-09-20T08:13:08Z</time>
      </trkpt>
      <trkpt lat="46.69824" lon="5.48318">
        <ele>245</ele>
        <time>2011-09-20T08:13:10Z</time>
      </trkpt>
      <trkpt lat="46.69818" lon="5.48307">
        <ele>245</ele>
        <time>2011-09-20T08:13:12Z</time>
      </trkpt>
      <trkpt lat="46.69808" lon="5.48292">
        <ele>252</ele>
        <time>2011-09-20T08:13:15Z</time>
      </trkpt>
      <trkpt lat="46.69802" lon="5.48279">
        <ele>252</ele>
        <time>2011-09-20T08:13:17Z</time>
      </trkpt>
      <trkpt lat="46.69794" lon="5.48263">
        <ele>252</ele>
        <time>2011-09-20T08:13:19Z</time>
      </trkpt>
      <trkpt lat="46.69784" lon="5.48249">
        <ele>252</ele>
        <time>2011-09-20T08:13:21Z</time>
      </trkpt>
      <trkpt lat="46.69776" lon="5.48236">
        <ele>252</ele>
        <time>2011-09-20T08:13:23Z</time>
      </trkpt>
      <trkpt lat="46.69769" lon="5.48224">
        <ele>252</ele>
        <time>2011-09-20T08:13:25Z</time>
      </trkpt>
      <trkpt lat="46.69759" lon="5.48209">
        <ele>252</ele>
        <time>2011-09-20T08:13:27Z</time>
      </trkpt>
      <trkpt lat="46.6975" lon="5.48196">
        <ele>242</ele>
        <time>2011-09-20T08:13:29Z</time>
      </trkpt>
      <trkpt lat="46.69739" lon="5.48181">
        <ele>242</ele>
        <time>2011-09-20T08:13:31Z</time>
      </trkpt>
      <trkpt lat="46.69729" lon="5.48165">
        <ele>242</ele>
        <time>2011-09-20T08:13:33Z</time>
      </trkpt>
      <trkpt lat="46.6972" lon="5.48149">
        <ele>242</ele>
        <time>2011-09-20T08:13:35Z</time>
      </trkpt>
      <trkpt lat="46.69709" lon="5.48136">
        <ele>236</ele>
        <time>2011-09-20T08:13:37Z</time>
      </trkpt>
      <trkpt lat="46.69699" lon="5.48122">
        <ele>236</ele>
        <time>2011-09-20T08:13:39Z</time>
      </trkpt>
      <trkpt lat="46.6969" lon="5.4811">
        <ele>236</ele>
        <time>2011-09-20T08:13:41Z</time>
      </trkpt>
      <trkpt lat="46.69682" lon="5.48096">
        <ele>236</ele>
        <time>2011-09-20T08:13:43Z</time>
      </trkpt>
      <trkpt lat="46.69673" lon="5.48083">
        <ele>236</ele>
        <time>2011-09-20T08:13:45Z</time>
      </trkpt>
      <trkpt lat="46.69664" lon="5.48069">
        <ele>236</ele>
        <time>2011-09-20T08:13:47Z</time>
      </trkpt>
      <trkpt lat="46.69655" lon="5.48055">
        <ele>236</ele>
        <time>2011-09-20T08:13:49Z</time>
      </trkpt>
      <trkpt lat="46.69648" lon="5.48042">
        <ele>236</ele>
        <time>2011-09-20T08:13:51Z</time>
      </trkpt>
      <trkpt lat="46.6964" lon="5.48029">
        <ele>236</ele>
        <time>2011-09-20T08:13:53Z</time>
      </trkpt>
      <trkpt lat="46.69633" lon="5.48016">
        <ele>236</ele>
        <time>2011-09-20T08:13:55Z</time>
      </trkpt>
      <trkpt lat="46.69624" lon="5.48003">
        <ele>236</ele>
        <time>2011-09-20T08:13:57Z</time>
      </trkpt>
      <trkpt lat="46.69617" lon="5.47991">
        <ele>242</ele>
        <time>2011-09-20T08:13:59Z</time>
      </trkpt>
      <trkpt lat="46.69608" lon="5.4798">
        <ele>242</ele>
        <time>2011-09-20T08:14:01Z</time>
      </trkpt>
      <trkpt lat="46.696" lon="5.47967">
        <ele>242</ele>
        <time>2011-09-20T08:14:03Z</time>
      </trkpt>
      <trkpt lat="46.69591" lon="5.47954">
        <ele>242</ele>
        <time>2011-09-20T08:14:05Z</time>
      </trkpt>
      <trkpt lat="46.69583" lon="5.47939">
        <ele>242</ele>
        <time>2011-09-20T08:14:07Z</time>
      </trkpt>
      <trkpt lat="46.69576" lon="5.47926">
        <ele>242</ele>
        <time>2011-09-20T08:14:09Z</time>
      </trkpt>
      <trkpt lat="46.69567" lon="5.47913">
        <ele>242</ele>
        <time>2011-09-20T08:14:11Z</time>
      </trkpt>
      <trkpt lat="46.69557" lon="5.47901">
        <ele>242</ele>
        <time>2011-09-20T08:14:13Z</time>
      </trkpt>
      <trkpt lat="46.69546" lon="5.47893">
        <ele>242</ele>
        <time>2011-09-20T08:14:15Z</time>
      </trkpt>
      <trkpt lat="46.69533" lon="5.47887">
        <ele>242</ele>
        <time>2011-09-20T08:14:17Z</time>
      </trkpt>
      <trkpt lat="46.69518" lon="5.47883">
        <ele>242</ele>
        <time>2011-09-20T08:14:19Z</time>
      </trkpt>
      <trkpt lat="46.69509" lon="5.4788">
        <ele>242</ele>
        <time>2011-09-20T08:14:20Z</time>
      </trkpt>
      <trkpt lat="46.69491" lon="5.47875">
        <ele>234</ele>
        <time>2011-09-20T08:14:22Z</time>
      </trkpt>
      <trkpt lat="46.69475" lon="5.47874">
        <ele>234</ele>
        <time>2011-09-20T08:14:24Z</time>
      </trkpt>
      <trkpt lat="46.69458" lon="5.47877">
        <ele>234</ele>
        <time>2011-09-20T08:14:26Z</time>
      </trkpt>
      <trkpt lat="46.69442" lon="5.47879">
        <ele>234</ele>
        <time>2011-09-20T08:14:28Z</time>
      </trkpt>
      <trkpt lat="46.69426" lon="5.47882">
        <ele>234</ele>
        <time>2011-09-20T08:14:30Z</time>
      </trkpt>
      <trkpt lat="46.6941" lon="5.47884">
        <ele>234</ele>
        <time>2011-09-20T08:14:32Z</time>
      </trkpt>
      <trkpt lat="46.69395" lon="5.47886">
        <ele>229</ele>
        <time>2011-09-20T08:14:34Z</time>
      </trkpt>
      <trkpt lat="46.69382" lon="5.47889">
        <ele>229</ele>
        <time>2011-09-20T08:14:36Z</time>
      </trkpt>
      <trkpt lat="46.6937" lon="5.4789">
        <ele>229</ele>
        <time>2011-09-20T08:14:38Z</time>
      </trkpt>
      <trkpt lat="46.69357" lon="5.47891">
        <ele>229</ele>
        <time>2011-09-20T08:14:40Z</time>
      </trkpt>
      <trkpt lat="46.69344" lon="5.47892">
        <ele>229</ele>
        <time>2011-09-20T08:14:42Z</time>
      </trkpt>
      <trkpt lat="46.69332" lon="5.47892">
        <ele>229</ele>
        <time>2011-09-20T08:14:44Z</time>
      </trkpt>
      <trkpt lat="46.69319" lon="5.47893">
        <ele>229</ele>
        <time>2011-09-20T08:14:46Z</time>
      </trkpt>
      <trkpt lat="46.69308" lon="5.47898">
        <ele>229</ele>
        <time>2011-09-20T08:14:48Z</time>
      </trkpt>
      <trkpt lat="46.69297" lon="5.47905">
        <ele>229</ele>
        <time>2011-09-20T08:14:50Z</time>
      </trkpt>
      <trkpt lat="46.69286" lon="5.47914">
        <ele>229</ele>
        <time>2011-09-20T08:14:52Z</time>
      </trkpt>
      <trkpt lat="46.69276" lon="5.47924">
        <ele>229</ele>
        <time>2011-09-20T08:14:54Z</time>
      </trkpt>
      <trkpt lat="46.69267" lon="5.47933">
        <ele>229</ele>
        <time>2011-09-20T08:14:56Z</time>
      </trkpt>
      <trkpt lat="46.69258" lon="5.47942">
        <ele>229</ele>
        <time>2011-09-20T08:14:58Z</time>
      </trkpt>
      <trkpt lat="46.69248" lon="5.47951">
        <ele>229</ele>
        <time>2011-09-20T08:15:00Z</time>
      </trkpt>
      <trkpt lat="46.69238" lon="5.47954">
        <ele>229</ele>
        <time>2011-09-20T08:15:02Z</time>
      </trkpt>
      <trkpt lat="46.69227" lon="5.47952">
        <ele>229</ele>
        <time>2011-09-20T08:15:04Z</time>
      </trkpt>
      <trkpt lat="46.69218" lon="5.47944">
        <ele>229</ele>
        <time>2011-09-20T08:15:06Z</time>
      </trkpt>
      <trkpt lat="46.69211" lon="5.47931">
        <ele>229</ele>
        <time>2011-09-20T08:15:08Z</time>
      </trkpt>
      <trkpt lat="46.69203" lon="5.47918">
        <ele>229</ele>
        <time>2011-09-20T08:15:10Z</time>
      </trkpt>
      <trkpt lat="46.69196" lon="5.47905">
        <ele>229</ele>
        <time>2011-09-20T08:15:12Z</time>
      </trkpt>
      <trkpt lat="46.69188" lon="5.47892">
        <ele>229</ele>
        <time>2011-09-20T08:15:14Z</time>
      </trkpt>
      <trkpt lat="46.69181" lon="5.4788">
        <ele>229</ele>
        <time>2011-09-20T08:15:16Z</time>
      </trkpt>
      <trkpt lat="46.69173" lon="5.47868">
        <ele>229</ele>
        <time>2011-09-20T08:15:18Z</time>
      </trkpt>
      <trkpt lat="46.69165" lon="5.47856">
        <ele>229</ele>
        <time>2011-09-20T08:15:20Z</time>
      </trkpt>
      <trkpt lat="46.69157" lon="5.47844">
        <ele>229</ele>
        <time>2011-09-20T08:15:22Z</time>
      </trkpt>
      <trkpt lat="46.69149" lon="5.47831">
        <ele>229</ele>
        <time>2011-09-20T08:15:24Z</time>
      </trkpt>
      <trkpt lat="46.69143" lon="5.47819">
        <ele>229</ele>
        <time>2011-09-20T08:15:26Z</time>
      </trkpt>
      <trkpt lat="46.69135" lon="5.47805">
        <ele>229</ele>
        <time>2011-09-20T08:15:28Z</time>
      </trkpt>
      <trkpt lat="46.69126" lon="5.47793">
        <ele>229</ele>
        <time>2011-09-20T08:15:30Z</time>
      </trkpt>
      <trkpt lat="46.69117" lon="5.47779">
        <ele>229</ele>
        <time>2011-09-20T08:15:32Z</time>
      </trkpt>
      <trkpt lat="46.69109" lon="5.47766">
        <ele>229</ele>
        <time>2011-09-20T08:15:34Z</time>
      </trkpt>
      <trkpt lat="46.69101" lon="5.47752">
        <ele>229</ele>
        <time>2011-09-20T08:15:36Z</time>
      </trkpt>
      <trkpt lat="46.69092" lon="5.47738">
        <ele>229</ele>
        <time>2011-09-20T08:15:38Z</time>
      </trkpt>
      <trkpt lat="46.69083" lon="5.47724">
        <ele>229</ele>
        <time>2011-09-20T08:15:40Z</time>
      </trkpt>
      <trkpt lat="46.69075" lon="5.4771">
        <ele>229</ele>
        <time>2011-09-20T08:15:42Z</time>
      </trkpt>
      <trkpt lat="46.69066" lon="5.47696">
        <ele>229</ele>
        <time>2011-09-20T08:15:44Z</time>
      </trkpt>
      <trkpt lat="46.69057" lon="5.4768">
        <ele>229</ele>
        <time>2011-09-20T08:15:46Z</time>
      </trkpt>
      <trkpt lat="46.69047" lon="5.47665">
        <ele>229</ele>
        <time>2011-09-20T08:15:48Z</time>
      </trkpt>
      <trkpt lat="46.69038" lon="5.4765">
        <ele>229</ele>
        <time>2011-09-20T08:15:50Z</time>
      </trkpt>
      <trkpt lat="46.69028" lon="5.47636">
        <ele>229</ele>
        <time>2011-09-20T08:15:52Z</time>
      </trkpt>
      <trkpt lat="46.69018" lon="5.4762">
        <ele>229</ele>
        <time>2011-09-20T08:15:54Z</time>
      </trkpt>
      <trkpt lat="46.69009" lon="5.47605">
        <ele>229</ele>
        <time>2011-09-20T08:15:56Z</time>
      </trkpt>
      <trkpt lat="46.69" lon="5.47591">
        <ele>229</ele>
        <time>2011-09-20T08:15:58Z</time>
      </trkpt>
      <trkpt lat="46.68991" lon="5.47575">
        <ele>229</ele>
        <time>2011-09-20T08:16:00Z</time>
      </trkpt>
      <trkpt lat="46.68982" lon="5.47562">
        <ele>229</ele>
        <time>2011-09-20T08:16:02Z</time>
      </trkpt>
      <trkpt lat="46.68974" lon="5.47547">
        <ele>229</ele>
        <time>2011-09-20T08:16:04Z</time>
      </trkpt>
      <trkpt lat="46.68966" lon="5.47535">
        <ele>229</ele>
        <time>2011-09-20T08:16:06Z</time>
      </trkpt>
      <trkpt lat="46.68958" lon="5.47521">
        <ele>229</ele>
        <time>2011-09-20T08:16:08Z</time>
      </trkpt>
      <trkpt lat="46.68949" lon="5.47508">
        <ele>229</ele>
        <time>2011-09-20T08:16:10Z</time>
      </trkpt>
      <trkpt lat="46.68941" lon="5.47494">
        <ele>229</ele>
        <time>2011-09-20T08:16:12Z</time>
      </trkpt>
      <trkpt lat="46.68932" lon="5.47481">
        <ele>229</ele>
        <time>2011-09-20T08:16:14Z</time>
      </trkpt>
      <trkpt lat="46.68924" lon="5.47468">
        <ele>229</ele>
        <time>2011-09-20T08:16:16Z</time>
      </trkpt>
      <trkpt lat="46.68916" lon="5.47453">
        <ele>229</ele>
        <time>2011-09-20T08:16:18Z</time>
      </trkpt>
      <trkpt lat="46.68907" lon="5.47441">
        <ele>229</ele>
        <time>2011-09-20T08:16:20Z</time>
      </trkpt>
      <trkpt lat="46.68898" lon="5.47427">
        <ele>229</ele>
        <time>2011-09-20T08:16:22Z</time>
      </trkpt>
      <trkpt lat="46.68889" lon="5.47414">
        <ele>229</ele>
        <time>2011-09-20T08:16:24Z</time>
      </trkpt>
      <trkpt lat="46.68878" lon="5.474">
        <ele>229</ele>
        <time>2011-09-20T08:16:26Z</time>
      </trkpt>
      <trkpt lat="46.68866" lon="5.47387">
        <ele>229</ele>
        <time>2011-09-20T08:16:28Z</time>
      </trkpt>
      <trkpt lat="46.68853" lon="5.47374">
        <ele>229</ele>
        <time>2011-09-20T08:16:30Z</time>
      </trkpt>
      <trkpt lat="46.68838" lon="5.47363">
        <ele>229</ele>
        <time>2011-09-20T08:16:32Z</time>
      </trkpt>
      <trkpt lat="46.68822" lon="5.47355">
        <ele>229</ele>
        <time>2011-09-20T08:16:34Z</time>
      </trkpt>
      <trkpt lat="46.68806" lon="5.47351">
        <ele>229</ele>
        <time>2011-09-20T08:16:36Z</time>
      </trkpt>
      <trkpt lat="46.68789" lon="5.47347">
        <ele>229</ele>
        <time>2011-09-20T08:16:38Z</time>
      </trkpt>
      <trkpt lat="46.68772" lon="5.47345">
        <ele>229</ele>
        <time>2011-09-20T08:16:40Z</time>
      </trkpt>
      <trkpt lat="46.68756" lon="5.47344">
        <ele>229</ele>
        <time>2011-09-20T08:16:42Z</time>
      </trkpt>
      <trkpt lat="46.68741" lon="5.47341">
        <ele>229</ele>
        <time>2011-09-20T08:16:44Z</time>
      </trkpt>
      <trkpt lat="46.68728" lon="5.47333">
        <ele>229</ele>
        <time>2011-09-20T08:16:46Z</time>
      </trkpt>
      <trkpt lat="46.68719" lon="5.47318">
        <ele>229</ele>
        <time>2011-09-20T08:16:48Z</time>
      </trkpt>
      <trkpt lat="46.68709" lon="5.47301">
        <ele>229</ele>
        <time>2011-09-20T08:16:50Z</time>
      </trkpt>
      <trkpt lat="46.68701" lon="5.47285">
        <ele>229</ele>
        <time>2011-09-20T08:16:52Z</time>
      </trkpt>
      <trkpt lat="46.68693" lon="5.4727">
        <ele>229</ele>
        <time>2011-09-20T08:16:54Z</time>
      </trkpt>
      <trkpt lat="46.68684" lon="5.47254">
        <ele>229</ele>
        <time>2011-09-20T08:16:56Z</time>
      </trkpt>
      <trkpt lat="46.68676" lon="5.47238">
        <ele>229</ele>
        <time>2011-09-20T08:16:58Z</time>
      </trkpt>
      <trkpt lat="46.68668" lon="5.47223">
        <ele>229</ele>
        <time>2011-09-20T08:17:00Z</time>
      </trkpt>
      <trkpt lat="46.6866" lon="5.47209">
        <ele>229</ele>
        <time>2011-09-20T08:17:02Z</time>
      </trkpt>
      <trkpt lat="46.68652" lon="5.47195">
        <ele>229</ele>
        <time>2011-09-20T08:17:04Z</time>
      </trkpt>
      <trkpt lat="46.68644" lon="5.47181">
        <ele>229</ele>
        <time>2011-09-20T08:17:06Z</time>
      </trkpt>
      <trkpt lat="46.68637" lon="5.47167">
        <ele>229</ele>
        <time>2011-09-20T08:17:08Z</time>
      </trkpt>
      <trkpt lat="46.68629" lon="5.47152">
        <ele>229</ele>
        <time>2011-09-20T08:17:10Z</time>
      </trkpt>
      <trkpt lat="46.68621" lon="5.47138">
        <ele>229</ele>
        <time>2011-09-20T08:17:12Z</time>
      </trkpt>
      <trkpt lat="46.68612" lon="5.47123">
        <ele>229</ele>
        <time>2011-09-20T08:17:14Z</time>
      </trkpt>
      <trkpt lat="46.68604" lon="5.47108">
        <ele>229</ele>
        <time>2011-09-20T08:17:16Z</time>
      </trkpt>
      <trkpt lat="46.68596" lon="5.47093">
        <ele>229</ele>
        <time>2011-09-20T08:17:18Z</time>
      </trkpt>
      <trkpt lat="46.68588" lon="5.47079">
        <ele>229</ele>
        <time>2011-09-20T08:17:20Z</time>
      </trkpt>
      <trkpt lat="46.6858" lon="5.47063">
        <ele>229</ele>
        <time>2011-09-20T08:17:22Z</time>
      </trkpt>
      <trkpt lat="46.68571" lon="5.47049">
        <ele>229</ele>
        <time>2011-09-20T08:17:24Z</time>
      </trkpt>
      <trkpt lat="46.68563" lon="5.47034">
        <ele>229</ele>
        <time>2011-09-20T08:17:26Z</time>
      </trkpt>
      <trkpt lat="46.68555" lon="5.47018">
        <ele>229</ele>
        <time>2011-09-20T08:17:28Z</time>
      </trkpt>
      <trkpt lat="46.68546" lon="5.47004">
        <ele>229</ele>
        <time>2011-09-20T08:17:30Z</time>
      </trkpt>
      <trkpt lat="46.68537" lon="5.46989">
        <ele>229</ele>
        <time>2011-09-20T08:17:32Z</time>
      </trkpt>
      <trkpt lat="46.68528" lon="5.46973">
        <ele>229</ele>
        <time>2011-09-20T08:17:34Z</time>
      </trkpt>
      <trkpt lat="46.68518" lon="5.46956">
        <ele>229</ele>
        <time>2011-09-20T08:17:36Z</time>
      </trkpt>
      <trkpt lat="46.6851" lon="5.4694">
        <ele>229</ele>
        <time>2011-09-20T08:17:38Z</time>
      </trkpt>
      <trkpt lat="46.685" lon="5.46924">
        <ele>229</ele>
        <time>2011-09-20T08:17:40Z</time>
      </trkpt>
      <trkpt lat="46.68491" lon="5.46908">
        <ele>229</ele>
        <time>2011-09-20T08:17:42Z</time>
      </trkpt>
      <trkpt lat="46.68482" lon="5.46891">
        <ele>229</ele>
        <time>2011-09-20T08:17:44Z</time>
      </trkpt>
      <trkpt lat="46.68472" lon="5.46874">
        <ele>229</ele>
        <time>2011-09-20T08:17:46Z</time>
      </trkpt>
      <trkpt lat="46.68462" lon="5.46858">
        <ele>229</ele>
        <time>2011-09-20T08:17:48Z</time>
      </trkpt>
      <trkpt lat="46.68453" lon="5.4684">
        <ele>229</ele>
        <time>2011-09-20T08:17:50Z</time>
      </trkpt>
      <trkpt lat="46.68443" lon="5.46824">
        <ele>229</ele>
        <time>2011-09-20T08:17:52Z</time>
      </trkpt>
      <trkpt lat="46.68433" lon="5.46808">
        <ele>229</ele>
        <time>2011-09-20T08:17:54Z</time>
      </trkpt>
      <trkpt lat="46.68423" lon="5.46791">
        <ele>229</ele>
        <time>2011-09-20T08:17:56Z</time>
      </trkpt>
      <trkpt lat="46.68413" lon="5.46775">
        <ele>229</ele>
        <time>2011-09-20T08:17:58Z</time>
      </trkpt>
      <trkpt lat="46.68402" lon="5.46757">
        <ele>229</ele>
        <time>2011-09-20T08:18:00Z</time>
      </trkpt>
      <trkpt lat="46.68391" lon="5.4674">
        <ele>229</ele>
        <time>2011-09-20T08:18:02Z</time>
      </trkpt>
      <trkpt lat="46.6838" lon="5.46722">
        <ele>223</ele>
        <time>2011-09-20T08:18:04Z</time>
      </trkpt>
      <trkpt lat="46.68369" lon="5.46703">
        <ele>223</ele>
        <time>2011-09-20T08:18:06Z</time>
      </trkpt>
      <trkpt lat="46.68358" lon="5.46687">
        <ele>223</ele>
        <time>2011-09-20T08:18:08Z</time>
      </trkpt>
      <trkpt lat="46.68346" lon="5.46672">
        <ele>223</ele>
        <time>2011-09-20T08:18:10Z</time>
      </trkpt>
      <trkpt lat="46.68334" lon="5.46659">
        <ele>223</ele>
        <time>2011-09-20T08:18:12Z</time>
      </trkpt>
      <trkpt lat="46.68323" lon="5.46647">
        <ele>223</ele>
        <time>2011-09-20T08:18:14Z</time>
      </trkpt>
      <trkpt lat="46.68312" lon="5.46637">
        <ele>223</ele>
        <time>2011-09-20T08:18:16Z</time>
      </trkpt>
      <trkpt lat="46.68301" lon="5.46628">
        <ele>223</ele>
        <time>2011-09-20T08:18:18Z</time>
      </trkpt>
      <trkpt lat="46.68291" lon="5.46619">
        <ele>223</ele>
        <time>2011-09-20T08:18:20Z</time>
      </trkpt>
      <trkpt lat="46.6828" lon="5.46611">
        <ele>223</ele>
        <time>2011-09-20T08:18:22Z</time>
      </trkpt>
      <trkpt lat="46.6827" lon="5.46602">
        <ele>223</ele>
        <time>2011-09-20T08:18:24Z</time>
      </trkpt>
      <trkpt lat="46.6826" lon="5.46595">
        <ele>223</ele>
        <time>2011-09-20T08:18:26Z</time>
      </trkpt>
      <trkpt lat="46.6825" lon="5.46588">
        <ele>229</ele>
        <time>2011-09-20T08:18:28Z</time>
      </trkpt>
      <trkpt lat="46.68239" lon="5.4658">
        <ele>229</ele>
        <time>2011-09-20T08:18:30Z</time>
      </trkpt>
      <trkpt lat="46.68229" lon="5.46571">
        <ele>229</ele>
        <time>2011-09-20T08:18:32Z</time>
      </trkpt>
      <trkpt lat="46.68218" lon="5.46563">
        <ele>229</ele>
        <time>2011-09-20T08:18:34Z</time>
      </trkpt>
      <trkpt lat="46.68207" lon="5.46554">
        <ele>229</ele>
        <time>2011-09-20T08:18:36Z</time>
      </trkpt>
      <trkpt lat="46.68197" lon="5.46545">
        <ele>229</ele>
        <time>2011-09-20T08:18:38Z</time>
      </trkpt>
      <trkpt lat="46.68186" lon="5.46537">
        <ele>229</ele>
        <time>2011-09-20T08:18:40Z</time>
      </trkpt>
      <trkpt lat="46.68175" lon="5.46529">
        <ele>229</ele>
        <time>2011-09-20T08:18:42Z</time>
      </trkpt>
      <trkpt lat="46.68163" lon="5.46522">
        <ele>229</ele>
        <time>2011-09-20T08:18:44Z</time>
      </trkpt>
      <trkpt lat="46.68152" lon="5.46515">
        <ele>229</ele>
        <time>2011-09-20T08:18:46Z</time>
      </trkpt>
      <trkpt lat="46.6814" lon="5.46509">
        <ele>229</ele>
        <time>2011-09-20T08:18:48Z</time>
      </trkpt>
      <trkpt lat="46.68128" lon="5.46503">
        <ele>229</ele>
        <time>2011-09-20T08:18:50Z</time>
      </trkpt>
      <trkpt lat="46.68116" lon="5.46496">
        <ele>229</ele>
        <time>2011-09-20T08:18:52Z</time>
      </trkpt>
      <trkpt lat="46.68105" lon="5.46491">
        <ele>229</ele>
        <time>2011-09-20T08:18:54Z</time>
      </trkpt>
      <trkpt lat="46.68094" lon="5.46486">
        <ele>229</ele>
        <time>2011-09-20T08:18:56Z</time>
      </trkpt>
      <trkpt lat="46.68084" lon="5.4648">
        <ele>229</ele>
        <time>2011-09-20T08:18:58Z</time>
      </trkpt>
      <trkpt lat="46.68074" lon="5.46475">
        <ele>229</ele>
        <time>2011-09-20T08:19:00Z</time>
      </trkpt>
      <trkpt lat="46.68065" lon="5.46471">
        <ele>229</ele>
        <time>2011-09-20T08:19:02Z</time>
      </trkpt>
      <trkpt lat="46.68055" lon="5.46467">
        <ele>229</ele>
        <time>2011-09-20T08:19:04Z</time>
      </trkpt>
      <trkpt lat="46.68044" lon="5.46461">
        <ele>229</ele>
        <time>2011-09-20T08:19:06Z</time>
      </trkpt>
      <trkpt lat="46.68033" lon="5.46456">
        <ele>229</ele>
        <time>2011-09-20T08:19:08Z</time>
      </trkpt>
      <trkpt lat="46.68021" lon="5.46451">
        <ele>229</ele>
        <time>2011-09-20T08:19:10Z</time>
      </trkpt>
      <trkpt lat="46.6801" lon="5.46445">
        <ele>229</ele>
        <time>2011-09-20T08:19:12Z</time>
      </trkpt>
      <trkpt lat="46.67998" lon="5.46439">
        <ele>229</ele>
        <time>2011-09-20T08:19:14Z</time>
      </trkpt>
      <trkpt lat="46.67986" lon="5.46434">
        <ele>229</ele>
        <time>2011-09-20T08:19:16Z</time>
      </trkpt>
      <trkpt lat="46.67974" lon="5.46427">
        <ele>229</ele>
        <time>2011-09-20T08:19:18Z</time>
      </trkpt>
      <trkpt lat="46.67961" lon="5.46421">
        <ele>229</ele>
        <time>2011-09-20T08:19:20Z</time>
      </trkpt>
      <trkpt lat="46.67948" lon="5.46415">
        <ele>229</ele>
        <time>2011-09-20T08:19:22Z</time>
      </trkpt>
      <trkpt lat="46.67935" lon="5.46408">
        <ele>229</ele>
        <time>2011-09-20T08:19:24Z</time>
      </trkpt>
      <trkpt lat="46.67923" lon="5.46402">
        <ele>229</ele>
        <time>2011-09-20T08:19:26Z</time>
      </trkpt>
      <trkpt lat="46.6791" lon="5.46396">
        <ele>229</ele>
        <time>2011-09-20T08:19:28Z</time>
      </trkpt>
      <trkpt lat="46.67898" lon="5.4639">
        <ele>229</ele>
        <time>2011-09-20T08:19:30Z</time>
      </trkpt>
      <trkpt lat="46.67885" lon="5.46383">
        <ele>229</ele>
        <time>2011-09-20T08:19:32Z</time>
      </trkpt>
      <trkpt lat="46.67872" lon="5.46377">
        <ele>229</ele>
        <time>2011-09-20T08:19:34Z</time>
      </trkpt>
      <trkpt lat="46.67859" lon="5.46372">
        <ele>229</ele>
        <time>2011-09-20T08:19:36Z</time>
      </trkpt>
      <trkpt lat="46.67847" lon="5.46365">
        <ele>229</ele>
        <time>2011-09-20T08:19:38Z</time>
      </trkpt>
      <trkpt lat="46.67834" lon="5.46359">
        <ele>229</ele>
        <time>2011-09-20T08:19:40Z</time>
      </trkpt>
      <trkpt lat="46.67822" lon="5.46353">
        <ele>229</ele>
        <time>2011-09-20T08:19:42Z</time>
      </trkpt>
      <trkpt lat="46.6781" lon="5.46346">
        <ele>229</ele>
        <time>2011-09-20T08:19:44Z</time>
      </trkpt>
      <trkpt lat="46.67798" lon="5.4634">
        <ele>234</ele>
        <time>2011-09-20T08:19:46Z</time>
      </trkpt>
      <trkpt lat="46.67786" lon="5.46333">
        <ele>234</ele>
        <time>2011-09-20T08:19:48Z</time>
      </trkpt>
      <trkpt lat="46.67773" lon="5.46327">
        <ele>234</ele>
        <time>2011-09-20T08:19:50Z</time>
      </trkpt>
      <trkpt lat="46.67761" lon="5.4632">
        <ele>234</ele>
        <time>2011-09-20T08:19:52Z</time>
      </trkpt>
      <trkpt lat="46.67748" lon="5.46314">
        <ele>234</ele>
        <time>2011-09-20T08:19:54Z</time>
      </trkpt>
      <trkpt lat="46.67734" lon="5.46308">
        <ele>234</ele>
        <time>2011-09-20T08:19:56Z</time>
      </trkpt>
      <trkpt lat="46.67721" lon="5.46302">
        <ele>234</ele>
        <time>2011-09-20T08:19:58Z</time>
      </trkpt>
      <trkpt lat="46.67707" lon="5.46295">
        <ele>234</ele>
        <time>2011-09-20T08:20:00Z</time>
      </trkpt>
      <trkpt lat="46.67694" lon="5.46289">
        <ele>234</ele>
        <time>2011-09-20T08:20:02Z</time>
      </trkpt>
      <trkpt lat="46.67681" lon="5.46283">
        <ele>234</ele>
        <time>2011-09-20T08:20:04Z</time>
      </trkpt>
      <trkpt lat="46.67667" lon="5.46275">
        <ele>234</ele>
        <time>2011-09-20T08:20:06Z</time>
      </trkpt>
      <trkpt lat="46.67653" lon="5.46269">
        <ele>234</ele>
        <time>2011-09-20T08:20:08Z</time>
      </trkpt>
      <trkpt lat="46.67639" lon="5.46263">
        <ele>234</ele>
        <time>2011-09-20T08:20:10Z</time>
      </trkpt>
      <trkpt lat="46.67625" lon="5.46256">
        <ele>234</ele>
        <time>2011-09-20T08:20:12Z</time>
      </trkpt>
      <trkpt lat="46.67611" lon="5.46249">
        <ele>234</ele>
        <time>2011-09-20T08:20:14Z</time>
      </trkpt>
      <trkpt lat="46.67596" lon="5.46242">
        <ele>234</ele>
        <time>2011-09-20T08:20:16Z</time>
      </trkpt>
      <trkpt lat="46.67584" lon="5.46236">
        <ele>234</ele>
        <time>2011-09-20T08:20:18Z</time>
      </trkpt>
      <trkpt lat="46.67571" lon="5.4623">
        <ele>234</ele>
        <time>2011-09-20T08:20:20Z</time>
      </trkpt>
      <trkpt lat="46.67558" lon="5.46223">
        <ele>234</ele>
        <time>2011-09-20T08:20:22Z</time>
      </trkpt>
      <trkpt lat="46.67545" lon="5.46217">
        <ele>234</ele>
        <time>2011-09-20T08:20:24Z</time>
      </trkpt>
      <trkpt lat="46.67532" lon="5.46211">
        <ele>234</ele>
        <time>2011-09-20T08:20:26Z</time>
      </trkpt>
      <trkpt lat="46.67519" lon="5.46204">
        <ele>234</ele>
        <time>2011-09-20T08:20:28Z</time>
      </trkpt>
      <trkpt lat="46.67506" lon="5.46198">
        <ele>234</ele>
        <time>2011-09-20T08:20:30Z</time>
      </trkpt>
      <trkpt lat="46.67494" lon="5.46192">
        <ele>234</ele>
        <time>2011-09-20T08:20:32Z</time>
      </trkpt>
      <trkpt lat="46.67481" lon="5.46186">
        <ele>234</ele>
        <time>2011-09-20T08:20:34Z</time>
      </trkpt>
      <trkpt lat="46.67468" lon="5.46179">
        <ele>234</ele>
        <time>2011-09-20T08:20:36Z</time>
      </trkpt>
      <trkpt lat="46.67455" lon="5.46172">
        <ele>234</ele>
        <time>2011-09-20T08:20:38Z</time>
      </trkpt>
      <trkpt lat="46.67442" lon="5.46167">
        <ele>234</ele>
        <time>2011-09-20T08:20:40Z</time>
      </trkpt>
      <trkpt lat="46.67429" lon="5.4616">
        <ele>234</ele>
        <time>2011-09-20T08:20:42Z</time>
      </trkpt>
      <trkpt lat="46.67416" lon="5.46154">
        <ele>234</ele>
        <time>2011-09-20T08:20:44Z</time>
      </trkpt>
      <trkpt lat="46.67404" lon="5.46148">
        <ele>234</ele>
        <time>2011-09-20T08:20:46Z</time>
      </trkpt>
      <trkpt lat="46.67391" lon="5.46142">
        <ele>234</ele>
        <time>2011-09-20T08:20:48Z</time>
      </trkpt>
      <trkpt lat="46.67379" lon="5.46136">
        <ele>234</ele>
        <time>2011-09-20T08:20:50Z</time>
      </trkpt>
      <trkpt lat="46.67367" lon="5.46131">
        <ele>234</ele>
        <time>2011-09-20T08:20:52Z</time>
      </trkpt>
      <trkpt lat="46.67355" lon="5.46125">
        <ele>234</ele>
        <time>2011-09-20T08:20:54Z</time>
      </trkpt>
      <trkpt lat="46.67343" lon="5.46118">
        <ele>234</ele>
        <time>2011-09-20T08:20:56Z</time>
      </trkpt>
      <trkpt lat="46.67331" lon="5.46113">
        <ele>234</ele>
        <time>2011-09-20T08:20:58Z</time>
      </trkpt>
      <trkpt lat="46.67318" lon="5.46107">
        <ele>234</ele>
        <time>2011-09-20T08:21:00Z</time>
      </trkpt>
      <trkpt lat="46.67306" lon="5.46101">
        <ele>234</ele>
        <time>2011-09-20T08:21:02Z</time>
      </trkpt>
      <trkpt lat="46.67295" lon="5.46096">
        <ele>234</ele>
        <time>2011-09-20T08:21:04Z</time>
      </trkpt>
      <trkpt lat="46.67284" lon="5.4609">
        <ele>234</ele>
        <time>2011-09-20T08:21:06Z</time>
      </trkpt>
      <trkpt lat="46.67272" lon="5.46084">
        <ele>234</ele>
        <time>2011-09-20T08:21:08Z</time>
      </trkpt>
      <trkpt lat="46.67262" lon="5.46079">
        <ele>234</ele>
        <time>2011-09-20T08:21:10Z</time>
      </trkpt>
      <trkpt lat="46.67251" lon="5.46073">
        <ele>234</ele>
        <time>2011-09-20T08:21:12Z</time>
      </trkpt>
      <trkpt lat="46.6724" lon="5.46068">
        <ele>234</ele>
        <time>2011-09-20T08:21:14Z</time>
      </trkpt>
      <trkpt lat="46.6723" lon="5.46063">
        <ele>234</ele>
        <time>2011-09-20T08:21:16Z</time>
      </trkpt>
      <trkpt lat="46.67219" lon="5.46057">
        <ele>234</ele>
        <time>2011-09-20T08:21:19Z</time>
      </trkpt>
      <trkpt lat="46.67211" lon="5.46053">
        <ele>234</ele>
        <time>2011-09-20T08:21:22Z</time>
      </trkpt>
      <trkpt lat="46.67201" lon="5.46046">
        <ele>234</ele>
        <time>2011-09-20T08:21:26Z</time>
      </trkpt>
      <trkpt lat="46.67193" lon="5.46042">
        <ele>234</ele>
        <time>2011-09-20T08:21:29Z</time>
      </trkpt>
      <trkpt lat="46.67183" lon="5.46036">
        <ele>234</ele>
        <time>2011-09-20T08:21:33Z</time>
      </trkpt>
      <trkpt lat="46.67172" lon="5.46034">
        <ele>234</ele>
        <time>2011-09-20T08:22:32Z</time>
      </trkpt>
      <trkpt lat="46.67162" lon="5.46035">
        <ele>234</ele>
        <time>2011-09-20T08:22:36Z</time>
      </trkpt>
      <trkpt lat="46.67152" lon="5.46037">
        <ele>234</ele>
        <time>2011-09-20T08:22:39Z</time>
      </trkpt>
      <trkpt lat="46.6714" lon="5.46039">
        <ele>234</ele>
        <time>2011-09-20T08:22:42Z</time>
      </trkpt>
      <trkpt lat="46.67127" lon="5.46042">
        <ele>234</ele>
        <time>2011-09-20T08:22:45Z</time>
      </trkpt>
      <trkpt lat="46.67117" lon="5.46043">
        <ele>234</ele>
        <time>2011-09-20T08:22:47Z</time>
      </trkpt>
      <trkpt lat="46.67104" lon="5.46044">
        <ele>234</ele>
        <time>2011-09-20T08:22:50Z</time>
      </trkpt>
      <trkpt lat="46.67094" lon="5.46044">
        <ele>234</ele>
        <time>2011-09-20T08:22:52Z</time>
      </trkpt>
      <trkpt lat="46.67085" lon="5.46044">
        <ele>234</ele>
        <time>2011-09-20T08:22:54Z</time>
      </trkpt>
      <trkpt lat="46.67074" lon="5.46045">
        <ele>234</ele>
        <time>2011-09-20T08:22:56Z</time>
      </trkpt>
      <trkpt lat="46.67063" lon="5.46045">
        <ele>234</ele>
        <time>2011-09-20T08:22:58Z</time>
      </trkpt>
      <trkpt lat="46.67051" lon="5.46044">
        <ele>234</ele>
        <time>2011-09-20T08:23:00Z</time>
      </trkpt>
      <trkpt lat="46.67038" lon="5.46041">
        <ele>234</ele>
        <time>2011-09-20T08:23:02Z</time>
      </trkpt>
      <trkpt lat="46.67027" lon="5.46036">
        <ele>234</ele>
        <time>2011-09-20T08:23:04Z</time>
      </trkpt>
      <trkpt lat="46.67016" lon="5.46028">
        <ele>234</ele>
        <time>2011-09-20T08:23:06Z</time>
      </trkpt>
      <trkpt lat="46.67005" lon="5.46021">
        <ele>234</ele>
        <time>2011-09-20T08:23:08Z</time>
      </trkpt>
      <trkpt lat="46.66995" lon="5.46014">
        <ele>234</ele>
        <time>2011-09-20T08:23:10Z</time>
      </trkpt>
      <trkpt lat="46.66986" lon="5.46006">
        <ele>234</ele>
        <time>2011-09-20T08:23:12Z</time>
      </trkpt>
      <trkpt lat="46.66974" lon="5.46">
        <ele>234</ele>
        <time>2011-09-20T08:23:14Z</time>
      </trkpt>
      <trkpt lat="46.66964" lon="5.45993">
        <ele>234</ele>
        <time>2011-09-20T08:23:16Z</time>
      </trkpt>
      <trkpt lat="46.66953" lon="5.45988">
        <ele>234</ele>
        <time>2011-09-20T08:23:18Z</time>
      </trkpt>
      <trkpt lat="46.66942" lon="5.45983">
        <ele>234</ele>
        <time>2011-09-20T08:23:20Z</time>
      </trkpt>
      <trkpt lat="46.66932" lon="5.45977">
        <ele>234</ele>
        <time>2011-09-20T08:23:22Z</time>
      </trkpt>
      <trkpt lat="46.66921" lon="5.45971">
        <ele>234</ele>
        <time>2011-09-20T08:23:24Z</time>
      </trkpt>
      <trkpt lat="46.66912" lon="5.45966">
        <ele>234</ele>
        <time>2011-09-20T08:23:26Z</time>
      </trkpt>
      <trkpt lat="46.66903" lon="5.45957">
        <ele>234</ele>
        <time>2011-09-20T08:23:28Z</time>
      </trkpt>
      <trkpt lat="46.66895" lon="5.45948">
        <ele>234</ele>
        <time>2011-09-20T08:23:30Z</time>
      </trkpt>
      <trkpt lat="46.66888" lon="5.45937">
        <ele>234</ele>
        <time>2011-09-20T08:23:32Z</time>
      </trkpt>
      <trkpt lat="46.66882" lon="5.45924">
        <ele>234</ele>
        <time>2011-09-20T08:23:34Z</time>
      </trkpt>
      <trkpt lat="46.66877" lon="5.45912">
        <ele>234</ele>
        <time>2011-09-20T08:23:36Z</time>
      </trkpt>
      <trkpt lat="46.66872" lon="5.45898">
        <ele>234</ele>
        <time>2011-09-20T08:23:38Z</time>
      </trkpt>
      <trkpt lat="46.66867" lon="5.45886">
        <ele>234</ele>
        <time>2011-09-20T08:23:40Z</time>
      </trkpt>
      <trkpt lat="46.6686" lon="5.45874">
        <ele>234</ele>
        <time>2011-09-20T08:23:42Z</time>
      </trkpt>
      <trkpt lat="46.66853" lon="5.45862">
        <ele>234</ele>
        <time>2011-09-20T08:23:44Z</time>
      </trkpt>
      <trkpt lat="46.66846" lon="5.4585">
        <ele>234</ele>
        <time>2011-09-20T08:23:46Z</time>
      </trkpt>
      <trkpt lat="46.66838" lon="5.45837">
        <ele>234</ele>
        <time>2011-09-20T08:23:48Z</time>
      </trkpt>
      <trkpt lat="46.66831" lon="5.45825">
        <ele>234</ele>
        <time>2011-09-20T08:23:50Z</time>
      </trkpt>
      <trkpt lat="46.66823" lon="5.45813">
        <ele>234</ele>
        <time>2011-09-20T08:23:52Z</time>
      </trkpt>
      <trkpt lat="46.66814" lon="5.45803">
        <ele>234</ele>
        <time>2011-09-20T08:23:54Z</time>
      </trkpt>
      <trkpt lat="46.66804" lon="5.45795">
        <ele>234</ele>
        <time>2011-09-20T08:23:56Z</time>
      </trkpt>
      <trkpt lat="46.66793" lon="5.45791">
        <ele>234</ele>
        <time>2011-09-20T08:23:58Z</time>
      </trkpt>
      <trkpt lat="46.66781" lon="5.45791">
        <ele>234</ele>
        <time>2011-09-20T08:24:00Z</time>
      </trkpt>
      <trkpt lat="46.66769" lon="5.45794">
        <ele>234</ele>
        <time>2011-09-20T08:24:02Z</time>
      </trkpt>
      <trkpt lat="46.66758" lon="5.45797">
        <ele>234</ele>
        <time>2011-09-20T08:24:04Z</time>
      </trkpt>
      <trkpt lat="46.66746" lon="5.458">
        <ele>234</ele>
        <time>2011-09-20T08:24:06Z</time>
      </trkpt>
      <trkpt lat="46.66734" lon="5.45805">
        <ele>234</ele>
        <time>2011-09-20T08:24:08Z</time>
      </trkpt>
      <trkpt lat="46.66723" lon="5.45808">
        <ele>234</ele>
        <time>2011-09-20T08:24:10Z</time>
      </trkpt>
      <trkpt lat="46.66711" lon="5.45811">
        <ele>234</ele>
        <time>2011-09-20T08:24:12Z</time>
      </trkpt>
      <trkpt lat="46.667" lon="5.45815">
        <ele>234</ele>
        <time>2011-09-20T08:24:14Z</time>
      </trkpt>
      <trkpt lat="46.66689" lon="5.45818">
        <ele>234</ele>
        <time>2011-09-20T08:24:16Z</time>
      </trkpt>
      <trkpt lat="46.66678" lon="5.45822">
        <ele>234</ele>
        <time>2011-09-20T08:24:18Z</time>
      </trkpt>
      <trkpt lat="46.66667" lon="5.45825">
        <ele>234</ele>
        <time>2011-09-20T08:24:20Z</time>
      </trkpt>
      <trkpt lat="46.66655" lon="5.4583">
        <ele>234</ele>
        <time>2011-09-20T08:24:22Z</time>
      </trkpt>
      <trkpt lat="46.66643" lon="5.45835">
        <ele>234</ele>
        <time>2011-09-20T08:24:24Z</time>
      </trkpt>
      <trkpt lat="46.66632" lon="5.45843">
        <ele>234</ele>
        <time>2011-09-20T08:24:26Z</time>
      </trkpt>
      <trkpt lat="46.66621" lon="5.45851">
        <ele>234</ele>
        <time>2011-09-20T08:24:28Z</time>
      </trkpt>
      <trkpt lat="46.66609" lon="5.45859">
        <ele>229</ele>
        <time>2011-09-20T08:24:30Z</time>
      </trkpt>
      <trkpt lat="46.66597" lon="5.45867">
        <ele>229</ele>
        <time>2011-09-20T08:24:32Z</time>
      </trkpt>
      <trkpt lat="46.66584" lon="5.45876">
        <ele>229</ele>
        <time>2011-09-20T08:24:34Z</time>
      </trkpt>
      <trkpt lat="46.66572" lon="5.45885">
        <ele>229</ele>
        <time>2011-09-20T08:24:36Z</time>
      </trkpt>
      <trkpt lat="46.66559" lon="5.45894">
        <ele>229</ele>
        <time>2011-09-20T08:24:38Z</time>
      </trkpt>
      <trkpt lat="46.66545" lon="5.45903">
        <ele>229</ele>
        <time>2011-09-20T08:24:40Z</time>
      </trkpt>
      <trkpt lat="46.66532" lon="5.45912">
        <ele>229</ele>
        <time>2011-09-20T08:24:42Z</time>
      </trkpt>
      <trkpt lat="46.6652" lon="5.45922">
        <ele>229</ele>
        <time>2011-09-20T08:24:44Z</time>
      </trkpt>
      <trkpt lat="46.66507" lon="5.45931">
        <ele>229</ele>
        <time>2011-09-20T08:24:46Z</time>
      </trkpt>
      <trkpt lat="46.66495" lon="5.45932">
        <ele>229</ele>
        <time>2011-09-20T08:24:48Z</time>
      </trkpt>
      <trkpt lat="46.66487" lon="5.45925">
        <ele>229</ele>
        <time>2011-09-20T08:24:50Z</time>
      </trkpt>
      <trkpt lat="46.66481" lon="5.45913">
        <ele>229</ele>
        <time>2011-09-20T08:24:53Z</time>
      </trkpt>
      <trkpt lat="46.66477" lon="5.45902">
        <ele>229</ele>
        <time>2011-09-20T08:24:57Z</time>
      </trkpt>
      <trkpt lat="46.66469" lon="5.45892">
        <ele>222</ele>
        <time>2011-09-20T08:25:26Z</time>
      </trkpt>
      <trkpt lat="46.66474" lon="5.45904">
        <ele>222</ele>
        <time>2011-09-20T08:25:38Z</time>
      </trkpt>
      <trkpt lat="46.66481" lon="5.45916">
        <ele>222</ele>
        <time>2011-09-20T08:25:42Z</time>
      </trkpt>
      <trkpt lat="46.66487" lon="5.45926">
        <ele>222</ele>
        <time>2011-09-20T08:25:45Z</time>
      </trkpt>
      <trkpt lat="46.66493" lon="5.45938">
        <ele>222</ele>
        <time>2011-09-20T08:25:48Z</time>
      </trkpt>
      <trkpt lat="46.66498" lon="5.45954">
        <ele>227</ele>
        <time>2011-09-20T08:25:51Z</time>
      </trkpt>
      <trkpt lat="46.66501" lon="5.45972">
        <ele>227</ele>
        <time>2011-09-20T08:25:54Z</time>
      </trkpt>
      <trkpt lat="46.66504" lon="5.45988">
        <ele>227</ele>
        <time>2011-09-20T08:25:57Z</time>
      </trkpt>
      <trkpt lat="46.66505" lon="5.46004">
        <ele>227</ele>
        <time>2011-09-20T08:26:00Z</time>
      </trkpt>
      <trkpt lat="46.66506" lon="5.46021">
        <ele>227</ele>
        <time>2011-09-20T08:26:03Z</time>
      </trkpt>
      <trkpt lat="46.66507" lon="5.46039">
        <ele>227</ele>
        <time>2011-09-20T08:26:06Z</time>
      </trkpt>
      <trkpt lat="46.66508" lon="5.46057">
        <ele>227</ele>
        <time>2011-09-20T08:26:09Z</time>
      </trkpt>
      <trkpt lat="46.66509" lon="5.46075">
        <ele>227</ele>
        <time>2011-09-20T08:26:12Z</time>
      </trkpt>
      <trkpt lat="46.66511" lon="5.46093">
        <ele>227</ele>
        <time>2011-09-20T08:26:15Z</time>
      </trkpt>
      <trkpt lat="46.66512" lon="5.46111">
        <ele>227</ele>
        <time>2011-09-20T08:26:18Z</time>
      </trkpt>
      <trkpt lat="46.66513" lon="5.46129">
        <ele>227</ele>
        <time>2011-09-20T08:26:21Z</time>
      </trkpt>
      <trkpt lat="46.66512" lon="5.46148">
        <ele>227</ele>
        <time>2011-09-20T08:26:24Z</time>
      </trkpt>
      <trkpt lat="46.66512" lon="5.46168">
        <ele>227</ele>
        <time>2011-09-20T08:26:27Z</time>
      </trkpt>
      <trkpt lat="46.6651" lon="5.46186">
        <ele>227</ele>
        <time>2011-09-20T08:26:30Z</time>
      </trkpt>
      <trkpt lat="46.66509" lon="5.46203">
        <ele>227</ele>
        <time>2011-09-20T08:26:33Z</time>
      </trkpt>
      <trkpt lat="46.66506" lon="5.46221">
        <ele>227</ele>
        <time>2011-09-20T08:26:36Z</time>
      </trkpt>
      <trkpt lat="46.66501" lon="5.46233">
        <ele>227</ele>
        <time>2011-09-20T08:26:38Z</time>
      </trkpt>
      <trkpt lat="46.66494" lon="5.46247">
        <ele>227</ele>
        <time>2011-09-20T08:26:40Z</time>
      </trkpt>
      <trkpt lat="46.66489" lon="5.46262">
        <ele>227</ele>
        <time>2011-09-20T08:26:42Z</time>
      </trkpt>
      <trkpt lat="46.66486" lon="5.46278">
        <ele>227</ele>
        <time>2011-09-20T08:26:44Z</time>
      </trkpt>
      <trkpt lat="46.66484" lon="5.46298">
        <ele>227</ele>
        <time>2011-09-20T08:26:46Z</time>
      </trkpt>
      <trkpt lat="46.66483" lon="5.46319">
        <ele>227</ele>
        <time>2011-09-20T08:26:48Z</time>
      </trkpt>
      <trkpt lat="46.66476" lon="5.46337">
        <ele>227</ele>
        <time>2011-09-20T08:26:50Z</time>
      </trkpt>
      <trkpt lat="46.66461" lon="5.46347">
        <ele>227</ele>
        <time>2011-09-20T08:26:52Z</time>
      </trkpt>
      <trkpt lat="46.66451" lon="5.46346">
        <ele>227</ele>
        <time>2011-09-20T08:26:53Z</time>
      </trkpt>
      <trkpt lat="46.66441" lon="5.46345">
        <ele>227</ele>
        <time>2011-09-20T08:26:54Z</time>
      </trkpt>
      <trkpt lat="46.66432" lon="5.46343">
        <ele>227</ele>
        <time>2011-09-20T08:26:55Z</time>
      </trkpt>
      <trkpt lat="46.66423" lon="5.46341">
        <ele>227</ele>
        <time>2011-09-20T08:26:56Z</time>
      </trkpt>
      <trkpt lat="46.66405" lon="5.46344">
        <ele>227</ele>
        <time>2011-09-20T08:26:58Z</time>
      </trkpt>
      <trkpt lat="46.66391" lon="5.46357">
        <ele>222</ele>
        <time>2011-09-20T08:27:00Z</time>
      </trkpt>
      <trkpt lat="46.66384" lon="5.46367">
        <ele>222</ele>
        <time>2011-09-20T08:27:01Z</time>
      </trkpt>
      <trkpt lat="46.66376" lon="5.46377">
        <ele>222</ele>
        <time>2011-09-20T08:27:02Z</time>
      </trkpt>
      <trkpt lat="46.66369" lon="5.46387">
        <ele>222</ele>
        <time>2011-09-20T08:27:03Z</time>
      </trkpt>
      <trkpt lat="46.6636" lon="5.46396">
        <ele>222</ele>
        <time>2011-09-20T08:27:04Z</time>
      </trkpt>
      <trkpt lat="46.66352" lon="5.46405">
        <ele>222</ele>
        <time>2011-09-20T08:27:05Z</time>
      </trkpt>
      <trkpt lat="46.66342" lon="5.46413">
        <ele>222</ele>
        <time>2011-09-20T08:27:06Z</time>
      </trkpt>
      <trkpt lat="46.66333" lon="5.46421">
        <ele>222</ele>
        <time>2011-09-20T08:27:07Z</time>
      </trkpt>
      <trkpt lat="46.66323" lon="5.4643">
        <ele>222</ele>
        <time>2011-09-20T08:27:08Z</time>
      </trkpt>
      <trkpt lat="46.66314" lon="5.46439">
        <ele>217</ele>
        <time>2011-09-20T08:27:09Z</time>
      </trkpt>
      <trkpt lat="46.66306" lon="5.46449">
        <ele>217</ele>
        <time>2011-09-20T08:27:10Z</time>
      </trkpt>
      <trkpt lat="46.66299" lon="5.4646">
        <ele>217</ele>
        <time>2011-09-20T08:27:11Z</time>
      </trkpt>
      <trkpt lat="46.66294" lon="5.46472">
        <ele>217</ele>
        <time>2011-09-20T08:27:12Z</time>
      </trkpt>
      <trkpt lat="46.66291" lon="5.46486">
        <ele>217</ele>
        <time>2011-09-20T08:27:13Z</time>
      </trkpt>
      <trkpt lat="46.66289" lon="5.4651">
        <ele>217</ele>
        <time>2011-09-20T08:27:15Z</time>
      </trkpt>
      <trkpt lat="46.66282" lon="5.46531">
        <ele>217</ele>
        <time>2011-09-20T08:27:17Z</time>
      </trkpt>
      <trkpt lat="46.66271" lon="5.46545">
        <ele>217</ele>
        <time>2011-09-20T08:27:19Z</time>
      </trkpt>
      <trkpt lat="46.66256" lon="5.46549">
        <ele>217</ele>
        <time>2011-09-20T08:27:21Z</time>
      </trkpt>
      <trkpt lat="46.66242" lon="5.46553">
        <ele>217</ele>
        <time>2011-09-20T08:27:23Z</time>
      </trkpt>
      <trkpt lat="46.66226" lon="5.46557">
        <ele>217</ele>
        <time>2011-09-20T08:27:25Z</time>
      </trkpt>
      <trkpt lat="46.66211" lon="5.4656">
        <ele>217</ele>
        <time>2011-09-20T08:27:27Z</time>
      </trkpt>
      <trkpt lat="46.66196" lon="5.46565">
        <ele>217</ele>
        <time>2011-09-20T08:27:29Z</time>
      </trkpt>
      <trkpt lat="46.66181" lon="5.46568">
        <ele>217</ele>
        <time>2011-09-20T08:27:31Z</time>
      </trkpt>
      <trkpt lat="46.66166" lon="5.46571">
        <ele>217</ele>
        <time>2011-09-20T08:27:33Z</time>
      </trkpt>
      <trkpt lat="46.66151" lon="5.46574">
        <ele>217</ele>
        <time>2011-09-20T08:27:35Z</time>
      </trkpt>
      <trkpt lat="46.66136" lon="5.46574">
        <ele>217</ele>
        <time>2011-09-20T08:27:37Z</time>
      </trkpt>
      <trkpt lat="46.66122" lon="5.46572">
        <ele>217</ele>
        <time>2011-09-20T08:27:39Z</time>
      </trkpt>
      <trkpt lat="46.66107" lon="5.46574">
        <ele>217</ele>
        <time>2011-09-20T08:27:41Z</time>
      </trkpt>
      <trkpt lat="46.66096" lon="5.46584">
        <ele>217</ele>
        <time>2011-09-20T08:27:43Z</time>
      </trkpt>
      <trkpt lat="46.66092" lon="5.46602">
        <ele>217</ele>
        <time>2011-09-20T08:27:45Z</time>
      </trkpt>
      <trkpt lat="46.66091" lon="5.46624">
        <ele>217</ele>
        <time>2011-09-20T08:27:47Z</time>
      </trkpt>
      <trkpt lat="46.6609" lon="5.46646">
        <ele>217</ele>
        <time>2011-09-20T08:27:49Z</time>
      </trkpt>
      <trkpt lat="46.6609" lon="5.46666">
        <ele>217</ele>
        <time>2011-09-20T08:27:51Z</time>
      </trkpt>
      <trkpt lat="46.6609" lon="5.46687">
        <ele>217</ele>
        <time>2011-09-20T08:27:53Z</time>
      </trkpt>
      <trkpt lat="46.66089" lon="5.46707">
        <ele>217</ele>
        <time>2011-09-20T08:27:55Z</time>
      </trkpt>
      <trkpt lat="46.66091" lon="5.46725">
        <ele>217</ele>
        <time>2011-09-20T08:27:57Z</time>
      </trkpt>
      <trkpt lat="46.66092" lon="5.46743">
        <ele>217</ele>
        <time>2011-09-20T08:27:59Z</time>
      </trkpt>
      <trkpt lat="46.66092" lon="5.46763">
        <ele>217</ele>
        <time>2011-09-20T08:28:01Z</time>
      </trkpt>
      <trkpt lat="46.66091" lon="5.46783">
        <ele>217</ele>
        <time>2011-09-20T08:28:03Z</time>
      </trkpt>
      <trkpt lat="46.66088" lon="5.46804">
        <ele>217</ele>
        <time>2011-09-20T08:28:05Z</time>
      </trkpt>
      <trkpt lat="46.66083" lon="5.46823">
        <ele>217</ele>
        <time>2011-09-20T08:28:07Z</time>
      </trkpt>
      <trkpt lat="46.66077" lon="5.4684">
        <ele>217</ele>
        <time>2011-09-20T08:28:09Z</time>
      </trkpt>
      <trkpt lat="46.66072" lon="5.46857">
        <ele>217</ele>
        <time>2011-09-20T08:28:11Z</time>
      </trkpt>
      <trkpt lat="46.66068" lon="5.46876">
        <ele>217</ele>
        <time>2011-09-20T08:28:13Z</time>
      </trkpt>
      <trkpt lat="46.66067" lon="5.46893">
        <ele>217</ele>
        <time>2011-09-20T08:28:15Z</time>
      </trkpt>
      <trkpt lat="46.66068" lon="5.46912">
        <ele>217</ele>
        <time>2011-09-20T08:28:17Z</time>
      </trkpt>
      <trkpt lat="46.6607" lon="5.4693">
        <ele>217</ele>
        <time>2011-09-20T08:28:19Z</time>
      </trkpt>
      <trkpt lat="46.6607" lon="5.46949">
        <ele>217</ele>
        <time>2011-09-20T08:28:21Z</time>
      </trkpt>
      <trkpt lat="46.66072" lon="5.46966">
        <ele>217</ele>
        <time>2011-09-20T08:28:23Z</time>
      </trkpt>
      <trkpt lat="46.66072" lon="5.46985">
        <ele>217</ele>
        <time>2011-09-20T08:28:25Z</time>
      </trkpt>
      <trkpt lat="46.66067" lon="5.47004">
        <ele>217</ele>
        <time>2011-09-20T08:28:27Z</time>
      </trkpt>
      <trkpt lat="46.66058" lon="5.47017">
        <ele>217</ele>
        <time>2011-09-20T08:28:29Z</time>
      </trkpt>
      <trkpt lat="46.66048" lon="5.47028">
        <ele>217</ele>
        <time>2011-09-20T08:28:31Z</time>
      </trkpt>
      <trkpt lat="46.66036" lon="5.47037">
        <ele>217</ele>
        <time>2011-09-20T08:28:33Z</time>
      </trkpt>
      <trkpt lat="46.66025" lon="5.47045">
        <ele>217</ele>
        <time>2011-09-20T08:28:35Z</time>
      </trkpt>
      <trkpt lat="46.66012" lon="5.47053">
        <ele>217</ele>
        <time>2011-09-20T08:28:37Z</time>
      </trkpt>
      <trkpt lat="46.65999" lon="5.47062">
        <ele>217</ele>
        <time>2011-09-20T08:28:39Z</time>
      </trkpt>
      <trkpt lat="46.65987" lon="5.47072">
        <ele>217</ele>
        <time>2011-09-20T08:28:41Z</time>
      </trkpt>
      <trkpt lat="46.65975" lon="5.47083">
        <ele>217</ele>
        <time>2011-09-20T08:28:43Z</time>
      </trkpt>
      <trkpt lat="46.65964" lon="5.47095">
        <ele>217</ele>
        <time>2011-09-20T08:28:45Z</time>
      </trkpt>
      <trkpt lat="46.65953" lon="5.47106">
        <ele>217</ele>
        <time>2011-09-20T08:28:47Z</time>
      </trkpt>
      <trkpt lat="46.65943" lon="5.47119">
        <ele>217</ele>
        <time>2011-09-20T08:28:49Z</time>
      </trkpt>
      <trkpt lat="46.65934" lon="5.47132">
        <ele>217</ele>
        <time>2011-09-20T08:28:51Z</time>
      </trkpt>
      <trkpt lat="46.65926" lon="5.47148">
        <ele>217</ele>
        <time>2011-09-20T08:28:53Z</time>
      </trkpt>
      <trkpt lat="46.65918" lon="5.47163">
        <ele>217</ele>
        <time>2011-09-20T08:28:55Z</time>
      </trkpt>
      <trkpt lat="46.6591" lon="5.47177">
        <ele>217</ele>
        <time>2011-09-20T08:28:57Z</time>
      </trkpt>
      <trkpt lat="46.65903" lon="5.47193">
        <ele>217</ele>
        <time>2011-09-20T08:28:59Z</time>
      </trkpt>
      <trkpt lat="46.65896" lon="5.47208">
        <ele>217</ele>
        <time>2011-09-20T08:29:01Z</time>
      </trkpt>
      <trkpt lat="46.6589" lon="5.47224">
        <ele>217</ele>
        <time>2011-09-20T08:29:03Z</time>
      </trkpt>
      <trkpt lat="46.65883" lon="5.4724">
        <ele>217</ele>
        <time>2011-09-20T08:29:05Z</time>
      </trkpt>
      <trkpt lat="46.65877" lon="5.47256">
        <ele>217</ele>
        <time>2011-09-20T08:29:07Z</time>
      </trkpt>
      <trkpt lat="46.65871" lon="5.47273">
        <ele>217</ele>
        <time>2011-09-20T08:29:09Z</time>
      </trkpt>
      <trkpt lat="46.65865" lon="5.47289">
        <ele>217</ele>
        <time>2011-09-20T08:29:11Z</time>
      </trkpt>
      <trkpt lat="46.65859" lon="5.47305">
        <ele>217</ele>
        <time>2011-09-20T08:29:13Z</time>
      </trkpt>
      <trkpt lat="46.65853" lon="5.47321">
        <ele>217</ele>
        <time>2011-09-20T08:29:15Z</time>
      </trkpt>
      <trkpt lat="46.65848" lon="5.47337">
        <ele>217</ele>
        <time>2011-09-20T08:29:17Z</time>
      </trkpt>
      <trkpt lat="46.65841" lon="5.47353">
        <ele>217</ele>
        <time>2011-09-20T08:29:19Z</time>
      </trkpt>
      <trkpt lat="46.65836" lon="5.47369">
        <ele>217</ele>
        <time>2011-09-20T08:29:21Z</time>
      </trkpt>
      <trkpt lat="46.6583" lon="5.47384">
        <ele>217</ele>
        <time>2011-09-20T08:29:23Z</time>
      </trkpt>
      <trkpt lat="46.65825" lon="5.474">
        <ele>217</ele>
        <time>2011-09-20T08:29:25Z</time>
      </trkpt>
      <trkpt lat="46.65819" lon="5.47415">
        <ele>217</ele>
        <time>2011-09-20T08:29:27Z</time>
      </trkpt>
      <trkpt lat="46.65814" lon="5.47432">
        <ele>217</ele>
        <time>2011-09-20T08:29:29Z</time>
      </trkpt>
      <trkpt lat="46.65809" lon="5.47447">
        <ele>217</ele>
        <time>2011-09-20T08:29:31Z</time>
      </trkpt>
      <trkpt lat="46.65803" lon="5.47463">
        <ele>217</ele>
        <time>2011-09-20T08:29:33Z</time>
      </trkpt>
      <trkpt lat="46.65798" lon="5.47478">
        <ele>217</ele>
        <time>2011-09-20T08:29:35Z</time>
      </trkpt>
      <trkpt lat="46.65793" lon="5.47494">
        <ele>217</ele>
        <time>2011-09-20T08:29:37Z</time>
      </trkpt>
      <trkpt lat="46.65788" lon="5.4751">
        <ele>217</ele>
        <time>2011-09-20T08:29:39Z</time>
      </trkpt>
      <trkpt lat="46.65784" lon="5.47527">
        <ele>217</ele>
        <time>2011-09-20T08:29:41Z</time>
      </trkpt>
      <trkpt lat="46.65781" lon="5.47543">
        <ele>217</ele>
        <time>2011-09-20T08:29:43Z</time>
      </trkpt>
      <trkpt lat="46.65778" lon="5.4756">
        <ele>217</ele>
        <time>2011-09-20T08:29:45Z</time>
      </trkpt>
      <trkpt lat="46.65775" lon="5.47577">
        <ele>217</ele>
        <time>2011-09-20T08:29:47Z</time>
      </trkpt>
      <trkpt lat="46.65773" lon="5.47595">
        <ele>217</ele>
        <time>2011-09-20T08:29:49Z</time>
      </trkpt>
      <trkpt lat="46.6577" lon="5.47612">
        <ele>217</ele>
        <time>2011-09-20T08:29:51Z</time>
      </trkpt>
      <trkpt lat="46.65768" lon="5.47629">
        <ele>217</ele>
        <time>2011-09-20T08:29:53Z</time>
      </trkpt>
      <trkpt lat="46.65765" lon="5.47647">
        <ele>217</ele>
        <time>2011-09-20T08:29:55Z</time>
      </trkpt>
      <trkpt lat="46.65763" lon="5.47664">
        <ele>217</ele>
        <time>2011-09-20T08:29:57Z</time>
      </trkpt>
      <trkpt lat="46.6576" lon="5.47681">
        <ele>217</ele>
        <time>2011-09-20T08:29:59Z</time>
      </trkpt>
      <trkpt lat="46.65758" lon="5.47698">
        <ele>217</ele>
        <time>2011-09-20T08:30:01Z</time>
      </trkpt>
      <trkpt lat="46.65756" lon="5.47716">
        <ele>217</ele>
        <time>2011-09-20T08:30:03Z</time>
      </trkpt>
      <trkpt lat="46.65755" lon="5.47734">
        <ele>217</ele>
        <time>2011-09-20T08:30:05Z</time>
      </trkpt>
      <trkpt lat="46.65754" lon="5.47753">
        <ele>217</ele>
        <time>2011-09-20T08:30:07Z</time>
      </trkpt>
      <trkpt lat="46.65754" lon="5.47771">
        <ele>217</ele>
        <time>2011-09-20T08:30:09Z</time>
      </trkpt>
      <trkpt lat="46.65754" lon="5.47789">
        <ele>217</ele>
        <time>2011-09-20T08:30:11Z</time>
      </trkpt>
      <trkpt lat="46.65754" lon="5.47807">
        <ele>217</ele>
        <time>2011-09-20T08:30:13Z</time>
      </trkpt>
      <trkpt lat="46.65752" lon="5.47825">
        <ele>217</ele>
        <time>2011-09-20T08:30:15Z</time>
      </trkpt>
      <trkpt lat="46.65749" lon="5.47842">
        <ele>222</ele>
        <time>2011-09-20T08:30:17Z</time>
      </trkpt>
      <trkpt lat="46.65745" lon="5.47859">
        <ele>222</ele>
        <time>2011-09-20T08:30:19Z</time>
      </trkpt>
      <trkpt lat="46.65739" lon="5.47874">
        <ele>222</ele>
        <time>2011-09-20T08:30:21Z</time>
      </trkpt>
      <trkpt lat="46.65733" lon="5.47889">
        <ele>222</ele>
        <time>2011-09-20T08:30:23Z</time>
      </trkpt>
      <trkpt lat="46.65726" lon="5.47904">
        <ele>222</ele>
        <time>2011-09-20T08:30:25Z</time>
      </trkpt>
      <trkpt lat="46.65719" lon="5.47919">
        <ele>222</ele>
        <time>2011-09-20T08:30:27Z</time>
      </trkpt>
      <trkpt lat="46.65712" lon="5.47935">
        <ele>222</ele>
        <time>2011-09-20T08:30:29Z</time>
      </trkpt>
      <trkpt lat="46.65706" lon="5.4795">
        <ele>222</ele>
        <time>2011-09-20T08:30:31Z</time>
      </trkpt>
      <trkpt lat="46.657" lon="5.47967">
        <ele>222</ele>
        <time>2011-09-20T08:30:33Z</time>
      </trkpt>
      <trkpt lat="46.65696" lon="5.47985">
        <ele>222</ele>
        <time>2011-09-20T08:30:35Z</time>
      </trkpt>
      <trkpt lat="46.65692" lon="5.48002">
        <ele>222</ele>
        <time>2011-09-20T08:30:37Z</time>
      </trkpt>
      <trkpt lat="46.65688" lon="5.4802">
        <ele>222</ele>
        <time>2011-09-20T08:30:39Z</time>
      </trkpt>
      <trkpt lat="46.65684" lon="5.48038">
        <ele>222</ele>
        <time>2011-09-20T08:30:41Z</time>
      </trkpt>
      <trkpt lat="46.65681" lon="5.48055">
        <ele>222</ele>
        <time>2011-09-20T08:30:43Z</time>
      </trkpt>
      <trkpt lat="46.65679" lon="5.48072">
        <ele>222</ele>
        <time>2011-09-20T08:30:45Z</time>
      </trkpt>
      <trkpt lat="46.65676" lon="5.4809">
        <ele>222</ele>
        <time>2011-09-20T08:30:47Z</time>
      </trkpt>
      <trkpt lat="46.65672" lon="5.48107">
        <ele>228</ele>
        <time>2011-09-20T08:30:49Z</time>
      </trkpt>
      <trkpt lat="46.65666" lon="5.48122">
        <ele>228</ele>
        <time>2011-09-20T08:30:51Z</time>
      </trkpt>
      <trkpt lat="46.65657" lon="5.48133">
        <ele>228</ele>
        <time>2011-09-20T08:30:53Z</time>
      </trkpt>
      <trkpt lat="46.65644" lon="5.48132">
        <ele>228</ele>
        <time>2011-09-20T08:30:55Z</time>
      </trkpt>
      <trkpt lat="46.65632" lon="5.48126">
        <ele>228</ele>
        <time>2011-09-20T08:30:57Z</time>
      </trkpt>
      <trkpt lat="46.65619" lon="5.48119">
        <ele>228</ele>
        <time>2011-09-20T08:30:59Z</time>
      </trkpt>
      <trkpt lat="46.65607" lon="5.48111">
        <ele>228</ele>
        <time>2011-09-20T08:31:01Z</time>
      </trkpt>
      <trkpt lat="46.65593" lon="5.48105">
        <ele>228</ele>
        <time>2011-09-20T08:31:03Z</time>
      </trkpt>
      <trkpt lat="46.65578" lon="5.48104">
        <ele>228</ele>
        <time>2011-09-20T08:31:05Z</time>
      </trkpt>
      <trkpt lat="46.65566" lon="5.48114">
        <ele>228</ele>
        <time>2011-09-20T08:31:07Z</time>
      </trkpt>
      <trkpt lat="46.6556" lon="5.48133">
        <ele>228</ele>
        <time>2011-09-20T08:31:09Z</time>
      </trkpt>
      <trkpt lat="46.65556" lon="5.48153">
        <ele>228</ele>
        <time>2011-09-20T08:31:11Z</time>
      </trkpt>
      <trkpt lat="46.65553" lon="5.48173">
        <ele>228</ele>
        <time>2011-09-20T08:31:13Z</time>
      </trkpt>
      <trkpt lat="46.6555" lon="5.48192">
        <ele>228</ele>
        <time>2011-09-20T08:31:15Z</time>
      </trkpt>
      <trkpt lat="46.65548" lon="5.48211">
        <ele>228</ele>
        <time>2011-09-20T08:31:17Z</time>
      </trkpt>
      <trkpt lat="46.65545" lon="5.4823">
        <ele>228</ele>
        <time>2011-09-20T08:31:19Z</time>
      </trkpt>
      <trkpt lat="46.65543" lon="5.48249">
        <ele>228</ele>
        <time>2011-09-20T08:31:21Z</time>
      </trkpt>
      <trkpt lat="46.65541" lon="5.48267">
        <ele>228</ele>
        <time>2011-09-20T08:31:23Z</time>
      </trkpt>
      <trkpt lat="46.6554" lon="5.48284">
        <ele>228</ele>
        <time>2011-09-20T08:31:25Z</time>
      </trkpt>
      <trkpt lat="46.65539" lon="5.48301">
        <ele>228</ele>
        <time>2011-09-20T08:31:27Z</time>
      </trkpt>
      <trkpt lat="46.65539" lon="5.48316">
        <ele>228</ele>
        <time>2011-09-20T08:31:29Z</time>
      </trkpt>
      <trkpt lat="46.65538" lon="5.4833">
        <ele>228</ele>
        <time>2011-09-20T08:31:31Z</time>
      </trkpt>
      <trkpt lat="46.65539" lon="5.4835">
        <ele>228</ele>
        <time>2011-09-20T08:31:34Z</time>
      </trkpt>
      <trkpt lat="46.65541" lon="5.48369">
        <ele>228</ele>
        <time>2011-09-20T08:31:37Z</time>
      </trkpt>
      <trkpt lat="46.65541" lon="5.48386">
        <ele>228</ele>
        <time>2011-09-20T08:31:40Z</time>
      </trkpt>
      <trkpt lat="46.65538" lon="5.48405">
        <ele>228</ele>
        <time>2011-09-20T08:31:43Z</time>
      </trkpt>
      <trkpt lat="46.65536" lon="5.48418">
        <ele>228</ele>
        <time>2011-09-20T08:31:45Z</time>
      </trkpt>
      <trkpt lat="46.65532" lon="5.48436">
        <ele>228</ele>
        <time>2011-09-20T08:31:48Z</time>
      </trkpt>
      <trkpt lat="46.65528" lon="5.48448">
        <ele>233</ele>
        <time>2011-09-20T08:31:50Z</time>
      </trkpt>
      <trkpt lat="46.65524" lon="5.4846">
        <ele>233</ele>
        <time>2011-09-20T08:31:52Z</time>
      </trkpt>
      <trkpt lat="46.65518" lon="5.48475">
        <ele>233</ele>
        <time>2011-09-20T08:31:55Z</time>
      </trkpt>
      <trkpt lat="46.6551" lon="5.48489">
        <ele>233</ele>
        <time>2011-09-20T08:31:58Z</time>
      </trkpt>
      <trkpt lat="46.65499" lon="5.48498">
        <ele>238</ele>
        <time>2011-09-20T08:32:01Z</time>
      </trkpt>
      <trkpt lat="46.65488" lon="5.48505">
        <ele>238</ele>
        <time>2011-09-20T08:32:04Z</time>
      </trkpt>
      <trkpt lat="46.65479" lon="5.48512">
        <ele>245</ele>
        <time>2011-09-20T08:32:07Z</time>
      </trkpt>
      <trkpt lat="46.6547" lon="5.48523">
        <ele>245</ele>
        <time>2011-09-20T08:32:10Z</time>
      </trkpt>
      <trkpt lat="46.6546" lon="5.48536">
        <ele>245</ele>
        <time>2011-09-20T08:32:13Z</time>
      </trkpt>
      <trkpt lat="46.65451" lon="5.48548">
        <ele>245</ele>
        <time>2011-09-20T08:32:16Z</time>
      </trkpt>
      <trkpt lat="46.65441" lon="5.48561">
        <ele>245</ele>
        <time>2011-09-20T08:32:19Z</time>
      </trkpt>
      <trkpt lat="46.65433" lon="5.48575">
        <ele>245</ele>
        <time>2011-09-20T08:32:22Z</time>
      </trkpt>
      <trkpt lat="46.65427" lon="5.48585">
        <ele>245</ele>
        <time>2011-09-20T08:32:24Z</time>
      </trkpt>
      <trkpt lat="46.65423" lon="5.48597">
        <ele>245</ele>
        <time>2011-09-20T08:32:26Z</time>
      </trkpt>
      <trkpt lat="46.65417" lon="5.48609">
        <ele>245</ele>
        <time>2011-09-20T08:32:28Z</time>
      </trkpt>
      <trkpt lat="46.65411" lon="5.48623">
        <ele>245</ele>
        <time>2011-09-20T08:32:30Z</time>
      </trkpt>
      <trkpt lat="46.65405" lon="5.48637">
        <ele>245</ele>
        <time>2011-09-20T08:32:32Z</time>
      </trkpt>
      <trkpt lat="46.65397" lon="5.4865">
        <ele>245</ele>
        <time>2011-09-20T08:32:34Z</time>
      </trkpt>
      <trkpt lat="46.65386" lon="5.48654">
        <ele>245</ele>
        <time>2011-09-20T08:32:36Z</time>
      </trkpt>
      <trkpt lat="46.65374" lon="5.48652">
        <ele>245</ele>
        <time>2011-09-20T08:32:38Z</time>
      </trkpt>
      <trkpt lat="46.65362" lon="5.48651">
        <ele>245</ele>
        <time>2011-09-20T08:32:40Z</time>
      </trkpt>
      <trkpt lat="46.65349" lon="5.48648">
        <ele>245</ele>
        <time>2011-09-20T08:32:43Z</time>
      </trkpt>
      <trkpt lat="46.65337" lon="5.48647">
        <ele>245</ele>
        <time>2011-09-20T08:32:47Z</time>
      </trkpt>
      <trkpt lat="46.65326" lon="5.48651">
        <ele>245</ele>
        <time>2011-09-20T08:32:50Z</time>
      </trkpt>
      <trkpt lat="46.65314" lon="5.48651">
        <ele>245</ele>
        <time>2011-09-20T08:32:54Z</time>
      </trkpt>
      <trkpt lat="46.65304" lon="5.48651">
        <ele>245</ele>
        <time>2011-09-20T08:32:57Z</time>
      </trkpt>
      <trkpt lat="46.65294" lon="5.48648">
        <ele>245</ele>
        <time>2011-09-20T08:33:00Z</time>
      </trkpt>
      <trkpt lat="46.65282" lon="5.48641">
        <ele>245</ele>
        <time>2011-09-20T08:33:03Z</time>
      </trkpt>
      <trkpt lat="46.65272" lon="5.48634">
        <ele>245</ele>
        <time>2011-09-20T08:33:06Z</time>
      </trkpt>
      <trkpt lat="46.65262" lon="5.48627">
        <ele>245</ele>
        <time>2011-09-20T08:33:09Z</time>
      </trkpt>
      <trkpt lat="46.65254" lon="5.4862">
        <ele>245</ele>
        <time>2011-09-20T08:33:12Z</time>
      </trkpt>
      <trkpt lat="46.65243" lon="5.48616">
        <ele>250</ele>
        <time>2011-09-20T08:33:16Z</time>
      </trkpt>
      <trkpt lat="46.65234" lon="5.48624">
        <ele>250</ele>
        <time>2011-09-20T08:33:19Z</time>
      </trkpt>
      <trkpt lat="46.65228" lon="5.48638">
        <ele>250</ele>
        <time>2011-09-20T08:33:22Z</time>
      </trkpt>
      <trkpt lat="46.65224" lon="5.48653">
        <ele>250</ele>
        <time>2011-09-20T08:33:25Z</time>
      </trkpt>
      <trkpt lat="46.65217" lon="5.48669">
        <ele>250</ele>
        <time>2011-09-20T08:33:28Z</time>
      </trkpt>
      <trkpt lat="46.65209" lon="5.48685">
        <ele>250</ele>
        <time>2011-09-20T08:33:31Z</time>
      </trkpt>
      <trkpt lat="46.65205" lon="5.48703">
        <ele>250</ele>
        <time>2011-09-20T08:33:34Z</time>
      </trkpt>
      <trkpt lat="46.65202" lon="5.48715">
        <ele>250</ele>
        <time>2011-09-20T08:33:36Z</time>
      </trkpt>
      <trkpt lat="46.65203" lon="5.48731">
        <ele>250</ele>
        <time>2011-09-20T08:33:39Z</time>
      </trkpt>
      <trkpt lat="46.65202" lon="5.48748">
        <ele>250</ele>
        <time>2011-09-20T08:33:42Z</time>
      </trkpt>
      <trkpt lat="46.65199" lon="5.48765">
        <ele>250</ele>
        <time>2011-09-20T08:33:45Z</time>
      </trkpt>
      <trkpt lat="46.65195" lon="5.48781">
        <ele>250</ele>
        <time>2011-09-20T08:33:48Z</time>
      </trkpt>
      <trkpt lat="46.65193" lon="5.48798">
        <ele>250</ele>
        <time>2011-09-20T08:33:51Z</time>
      </trkpt>
      <trkpt lat="46.6519" lon="5.48814">
        <ele>250</ele>
        <time>2011-09-20T08:33:54Z</time>
      </trkpt>
      <trkpt lat="46.65186" lon="5.48833">
        <ele>256</ele>
        <time>2011-09-20T08:33:57Z</time>
      </trkpt>
      <trkpt lat="46.65183" lon="5.4885">
        <ele>256</ele>
        <time>2011-09-20T08:34:00Z</time>
      </trkpt>
      <trkpt lat="46.65174" lon="5.48863">
        <ele>256</ele>
        <time>2011-09-20T08:34:03Z</time>
      </trkpt>
      <trkpt lat="46.65162" lon="5.48867">
        <ele>256</ele>
        <time>2011-09-20T08:34:06Z</time>
      </trkpt>
      <trkpt lat="46.65152" lon="5.48866">
        <ele>256</ele>
        <time>2011-09-20T08:34:08Z</time>
      </trkpt>
      <trkpt lat="46.65143" lon="5.48864">
        <ele>256</ele>
        <time>2011-09-20T08:34:10Z</time>
      </trkpt>
      <trkpt lat="46.65134" lon="5.48861">
        <ele>256</ele>
        <time>2011-09-20T08:34:12Z</time>
      </trkpt>
      <trkpt lat="46.65125" lon="5.48859">
        <ele>256</ele>
        <time>2011-09-20T08:34:14Z</time>
      </trkpt>
      <trkpt lat="46.65115" lon="5.48857">
        <ele>256</ele>
        <time>2011-09-20T08:34:16Z</time>
      </trkpt>
      <trkpt lat="46.65105" lon="5.48855">
        <ele>256</ele>
        <time>2011-09-20T08:34:18Z</time>
      </trkpt>
      <trkpt lat="46.65094" lon="5.48854">
        <ele>256</ele>
        <time>2011-09-20T08:34:20Z</time>
      </trkpt>
      <trkpt lat="46.65082" lon="5.48855">
        <ele>256</ele>
        <time>2011-09-20T08:34:22Z</time>
      </trkpt>
      <trkpt lat="46.65071" lon="5.48857">
        <ele>256</ele>
        <time>2011-09-20T08:34:24Z</time>
      </trkpt>
      <trkpt lat="46.6506" lon="5.48861">
        <ele>256</ele>
        <time>2011-09-20T08:34:26Z</time>
      </trkpt>
      <trkpt lat="46.6505" lon="5.48864">
        <ele>256</ele>
        <time>2011-09-20T08:34:28Z</time>
      </trkpt>
      <trkpt lat="46.65039" lon="5.48868">
        <ele>256</ele>
        <time>2011-09-20T08:34:30Z</time>
      </trkpt>
      <trkpt lat="46.65028" lon="5.48872">
        <ele>256</ele>
        <time>2011-09-20T08:34:32Z</time>
      </trkpt>
      <trkpt lat="46.65018" lon="5.48877">
        <ele>256</ele>
        <time>2011-09-20T08:34:34Z</time>
      </trkpt>
      <trkpt lat="46.65008" lon="5.48881">
        <ele>256</ele>
        <time>2011-09-20T08:34:36Z</time>
      </trkpt>
      <trkpt lat="46.64999" lon="5.48885">
        <ele>256</ele>
        <time>2011-09-20T08:34:38Z</time>
      </trkpt>
      <trkpt lat="46.6499" lon="5.4889">
        <ele>256</ele>
        <time>2011-09-20T08:34:40Z</time>
      </trkpt>
      <trkpt lat="46.64979" lon="5.48892">
        <ele>256</ele>
        <time>2011-09-20T08:34:42Z</time>
      </trkpt>
      <trkpt lat="46.6497" lon="5.48895">
        <ele>256</ele>
        <time>2011-09-20T08:34:44Z</time>
      </trkpt>
      <trkpt lat="46.64961" lon="5.48899">
        <ele>256</ele>
        <time>2011-09-20T08:34:46Z</time>
      </trkpt>
      <trkpt lat="46.64951" lon="5.48902">
        <ele>256</ele>
        <time>2011-09-20T08:34:48Z</time>
      </trkpt>
      <trkpt lat="46.64943" lon="5.48906">
        <ele>256</ele>
        <time>2011-09-20T08:34:50Z</time>
      </trkpt>
      <trkpt lat="46.64933" lon="5.48908">
        <ele>256</ele>
        <time>2011-09-20T08:34:52Z</time>
      </trkpt>
      <trkpt lat="46.64924" lon="5.48908">
        <ele>256</ele>
        <time>2011-09-20T08:34:54Z</time>
      </trkpt>
      <trkpt lat="46.64915" lon="5.48908">
        <ele>256</ele>
        <time>2011-09-20T08:34:56Z</time>
      </trkpt>
      <trkpt lat="46.64902" lon="5.4891">
        <ele>256</ele>
        <time>2011-09-20T08:34:59Z</time>
      </trkpt>
      <trkpt lat="46.64889" lon="5.48911">
        <ele>256</ele>
        <time>2011-09-20T08:35:02Z</time>
      </trkpt>
      <trkpt lat="46.6488" lon="5.48911">
        <ele>256</ele>
        <time>2011-09-20T08:35:04Z</time>
      </trkpt>
      <trkpt lat="46.6487" lon="5.48913">
        <ele>256</ele>
        <time>2011-09-20T08:35:06Z</time>
      </trkpt>
      <trkpt lat="46.6486" lon="5.48916">
        <ele>256</ele>
        <time>2011-09-20T08:35:08Z</time>
      </trkpt>
      <trkpt lat="46.64849" lon="5.48918">
        <ele>256</ele>
        <time>2011-09-20T08:35:10Z</time>
      </trkpt>
      <trkpt lat="46.64839" lon="5.48923">
        <ele>256</ele>
        <time>2011-09-20T08:35:12Z</time>
      </trkpt>
      <trkpt lat="46.64826" lon="5.48925">
        <ele>256</ele>
        <time>2011-09-20T08:35:14Z</time>
      </trkpt>
      <trkpt lat="46.64815" lon="5.48928">
        <ele>256</ele>
        <time>2011-09-20T08:35:16Z</time>
      </trkpt>
      <trkpt lat="46.64803" lon="5.48932">
        <ele>256</ele>
        <time>2011-09-20T08:35:19Z</time>
      </trkpt>
      <trkpt lat="46.64792" lon="5.48935">
        <ele>256</ele>
        <time>2011-09-20T08:35:23Z</time>
      </trkpt>
      <trkpt lat="46.64781" lon="5.48937">
        <ele>256</ele>
        <time>2011-09-20T08:35:27Z</time>
      </trkpt>
      <trkpt lat="46.64769" lon="5.48938">
        <ele>256</ele>
        <time>2011-09-20T08:35:30Z</time>
      </trkpt>
      <trkpt lat="46.64759" lon="5.4894">
        <ele>256</ele>
        <time>2011-09-20T08:35:32Z</time>
      </trkpt>
      <trkpt lat="46.64748" lon="5.48941">
        <ele>256</ele>
        <time>2011-09-20T08:35:34Z</time>
      </trkpt>
      <trkpt lat="46.64734" lon="5.48939">
        <ele>251</ele>
        <time>2011-09-20T08:35:36Z</time>
      </trkpt>
      <trkpt lat="46.64721" lon="5.48933">
        <ele>251</ele>
        <time>2011-09-20T08:35:38Z</time>
      </trkpt>
      <trkpt lat="46.64709" lon="5.48925">
        <ele>251</ele>
        <time>2011-09-20T08:35:40Z</time>
      </trkpt>
      <trkpt lat="46.64695" lon="5.48921">
        <ele>251</ele>
        <time>2011-09-20T08:35:42Z</time>
      </trkpt>
      <trkpt lat="46.6468" lon="5.48929">
        <ele>251</ele>
        <time>2011-09-20T08:35:44Z</time>
      </trkpt>
      <trkpt lat="46.64668" lon="5.48945">
        <ele>251</ele>
        <time>2011-09-20T08:35:46Z</time>
      </trkpt>
      <trkpt lat="46.64657" lon="5.48966">
        <ele>251</ele>
        <time>2011-09-20T08:35:48Z</time>
      </trkpt>
      <trkpt lat="46.64648" lon="5.48987">
        <ele>245</ele>
        <time>2011-09-20T08:35:50Z</time>
      </trkpt>
      <trkpt lat="46.64637" lon="5.49005">
        <ele>245</ele>
        <time>2011-09-20T08:35:52Z</time>
      </trkpt>
      <trkpt lat="46.64625" lon="5.49022">
        <ele>245</ele>
        <time>2011-09-20T08:35:54Z</time>
      </trkpt>
      <trkpt lat="46.64611" lon="5.49033">
        <ele>245</ele>
        <time>2011-09-20T08:35:56Z</time>
      </trkpt>
      <trkpt lat="46.64597" lon="5.49043">
        <ele>245</ele>
        <time>2011-09-20T08:35:58Z</time>
      </trkpt>
      <trkpt lat="46.64584" lon="5.4905">
        <ele>245</ele>
        <time>2011-09-20T08:36:00Z</time>
      </trkpt>
      <trkpt lat="46.64573" lon="5.49057">
        <ele>245</ele>
        <time>2011-09-20T08:36:02Z</time>
      </trkpt>
      <trkpt lat="46.6456" lon="5.49064">
        <ele>245</ele>
        <time>2011-09-20T08:36:04Z</time>
      </trkpt>
      <trkpt lat="46.64549" lon="5.49072">
        <ele>245</ele>
        <time>2011-09-20T08:36:06Z</time>
      </trkpt>
      <trkpt lat="46.64537" lon="5.49079">
        <ele>245</ele>
        <time>2011-09-20T08:36:08Z</time>
      </trkpt>
      <trkpt lat="46.64526" lon="5.49086">
        <ele>245</ele>
        <time>2011-09-20T08:36:10Z</time>
      </trkpt>
      <trkpt lat="46.64516" lon="5.49093">
        <ele>245</ele>
        <time>2011-09-20T08:36:12Z</time>
      </trkpt>
      <trkpt lat="46.64508" lon="5.49098">
        <ele>245</ele>
        <time>2011-09-20T08:36:14Z</time>
      </trkpt>
      <trkpt lat="46.64499" lon="5.49104">
        <ele>245</ele>
        <time>2011-09-20T08:36:16Z</time>
      </trkpt>
      <trkpt lat="46.64488" lon="5.49114">
        <ele>245</ele>
        <time>2011-09-20T08:36:19Z</time>
      </trkpt>
      <trkpt lat="46.64481" lon="5.49122">
        <ele>245</ele>
        <time>2011-09-20T08:36:21Z</time>
      </trkpt>
      <trkpt lat="46.64472" lon="5.49137">
        <ele>245</ele>
        <time>2011-09-20T08:36:24Z</time>
      </trkpt>
      <trkpt lat="46.64465" lon="5.49154">
        <ele>245</ele>
        <time>2011-09-20T08:36:27Z</time>
      </trkpt>
      <trkpt lat="46.6446" lon="5.49165">
        <ele>245</ele>
        <time>2011-09-20T08:36:29Z</time>
      </trkpt>
      <trkpt lat="46.64453" lon="5.49176">
        <ele>245</ele>
        <time>2011-09-20T08:36:31Z</time>
      </trkpt>
      <trkpt lat="46.64445" lon="5.49186">
        <ele>245</ele>
        <time>2011-09-20T08:36:33Z</time>
      </trkpt>
      <trkpt lat="46.64433" lon="5.49194">
        <ele>245</ele>
        <time>2011-09-20T08:36:35Z</time>
      </trkpt>
      <trkpt lat="46.6442" lon="5.492">
        <ele>245</ele>
        <time>2011-09-20T08:36:37Z</time>
      </trkpt>
      <trkpt lat="46.64406" lon="5.49207">
        <ele>245</ele>
        <time>2011-09-20T08:36:39Z</time>
      </trkpt>
      <trkpt lat="46.64391" lon="5.49214">
        <ele>245</ele>
        <time>2011-09-20T08:36:41Z</time>
      </trkpt>
      <trkpt lat="46.64378" lon="5.49226">
        <ele>245</ele>
        <time>2011-09-20T08:36:43Z</time>
      </trkpt>
      <trkpt lat="46.64367" lon="5.49241">
        <ele>245</ele>
        <time>2011-09-20T08:36:45Z</time>
      </trkpt>
      <trkpt lat="46.64357" lon="5.49256">
        <ele>245</ele>
        <time>2011-09-20T08:36:47Z</time>
      </trkpt>
      <trkpt lat="46.64348" lon="5.4927">
        <ele>245</ele>
        <time>2011-09-20T08:36:49Z</time>
      </trkpt>
      <trkpt lat="46.64338" lon="5.49285">
        <ele>245</ele>
        <time>2011-09-20T08:36:51Z</time>
      </trkpt>
      <trkpt lat="46.6433" lon="5.493">
        <ele>245</ele>
        <time>2011-09-20T08:36:53Z</time>
      </trkpt>
      <trkpt lat="46.64322" lon="5.49314">
        <ele>245</ele>
        <time>2011-09-20T08:36:55Z</time>
      </trkpt>
      <trkpt lat="46.64315" lon="5.49329">
        <ele>245</ele>
        <time>2011-09-20T08:36:57Z</time>
      </trkpt>
      <trkpt lat="46.64309" lon="5.49344">
        <ele>245</ele>
        <time>2011-09-20T08:36:59Z</time>
      </trkpt>
      <trkpt lat="46.64304" lon="5.49358">
        <ele>245</ele>
        <time>2011-09-20T08:37:01Z</time>
      </trkpt>
      <trkpt lat="46.643" lon="5.49373">
        <ele>245</ele>
        <time>2011-09-20T08:37:03Z</time>
      </trkpt>
      <trkpt lat="46.64296" lon="5.49387">
        <ele>245</ele>
        <time>2011-09-20T08:37:05Z</time>
      </trkpt>
      <trkpt lat="46.64291" lon="5.49402">
        <ele>245</ele>
        <time>2011-09-20T08:37:07Z</time>
      </trkpt>
      <trkpt lat="46.64288" lon="5.49416">
        <ele>245</ele>
        <time>2011-09-20T08:37:09Z</time>
      </trkpt>
      <trkpt lat="46.64284" lon="5.49429">
        <ele>245</ele>
        <time>2011-09-20T08:37:11Z</time>
      </trkpt>
      <trkpt lat="46.64279" lon="5.49447">
        <ele>245</ele>
        <time>2011-09-20T08:37:14Z</time>
      </trkpt>
      <trkpt lat="46.64275" lon="5.49462">
        <ele>245</ele>
        <time>2011-09-20T08:37:17Z</time>
      </trkpt>
      <trkpt lat="46.64269" lon="5.49476">
        <ele>251</ele>
        <time>2011-09-20T08:37:20Z</time>
      </trkpt>
      <trkpt lat="46.64263" lon="5.49486">
        <ele>251</ele>
        <time>2011-09-20T08:37:22Z</time>
      </trkpt>
      <trkpt lat="46.64252" lon="5.49497">
        <ele>251</ele>
        <time>2011-09-20T08:37:25Z</time>
      </trkpt>
      <trkpt lat="46.64241" lon="5.49504">
        <ele>251</ele>
        <time>2011-09-20T08:37:28Z</time>
      </trkpt>
      <trkpt lat="46.64229" lon="5.49508">
        <ele>257</ele>
        <time>2011-09-20T08:37:31Z</time>
      </trkpt>
      <trkpt lat="46.64217" lon="5.49508">
        <ele>257</ele>
        <time>2011-09-20T08:37:34Z</time>
      </trkpt>
      <trkpt lat="46.64208" lon="5.49509">
        <ele>257</ele>
        <time>2011-09-20T08:37:36Z</time>
      </trkpt>
      <trkpt lat="46.64195" lon="5.49513">
        <ele>257</ele>
        <time>2011-09-20T08:37:39Z</time>
      </trkpt>
      <trkpt lat="46.64187" lon="5.49524">
        <ele>257</ele>
        <time>2011-09-20T08:37:42Z</time>
      </trkpt>
      <trkpt lat="46.64187" lon="5.49539">
        <ele>257</ele>
        <time>2011-09-20T08:37:46Z</time>
      </trkpt>
      <trkpt lat="46.64185" lon="5.49554">
        <ele>257</ele>
        <time>2011-09-20T08:37:51Z</time>
      </trkpt>
      <trkpt lat="46.64185" lon="5.49568">
        <ele>257</ele>
        <time>2011-09-20T08:37:57Z</time>
      </trkpt>
      <trkpt lat="46.64184" lon="5.49583">
        <ele>257</ele>
        <time>2011-09-20T08:42:47Z</time>
      </trkpt>
      <trkpt lat="46.64182" lon="5.49597">
        <ele>257</ele>
        <time>2011-09-20T08:42:50Z</time>
      </trkpt>
      <trkpt lat="46.64181" lon="5.49614">
        <ele>257</ele>
        <time>2011-09-20T08:42:53Z</time>
      </trkpt>
      <trkpt lat="46.64181" lon="5.49632">
        <ele>257</ele>
        <time>2011-09-20T08:42:56Z</time>
      </trkpt>
      <trkpt lat="46.64182" lon="5.49647">
        <ele>257</ele>
        <time>2011-09-20T08:42:58Z</time>
      </trkpt>
      <trkpt lat="46.6418" lon="5.49661">
        <ele>257</ele>
        <time>2011-09-20T08:43:00Z</time>
      </trkpt>
      <trkpt lat="46.64178" lon="5.49676">
        <ele>257</ele>
        <time>2011-09-20T08:43:02Z</time>
      </trkpt>
      <trkpt lat="46.64173" lon="5.4969">
        <ele>257</ele>
        <time>2011-09-20T08:43:04Z</time>
      </trkpt>
      <trkpt lat="46.64167" lon="5.497">
        <ele>257</ele>
        <time>2011-09-20T08:43:06Z</time>
      </trkpt>
      <trkpt lat="46.64161" lon="5.4971">
        <ele>257</ele>
        <time>2011-09-20T08:43:08Z</time>
      </trkpt>
      <trkpt lat="46.64153" lon="5.49719">
        <ele>257</ele>
        <time>2011-09-20T08:43:10Z</time>
      </trkpt>
      <trkpt lat="46.64143" lon="5.49729">
        <ele>257</ele>
        <time>2011-09-20T08:43:13Z</time>
      </trkpt>
      <trkpt lat="46.64133" lon="5.49742">
        <ele>257</ele>
        <time>2011-09-20T08:43:16Z</time>
      </trkpt>
      <trkpt lat="46.64124" lon="5.49755">
        <ele>257</ele>
        <time>2011-09-20T08:43:19Z</time>
      </trkpt>
      <trkpt lat="46.64115" lon="5.49769">
        <ele>257</ele>
        <time>2011-09-20T08:43:22Z</time>
      </trkpt>
      <trkpt lat="46.64107" lon="5.49784">
        <ele>257</ele>
        <time>2011-09-20T08:43:25Z</time>
      </trkpt>
      <trkpt lat="46.64101" lon="5.49796">
        <ele>257</ele>
        <time>2011-09-20T08:43:27Z</time>
      </trkpt>
      <trkpt lat="46.64096" lon="5.49808">
        <ele>257</ele>
        <time>2011-09-20T08:43:29Z</time>
      </trkpt>
      <trkpt lat="46.64091" lon="5.49819">
        <ele>257</ele>
        <time>2011-09-20T08:43:31Z</time>
      </trkpt>
      <trkpt lat="46.64085" lon="5.49831">
        <ele>257</ele>
        <time>2011-09-20T08:43:33Z</time>
      </trkpt>
      <trkpt lat="46.6408" lon="5.49843">
        <ele>257</ele>
        <time>2011-09-20T08:43:35Z</time>
      </trkpt>
      <trkpt lat="46.64075" lon="5.49855">
        <ele>257</ele>
        <time>2011-09-20T08:43:37Z</time>
      </trkpt>
      <trkpt lat="46.6407" lon="5.49868">
        <ele>257</ele>
        <time>2011-09-20T08:43:39Z</time>
      </trkpt>
      <trkpt lat="46.64066" lon="5.49879">
        <ele>257</ele>
        <time>2011-09-20T08:43:41Z</time>
      </trkpt>
      <trkpt lat="46.6406" lon="5.49897">
        <ele>262</ele>
        <time>2011-09-20T08:43:44Z</time>
      </trkpt>
      <trkpt lat="46.64055" lon="5.49914">
        <ele>262</ele>
        <time>2011-09-20T08:43:47Z</time>
      </trkpt>
      <trkpt lat="46.6405" lon="5.4993">
        <ele>262</ele>
        <time>2011-09-20T08:43:50Z</time>
      </trkpt>
      <trkpt lat="46.64044" lon="5.49946">
        <ele>262</ele>
        <time>2011-09-20T08:43:53Z</time>
      </trkpt>
      <trkpt lat="46.64038" lon="5.49962">
        <ele>262</ele>
        <time>2011-09-20T08:43:56Z</time>
      </trkpt>
      <trkpt lat="46.64032" lon="5.49977">
        <ele>262</ele>
        <time>2011-09-20T08:43:59Z</time>
      </trkpt>
      <trkpt lat="46.64027" lon="5.49992">
        <ele>262</ele>
        <time>2011-09-20T08:44:02Z</time>
      </trkpt>
      <trkpt lat="46.64022" lon="5.50004">
        <ele>262</ele>
        <time>2011-09-20T08:44:06Z</time>
      </trkpt>
      <trkpt lat="46.64013" lon="5.50008">
        <ele>262</ele>
        <time>2011-09-20T08:44:33Z</time>
      </trkpt>
      <trkpt lat="46.64002" lon="5.5001">
        <ele>262</ele>
        <time>2011-09-20T08:44:37Z</time>
      </trkpt>
      <trkpt lat="46.63995" lon="5.5002">
        <ele>262</ele>
        <time>2011-09-20T08:44:40Z</time>
      </trkpt>
      <trkpt lat="46.63991" lon="5.50032">
        <ele>262</ele>
        <time>2011-09-20T08:44:43Z</time>
      </trkpt>
      <trkpt lat="46.63986" lon="5.50044">
        <ele>262</ele>
        <time>2011-09-20T08:44:46Z</time>
      </trkpt>
      <trkpt lat="46.63981" lon="5.50056">
        <ele>262</ele>
        <time>2011-09-20T08:44:49Z</time>
      </trkpt>
      <trkpt lat="46.63975" lon="5.50069">
        <ele>262</ele>
        <time>2011-09-20T08:44:52Z</time>
      </trkpt>
      <trkpt lat="46.63969" lon="5.50083">
        <ele>262</ele>
        <time>2011-09-20T08:44:55Z</time>
      </trkpt>
      <trkpt lat="46.63962" lon="5.50097">
        <ele>262</ele>
        <time>2011-09-20T08:44:58Z</time>
      </trkpt>
      <trkpt lat="46.63956" lon="5.50111">
        <ele>262</ele>
        <time>2011-09-20T08:45:01Z</time>
      </trkpt>
      <trkpt lat="46.63951" lon="5.50126">
        <ele>262</ele>
        <time>2011-09-20T08:45:04Z</time>
      </trkpt>
      <trkpt lat="46.63945" lon="5.5014">
        <ele>262</ele>
        <time>2011-09-20T08:45:07Z</time>
      </trkpt>
      <trkpt lat="46.6394" lon="5.50153">
        <ele>262</ele>
        <time>2011-09-20T08:45:10Z</time>
      </trkpt>
      <trkpt lat="46.63934" lon="5.50167">
        <ele>262</ele>
        <time>2011-09-20T08:45:13Z</time>
      </trkpt>
      <trkpt lat="46.63927" lon="5.5018">
        <ele>267</ele>
        <time>2011-09-20T08:45:16Z</time>
      </trkpt>
      <trkpt lat="46.63919" lon="5.50193">
        <ele>267</ele>
        <time>2011-09-20T08:45:19Z</time>
      </trkpt>
      <trkpt lat="46.63911" lon="5.50205">
        <ele>267</ele>
        <time>2011-09-20T08:45:22Z</time>
      </trkpt>
      <trkpt lat="46.63903" lon="5.50218">
        <ele>267</ele>
        <time>2011-09-20T08:45:25Z</time>
      </trkpt>
      <trkpt lat="46.63895" lon="5.50231">
        <ele>267</ele>
        <time>2011-09-20T08:45:28Z</time>
      </trkpt>
      <trkpt lat="46.63886" lon="5.50242">
        <ele>267</ele>
        <time>2011-09-20T08:45:31Z</time>
      </trkpt>
      <trkpt lat="46.63879" lon="5.50256">
        <ele>273</ele>
        <time>2011-09-20T08:45:34Z</time>
      </trkpt>
      <trkpt lat="46.6387" lon="5.50268">
        <ele>273</ele>
        <time>2011-09-20T08:45:37Z</time>
      </trkpt>
      <trkpt lat="46.63864" lon="5.50281">
        <ele>273</ele>
        <time>2011-09-20T08:45:40Z</time>
      </trkpt>
      <trkpt lat="46.63856" lon="5.50293">
        <ele>273</ele>
        <time>2011-09-20T08:45:43Z</time>
      </trkpt>
      <trkpt lat="46.63849" lon="5.50305">
        <ele>273</ele>
        <time>2011-09-20T08:45:46Z</time>
      </trkpt>
      <trkpt lat="46.63843" lon="5.50318">
        <ele>273</ele>
        <time>2011-09-20T08:45:49Z</time>
      </trkpt>
      <trkpt lat="46.63835" lon="5.5033">
        <ele>273</ele>
        <time>2011-09-20T08:45:52Z</time>
      </trkpt>
      <trkpt lat="46.63828" lon="5.50342">
        <ele>273</ele>
        <time>2011-09-20T08:45:55Z</time>
      </trkpt>
      <trkpt lat="46.63822" lon="5.50356">
        <ele>273</ele>
        <time>2011-09-20T08:45:58Z</time>
      </trkpt>
      <trkpt lat="46.63815" lon="5.50368">
        <ele>273</ele>
        <time>2011-09-20T08:46:01Z</time>
      </trkpt>
      <trkpt lat="46.63808" lon="5.50382">
        <ele>273</ele>
        <time>2011-09-20T08:46:04Z</time>
      </trkpt>
      <trkpt lat="46.63801" lon="5.50394">
        <ele>273</ele>
        <time>2011-09-20T08:46:07Z</time>
      </trkpt>
      <trkpt lat="46.63795" lon="5.50408">
        <ele>273</ele>
        <time>2011-09-20T08:46:10Z</time>
      </trkpt>
      <trkpt lat="46.63789" lon="5.5042">
        <ele>273</ele>
        <time>2011-09-20T08:46:13Z</time>
      </trkpt>
      <trkpt lat="46.63783" lon="5.50434">
        <ele>279</ele>
        <time>2011-09-20T08:46:16Z</time>
      </trkpt>
      <trkpt lat="46.63778" lon="5.50448">
        <ele>279</ele>
        <time>2011-09-20T08:46:19Z</time>
      </trkpt>
      <trkpt lat="46.63773" lon="5.50463">
        <ele>279</ele>
        <time>2011-09-20T08:46:22Z</time>
      </trkpt>
      <trkpt lat="46.63769" lon="5.50478">
        <ele>279</ele>
        <time>2011-09-20T08:46:26Z</time>
      </trkpt>
      <trkpt lat="46.63764" lon="5.50493">
        <ele>279</ele>
        <time>2011-09-20T08:46:30Z</time>
      </trkpt>
      <trkpt lat="46.63754" lon="5.50499">
        <ele>279</ele>
        <time>2011-09-20T08:46:34Z</time>
      </trkpt>
      <trkpt lat="46.63744" lon="5.50489">
        <ele>279</ele>
        <time>2011-09-20T08:46:37Z</time>
      </trkpt>
      <trkpt lat="46.63733" lon="5.50479">
        <ele>279</ele>
        <time>2011-09-20T08:46:40Z</time>
      </trkpt>
      <trkpt lat="46.63725" lon="5.50472">
        <ele>279</ele>
        <time>2011-09-20T08:46:42Z</time>
      </trkpt>
      <trkpt lat="46.63717" lon="5.50465">
        <ele>279</ele>
        <time>2011-09-20T08:46:44Z</time>
      </trkpt>
      <trkpt lat="46.63706" lon="5.50454">
        <ele>279</ele>
        <time>2011-09-20T08:46:47Z</time>
      </trkpt>
      <trkpt lat="46.63695" lon="5.50443">
        <ele>279</ele>
        <time>2011-09-20T08:46:50Z</time>
      </trkpt>
      <trkpt lat="46.63687" lon="5.50436">
        <ele>279</ele>
        <time>2011-09-20T08:46:52Z</time>
      </trkpt>
      <trkpt lat="46.63679" lon="5.50427">
        <ele>279</ele>
        <time>2011-09-20T08:46:54Z</time>
      </trkpt>
      <trkpt lat="46.63671" lon="5.5042">
        <ele>279</ele>
        <time>2011-09-20T08:46:56Z</time>
      </trkpt>
      <trkpt lat="46.6366" lon="5.5041">
        <ele>279</ele>
        <time>2011-09-20T08:46:59Z</time>
      </trkpt>
      <trkpt lat="46.63651" lon="5.504">
        <ele>279</ele>
        <time>2011-09-20T08:47:02Z</time>
      </trkpt>
      <trkpt lat="46.63643" lon="5.50388">
        <ele>279</ele>
        <time>2011-09-20T08:47:05Z</time>
      </trkpt>
      <trkpt lat="46.6364" lon="5.50371">
        <ele>279</ele>
        <time>2011-09-20T08:47:08Z</time>
      </trkpt>
      <trkpt lat="46.63642" lon="5.50352">
        <ele>279</ele>
        <time>2011-09-20T08:47:11Z</time>
      </trkpt>
      <trkpt lat="46.63645" lon="5.50339">
        <ele>279</ele>
        <time>2011-09-20T08:47:13Z</time>
      </trkpt>
      <trkpt lat="46.63648" lon="5.50325">
        <ele>279</ele>
        <time>2011-09-20T08:47:15Z</time>
      </trkpt>
      <trkpt lat="46.63651" lon="5.50311">
        <ele>279</ele>
        <time>2011-09-20T08:47:17Z</time>
      </trkpt>
      <trkpt lat="46.63655" lon="5.50296">
        <ele>279</ele>
        <time>2011-09-20T08:47:19Z</time>
      </trkpt>
      <trkpt lat="46.63657" lon="5.5028">
        <ele>279</ele>
        <time>2011-09-20T08:47:21Z</time>
      </trkpt>
      <trkpt lat="46.63657" lon="5.50262">
        <ele>274</ele>
        <time>2011-09-20T08:47:23Z</time>
      </trkpt>
      <trkpt lat="46.63656" lon="5.50243">
        <ele>274</ele>
        <time>2011-09-20T08:47:25Z</time>
      </trkpt>
      <trkpt lat="46.63655" lon="5.50222">
        <ele>274</ele>
        <time>2011-09-20T08:47:27Z</time>
      </trkpt>
      <trkpt lat="46.63653" lon="5.50199">
        <ele>274</ele>
        <time>2011-09-20T08:47:29Z</time>
      </trkpt>
      <trkpt lat="46.63651" lon="5.50175">
        <ele>274</ele>
        <time>2011-09-20T08:47:31Z</time>
      </trkpt>
      <trkpt lat="46.63648" lon="5.50151">
        <ele>268</ele>
        <time>2011-09-20T08:47:33Z</time>
      </trkpt>
      <trkpt lat="46.63645" lon="5.50127">
        <ele>268</ele>
        <time>2011-09-20T08:47:35Z</time>
      </trkpt>
      <trkpt lat="46.63643" lon="5.50114">
        <ele>268</ele>
        <time>2011-09-20T08:47:36Z</time>
      </trkpt>
      <trkpt lat="46.63639" lon="5.50101">
        <ele>268</ele>
        <time>2011-09-20T08:47:37Z</time>
      </trkpt>
      <trkpt lat="46.63635" lon="5.5009">
        <ele>268</ele>
        <time>2011-09-20T08:47:38Z</time>
      </trkpt>
      <trkpt lat="46.63623" lon="5.50071">
        <ele>268</ele>
        <time>2011-09-20T08:47:40Z</time>
      </trkpt>
      <trkpt lat="46.63616" lon="5.50063">
        <ele>268</ele>
        <time>2011-09-20T08:47:41Z</time>
      </trkpt>
      <trkpt lat="46.63601" lon="5.50049">
        <ele>268</ele>
        <time>2011-09-20T08:47:43Z</time>
      </trkpt>
      <trkpt lat="46.63586" lon="5.50037">
        <ele>268</ele>
        <time>2011-09-20T08:47:45Z</time>
      </trkpt>
      <trkpt lat="46.63571" lon="5.50023">
        <ele>268</ele>
        <time>2011-09-20T08:47:47Z</time>
      </trkpt>
      <trkpt lat="46.63563" lon="5.50016">
        <ele>268</ele>
        <time>2011-09-20T08:47:48Z</time>
      </trkpt>
      <trkpt lat="46.63549" lon="5.50002">
        <ele>263</ele>
        <time>2011-09-20T08:47:50Z</time>
      </trkpt>
      <trkpt lat="46.63538" lon="5.49985">
        <ele>263</ele>
        <time>2011-09-20T08:47:52Z</time>
      </trkpt>
      <trkpt lat="46.63531" lon="5.49966">
        <ele>263</ele>
        <time>2011-09-20T08:47:54Z</time>
      </trkpt>
      <trkpt lat="46.63528" lon="5.49945">
        <ele>263</ele>
        <time>2011-09-20T08:47:56Z</time>
      </trkpt>
      <trkpt lat="46.63528" lon="5.49927">
        <ele>263</ele>
        <time>2011-09-20T08:47:58Z</time>
      </trkpt>
      <trkpt lat="46.63528" lon="5.49908">
        <ele>263</ele>
        <time>2011-09-20T08:48:00Z</time>
      </trkpt>
      <trkpt lat="46.63528" lon="5.4989">
        <ele>263</ele>
        <time>2011-09-20T08:48:02Z</time>
      </trkpt>
      <trkpt lat="46.63526" lon="5.49871">
        <ele>263</ele>
        <time>2011-09-20T08:48:04Z</time>
      </trkpt>
      <trkpt lat="46.63525" lon="5.49852">
        <ele>263</ele>
        <time>2011-09-20T08:48:06Z</time>
      </trkpt>
      <trkpt lat="46.63524" lon="5.49833">
        <ele>263</ele>
        <time>2011-09-20T08:48:08Z</time>
      </trkpt>
      <trkpt lat="46.63523" lon="5.49815">
        <ele>263</ele>
        <time>2011-09-20T08:48:10Z</time>
      </trkpt>
      <trkpt lat="46.63523" lon="5.49798">
        <ele>263</ele>
        <time>2011-09-20T08:48:12Z</time>
      </trkpt>
      <trkpt lat="46.63522" lon="5.49782">
        <ele>263</ele>
        <time>2011-09-20T08:48:14Z</time>
      </trkpt>
      <trkpt lat="46.63521" lon="5.49766">
        <ele>263</ele>
        <time>2011-09-20T08:48:16Z</time>
      </trkpt>
      <trkpt lat="46.63519" lon="5.49748">
        <ele>263</ele>
        <time>2011-09-20T08:48:18Z</time>
      </trkpt>
      <trkpt lat="46.63516" lon="5.4973">
        <ele>263</ele>
        <time>2011-09-20T08:48:20Z</time>
      </trkpt>
      <trkpt lat="46.63512" lon="5.49712">
        <ele>263</ele>
        <time>2011-09-20T08:48:22Z</time>
      </trkpt>
      <trkpt lat="46.63507" lon="5.49694">
        <ele>263</ele>
        <time>2011-09-20T08:48:24Z</time>
      </trkpt>
      <trkpt lat="46.635" lon="5.49674">
        <ele>263</ele>
        <time>2011-09-20T08:48:26Z</time>
      </trkpt>
      <trkpt lat="46.63494" lon="5.49653">
        <ele>263</ele>
        <time>2011-09-20T08:48:28Z</time>
      </trkpt>
      <trkpt lat="46.63488" lon="5.49632">
        <ele>257</ele>
        <time>2011-09-20T08:48:30Z</time>
      </trkpt>
      <trkpt lat="46.63482" lon="5.49612">
        <ele>257</ele>
        <time>2011-09-20T08:48:32Z</time>
      </trkpt>
      <trkpt lat="46.63476" lon="5.49591">
        <ele>257</ele>
        <time>2011-09-20T08:48:34Z</time>
      </trkpt>
      <trkpt lat="46.6347" lon="5.49571">
        <ele>257</ele>
        <time>2011-09-20T08:48:36Z</time>
      </trkpt>
      <trkpt lat="46.63464" lon="5.49553">
        <ele>257</ele>
        <time>2011-09-20T08:48:38Z</time>
      </trkpt>
      <trkpt lat="46.63458" lon="5.49535">
        <ele>257</ele>
        <time>2011-09-20T08:48:40Z</time>
      </trkpt>
      <trkpt lat="46.63452" lon="5.49521">
        <ele>257</ele>
        <time>2011-09-20T08:48:42Z</time>
      </trkpt>
      <trkpt lat="46.63445" lon="5.49508">
        <ele>257</ele>
        <time>2011-09-20T08:48:44Z</time>
      </trkpt>
      <trkpt lat="46.63438" lon="5.49495">
        <ele>257</ele>
        <time>2011-09-20T08:48:46Z</time>
      </trkpt>
      <trkpt lat="46.63429" lon="5.49483">
        <ele>257</ele>
        <time>2011-09-20T08:48:48Z</time>
      </trkpt>
      <trkpt lat="46.63419" lon="5.49472">
        <ele>257</ele>
        <time>2011-09-20T08:48:50Z</time>
      </trkpt>
      <trkpt lat="46.63408" lon="5.49459">
        <ele>257</ele>
        <time>2011-09-20T08:48:52Z</time>
      </trkpt>
      <trkpt lat="46.63396" lon="5.49446">
        <ele>257</ele>
        <time>2011-09-20T08:48:54Z</time>
      </trkpt>
      <trkpt lat="46.63382" lon="5.49432">
        <ele>257</ele>
        <time>2011-09-20T08:48:56Z</time>
      </trkpt>
      <trkpt lat="46.63369" lon="5.49419">
        <ele>257</ele>
        <time>2011-09-20T08:48:58Z</time>
      </trkpt>
      <trkpt lat="46.63356" lon="5.49407">
        <ele>257</ele>
        <time>2011-09-20T08:49:00Z</time>
      </trkpt>
      <trkpt lat="46.63345" lon="5.49394">
        <ele>257</ele>
        <time>2011-09-20T08:49:02Z</time>
      </trkpt>
      <trkpt lat="46.63332" lon="5.49384">
        <ele>257</ele>
        <time>2011-09-20T08:49:04Z</time>
      </trkpt>
      <trkpt lat="46.6332" lon="5.49372">
        <ele>257</ele>
        <time>2011-09-20T08:49:06Z</time>
      </trkpt>
      <trkpt lat="46.63309" lon="5.49362">
        <ele>257</ele>
        <time>2011-09-20T08:49:08Z</time>
      </trkpt>
      <trkpt lat="46.63298" lon="5.49353">
        <ele>257</ele>
        <time>2011-09-20T08:49:10Z</time>
      </trkpt>
      <trkpt lat="46.63289" lon="5.49344">
        <ele>257</ele>
        <time>2011-09-20T08:49:12Z</time>
      </trkpt>
      <trkpt lat="46.6328" lon="5.49337">
        <ele>257</ele>
        <time>2011-09-20T08:49:14Z</time>
      </trkpt>
      <trkpt lat="46.63271" lon="5.4933">
        <ele>257</ele>
        <time>2011-09-20T08:49:16Z</time>
      </trkpt>
      <trkpt lat="46.63262" lon="5.49323">
        <ele>257</ele>
        <time>2011-09-20T08:49:18Z</time>
      </trkpt>
      <trkpt lat="46.63253" lon="5.49316">
        <ele>257</ele>
        <time>2011-09-20T08:49:20Z</time>
      </trkpt>
      <trkpt lat="46.63243" lon="5.49312">
        <ele>257</ele>
        <time>2011-09-20T08:49:22Z</time>
      </trkpt>
      <trkpt lat="46.63233" lon="5.49307">
        <ele>257</ele>
        <time>2011-09-20T08:49:24Z</time>
      </trkpt>
      <trkpt lat="46.63224" lon="5.49303">
        <ele>257</ele>
        <time>2011-09-20T08:49:26Z</time>
      </trkpt>
      <trkpt lat="46.63214" lon="5.49299">
        <ele>257</ele>
        <time>2011-09-20T08:49:28Z</time>
      </trkpt>
      <trkpt lat="46.63204" lon="5.49296">
        <ele>257</ele>
        <time>2011-09-20T08:49:30Z</time>
      </trkpt>
      <trkpt lat="46.63194" lon="5.49296">
        <ele>257</ele>
        <time>2011-09-20T08:49:32Z</time>
      </trkpt>
      <trkpt lat="46.63183" lon="5.49296">
        <ele>257</ele>
        <time>2011-09-20T08:49:34Z</time>
      </trkpt>
      <trkpt lat="46.63173" lon="5.49298">
        <ele>257</ele>
        <time>2011-09-20T08:49:36Z</time>
      </trkpt>
      <trkpt lat="46.63162" lon="5.49305">
        <ele>262</ele>
        <time>2011-09-20T08:49:38Z</time>
      </trkpt>
      <trkpt lat="46.63151" lon="5.49313">
        <ele>262</ele>
        <time>2011-09-20T08:49:40Z</time>
      </trkpt>
      <trkpt lat="46.63142" lon="5.49322">
        <ele>262</ele>
        <time>2011-09-20T08:49:42Z</time>
      </trkpt>
      <trkpt lat="46.63134" lon="5.49332">
        <ele>262</ele>
        <time>2011-09-20T08:49:44Z</time>
      </trkpt>
      <trkpt lat="46.63125" lon="5.49341">
        <ele>262</ele>
        <time>2011-09-20T08:49:46Z</time>
      </trkpt>
      <trkpt lat="46.63117" lon="5.49351">
        <ele>262</ele>
        <time>2011-09-20T08:49:48Z</time>
      </trkpt>
      <trkpt lat="46.6311" lon="5.4936">
        <ele>262</ele>
        <time>2011-09-20T08:49:50Z</time>
      </trkpt>
      <trkpt lat="46.63102" lon="5.49368">
        <ele>262</ele>
        <time>2011-09-20T08:49:52Z</time>
      </trkpt>
      <trkpt lat="46.63093" lon="5.49376">
        <ele>262</ele>
        <time>2011-09-20T08:49:54Z</time>
      </trkpt>
      <trkpt lat="46.63084" lon="5.4938">
        <ele>262</ele>
        <time>2011-09-20T08:49:56Z</time>
      </trkpt>
      <trkpt lat="46.63075" lon="5.49385">
        <ele>262</ele>
        <time>2011-09-20T08:49:58Z</time>
      </trkpt>
      <trkpt lat="46.63066" lon="5.49389">
        <ele>262</ele>
        <time>2011-09-20T08:50:00Z</time>
      </trkpt>
      <trkpt lat="46.63057" lon="5.49393">
        <ele>262</ele>
        <time>2011-09-20T08:50:02Z</time>
      </trkpt>
      <trkpt lat="46.63048" lon="5.49397">
        <ele>262</ele>
        <time>2011-09-20T08:50:04Z</time>
      </trkpt>
      <trkpt lat="46.63039" lon="5.49402">
        <ele>262</ele>
        <time>2011-09-20T08:50:06Z</time>
      </trkpt>
      <trkpt lat="46.6303" lon="5.49406">
        <ele>262</ele>
        <time>2011-09-20T08:50:08Z</time>
      </trkpt>
      <trkpt lat="46.63021" lon="5.49411">
        <ele>262</ele>
        <time>2011-09-20T08:50:10Z</time>
      </trkpt>
      <trkpt lat="46.63012" lon="5.49415">
        <ele>268</ele>
        <time>2011-09-20T08:50:12Z</time>
      </trkpt>
      <trkpt lat="46.63003" lon="5.4942">
        <ele>268</ele>
        <time>2011-09-20T08:50:14Z</time>
      </trkpt>
      <trkpt lat="46.62995" lon="5.49427">
        <ele>268</ele>
        <time>2011-09-20T08:50:16Z</time>
      </trkpt>
      <trkpt lat="46.62983" lon="5.49435">
        <ele>268</ele>
        <time>2011-09-20T08:50:19Z</time>
      </trkpt>
      <trkpt lat="46.62971" lon="5.49443">
        <ele>268</ele>
        <time>2011-09-20T08:50:22Z</time>
      </trkpt>
      <trkpt lat="46.6296" lon="5.4945">
        <ele>268</ele>
        <time>2011-09-20T08:50:25Z</time>
      </trkpt>
      <trkpt lat="46.6295" lon="5.49457">
        <ele>274</ele>
        <time>2011-09-20T08:50:28Z</time>
      </trkpt>
      <trkpt lat="46.62941" lon="5.4946">
        <ele>274</ele>
        <time>2011-09-20T08:50:31Z</time>
      </trkpt>
      <trkpt lat="46.62932" lon="5.49449">
        <ele>274</ele>
        <time>2011-09-20T08:50:34Z</time>
      </trkpt>
      <trkpt lat="46.62924" lon="5.49434">
        <ele>274</ele>
        <time>2011-09-20T08:50:37Z</time>
      </trkpt>
      <trkpt lat="46.62918" lon="5.49423">
        <ele>274</ele>
        <time>2011-09-20T08:50:39Z</time>
      </trkpt>
      <trkpt lat="46.6291" lon="5.49411">
        <ele>274</ele>
        <time>2011-09-20T08:50:41Z</time>
      </trkpt>
      <trkpt lat="46.629" lon="5.49403">
        <ele>274</ele>
        <time>2011-09-20T08:50:43Z</time>
      </trkpt>
      <trkpt lat="46.62889" lon="5.49398">
        <ele>274</ele>
        <time>2011-09-20T08:50:45Z</time>
      </trkpt>
      <trkpt lat="46.62877" lon="5.49395">
        <ele>274</ele>
        <time>2011-09-20T08:50:47Z</time>
      </trkpt>
      <trkpt lat="46.62866" lon="5.49394">
        <ele>274</ele>
        <time>2011-09-20T08:50:49Z</time>
      </trkpt>
      <trkpt lat="46.62854" lon="5.49393">
        <ele>274</ele>
        <time>2011-09-20T08:50:51Z</time>
      </trkpt>
      <trkpt lat="46.62843" lon="5.49392">
        <ele>274</ele>
        <time>2011-09-20T08:50:53Z</time>
      </trkpt>
      <trkpt lat="46.62831" lon="5.4939">
        <ele>274</ele>
        <time>2011-09-20T08:50:55Z</time>
      </trkpt>
      <trkpt lat="46.6282" lon="5.49388">
        <ele>274</ele>
        <time>2011-09-20T08:50:57Z</time>
      </trkpt>
      <trkpt lat="46.62808" lon="5.49385">
        <ele>274</ele>
        <time>2011-09-20T08:50:59Z</time>
      </trkpt>
      <trkpt lat="46.62795" lon="5.49382">
        <ele>274</ele>
        <time>2011-09-20T08:51:01Z</time>
      </trkpt>
      <trkpt lat="46.62782" lon="5.49377">
        <ele>268</ele>
        <time>2011-09-20T08:51:03Z</time>
      </trkpt>
      <trkpt lat="46.62768" lon="5.49374">
        <ele>268</ele>
        <time>2011-09-20T08:51:05Z</time>
      </trkpt>
      <trkpt lat="46.62754" lon="5.49371">
        <ele>268</ele>
        <time>2011-09-20T08:51:07Z</time>
      </trkpt>
      <trkpt lat="46.6274" lon="5.4937">
        <ele>268</ele>
        <time>2011-09-20T08:51:09Z</time>
      </trkpt>
      <trkpt lat="46.62726" lon="5.4937">
        <ele>268</ele>
        <time>2011-09-20T08:51:11Z</time>
      </trkpt>
      <trkpt lat="46.62713" lon="5.49372">
        <ele>268</ele>
        <time>2011-09-20T08:51:13Z</time>
      </trkpt>
      <trkpt lat="46.627" lon="5.49375">
        <ele>268</ele>
        <time>2011-09-20T08:51:15Z</time>
      </trkpt>
      <trkpt lat="46.62687" lon="5.49379">
        <ele>268</ele>
        <time>2011-09-20T08:51:17Z</time>
      </trkpt>
      <trkpt lat="46.62676" lon="5.49385">
        <ele>268</ele>
        <time>2011-09-20T08:51:19Z</time>
      </trkpt>
      <trkpt lat="46.62663" lon="5.49392">
        <ele>268</ele>
        <time>2011-09-20T08:51:21Z</time>
      </trkpt>
      <trkpt lat="46.62651" lon="5.49398">
        <ele>268</ele>
        <time>2011-09-20T08:51:23Z</time>
      </trkpt>
      <trkpt lat="46.62638" lon="5.49405">
        <ele>268</ele>
        <time>2011-09-20T08:51:25Z</time>
      </trkpt>
      <trkpt lat="46.62626" lon="5.49412">
        <ele>268</ele>
        <time>2011-09-20T08:51:27Z</time>
      </trkpt>
      <trkpt lat="46.62614" lon="5.4942">
        <ele>268</ele>
        <time>2011-09-20T08:51:29Z</time>
      </trkpt>
      <trkpt lat="46.62599" lon="5.49427">
        <ele>268</ele>
        <time>2011-09-20T08:51:31Z</time>
      </trkpt>
      <trkpt lat="46.62586" lon="5.49434">
        <ele>268</ele>
        <time>2011-09-20T08:51:33Z</time>
      </trkpt>
      <trkpt lat="46.62575" lon="5.49439">
        <ele>268</ele>
        <time>2011-09-20T08:51:35Z</time>
      </trkpt>
      <trkpt lat="46.62567" lon="5.49444">
        <ele>268</ele>
        <time>2011-09-20T08:51:38Z</time>
      </trkpt>
      <trkpt lat="46.62557" lon="5.49447">
        <ele>268</ele>
        <time>2011-09-20T08:51:43Z</time>
      </trkpt>
      <trkpt lat="46.62549" lon="5.49458">
        <ele>268</ele>
        <time>2011-09-20T08:51:46Z</time>
      </trkpt>
      <trkpt lat="46.62544" lon="5.49469">
        <ele>268</ele>
        <time>2011-09-20T08:51:48Z</time>
      </trkpt>
      <trkpt lat="46.62535" lon="5.49485">
        <ele>268</ele>
        <time>2011-09-20T08:51:51Z</time>
      </trkpt>
      <trkpt lat="46.62529" lon="5.49497">
        <ele>268</ele>
        <time>2011-09-20T08:51:53Z</time>
      </trkpt>
      <trkpt lat="46.62522" lon="5.49508">
        <ele>268</ele>
        <time>2011-09-20T08:51:55Z</time>
      </trkpt>
      <trkpt lat="46.62515" lon="5.49519">
        <ele>268</ele>
        <time>2011-09-20T08:51:57Z</time>
      </trkpt>
      <trkpt lat="46.62506" lon="5.4953">
        <ele>268</ele>
        <time>2011-09-20T08:52:00Z</time>
      </trkpt>
      <trkpt lat="46.62496" lon="5.49517">
        <ele>262</ele>
        <time>2011-09-20T08:52:03Z</time>
      </trkpt>
      <trkpt lat="46.62491" lon="5.49501">
        <ele>262</ele>
        <time>2011-09-20T08:52:05Z</time>
      </trkpt>
      <trkpt lat="46.62487" lon="5.49484">
        <ele>262</ele>
        <time>2011-09-20T08:52:07Z</time>
      </trkpt>
      <trkpt lat="46.62483" lon="5.49467">
        <ele>262</ele>
        <time>2011-09-20T08:52:09Z</time>
      </trkpt>
      <trkpt lat="46.62481" lon="5.4945">
        <ele>262</ele>
        <time>2011-09-20T08:52:11Z</time>
      </trkpt>
      <trkpt lat="46.62478" lon="5.49433">
        <ele>262</ele>
        <time>2011-09-20T08:52:13Z</time>
      </trkpt>
      <trkpt lat="46.62476" lon="5.49416">
        <ele>262</ele>
        <time>2011-09-20T08:52:15Z</time>
      </trkpt>
      <trkpt lat="46.62476" lon="5.494">
        <ele>262</ele>
        <time>2011-09-20T08:52:17Z</time>
      </trkpt>
      <trkpt lat="46.62476" lon="5.49384">
        <ele>262</ele>
        <time>2011-09-20T08:52:19Z</time>
      </trkpt>
      <trkpt lat="46.62476" lon="5.49369">
        <ele>262</ele>
        <time>2011-09-20T08:52:21Z</time>
      </trkpt>
      <trkpt lat="46.62475" lon="5.49356">
        <ele>262</ele>
        <time>2011-09-20T08:52:23Z</time>
      </trkpt>
      <trkpt lat="46.62468" lon="5.49345">
        <ele>262</ele>
        <time>2011-09-20T08:52:25Z</time>
      </trkpt>
      <trkpt lat="46.62461" lon="5.49336">
        <ele>262</ele>
        <time>2011-09-20T08:52:27Z</time>
      </trkpt>
      <trkpt lat="46.62452" lon="5.49328">
        <ele>262</ele>
        <time>2011-09-20T08:52:29Z</time>
      </trkpt>
      <trkpt lat="46.62444" lon="5.4932">
        <ele>262</ele>
        <time>2011-09-20T08:52:31Z</time>
      </trkpt>
      <trkpt lat="46.62435" lon="5.49311">
        <ele>262</ele>
        <time>2011-09-20T08:52:33Z</time>
      </trkpt>
      <trkpt lat="46.62427" lon="5.49301">
        <ele>262</ele>
        <time>2011-09-20T08:52:35Z</time>
      </trkpt>
      <trkpt lat="46.62418" lon="5.49292">
        <ele>262</ele>
        <time>2011-09-20T08:52:37Z</time>
      </trkpt>
      <trkpt lat="46.62409" lon="5.49282">
        <ele>262</ele>
        <time>2011-09-20T08:52:39Z</time>
      </trkpt>
      <trkpt lat="46.624" lon="5.49271">
        <ele>262</ele>
        <time>2011-09-20T08:52:41Z</time>
      </trkpt>
      <trkpt lat="46.6239" lon="5.49261">
        <ele>262</ele>
        <time>2011-09-20T08:52:43Z</time>
      </trkpt>
      <trkpt lat="46.62381" lon="5.49249">
        <ele>262</ele>
        <time>2011-09-20T08:52:45Z</time>
      </trkpt>
      <trkpt lat="46.62371" lon="5.49238">
        <ele>262</ele>
        <time>2011-09-20T08:52:47Z</time>
      </trkpt>
      <trkpt lat="46.62362" lon="5.49227">
        <ele>262</ele>
        <time>2011-09-20T08:52:49Z</time>
      </trkpt>
      <trkpt lat="46.62353" lon="5.49217">
        <ele>262</ele>
        <time>2011-09-20T08:52:51Z</time>
      </trkpt>
      <trkpt lat="46.62343" lon="5.49209">
        <ele>262</ele>
        <time>2011-09-20T08:52:53Z</time>
      </trkpt>
      <trkpt lat="46.62334" lon="5.49201">
        <ele>262</ele>
        <time>2011-09-20T08:52:55Z</time>
      </trkpt>
      <trkpt lat="46.62327" lon="5.4919">
        <ele>262</ele>
        <time>2011-09-20T08:52:57Z</time>
      </trkpt>
      <trkpt lat="46.62322" lon="5.49174">
        <ele>262</ele>
        <time>2011-09-20T08:52:59Z</time>
      </trkpt>
      <trkpt lat="46.62318" lon="5.49156">
        <ele>262</ele>
        <time>2011-09-20T08:53:01Z</time>
      </trkpt>
      <trkpt lat="46.62313" lon="5.49138">
        <ele>262</ele>
        <time>2011-09-20T08:53:03Z</time>
      </trkpt>
      <trkpt lat="46.62305" lon="5.49124">
        <ele>262</ele>
        <time>2011-09-20T08:53:05Z</time>
      </trkpt>
      <trkpt lat="46.62296" lon="5.49111">
        <ele>262</ele>
        <time>2011-09-20T08:53:07Z</time>
      </trkpt>
      <trkpt lat="46.62287" lon="5.49099">
        <ele>262</ele>
        <time>2011-09-20T08:53:09Z</time>
      </trkpt>
      <trkpt lat="46.62278" lon="5.49085">
        <ele>262</ele>
        <time>2011-09-20T08:53:11Z</time>
      </trkpt>
      <trkpt lat="46.6227" lon="5.49069">
        <ele>262</ele>
        <time>2011-09-20T08:53:13Z</time>
      </trkpt>
      <trkpt lat="46.62259" lon="5.49052">
        <ele>262</ele>
        <time>2011-09-20T08:53:15Z</time>
      </trkpt>
      <trkpt lat="46.62248" lon="5.49034">
        <ele>262</ele>
        <time>2011-09-20T08:53:17Z</time>
      </trkpt>
      <trkpt lat="46.62236" lon="5.49017">
        <ele>257</ele>
        <time>2011-09-20T08:53:19Z</time>
      </trkpt>
      <trkpt lat="46.62223" lon="5.49">
        <ele>257</ele>
        <time>2011-09-20T08:53:21Z</time>
      </trkpt>
      <trkpt lat="46.62216" lon="5.48991">
        <ele>257</ele>
        <time>2011-09-20T08:53:22Z</time>
      </trkpt>
      <trkpt lat="46.62209" lon="5.48982">
        <ele>257</ele>
        <time>2011-09-20T08:53:23Z</time>
      </trkpt>
      <trkpt lat="46.62196" lon="5.48965">
        <ele>257</ele>
        <time>2011-09-20T08:53:25Z</time>
      </trkpt>
      <trkpt lat="46.62189" lon="5.48956">
        <ele>257</ele>
        <time>2011-09-20T08:53:26Z</time>
      </trkpt>
      <trkpt lat="46.62182" lon="5.48946">
        <ele>257</ele>
        <time>2011-09-20T08:53:27Z</time>
      </trkpt>
      <trkpt lat="46.62174" lon="5.48936">
        <ele>251</ele>
        <time>2011-09-20T08:53:28Z</time>
      </trkpt>
      <trkpt lat="46.62166" lon="5.48926">
        <ele>251</ele>
        <time>2011-09-20T08:53:29Z</time>
      </trkpt>
      <trkpt lat="46.62158" lon="5.48917">
        <ele>251</ele>
        <time>2011-09-20T08:53:30Z</time>
      </trkpt>
      <trkpt lat="46.6215" lon="5.48908">
        <ele>251</ele>
        <time>2011-09-20T08:53:31Z</time>
      </trkpt>
      <trkpt lat="46.6214" lon="5.48899">
        <ele>251</ele>
        <time>2011-09-20T08:53:32Z</time>
      </trkpt>
      <trkpt lat="46.6213" lon="5.4889">
        <ele>251</ele>
        <time>2011-09-20T08:53:33Z</time>
      </trkpt>
      <trkpt lat="46.6212" lon="5.48881">
        <ele>251</ele>
        <time>2011-09-20T08:53:34Z</time>
      </trkpt>
      <trkpt lat="46.62109" lon="5.48873">
        <ele>246</ele>
        <time>2011-09-20T08:53:35Z</time>
      </trkpt>
      <trkpt lat="46.62099" lon="5.48866">
        <ele>246</ele>
        <time>2011-09-20T08:53:36Z</time>
      </trkpt>
      <trkpt lat="46.62088" lon="5.48858">
        <ele>246</ele>
        <time>2011-09-20T08:53:37Z</time>
      </trkpt>
      <trkpt lat="46.62076" lon="5.48851">
        <ele>246</ele>
        <time>2011-09-20T08:53:38Z</time>
      </trkpt>
      <trkpt lat="46.62066" lon="5.48842">
        <ele>246</ele>
        <time>2011-09-20T08:53:39Z</time>
      </trkpt>
      <trkpt lat="46.62055" lon="5.48835">
        <ele>246</ele>
        <time>2011-09-20T08:53:40Z</time>
      </trkpt>
      <trkpt lat="46.62044" lon="5.48827">
        <ele>246</ele>
        <time>2011-09-20T08:53:41Z</time>
      </trkpt>
      <trkpt lat="46.62034" lon="5.48818">
        <ele>246</ele>
        <time>2011-09-20T08:53:42Z</time>
      </trkpt>
      <trkpt lat="46.62023" lon="5.48809">
        <ele>241</ele>
        <time>2011-09-20T08:53:43Z</time>
      </trkpt>
      <trkpt lat="46.62013" lon="5.48799">
        <ele>241</ele>
        <time>2011-09-20T08:53:44Z</time>
      </trkpt>
      <trkpt lat="46.62003" lon="5.48789">
        <ele>241</ele>
        <time>2011-09-20T08:53:45Z</time>
      </trkpt>
      <trkpt lat="46.61994" lon="5.48778">
        <ele>241</ele>
        <time>2011-09-20T08:53:46Z</time>
      </trkpt>
      <trkpt lat="46.61986" lon="5.48768">
        <ele>241</ele>
        <time>2011-09-20T08:53:47Z</time>
      </trkpt>
      <trkpt lat="46.61978" lon="5.48758">
        <ele>241</ele>
        <time>2011-09-20T08:53:48Z</time>
      </trkpt>
      <trkpt lat="46.61971" lon="5.48748">
        <ele>241</ele>
        <time>2011-09-20T08:53:49Z</time>
      </trkpt>
      <trkpt lat="46.61964" lon="5.48738">
        <ele>241</ele>
        <time>2011-09-20T08:53:50Z</time>
      </trkpt>
      <trkpt lat="46.61958" lon="5.48729">
        <ele>241</ele>
        <time>2011-09-20T08:53:51Z</time>
      </trkpt>
      <trkpt lat="46.61946" lon="5.48711">
        <ele>241</ele>
        <time>2011-09-20T08:53:53Z</time>
      </trkpt>
      <trkpt lat="46.61935" lon="5.48694">
        <ele>241</ele>
        <time>2011-09-20T08:53:55Z</time>
      </trkpt>
      <trkpt lat="46.61925" lon="5.48678">
        <ele>241</ele>
        <time>2011-09-20T08:53:57Z</time>
      </trkpt>
      <trkpt lat="46.61917" lon="5.48662">
        <ele>241</ele>
        <time>2011-09-20T08:53:59Z</time>
      </trkpt>
      <trkpt lat="46.61907" lon="5.48648">
        <ele>241</ele>
        <time>2011-09-20T08:54:01Z</time>
      </trkpt>
      <trkpt lat="46.61899" lon="5.48634">
        <ele>241</ele>
        <time>2011-09-20T08:54:03Z</time>
      </trkpt>
      <trkpt lat="46.61891" lon="5.4862">
        <ele>241</ele>
        <time>2011-09-20T08:54:05Z</time>
      </trkpt>
      <trkpt lat="46.61883" lon="5.48607">
        <ele>241</ele>
        <time>2011-09-20T08:54:07Z</time>
      </trkpt>
      <trkpt lat="46.61875" lon="5.48597">
        <ele>241</ele>
        <time>2011-09-20T08:54:09Z</time>
      </trkpt>
      <trkpt lat="46.61866" lon="5.48585">
        <ele>241</ele>
        <time>2011-09-20T08:54:11Z</time>
      </trkpt>
      <trkpt lat="46.61857" lon="5.48574">
        <ele>247</ele>
        <time>2011-09-20T08:54:13Z</time>
      </trkpt>
      <trkpt lat="46.61849" lon="5.48564">
        <ele>247</ele>
        <time>2011-09-20T08:54:15Z</time>
      </trkpt>
      <trkpt lat="46.61841" lon="5.48554">
        <ele>247</ele>
        <time>2011-09-20T08:54:17Z</time>
      </trkpt>
      <trkpt lat="46.61833" lon="5.48545">
        <ele>247</ele>
        <time>2011-09-20T08:54:19Z</time>
      </trkpt>
      <trkpt lat="46.61825" lon="5.48535">
        <ele>247</ele>
        <time>2011-09-20T08:54:21Z</time>
      </trkpt>
      <trkpt lat="46.61818" lon="5.48524">
        <ele>247</ele>
        <time>2011-09-20T08:54:23Z</time>
      </trkpt>
      <trkpt lat="46.6181" lon="5.48515">
        <ele>252</ele>
        <time>2011-09-20T08:54:25Z</time>
      </trkpt>
      <trkpt lat="46.61802" lon="5.48505">
        <ele>252</ele>
        <time>2011-09-20T08:54:27Z</time>
      </trkpt>
      <trkpt lat="46.61792" lon="5.48493">
        <ele>252</ele>
        <time>2011-09-20T08:54:29Z</time>
      </trkpt>
      <trkpt lat="46.61783" lon="5.48481">
        <ele>252</ele>
        <time>2011-09-20T08:54:31Z</time>
      </trkpt>
      <trkpt lat="46.61773" lon="5.48468">
        <ele>252</ele>
        <time>2011-09-20T08:54:33Z</time>
      </trkpt>
      <trkpt lat="46.61762" lon="5.48455">
        <ele>252</ele>
        <time>2011-09-20T08:54:35Z</time>
      </trkpt>
      <trkpt lat="46.61752" lon="5.48441">
        <ele>252</ele>
        <time>2011-09-20T08:54:37Z</time>
      </trkpt>
      <trkpt lat="46.61741" lon="5.48431">
        <ele>247</ele>
        <time>2011-09-20T08:54:39Z</time>
      </trkpt>
      <trkpt lat="46.6173" lon="5.48419">
        <ele>247</ele>
        <time>2011-09-20T08:54:41Z</time>
      </trkpt>
      <trkpt lat="46.61716" lon="5.48407">
        <ele>247</ele>
        <time>2011-09-20T08:54:43Z</time>
      </trkpt>
      <trkpt lat="46.61703" lon="5.48395">
        <ele>247</ele>
        <time>2011-09-20T08:54:45Z</time>
      </trkpt>
      <trkpt lat="46.61689" lon="5.48381">
        <ele>247</ele>
        <time>2011-09-20T08:54:47Z</time>
      </trkpt>
      <trkpt lat="46.61675" lon="5.48369">
        <ele>247</ele>
        <time>2011-09-20T08:54:49Z</time>
      </trkpt>
      <trkpt lat="46.61662" lon="5.48357">
        <ele>247</ele>
        <time>2011-09-20T08:54:51Z</time>
      </trkpt>
      <trkpt lat="46.61649" lon="5.48345">
        <ele>247</ele>
        <time>2011-09-20T08:54:53Z</time>
      </trkpt>
      <trkpt lat="46.61638" lon="5.48333">
        <ele>247</ele>
        <time>2011-09-20T08:54:55Z</time>
      </trkpt>
      <trkpt lat="46.61625" lon="5.48323">
        <ele>247</ele>
        <time>2011-09-20T08:54:57Z</time>
      </trkpt>
      <trkpt lat="46.61613" lon="5.48311">
        <ele>247</ele>
        <time>2011-09-20T08:54:59Z</time>
      </trkpt>
      <trkpt lat="46.616" lon="5.483">
        <ele>242</ele>
        <time>2011-09-20T08:55:01Z</time>
      </trkpt>
      <trkpt lat="46.61588" lon="5.48289">
        <ele>242</ele>
        <time>2011-09-20T08:55:03Z</time>
      </trkpt>
      <trkpt lat="46.61577" lon="5.48279">
        <ele>242</ele>
        <time>2011-09-20T08:55:05Z</time>
      </trkpt>
      <trkpt lat="46.61566" lon="5.48268">
        <ele>242</ele>
        <time>2011-09-20T08:55:07Z</time>
      </trkpt>
      <trkpt lat="46.61555" lon="5.48258">
        <ele>242</ele>
        <time>2011-09-20T08:55:09Z</time>
      </trkpt>
      <trkpt lat="46.61547" lon="5.48249">
        <ele>242</ele>
        <time>2011-09-20T08:55:11Z</time>
      </trkpt>
      <trkpt lat="46.61537" lon="5.48236">
        <ele>242</ele>
        <time>2011-09-20T08:55:14Z</time>
      </trkpt>
      <trkpt lat="46.61537" lon="5.48221">
        <ele>242</ele>
        <time>2011-09-20T08:55:17Z</time>
      </trkpt>
      <trkpt lat="46.61539" lon="5.48205">
        <ele>242</ele>
        <time>2011-09-20T08:55:20Z</time>
      </trkpt>
      <trkpt lat="46.61532" lon="5.48194">
        <ele>242</ele>
        <time>2011-09-20T08:55:22Z</time>
      </trkpt>
      <trkpt lat="46.61522" lon="5.48185">
        <ele>242</ele>
        <time>2011-09-20T08:55:24Z</time>
      </trkpt>
      <trkpt lat="46.6151" lon="5.48176">
        <ele>242</ele>
        <time>2011-09-20T08:55:26Z</time>
      </trkpt>
      <trkpt lat="46.61498" lon="5.48166">
        <ele>242</ele>
        <time>2011-09-20T08:55:28Z</time>
      </trkpt>
      <trkpt lat="46.61487" lon="5.48155">
        <ele>242</ele>
        <time>2011-09-20T08:55:30Z</time>
      </trkpt>
      <trkpt lat="46.61476" lon="5.48143">
        <ele>242</ele>
        <time>2011-09-20T08:55:32Z</time>
      </trkpt>
      <trkpt lat="46.61467" lon="5.4813">
        <ele>242</ele>
        <time>2011-09-20T08:55:34Z</time>
      </trkpt>
      <trkpt lat="46.61458" lon="5.48118">
        <ele>242</ele>
        <time>2011-09-20T08:55:36Z</time>
      </trkpt>
      <trkpt lat="46.61449" lon="5.48104">
        <ele>237</ele>
        <time>2011-09-20T08:55:38Z</time>
      </trkpt>
      <trkpt lat="46.61441" lon="5.4809">
        <ele>237</ele>
        <time>2011-09-20T08:55:40Z</time>
      </trkpt>
      <trkpt lat="46.61432" lon="5.48076">
        <ele>237</ele>
        <time>2011-09-20T08:55:42Z</time>
      </trkpt>
      <trkpt lat="46.61422" lon="5.48062">
        <ele>237</ele>
        <time>2011-09-20T08:55:44Z</time>
      </trkpt>
      <trkpt lat="46.61412" lon="5.48049">
        <ele>237</ele>
        <time>2011-09-20T08:55:46Z</time>
      </trkpt>
      <trkpt lat="46.61402" lon="5.48035">
        <ele>237</ele>
        <time>2011-09-20T08:55:48Z</time>
      </trkpt>
      <trkpt lat="46.61391" lon="5.48022">
        <ele>237</ele>
        <time>2011-09-20T08:55:50Z</time>
      </trkpt>
      <trkpt lat="46.6138" lon="5.48009">
        <ele>237</ele>
        <time>2011-09-20T08:55:52Z</time>
      </trkpt>
      <trkpt lat="46.6137" lon="5.47997">
        <ele>237</ele>
        <time>2011-09-20T08:55:54Z</time>
      </trkpt>
      <trkpt lat="46.61359" lon="5.47983">
        <ele>237</ele>
        <time>2011-09-20T08:55:56Z</time>
      </trkpt>
      <trkpt lat="46.61349" lon="5.47971">
        <ele>237</ele>
        <time>2011-09-20T08:55:58Z</time>
      </trkpt>
      <trkpt lat="46.61339" lon="5.47959">
        <ele>237</ele>
        <time>2011-09-20T08:56:00Z</time>
      </trkpt>
      <trkpt lat="46.61329" lon="5.47946">
        <ele>237</ele>
        <time>2011-09-20T08:56:02Z</time>
      </trkpt>
      <trkpt lat="46.61319" lon="5.47934">
        <ele>237</ele>
        <time>2011-09-20T08:56:04Z</time>
      </trkpt>
      <trkpt lat="46.6131" lon="5.47921">
        <ele>237</ele>
        <time>2011-09-20T08:56:06Z</time>
      </trkpt>
      <trkpt lat="46.61301" lon="5.47909">
        <ele>237</ele>
        <time>2011-09-20T08:56:08Z</time>
      </trkpt>
      <trkpt lat="46.61291" lon="5.47896">
        <ele>237</ele>
        <time>2011-09-20T08:56:10Z</time>
      </trkpt>
      <trkpt lat="46.61282" lon="5.47883">
        <ele>237</ele>
        <time>2011-09-20T08:56:12Z</time>
      </trkpt>
      <trkpt lat="46.61274" lon="5.47869">
        <ele>237</ele>
        <time>2011-09-20T08:56:14Z</time>
      </trkpt>
      <trkpt lat="46.61265" lon="5.47855">
        <ele>237</ele>
        <time>2011-09-20T08:56:16Z</time>
      </trkpt>
      <trkpt lat="46.61258" lon="5.47839">
        <ele>237</ele>
        <time>2011-09-20T08:56:18Z</time>
      </trkpt>
      <trkpt lat="46.61251" lon="5.47823">
        <ele>237</ele>
        <time>2011-09-20T08:56:20Z</time>
      </trkpt>
      <trkpt lat="46.61244" lon="5.47808">
        <ele>237</ele>
        <time>2011-09-20T08:56:22Z</time>
      </trkpt>
      <trkpt lat="46.61237" lon="5.47793">
        <ele>237</ele>
        <time>2011-09-20T08:56:24Z</time>
      </trkpt>
      <trkpt lat="46.6123" lon="5.47778">
        <ele>237</ele>
        <time>2011-09-20T08:56:26Z</time>
      </trkpt>
      <trkpt lat="46.61223" lon="5.47763">
        <ele>237</ele>
        <time>2011-09-20T08:56:28Z</time>
      </trkpt>
      <trkpt lat="46.61215" lon="5.4775">
        <ele>237</ele>
        <time>2011-09-20T08:56:30Z</time>
      </trkpt>
      <trkpt lat="46.61206" lon="5.47735">
        <ele>237</ele>
        <time>2011-09-20T08:56:32Z</time>
      </trkpt>
      <trkpt lat="46.61196" lon="5.47721">
        <ele>237</ele>
        <time>2011-09-20T08:56:34Z</time>
      </trkpt>
      <trkpt lat="46.61186" lon="5.47707">
        <ele>237</ele>
        <time>2011-09-20T08:56:36Z</time>
      </trkpt>
      <trkpt lat="46.61176" lon="5.47694">
        <ele>237</ele>
        <time>2011-09-20T08:56:38Z</time>
      </trkpt>
      <trkpt lat="46.61165" lon="5.47682">
        <ele>237</ele>
        <time>2011-09-20T08:56:40Z</time>
      </trkpt>
      <trkpt lat="46.61154" lon="5.4767">
        <ele>237</ele>
        <time>2011-09-20T08:56:42Z</time>
      </trkpt>
      <trkpt lat="46.61144" lon="5.47658">
        <ele>237</ele>
        <time>2011-09-20T08:56:44Z</time>
      </trkpt>
      <trkpt lat="46.61134" lon="5.47644">
        <ele>237</ele>
        <time>2011-09-20T08:56:46Z</time>
      </trkpt>
      <trkpt lat="46.61126" lon="5.47627">
        <ele>237</ele>
        <time>2011-09-20T08:56:48Z</time>
      </trkpt>
      <trkpt lat="46.61119" lon="5.47609">
        <ele>237</ele>
        <time>2011-09-20T08:56:50Z</time>
      </trkpt>
      <trkpt lat="46.61115" lon="5.47591">
        <ele>237</ele>
        <time>2011-09-20T08:56:52Z</time>
      </trkpt>
      <trkpt lat="46.61111" lon="5.47575">
        <ele>237</ele>
        <time>2011-09-20T08:56:54Z</time>
      </trkpt>
      <trkpt lat="46.61105" lon="5.47561">
        <ele>237</ele>
        <time>2011-09-20T08:56:56Z</time>
      </trkpt>
      <trkpt lat="46.61095" lon="5.47547">
        <ele>237</ele>
        <time>2011-09-20T08:56:58Z</time>
      </trkpt>
      <trkpt lat="46.61085" lon="5.47538">
        <ele>237</ele>
        <time>2011-09-20T08:57:00Z</time>
      </trkpt>
      <trkpt lat="46.61074" lon="5.47529">
        <ele>237</ele>
        <time>2011-09-20T08:57:02Z</time>
      </trkpt>
      <trkpt lat="46.61062" lon="5.47519">
        <ele>237</ele>
        <time>2011-09-20T08:57:04Z</time>
      </trkpt>
      <trkpt lat="46.61051" lon="5.4751">
        <ele>237</ele>
        <time>2011-09-20T08:57:06Z</time>
      </trkpt>
      <trkpt lat="46.61041" lon="5.47501">
        <ele>237</ele>
        <time>2011-09-20T08:57:08Z</time>
      </trkpt>
      <trkpt lat="46.6103" lon="5.47493">
        <ele>237</ele>
        <time>2011-09-20T08:57:10Z</time>
      </trkpt>
      <trkpt lat="46.6102" lon="5.47485">
        <ele>237</ele>
        <time>2011-09-20T08:57:12Z</time>
      </trkpt>
      <trkpt lat="46.61009" lon="5.47479">
        <ele>237</ele>
        <time>2011-09-20T08:57:14Z</time>
      </trkpt>
      <trkpt lat="46.61" lon="5.47472">
        <ele>237</ele>
        <time>2011-09-20T08:57:16Z</time>
      </trkpt>
      <trkpt lat="46.60991" lon="5.47467">
        <ele>237</ele>
        <time>2011-09-20T08:57:18Z</time>
      </trkpt>
      <trkpt lat="46.60983" lon="5.47459">
        <ele>237</ele>
        <time>2011-09-20T08:57:20Z</time>
      </trkpt>
      <trkpt lat="46.60974" lon="5.47452">
        <ele>232</ele>
        <time>2011-09-20T08:57:23Z</time>
      </trkpt>
      <trkpt lat="46.60966" lon="5.47443">
        <ele>232</ele>
        <time>2011-09-20T08:57:27Z</time>
      </trkpt>
      <trkpt lat="46.6096" lon="5.47432">
        <ele>232</ele>
        <time>2011-09-20T08:57:30Z</time>
      </trkpt>
      <trkpt lat="46.6095" lon="5.4742">
        <ele>232</ele>
        <time>2011-09-20T08:57:33Z</time>
      </trkpt>
      <trkpt lat="46.60937" lon="5.47415">
        <ele>232</ele>
        <time>2011-09-20T08:57:36Z</time>
      </trkpt>
      <trkpt lat="46.60928" lon="5.47414">
        <ele>232</ele>
        <time>2011-09-20T08:57:38Z</time>
      </trkpt>
      <trkpt lat="46.6092" lon="5.47408">
        <ele>232</ele>
        <time>2011-09-20T08:57:40Z</time>
      </trkpt>
      <trkpt lat="46.6091" lon="5.47401">
        <ele>232</ele>
        <time>2011-09-20T08:57:42Z</time>
      </trkpt>
      <trkpt lat="46.60902" lon="5.47392">
        <ele>232</ele>
        <time>2011-09-20T08:57:44Z</time>
      </trkpt>
      <trkpt lat="46.60893" lon="5.47384">
        <ele>232</ele>
        <time>2011-09-20T08:57:46Z</time>
      </trkpt>
      <trkpt lat="46.60885" lon="5.47375">
        <ele>232</ele>
        <time>2011-09-20T08:57:48Z</time>
      </trkpt>
      <trkpt lat="46.60879" lon="5.47366">
        <ele>232</ele>
        <time>2011-09-20T08:57:50Z</time>
      </trkpt>
      <trkpt lat="46.60871" lon="5.47356">
        <ele>232</ele>
        <time>2011-09-20T08:57:52Z</time>
      </trkpt>
      <trkpt lat="46.60864" lon="5.47347">
        <ele>232</ele>
        <time>2011-09-20T08:57:54Z</time>
      </trkpt>
      <trkpt lat="46.60856" lon="5.47339">
        <ele>232</ele>
        <time>2011-09-20T08:57:56Z</time>
      </trkpt>
      <trkpt lat="46.60846" lon="5.47334">
        <ele>232</ele>
        <time>2011-09-20T08:57:58Z</time>
      </trkpt>
      <trkpt lat="46.60837" lon="5.4733">
        <ele>232</ele>
        <time>2011-09-20T08:58:00Z</time>
      </trkpt>
      <trkpt lat="46.60824" lon="5.47327">
        <ele>232</ele>
        <time>2011-09-20T08:58:03Z</time>
      </trkpt>
      <trkpt lat="46.60814" lon="5.47329">
        <ele>237</ele>
        <time>2011-09-20T08:58:05Z</time>
      </trkpt>
      <trkpt lat="46.60805" lon="5.4733">
        <ele>237</ele>
        <time>2011-09-20T08:58:07Z</time>
      </trkpt>
      <trkpt lat="46.60794" lon="5.47331">
        <ele>237</ele>
        <time>2011-09-20T08:58:09Z</time>
      </trkpt>
      <trkpt lat="46.60783" lon="5.47335">
        <ele>243</ele>
        <time>2011-09-20T08:58:12Z</time>
      </trkpt>
      <trkpt lat="46.60772" lon="5.47333">
        <ele>243</ele>
        <time>2011-09-20T08:58:14Z</time>
      </trkpt>
      <trkpt lat="46.6076" lon="5.47329">
        <ele>243</ele>
        <time>2011-09-20T08:58:16Z</time>
      </trkpt>
      <trkpt lat="46.60748" lon="5.47327">
        <ele>243</ele>
        <time>2011-09-20T08:58:18Z</time>
      </trkpt>
      <trkpt lat="46.60736" lon="5.47328">
        <ele>243</ele>
        <time>2011-09-20T08:58:20Z</time>
      </trkpt>
      <trkpt lat="46.60725" lon="5.47333">
        <ele>243</ele>
        <time>2011-09-20T08:58:22Z</time>
      </trkpt>
      <trkpt lat="46.60713" lon="5.47339">
        <ele>238</ele>
        <time>2011-09-20T08:58:24Z</time>
      </trkpt>
      <trkpt lat="46.60701" lon="5.47346">
        <ele>238</ele>
        <time>2011-09-20T08:58:26Z</time>
      </trkpt>
      <trkpt lat="46.60689" lon="5.47351">
        <ele>238</ele>
        <time>2011-09-20T08:58:28Z</time>
      </trkpt>
      <trkpt lat="46.60677" lon="5.47353">
        <ele>238</ele>
        <time>2011-09-20T08:58:30Z</time>
      </trkpt>
      <trkpt lat="46.60663" lon="5.47353">
        <ele>238</ele>
        <time>2011-09-20T08:58:32Z</time>
      </trkpt>
      <trkpt lat="46.6065" lon="5.47353">
        <ele>238</ele>
        <time>2011-09-20T08:58:34Z</time>
      </trkpt>
      <trkpt lat="46.60636" lon="5.47355">
        <ele>238</ele>
        <time>2011-09-20T08:58:36Z</time>
      </trkpt>
      <trkpt lat="46.60622" lon="5.47356">
        <ele>238</ele>
        <time>2011-09-20T08:58:38Z</time>
      </trkpt>
      <trkpt lat="46.60609" lon="5.47358">
        <ele>238</ele>
        <time>2011-09-20T08:58:40Z</time>
      </trkpt>
      <trkpt lat="46.60595" lon="5.47358">
        <ele>238</ele>
        <time>2011-09-20T08:58:42Z</time>
      </trkpt>
      <trkpt lat="46.6058" lon="5.47359">
        <ele>238</ele>
        <time>2011-09-20T08:58:44Z</time>
      </trkpt>
      <trkpt lat="46.60565" lon="5.47359">
        <ele>238</ele>
        <time>2011-09-20T08:58:46Z</time>
      </trkpt>
      <trkpt lat="46.60551" lon="5.4736">
        <ele>238</ele>
        <time>2011-09-20T08:58:48Z</time>
      </trkpt>
      <trkpt lat="46.60538" lon="5.47362">
        <ele>238</ele>
        <time>2011-09-20T08:58:50Z</time>
      </trkpt>
      <trkpt lat="46.60525" lon="5.47365">
        <ele>238</ele>
        <time>2011-09-20T08:58:52Z</time>
      </trkpt>
      <trkpt lat="46.60512" lon="5.47372">
        <ele>238</ele>
        <time>2011-09-20T08:58:54Z</time>
      </trkpt>
      <trkpt lat="46.60499" lon="5.47381">
        <ele>238</ele>
        <time>2011-09-20T08:58:56Z</time>
      </trkpt>
      <trkpt lat="46.60487" lon="5.47391">
        <ele>238</ele>
        <time>2011-09-20T08:58:58Z</time>
      </trkpt>
      <trkpt lat="46.60476" lon="5.47402">
        <ele>238</ele>
        <time>2011-09-20T08:59:00Z</time>
      </trkpt>
      <trkpt lat="46.60465" lon="5.4741">
        <ele>238</ele>
        <time>2011-09-20T08:59:02Z</time>
      </trkpt>
      <trkpt lat="46.60454" lon="5.47418">
        <ele>238</ele>
        <time>2011-09-20T08:59:04Z</time>
      </trkpt>
      <trkpt lat="46.60443" lon="5.47426">
        <ele>233</ele>
        <time>2011-09-20T08:59:06Z</time>
      </trkpt>
      <trkpt lat="46.60432" lon="5.47432">
        <ele>233</ele>
        <time>2011-09-20T08:59:08Z</time>
      </trkpt>
      <trkpt lat="46.6042" lon="5.47437">
        <ele>233</ele>
        <time>2011-09-20T08:59:10Z</time>
      </trkpt>
      <trkpt lat="46.60409" lon="5.47441">
        <ele>233</ele>
        <time>2011-09-20T08:59:12Z</time>
      </trkpt>
      <trkpt lat="46.60398" lon="5.47442">
        <ele>233</ele>
        <time>2011-09-20T08:59:14Z</time>
      </trkpt>
      <trkpt lat="46.60387" lon="5.47441">
        <ele>233</ele>
        <time>2011-09-20T08:59:16Z</time>
      </trkpt>
      <trkpt lat="46.60375" lon="5.47437">
        <ele>233</ele>
        <time>2011-09-20T08:59:18Z</time>
      </trkpt>
      <trkpt lat="46.60364" lon="5.4743">
        <ele>233</ele>
        <time>2011-09-20T08:59:20Z</time>
      </trkpt>
      <trkpt lat="46.60353" lon="5.47423">
        <ele>233</ele>
        <time>2011-09-20T08:59:22Z</time>
      </trkpt>
      <trkpt lat="46.60343" lon="5.47415">
        <ele>233</ele>
        <time>2011-09-20T08:59:24Z</time>
      </trkpt>
      <trkpt lat="46.60331" lon="5.47407">
        <ele>233</ele>
        <time>2011-09-20T08:59:26Z</time>
      </trkpt>
      <trkpt lat="46.6032" lon="5.474">
        <ele>227</ele>
        <time>2011-09-20T08:59:28Z</time>
      </trkpt>
      <trkpt lat="46.60312" lon="5.47395">
        <ele>227</ele>
        <time>2011-09-20T08:59:30Z</time>
      </trkpt>
      <trkpt lat="46.60301" lon="5.47389">
        <ele>227</ele>
        <time>2011-09-20T08:59:34Z</time>
      </trkpt>
      <trkpt lat="46.60292" lon="5.47392">
        <ele>227</ele>
        <time>2011-09-20T08:59:39Z</time>
      </trkpt>
      <trkpt lat="46.60291" lon="5.47409">
        <ele>227</ele>
        <time>2011-09-20T08:59:42Z</time>
      </trkpt>
      <trkpt lat="46.60291" lon="5.47429">
        <ele>227</ele>
        <time>2011-09-20T08:59:45Z</time>
      </trkpt>
      <trkpt lat="46.60291" lon="5.47445">
        <ele>227</ele>
        <time>2011-09-20T08:59:47Z</time>
      </trkpt>
      <trkpt lat="46.60291" lon="5.4746">
        <ele>227</ele>
        <time>2011-09-20T08:59:49Z</time>
      </trkpt>
      <trkpt lat="46.60291" lon="5.47476">
        <ele>227</ele>
        <time>2011-09-20T08:59:51Z</time>
      </trkpt>
      <trkpt lat="46.60289" lon="5.4749">
        <ele>227</ele>
        <time>2011-09-20T08:59:53Z</time>
      </trkpt>
      <trkpt lat="46.60289" lon="5.47503">
        <ele>227</ele>
        <time>2011-09-20T08:59:55Z</time>
      </trkpt>
      <trkpt lat="46.60287" lon="5.47517">
        <ele>227</ele>
        <time>2011-09-20T08:59:57Z</time>
      </trkpt>
      <trkpt lat="46.60287" lon="5.4753">
        <ele>227</ele>
        <time>2011-09-20T08:59:59Z</time>
      </trkpt>
      <trkpt lat="46.60286" lon="5.47545">
        <ele>227</ele>
        <time>2011-09-20T09:00:01Z</time>
      </trkpt>
      <trkpt lat="46.60284" lon="5.47559">
        <ele>227</ele>
        <time>2011-09-20T09:00:03Z</time>
      </trkpt>
      <trkpt lat="46.60282" lon="5.47574">
        <ele>227</ele>
        <time>2011-09-20T09:00:05Z</time>
      </trkpt>
      <trkpt lat="46.60277" lon="5.47589">
        <ele>227</ele>
        <time>2011-09-20T09:00:07Z</time>
      </trkpt>
      <trkpt lat="46.60271" lon="5.47602">
        <ele>227</ele>
        <time>2011-09-20T09:00:09Z</time>
      </trkpt>
      <trkpt lat="46.60263" lon="5.47614">
        <ele>227</ele>
        <time>2011-09-20T09:00:11Z</time>
      </trkpt>
      <trkpt lat="46.60254" lon="5.47622">
        <ele>227</ele>
        <time>2011-09-20T09:00:13Z</time>
      </trkpt>
      <trkpt lat="46.60243" lon="5.47626">
        <ele>227</ele>
        <time>2011-09-20T09:00:15Z</time>
      </trkpt>
      <trkpt lat="46.60231" lon="5.47627">
        <ele>227</ele>
        <time>2011-09-20T09:00:17Z</time>
      </trkpt>
      <trkpt lat="46.60219" lon="5.4763">
        <ele>227</ele>
        <time>2011-09-20T09:00:19Z</time>
      </trkpt>
      <trkpt lat="46.60207" lon="5.47633">
        <ele>227</ele>
        <time>2011-09-20T09:00:21Z</time>
      </trkpt>
      <trkpt lat="46.60195" lon="5.47636">
        <ele>227</ele>
        <time>2011-09-20T09:00:23Z</time>
      </trkpt>
      <trkpt lat="46.60184" lon="5.47641">
        <ele>227</ele>
        <time>2011-09-20T09:00:25Z</time>
      </trkpt>
      <trkpt lat="46.60173" lon="5.47647">
        <ele>227</ele>
        <time>2011-09-20T09:00:27Z</time>
      </trkpt>
      <trkpt lat="46.60163" lon="5.47655">
        <ele>227</ele>
        <time>2011-09-20T09:00:29Z</time>
      </trkpt>
      <trkpt lat="46.60154" lon="5.47664">
        <ele>227</ele>
        <time>2011-09-20T09:00:31Z</time>
      </trkpt>
      <trkpt lat="46.60144" lon="5.47674">
        <ele>227</ele>
        <time>2011-09-20T09:00:33Z</time>
      </trkpt>
      <trkpt lat="46.60134" lon="5.47682">
        <ele>227</ele>
        <time>2011-09-20T09:00:35Z</time>
      </trkpt>
      <trkpt lat="46.60125" lon="5.47691">
        <ele>227</ele>
        <time>2011-09-20T09:00:37Z</time>
      </trkpt>
      <trkpt lat="46.60116" lon="5.47701">
        <ele>227</ele>
        <time>2011-09-20T09:00:39Z</time>
      </trkpt>
      <trkpt lat="46.60108" lon="5.47712">
        <ele>227</ele>
        <time>2011-09-20T09:00:41Z</time>
      </trkpt>
      <trkpt lat="46.601" lon="5.47723">
        <ele>227</ele>
        <time>2011-09-20T09:00:43Z</time>
      </trkpt>
      <trkpt lat="46.60094" lon="5.47733">
        <ele>227</ele>
        <time>2011-09-20T09:00:45Z</time>
      </trkpt>
      <trkpt lat="46.60087" lon="5.47743">
        <ele>227</ele>
        <time>2011-09-20T09:00:47Z</time>
      </trkpt>
      <trkpt lat="46.60079" lon="5.47758">
        <ele>232</ele>
        <time>2011-09-20T09:00:50Z</time>
      </trkpt>
      <trkpt lat="46.60073" lon="5.47774">
        <ele>232</ele>
        <time>2011-09-20T09:00:53Z</time>
      </trkpt>
      <trkpt lat="46.60068" lon="5.47786">
        <ele>232</ele>
        <time>2011-09-20T09:00:55Z</time>
      </trkpt>
      <trkpt lat="46.60065" lon="5.47799">
        <ele>232</ele>
        <time>2011-09-20T09:00:57Z</time>
      </trkpt>
      <trkpt lat="46.60063" lon="5.47812">
        <ele>232</ele>
        <time>2011-09-20T09:00:59Z</time>
      </trkpt>
      <trkpt lat="46.60061" lon="5.4783">
        <ele>237</ele>
        <time>2011-09-20T09:01:02Z</time>
      </trkpt>
      <trkpt lat="46.60061" lon="5.47848">
        <ele>237</ele>
        <time>2011-09-20T09:01:05Z</time>
      </trkpt>
      <trkpt lat="46.60058" lon="5.47865">
        <ele>237</ele>
        <time>2011-09-20T09:01:08Z</time>
      </trkpt>
      <trkpt lat="46.60052" lon="5.47881">
        <ele>237</ele>
        <time>2011-09-20T09:01:11Z</time>
      </trkpt>
      <trkpt lat="46.60045" lon="5.47892">
        <ele>237</ele>
        <time>2011-09-20T09:01:13Z</time>
      </trkpt>
      <trkpt lat="46.60039" lon="5.47904">
        <ele>237</ele>
        <time>2011-09-20T09:01:15Z</time>
      </trkpt>
      <trkpt lat="46.60026" lon="5.47914">
        <ele>237</ele>
        <time>2011-09-20T09:01:17Z</time>
      </trkpt>
      <trkpt lat="46.60015" lon="5.47927">
        <ele>237</ele>
        <time>2011-09-20T09:01:19Z</time>
      </trkpt>
      <trkpt lat="46.60007" lon="5.47944">
        <ele>237</ele>
        <time>2011-09-20T09:01:21Z</time>
      </trkpt>
      <trkpt lat="46.60002" lon="5.4796">
        <ele>237</ele>
        <time>2011-09-20T09:01:23Z</time>
      </trkpt>
      <trkpt lat="46.60001" lon="5.47975">
        <ele>237</ele>
        <time>2011-09-20T09:01:25Z</time>
      </trkpt>
      <trkpt lat="46.60003" lon="5.4799">
        <ele>237</ele>
        <time>2011-09-20T09:01:27Z</time>
      </trkpt>
      <trkpt lat="46.60005" lon="5.48005">
        <ele>237</ele>
        <time>2011-09-20T09:01:29Z</time>
      </trkpt>
      <trkpt lat="46.60008" lon="5.48019">
        <ele>237</ele>
        <time>2011-09-20T09:01:31Z</time>
      </trkpt>
      <trkpt lat="46.60013" lon="5.48032">
        <ele>237</ele>
        <time>2011-09-20T09:01:33Z</time>
      </trkpt>
      <trkpt lat="46.60021" lon="5.48046">
        <ele>237</ele>
        <time>2011-09-20T09:01:36Z</time>
      </trkpt>
      <trkpt lat="46.60027" lon="5.48059">
        <ele>237</ele>
        <time>2011-09-20T09:01:39Z</time>
      </trkpt>
      <trkpt lat="46.60032" lon="5.48075">
        <ele>237</ele>
        <time>2011-09-20T09:01:42Z</time>
      </trkpt>
      <trkpt lat="46.60034" lon="5.48095">
        <ele>237</ele>
        <time>2011-09-20T09:01:45Z</time>
      </trkpt>
      <trkpt lat="46.60031" lon="5.48113">
        <ele>237</ele>
        <time>2011-09-20T09:01:47Z</time>
      </trkpt>
      <trkpt lat="46.60032" lon="5.4813">
        <ele>237</ele>
        <time>2011-09-20T09:01:49Z</time>
      </trkpt>
      <trkpt lat="46.60032" lon="5.48144">
        <ele>237</ele>
        <time>2011-09-20T09:01:51Z</time>
      </trkpt>
      <trkpt lat="46.60034" lon="5.48157">
        <ele>237</ele>
        <time>2011-09-20T09:01:53Z</time>
      </trkpt>
      <trkpt lat="46.60035" lon="5.48171">
        <ele>237</ele>
        <time>2011-09-20T09:01:55Z</time>
      </trkpt>
      <trkpt lat="46.60037" lon="5.48187">
        <ele>237</ele>
        <time>2011-09-20T09:01:57Z</time>
      </trkpt>
      <trkpt lat="46.60036" lon="5.48206">
        <ele>237</ele>
        <time>2011-09-20T09:01:59Z</time>
      </trkpt>
      <trkpt lat="46.60034" lon="5.48227">
        <ele>231</ele>
        <time>2011-09-20T09:02:01Z</time>
      </trkpt>
      <trkpt lat="46.60029" lon="5.48248">
        <ele>231</ele>
        <time>2011-09-20T09:02:03Z</time>
      </trkpt>
      <trkpt lat="46.60022" lon="5.4827">
        <ele>231</ele>
        <time>2011-09-20T09:02:05Z</time>
      </trkpt>
      <trkpt lat="46.60016" lon="5.4829">
        <ele>231</ele>
        <time>2011-09-20T09:02:07Z</time>
      </trkpt>
      <trkpt lat="46.6001" lon="5.48311">
        <ele>231</ele>
        <time>2011-09-20T09:02:09Z</time>
      </trkpt>
      <trkpt lat="46.60004" lon="5.48331">
        <ele>231</ele>
        <time>2011-09-20T09:02:11Z</time>
      </trkpt>
      <trkpt lat="46.59999" lon="5.48351">
        <ele>231</ele>
        <time>2011-09-20T09:02:13Z</time>
      </trkpt>
      <trkpt lat="46.59993" lon="5.4837">
        <ele>231</ele>
        <time>2011-09-20T09:02:15Z</time>
      </trkpt>
      <trkpt lat="46.59988" lon="5.48388">
        <ele>231</ele>
        <time>2011-09-20T09:02:17Z</time>
      </trkpt>
      <trkpt lat="46.59982" lon="5.48407">
        <ele>231</ele>
        <time>2011-09-20T09:02:19Z</time>
      </trkpt>
      <trkpt lat="46.59976" lon="5.48426">
        <ele>231</ele>
        <time>2011-09-20T09:02:21Z</time>
      </trkpt>
      <trkpt lat="46.5997" lon="5.48444">
        <ele>231</ele>
        <time>2011-09-20T09:02:23Z</time>
      </trkpt>
      <trkpt lat="46.59965" lon="5.48463">
        <ele>231</ele>
        <time>2011-09-20T09:02:25Z</time>
      </trkpt>
      <trkpt lat="46.59959" lon="5.48481">
        <ele>231</ele>
        <time>2011-09-20T09:02:27Z</time>
      </trkpt>
      <trkpt lat="46.59954" lon="5.48499">
        <ele>231</ele>
        <time>2011-09-20T09:02:29Z</time>
      </trkpt>
      <trkpt lat="46.59949" lon="5.48517">
        <ele>231</ele>
        <time>2011-09-20T09:02:31Z</time>
      </trkpt>
      <trkpt lat="46.59944" lon="5.48535">
        <ele>231</ele>
        <time>2011-09-20T09:02:33Z</time>
      </trkpt>
      <trkpt lat="46.5994" lon="5.48553">
        <ele>231</ele>
        <time>2011-09-20T09:02:35Z</time>
      </trkpt>
      <trkpt lat="46.59937" lon="5.48571">
        <ele>231</ele>
        <time>2011-09-20T09:02:37Z</time>
      </trkpt>
      <trkpt lat="46.59934" lon="5.48589">
        <ele>231</ele>
        <time>2011-09-20T09:02:39Z</time>
      </trkpt>
      <trkpt lat="46.59931" lon="5.48605">
        <ele>231</ele>
        <time>2011-09-20T09:02:41Z</time>
      </trkpt>
      <trkpt lat="46.59929" lon="5.48621">
        <ele>231</ele>
        <time>2011-09-20T09:02:43Z</time>
      </trkpt>
      <trkpt lat="46.59928" lon="5.48637">
        <ele>231</ele>
        <time>2011-09-20T09:02:45Z</time>
      </trkpt>
      <trkpt lat="46.59928" lon="5.48654">
        <ele>231</ele>
        <time>2011-09-20T09:02:47Z</time>
      </trkpt>
      <trkpt lat="46.59929" lon="5.4867">
        <ele>231</ele>
        <time>2011-09-20T09:02:49Z</time>
      </trkpt>
      <trkpt lat="46.59928" lon="5.48687">
        <ele>231</ele>
        <time>2011-09-20T09:02:51Z</time>
      </trkpt>
      <trkpt lat="46.59927" lon="5.48702">
        <ele>231</ele>
        <time>2011-09-20T09:02:53Z</time>
      </trkpt>
      <trkpt lat="46.59925" lon="5.48717">
        <ele>231</ele>
        <time>2011-09-20T09:02:55Z</time>
      </trkpt>
      <trkpt lat="46.59924" lon="5.48732">
        <ele>231</ele>
        <time>2011-09-20T09:02:57Z</time>
      </trkpt>
      <trkpt lat="46.59924" lon="5.48749">
        <ele>231</ele>
        <time>2011-09-20T09:02:59Z</time>
      </trkpt>
      <trkpt lat="46.59923" lon="5.48766">
        <ele>231</ele>
        <time>2011-09-20T09:03:01Z</time>
      </trkpt>
      <trkpt lat="46.59921" lon="5.48783">
        <ele>231</ele>
        <time>2011-09-20T09:03:03Z</time>
      </trkpt>
      <trkpt lat="46.59918" lon="5.48799">
        <ele>231</ele>
        <time>2011-09-20T09:03:05Z</time>
      </trkpt>
      <trkpt lat="46.59913" lon="5.48814">
        <ele>231</ele>
        <time>2011-09-20T09:03:07Z</time>
      </trkpt>
      <trkpt lat="46.59908" lon="5.48828">
        <ele>231</ele>
        <time>2011-09-20T09:03:09Z</time>
      </trkpt>
      <trkpt lat="46.59904" lon="5.48844">
        <ele>231</ele>
        <time>2011-09-20T09:03:11Z</time>
      </trkpt>
      <trkpt lat="46.59898" lon="5.48858">
        <ele>231</ele>
        <time>2011-09-20T09:03:13Z</time>
      </trkpt>
      <trkpt lat="46.59893" lon="5.48873">
        <ele>231</ele>
        <time>2011-09-20T09:03:15Z</time>
      </trkpt>
      <trkpt lat="46.59888" lon="5.48889">
        <ele>231</ele>
        <time>2011-09-20T09:03:17Z</time>
      </trkpt>
      <trkpt lat="46.59884" lon="5.48903">
        <ele>231</ele>
        <time>2011-09-20T09:03:19Z</time>
      </trkpt>
      <trkpt lat="46.59882" lon="5.48919">
        <ele>231</ele>
        <time>2011-09-20T09:03:21Z</time>
      </trkpt>
      <trkpt lat="46.59879" lon="5.48935">
        <ele>231</ele>
        <time>2011-09-20T09:03:23Z</time>
      </trkpt>
      <trkpt lat="46.59876" lon="5.48951">
        <ele>231</ele>
        <time>2011-09-20T09:03:25Z</time>
      </trkpt>
      <trkpt lat="46.59874" lon="5.48966">
        <ele>231</ele>
        <time>2011-09-20T09:03:27Z</time>
      </trkpt>
      <trkpt lat="46.59873" lon="5.4898">
        <ele>231</ele>
        <time>2011-09-20T09:03:29Z</time>
      </trkpt>
      <trkpt lat="46.59871" lon="5.48994">
        <ele>231</ele>
        <time>2011-09-20T09:03:31Z</time>
      </trkpt>
      <trkpt lat="46.5987" lon="5.49008">
        <ele>231</ele>
        <time>2011-09-20T09:03:33Z</time>
      </trkpt>
      <trkpt lat="46.59871" lon="5.49022">
        <ele>231</ele>
        <time>2011-09-20T09:03:35Z</time>
      </trkpt>
      <trkpt lat="46.59872" lon="5.49037">
        <ele>231</ele>
        <time>2011-09-20T09:03:37Z</time>
      </trkpt>
      <trkpt lat="46.59874" lon="5.4905">
        <ele>231</ele>
        <time>2011-09-20T09:03:39Z</time>
      </trkpt>
      <trkpt lat="46.59876" lon="5.49066">
        <ele>231</ele>
        <time>2011-09-20T09:03:41Z</time>
      </trkpt>
      <trkpt lat="46.59878" lon="5.49082">
        <ele>237</ele>
        <time>2011-09-20T09:03:43Z</time>
      </trkpt>
      <trkpt lat="46.59881" lon="5.49099">
        <ele>237</ele>
        <time>2011-09-20T09:03:45Z</time>
      </trkpt>
      <trkpt lat="46.59885" lon="5.49116">
        <ele>237</ele>
        <time>2011-09-20T09:03:47Z</time>
      </trkpt>
      <trkpt lat="46.59887" lon="5.49134">
        <ele>237</ele>
        <time>2011-09-20T09:03:49Z</time>
      </trkpt>
      <trkpt lat="46.59889" lon="5.49151">
        <ele>237</ele>
        <time>2011-09-20T09:03:51Z</time>
      </trkpt>
      <trkpt lat="46.59892" lon="5.49168">
        <ele>237</ele>
        <time>2011-09-20T09:03:53Z</time>
      </trkpt>
      <trkpt lat="46.59896" lon="5.49184">
        <ele>237</ele>
        <time>2011-09-20T09:03:55Z</time>
      </trkpt>
      <trkpt lat="46.599" lon="5.49201">
        <ele>237</ele>
        <time>2011-09-20T09:03:57Z</time>
      </trkpt>
      <trkpt lat="46.59903" lon="5.49217">
        <ele>237</ele>
        <time>2011-09-20T09:03:59Z</time>
      </trkpt>
      <trkpt lat="46.59904" lon="5.49235">
        <ele>237</ele>
        <time>2011-09-20T09:04:01Z</time>
      </trkpt>
      <trkpt lat="46.59904" lon="5.49252">
        <ele>237</ele>
        <time>2011-09-20T09:04:03Z</time>
      </trkpt>
      <trkpt lat="46.59902" lon="5.49269">
        <ele>237</ele>
        <time>2011-09-20T09:04:05Z</time>
      </trkpt>
      <trkpt lat="46.599" lon="5.49286">
        <ele>237</ele>
        <time>2011-09-20T09:04:07Z</time>
      </trkpt>
      <trkpt lat="46.599" lon="5.49302">
        <ele>237</ele>
        <time>2011-09-20T09:04:09Z</time>
      </trkpt>
      <trkpt lat="46.599" lon="5.49318">
        <ele>237</ele>
        <time>2011-09-20T09:04:11Z</time>
      </trkpt>
      <trkpt lat="46.59903" lon="5.49332">
        <ele>237</ele>
        <time>2011-09-20T09:04:13Z</time>
      </trkpt>
      <trkpt lat="46.59907" lon="5.49347">
        <ele>237</ele>
        <time>2011-09-20T09:04:15Z</time>
      </trkpt>
      <trkpt lat="46.59912" lon="5.49363">
        <ele>237</ele>
        <time>2011-09-20T09:04:17Z</time>
      </trkpt>
      <trkpt lat="46.59917" lon="5.49378">
        <ele>237</ele>
        <time>2011-09-20T09:04:19Z</time>
      </trkpt>
      <trkpt lat="46.59922" lon="5.49394">
        <ele>237</ele>
        <time>2011-09-20T09:04:21Z</time>
      </trkpt>
      <trkpt lat="46.59925" lon="5.4941">
        <ele>237</ele>
        <time>2011-09-20T09:04:23Z</time>
      </trkpt>
      <trkpt lat="46.59927" lon="5.49425">
        <ele>237</ele>
        <time>2011-09-20T09:04:25Z</time>
      </trkpt>
      <trkpt lat="46.59928" lon="5.49441">
        <ele>237</ele>
        <time>2011-09-20T09:04:27Z</time>
      </trkpt>
      <trkpt lat="46.59929" lon="5.49456">
        <ele>237</ele>
        <time>2011-09-20T09:04:29Z</time>
      </trkpt>
      <trkpt lat="46.5993" lon="5.49471">
        <ele>237</ele>
        <time>2011-09-20T09:04:31Z</time>
      </trkpt>
      <trkpt lat="46.5993" lon="5.49486">
        <ele>237</ele>
        <time>2011-09-20T09:04:33Z</time>
      </trkpt>
      <trkpt lat="46.59933" lon="5.495">
        <ele>237</ele>
        <time>2011-09-20T09:04:35Z</time>
      </trkpt>
      <trkpt lat="46.59934" lon="5.49516">
        <ele>237</ele>
        <time>2011-09-20T09:04:37Z</time>
      </trkpt>
      <trkpt lat="46.59936" lon="5.49529">
        <ele>237</ele>
        <time>2011-09-20T09:04:39Z</time>
      </trkpt>
      <trkpt lat="46.59939" lon="5.49542">
        <ele>237</ele>
        <time>2011-09-20T09:04:41Z</time>
      </trkpt>
      <trkpt lat="46.59943" lon="5.49555">
        <ele>237</ele>
        <time>2011-09-20T09:04:43Z</time>
      </trkpt>
      <trkpt lat="46.59946" lon="5.49568">
        <ele>237</ele>
        <time>2011-09-20T09:04:45Z</time>
      </trkpt>
      <trkpt lat="46.59947" lon="5.49582">
        <ele>237</ele>
        <time>2011-09-20T09:04:47Z</time>
      </trkpt>
      <trkpt lat="46.59947" lon="5.49598">
        <ele>237</ele>
        <time>2011-09-20T09:04:49Z</time>
      </trkpt>
      <trkpt lat="46.59948" lon="5.49615">
        <ele>237</ele>
        <time>2011-09-20T09:04:51Z</time>
      </trkpt>
      <trkpt lat="46.59949" lon="5.49632">
        <ele>237</ele>
        <time>2011-09-20T09:04:53Z</time>
      </trkpt>
      <trkpt lat="46.59949" lon="5.49649">
        <ele>237</ele>
        <time>2011-09-20T09:04:55Z</time>
      </trkpt>
      <trkpt lat="46.59949" lon="5.49665">
        <ele>237</ele>
        <time>2011-09-20T09:04:57Z</time>
      </trkpt>
      <trkpt lat="46.59949" lon="5.49681">
        <ele>237</ele>
        <time>2011-09-20T09:04:59Z</time>
      </trkpt>
      <trkpt lat="46.59949" lon="5.49696">
        <ele>237</ele>
        <time>2011-09-20T09:05:01Z</time>
      </trkpt>
      <trkpt lat="46.59948" lon="5.49712">
        <ele>237</ele>
        <time>2011-09-20T09:05:03Z</time>
      </trkpt>
      <trkpt lat="46.59948" lon="5.49727">
        <ele>237</ele>
        <time>2011-09-20T09:05:05Z</time>
      </trkpt>
      <trkpt lat="46.59947" lon="5.49742">
        <ele>237</ele>
        <time>2011-09-20T09:05:07Z</time>
      </trkpt>
      <trkpt lat="46.59946" lon="5.49757">
        <ele>237</ele>
        <time>2011-09-20T09:05:09Z</time>
      </trkpt>
      <trkpt lat="46.59943" lon="5.49772">
        <ele>237</ele>
        <time>2011-09-20T09:05:11Z</time>
      </trkpt>
      <trkpt lat="46.59941" lon="5.49786">
        <ele>237</ele>
        <time>2011-09-20T09:05:13Z</time>
      </trkpt>
      <trkpt lat="46.59938" lon="5.498">
        <ele>237</ele>
        <time>2011-09-20T09:05:15Z</time>
      </trkpt>
      <trkpt lat="46.59936" lon="5.49815">
        <ele>237</ele>
        <time>2011-09-20T09:05:17Z</time>
      </trkpt>
      <trkpt lat="46.59934" lon="5.49829">
        <ele>237</ele>
        <time>2011-09-20T09:05:19Z</time>
      </trkpt>
      <trkpt lat="46.5993" lon="5.49843">
        <ele>242</ele>
        <time>2011-09-20T09:05:21Z</time>
      </trkpt>
      <trkpt lat="46.59928" lon="5.49857">
        <ele>242</ele>
        <time>2011-09-20T09:05:23Z</time>
      </trkpt>
      <trkpt lat="46.59926" lon="5.49871">
        <ele>242</ele>
        <time>2011-09-20T09:05:25Z</time>
      </trkpt>
      <trkpt lat="46.59923" lon="5.49886">
        <ele>242</ele>
        <time>2011-09-20T09:05:27Z</time>
      </trkpt>
      <trkpt lat="46.59922" lon="5.499">
        <ele>242</ele>
        <time>2011-09-20T09:05:29Z</time>
      </trkpt>
      <trkpt lat="46.5992" lon="5.49915">
        <ele>242</ele>
        <time>2011-09-20T09:05:31Z</time>
      </trkpt>
      <trkpt lat="46.5992" lon="5.49929">
        <ele>242</ele>
        <time>2011-09-20T09:05:33Z</time>
      </trkpt>
      <trkpt lat="46.59919" lon="5.49943">
        <ele>242</ele>
        <time>2011-09-20T09:05:35Z</time>
      </trkpt>
      <trkpt lat="46.5992" lon="5.49958">
        <ele>242</ele>
        <time>2011-09-20T09:05:37Z</time>
      </trkpt>
      <trkpt lat="46.5992" lon="5.49971">
        <ele>242</ele>
        <time>2011-09-20T09:05:39Z</time>
      </trkpt>
      <trkpt lat="46.5992" lon="5.4999">
        <ele>242</ele>
        <time>2011-09-20T09:05:42Z</time>
      </trkpt>
      <trkpt lat="46.59918" lon="5.50003">
        <ele>242</ele>
        <time>2011-09-20T09:05:44Z</time>
      </trkpt>
      <trkpt lat="46.59915" lon="5.50016">
        <ele>242</ele>
        <time>2011-09-20T09:05:46Z</time>
      </trkpt>
      <trkpt lat="46.59909" lon="5.50027">
        <ele>242</ele>
        <time>2011-09-20T09:05:48Z</time>
      </trkpt>
      <trkpt lat="46.59903" lon="5.50038">
        <ele>242</ele>
        <time>2011-09-20T09:05:50Z</time>
      </trkpt>
      <trkpt lat="46.59897" lon="5.50049">
        <ele>242</ele>
        <time>2011-09-20T09:05:52Z</time>
      </trkpt>
      <trkpt lat="46.59891" lon="5.50061">
        <ele>242</ele>
        <time>2011-09-20T09:05:54Z</time>
      </trkpt>
      <trkpt lat="46.59886" lon="5.50072">
        <ele>242</ele>
        <time>2011-09-20T09:05:56Z</time>
      </trkpt>
      <trkpt lat="46.59879" lon="5.50086">
        <ele>242</ele>
        <time>2011-09-20T09:05:59Z</time>
      </trkpt>
      <trkpt lat="46.59873" lon="5.501">
        <ele>247</ele>
        <time>2011-09-20T09:06:02Z</time>
      </trkpt>
      <trkpt lat="46.59865" lon="5.50112">
        <ele>247</ele>
        <time>2011-09-20T09:06:05Z</time>
      </trkpt>
      <trkpt lat="46.59856" lon="5.50122">
        <ele>247</ele>
        <time>2011-09-20T09:06:08Z</time>
      </trkpt>
      <trkpt lat="46.59847" lon="5.50131">
        <ele>252</ele>
        <time>2011-09-20T09:06:11Z</time>
      </trkpt>
      <trkpt lat="46.59837" lon="5.5014">
        <ele>252</ele>
        <time>2011-09-20T09:06:14Z</time>
      </trkpt>
      <trkpt lat="46.59829" lon="5.50151">
        <ele>252</ele>
        <time>2011-09-20T09:06:17Z</time>
      </trkpt>
      <trkpt lat="46.59821" lon="5.50162">
        <ele>259</ele>
        <time>2011-09-20T09:06:20Z</time>
      </trkpt>
      <trkpt lat="46.59809" lon="5.50173">
        <ele>259</ele>
        <time>2011-09-20T09:06:23Z</time>
      </trkpt>
      <trkpt lat="46.59802" lon="5.50181">
        <ele>259</ele>
        <time>2011-09-20T09:06:25Z</time>
      </trkpt>
      <trkpt lat="46.59793" lon="5.50192">
        <ele>259</ele>
        <time>2011-09-20T09:06:28Z</time>
      </trkpt>
      <trkpt lat="46.59782" lon="5.502">
        <ele>259</ele>
        <time>2011-09-20T09:06:31Z</time>
      </trkpt>
      <trkpt lat="46.59772" lon="5.50209">
        <ele>259</ele>
        <time>2011-09-20T09:06:34Z</time>
      </trkpt>
      <trkpt lat="46.59764" lon="5.50213">
        <ele>259</ele>
        <time>2011-09-20T09:06:36Z</time>
      </trkpt>
      <trkpt lat="46.59751" lon="5.50218">
        <ele>259</ele>
        <time>2011-09-20T09:06:39Z</time>
      </trkpt>
      <trkpt lat="46.59742" lon="5.50222">
        <ele>259</ele>
        <time>2011-09-20T09:06:41Z</time>
      </trkpt>
      <trkpt lat="46.59733" lon="5.50225">
        <ele>259</ele>
        <time>2011-09-20T09:06:43Z</time>
      </trkpt>
      <trkpt lat="46.59725" lon="5.50229">
        <ele>259</ele>
        <time>2011-09-20T09:06:45Z</time>
      </trkpt>
      <trkpt lat="46.59715" lon="5.50233">
        <ele>259</ele>
        <time>2011-09-20T09:06:47Z</time>
      </trkpt>
      <trkpt lat="46.59706" lon="5.50237">
        <ele>259</ele>
        <time>2011-09-20T09:06:49Z</time>
      </trkpt>
      <trkpt lat="46.59695" lon="5.50243">
        <ele>259</ele>
        <time>2011-09-20T09:06:52Z</time>
      </trkpt>
      <trkpt lat="46.59687" lon="5.50254">
        <ele>259</ele>
        <time>2011-09-20T09:06:55Z</time>
      </trkpt>
      <trkpt lat="46.59683" lon="5.5027">
        <ele>259</ele>
        <time>2011-09-20T09:06:58Z</time>
      </trkpt>
      <trkpt lat="46.59686" lon="5.50286">
        <ele>259</ele>
        <time>2011-09-20T09:07:01Z</time>
      </trkpt>
      <trkpt lat="46.59692" lon="5.50298">
        <ele>259</ele>
        <time>2011-09-20T09:07:04Z</time>
      </trkpt>
      <trkpt lat="46.59701" lon="5.50304">
        <ele>259</ele>
        <time>2011-09-20T09:07:07Z</time>
      </trkpt>
      <trkpt lat="46.59713" lon="5.50301">
        <ele>259</ele>
        <time>2011-09-20T09:07:10Z</time>
      </trkpt>
      <trkpt lat="46.59723" lon="5.50295">
        <ele>259</ele>
        <time>2011-09-20T09:07:13Z</time>
      </trkpt>
      <trkpt lat="46.59733" lon="5.50287">
        <ele>259</ele>
        <time>2011-09-20T09:07:16Z</time>
      </trkpt>
      <trkpt lat="46.59742" lon="5.50281">
        <ele>259</ele>
        <time>2011-09-20T09:07:19Z</time>
      </trkpt>
      <trkpt lat="46.59751" lon="5.50274">
        <ele>259</ele>
        <time>2011-09-20T09:07:22Z</time>
      </trkpt>
      <trkpt lat="46.5976" lon="5.50268">
        <ele>259</ele>
        <time>2011-09-20T09:07:25Z</time>
      </trkpt>
      <trkpt lat="46.59769" lon="5.5026">
        <ele>264</ele>
        <time>2011-09-20T09:07:28Z</time>
      </trkpt>
      <trkpt lat="46.59779" lon="5.50253">
        <ele>264</ele>
        <time>2011-09-20T09:07:31Z</time>
      </trkpt>
      <trkpt lat="46.59788" lon="5.50246">
        <ele>264</ele>
        <time>2011-09-20T09:07:34Z</time>
      </trkpt>
      <trkpt lat="46.59798" lon="5.50239">
        <ele>264</ele>
        <time>2011-09-20T09:07:37Z</time>
      </trkpt>
      <trkpt lat="46.59806" lon="5.50233">
        <ele>264</ele>
        <time>2011-09-20T09:07:40Z</time>
      </trkpt>
      <trkpt lat="46.59816" lon="5.50225">
        <ele>270</ele>
        <time>2011-09-20T09:07:43Z</time>
      </trkpt>
      <trkpt lat="46.59826" lon="5.50219">
        <ele>270</ele>
        <time>2011-09-20T09:07:46Z</time>
      </trkpt>
      <trkpt lat="46.59836" lon="5.50213">
        <ele>270</ele>
        <time>2011-09-20T09:07:49Z</time>
      </trkpt>
      <trkpt lat="46.59846" lon="5.50206">
        <ele>270</ele>
        <time>2011-09-20T09:07:52Z</time>
      </trkpt>
      <trkpt lat="46.59855" lon="5.50202">
        <ele>270</ele>
        <time>2011-09-20T09:07:55Z</time>
      </trkpt>
      <trkpt lat="46.59865" lon="5.50197">
        <ele>276</ele>
        <time>2011-09-20T09:07:58Z</time>
      </trkpt>
      <trkpt lat="46.59874" lon="5.50193">
        <ele>276</ele>
        <time>2011-09-20T09:08:01Z</time>
      </trkpt>
      <trkpt lat="46.59886" lon="5.50189">
        <ele>276</ele>
        <time>2011-09-20T09:08:04Z</time>
      </trkpt>
      <trkpt lat="46.59897" lon="5.50189">
        <ele>276</ele>
        <time>2011-09-20T09:08:07Z</time>
      </trkpt>
      <trkpt lat="46.59908" lon="5.50187">
        <ele>276</ele>
        <time>2011-09-20T09:08:10Z</time>
      </trkpt>
      <trkpt lat="46.5992" lon="5.50186">
        <ele>276</ele>
        <time>2011-09-20T09:08:13Z</time>
      </trkpt>
      <trkpt lat="46.59931" lon="5.50185">
        <ele>276</ele>
        <time>2011-09-20T09:08:16Z</time>
      </trkpt>
      <trkpt lat="46.59943" lon="5.50183">
        <ele>276</ele>
        <time>2011-09-20T09:08:19Z</time>
      </trkpt>
      <trkpt lat="46.59954" lon="5.50184">
        <ele>281</ele>
        <time>2011-09-20T09:08:22Z</time>
      </trkpt>
      <trkpt lat="46.59964" lon="5.50192">
        <ele>281</ele>
        <time>2011-09-20T09:08:25Z</time>
      </trkpt>
      <trkpt lat="46.5997" lon="5.50206">
        <ele>281</ele>
        <time>2011-09-20T09:08:28Z</time>
      </trkpt>
      <trkpt lat="46.59975" lon="5.50222">
        <ele>281</ele>
        <time>2011-09-20T09:08:31Z</time>
      </trkpt>
      <trkpt lat="46.59979" lon="5.50236">
        <ele>281</ele>
        <time>2011-09-20T09:08:34Z</time>
      </trkpt>
      <trkpt lat="46.59985" lon="5.5025">
        <ele>281</ele>
        <time>2011-09-20T09:08:37Z</time>
      </trkpt>
      <trkpt lat="46.59993" lon="5.50263">
        <ele>281</ele>
        <time>2011-09-20T09:08:40Z</time>
      </trkpt>
      <trkpt lat="46.60003" lon="5.50272">
        <ele>281</ele>
        <time>2011-09-20T09:08:43Z</time>
      </trkpt>
      <trkpt lat="46.60013" lon="5.50278">
        <ele>281</ele>
        <time>2011-09-20T09:08:46Z</time>
      </trkpt>
      <trkpt lat="46.60021" lon="5.50282">
        <ele>286</ele>
        <time>2011-09-20T09:08:49Z</time>
      </trkpt>
      <trkpt lat="46.60032" lon="5.50284">
        <ele>286</ele>
        <time>2011-09-20T09:08:52Z</time>
      </trkpt>
      <trkpt lat="46.60042" lon="5.50286">
        <ele>286</ele>
        <time>2011-09-20T09:08:55Z</time>
      </trkpt>
      <trkpt lat="46.60054" lon="5.50288">
        <ele>286</ele>
        <time>2011-09-20T09:08:58Z</time>
      </trkpt>
      <trkpt lat="46.60065" lon="5.50288">
        <ele>286</ele>
        <time>2011-09-20T09:09:01Z</time>
      </trkpt>
      <trkpt lat="46.60076" lon="5.50287">
        <ele>292</ele>
        <time>2011-09-20T09:09:04Z</time>
      </trkpt>
      <trkpt lat="46.60089" lon="5.50288">
        <ele>292</ele>
        <time>2011-09-20T09:09:07Z</time>
      </trkpt>
      <trkpt lat="46.60099" lon="5.50291">
        <ele>292</ele>
        <time>2011-09-20T09:09:10Z</time>
      </trkpt>
      <trkpt lat="46.6011" lon="5.50296">
        <ele>292</ele>
        <time>2011-09-20T09:09:13Z</time>
      </trkpt>
      <trkpt lat="46.60121" lon="5.50303">
        <ele>292</ele>
        <time>2011-09-20T09:09:16Z</time>
      </trkpt>
      <trkpt lat="46.60131" lon="5.5031">
        <ele>292</ele>
        <time>2011-09-20T09:09:19Z</time>
      </trkpt>
      <trkpt lat="46.60141" lon="5.50317">
        <ele>292</ele>
        <time>2011-09-20T09:09:22Z</time>
      </trkpt>
      <trkpt lat="46.60152" lon="5.50323">
        <ele>292</ele>
        <time>2011-09-20T09:09:25Z</time>
      </trkpt>
      <trkpt lat="46.60162" lon="5.5033">
        <ele>298</ele>
        <time>2011-09-20T09:09:28Z</time>
      </trkpt>
      <trkpt lat="46.60173" lon="5.50337">
        <ele>298</ele>
        <time>2011-09-20T09:09:31Z</time>
      </trkpt>
      <trkpt lat="46.60184" lon="5.50342">
        <ele>298</ele>
        <time>2011-09-20T09:09:34Z</time>
      </trkpt>
      <trkpt lat="46.60195" lon="5.50347">
        <ele>298</ele>
        <time>2011-09-20T09:09:37Z</time>
      </trkpt>
      <trkpt lat="46.60206" lon="5.50351">
        <ele>298</ele>
        <time>2011-09-20T09:09:40Z</time>
      </trkpt>
      <trkpt lat="46.60217" lon="5.50354">
        <ele>298</ele>
        <time>2011-09-20T09:09:43Z</time>
      </trkpt>
      <trkpt lat="46.60228" lon="5.50355">
        <ele>298</ele>
        <time>2011-09-20T09:09:46Z</time>
      </trkpt>
      <trkpt lat="46.60239" lon="5.50356">
        <ele>303</ele>
        <time>2011-09-20T09:09:49Z</time>
      </trkpt>
      <trkpt lat="46.6025" lon="5.50356">
        <ele>303</ele>
        <time>2011-09-20T09:09:52Z</time>
      </trkpt>
      <trkpt lat="46.60261" lon="5.50357">
        <ele>303</ele>
        <time>2011-09-20T09:09:55Z</time>
      </trkpt>
      <trkpt lat="46.60272" lon="5.5036">
        <ele>303</ele>
        <time>2011-09-20T09:09:58Z</time>
      </trkpt>
      <trkpt lat="46.60282" lon="5.50367">
        <ele>303</ele>
        <time>2011-09-20T09:10:01Z</time>
      </trkpt>
      <trkpt lat="46.60291" lon="5.50376">
        <ele>303</ele>
        <time>2011-09-20T09:10:04Z</time>
      </trkpt>
      <trkpt lat="46.603" lon="5.50388">
        <ele>314</ele>
        <time>2011-09-20T09:10:08Z</time>
      </trkpt>
      <trkpt lat="46.60309" lon="5.50398">
        <ele>314</ele>
        <time>2011-09-20T09:10:11Z</time>
      </trkpt>
      <trkpt lat="46.60318" lon="5.50408">
        <ele>314</ele>
        <time>2011-09-20T09:10:14Z</time>
      </trkpt>
      <trkpt lat="46.60327" lon="5.50417">
        <ele>314</ele>
        <time>2011-09-20T09:10:17Z</time>
      </trkpt>
      <trkpt lat="46.60336" lon="5.50426">
        <ele>314</ele>
        <time>2011-09-20T09:10:20Z</time>
      </trkpt>
      <trkpt lat="46.60343" lon="5.50435">
        <ele>314</ele>
        <time>2011-09-20T09:10:22Z</time>
      </trkpt>
      <trkpt lat="46.60349" lon="5.50448">
        <ele>314</ele>
        <time>2011-09-20T09:10:25Z</time>
      </trkpt>
      <trkpt lat="46.60353" lon="5.50464">
        <ele>314</ele>
        <time>2011-09-20T09:10:28Z</time>
      </trkpt>
      <trkpt lat="46.60358" lon="5.5048">
        <ele>309</ele>
        <time>2011-09-20T09:10:31Z</time>
      </trkpt>
      <trkpt lat="46.60364" lon="5.50495">
        <ele>309</ele>
        <time>2011-09-20T09:10:34Z</time>
      </trkpt>
      <trkpt lat="46.6037" lon="5.50509">
        <ele>309</ele>
        <time>2011-09-20T09:10:37Z</time>
      </trkpt>
      <trkpt lat="46.60377" lon="5.50522">
        <ele>309</ele>
        <time>2011-09-20T09:10:40Z</time>
      </trkpt>
      <trkpt lat="46.60384" lon="5.50534">
        <ele>309</ele>
        <time>2011-09-20T09:10:43Z</time>
      </trkpt>
      <trkpt lat="46.60391" lon="5.50546">
        <ele>309</ele>
        <time>2011-09-20T09:10:46Z</time>
      </trkpt>
      <trkpt lat="46.60398" lon="5.50556">
        <ele>309</ele>
        <time>2011-09-20T09:10:49Z</time>
      </trkpt>
      <trkpt lat="46.60407" lon="5.50564">
        <ele>309</ele>
        <time>2011-09-20T09:10:52Z</time>
      </trkpt>
      <trkpt lat="46.60416" lon="5.50571">
        <ele>316</ele>
        <time>2011-09-20T09:10:55Z</time>
      </trkpt>
      <trkpt lat="46.60424" lon="5.50578">
        <ele>316</ele>
        <time>2011-09-20T09:10:58Z</time>
      </trkpt>
      <trkpt lat="46.60432" lon="5.50586">
        <ele>316</ele>
        <time>2011-09-20T09:11:01Z</time>
      </trkpt>
      <trkpt lat="46.60442" lon="5.50595">
        <ele>321</ele>
        <time>2011-09-20T09:11:04Z</time>
      </trkpt>
      <trkpt lat="46.6045" lon="5.50603">
        <ele>321</ele>
        <time>2011-09-20T09:11:07Z</time>
      </trkpt>
      <trkpt lat="46.60459" lon="5.50609">
        <ele>321</ele>
        <time>2011-09-20T09:11:10Z</time>
      </trkpt>
      <trkpt lat="46.60468" lon="5.50615">
        <ele>321</ele>
        <time>2011-09-20T09:11:13Z</time>
      </trkpt>
      <trkpt lat="46.60476" lon="5.50622">
        <ele>321</ele>
        <time>2011-09-20T09:11:16Z</time>
      </trkpt>
      <trkpt lat="46.60485" lon="5.50627">
        <ele>321</ele>
        <time>2011-09-20T09:11:19Z</time>
      </trkpt>
      <trkpt lat="46.60494" lon="5.50632">
        <ele>321</ele>
        <time>2011-09-20T09:11:22Z</time>
      </trkpt>
      <trkpt lat="46.60505" lon="5.50639">
        <ele>321</ele>
        <time>2011-09-20T09:11:26Z</time>
      </trkpt>
      <trkpt lat="46.60514" lon="5.50642">
        <ele>327</ele>
        <time>2011-09-20T09:11:29Z</time>
      </trkpt>
      <trkpt lat="46.60524" lon="5.50644">
        <ele>327</ele>
        <time>2011-09-20T09:11:32Z</time>
      </trkpt>
      <trkpt lat="46.60534" lon="5.50648">
        <ele>327</ele>
        <time>2011-09-20T09:11:35Z</time>
      </trkpt>
      <trkpt lat="46.60544" lon="5.50648">
        <ele>327</ele>
        <time>2011-09-20T09:11:38Z</time>
      </trkpt>
      <trkpt lat="46.60554" lon="5.50648">
        <ele>327</ele>
        <time>2011-09-20T09:11:41Z</time>
      </trkpt>
      <trkpt lat="46.60565" lon="5.50648">
        <ele>327</ele>
        <time>2011-09-20T09:11:44Z</time>
      </trkpt>
      <trkpt lat="46.60574" lon="5.50644">
        <ele>327</ele>
        <time>2011-09-20T09:11:47Z</time>
      </trkpt>
      <trkpt lat="46.60584" lon="5.50641">
        <ele>332</ele>
        <time>2011-09-20T09:11:50Z</time>
      </trkpt>
      <trkpt lat="46.60593" lon="5.50639">
        <ele>332</ele>
        <time>2011-09-20T09:11:53Z</time>
      </trkpt>
      <trkpt lat="46.60604" lon="5.50637">
        <ele>332</ele>
        <time>2011-09-20T09:11:56Z</time>
      </trkpt>
      <trkpt lat="46.60614" lon="5.50637">
        <ele>332</ele>
        <time>2011-09-20T09:11:59Z</time>
      </trkpt>
      <trkpt lat="46.60625" lon="5.50637">
        <ele>332</ele>
        <time>2011-09-20T09:12:02Z</time>
      </trkpt>
      <trkpt lat="46.60635" lon="5.50639">
        <ele>332</ele>
        <time>2011-09-20T09:12:05Z</time>
      </trkpt>
      <trkpt lat="46.60647" lon="5.5064">
        <ele>332</ele>
        <time>2011-09-20T09:12:08Z</time>
      </trkpt>
      <trkpt lat="46.60658" lon="5.50642">
        <ele>332</ele>
        <time>2011-09-20T09:12:11Z</time>
      </trkpt>
      <trkpt lat="46.60668" lon="5.50643">
        <ele>332</ele>
        <time>2011-09-20T09:12:14Z</time>
      </trkpt>
      <trkpt lat="46.60679" lon="5.50644">
        <ele>332</ele>
        <time>2011-09-20T09:12:17Z</time>
      </trkpt>
      <trkpt lat="46.6069" lon="5.50645">
        <ele>332</ele>
        <time>2011-09-20T09:12:20Z</time>
      </trkpt>
      <trkpt lat="46.607" lon="5.50646">
        <ele>332</ele>
        <time>2011-09-20T09:12:23Z</time>
      </trkpt>
      <trkpt lat="46.60711" lon="5.50645">
        <ele>337</ele>
        <time>2011-09-20T09:12:26Z</time>
      </trkpt>
      <trkpt lat="46.60721" lon="5.50644">
        <ele>337</ele>
        <time>2011-09-20T09:12:29Z</time>
      </trkpt>
      <trkpt lat="46.60732" lon="5.50642">
        <ele>337</ele>
        <time>2011-09-20T09:12:32Z</time>
      </trkpt>
      <trkpt lat="46.60743" lon="5.5064">
        <ele>337</ele>
        <time>2011-09-20T09:12:35Z</time>
      </trkpt>
      <trkpt lat="46.60754" lon="5.5064">
        <ele>337</ele>
        <time>2011-09-20T09:12:38Z</time>
      </trkpt>
      <trkpt lat="46.60765" lon="5.50642">
        <ele>337</ele>
        <time>2011-09-20T09:12:41Z</time>
      </trkpt>
      <trkpt lat="46.60775" lon="5.50646">
        <ele>337</ele>
        <time>2011-09-20T09:12:44Z</time>
      </trkpt>
      <trkpt lat="46.60785" lon="5.50652">
        <ele>342</ele>
        <time>2011-09-20T09:12:47Z</time>
      </trkpt>
      <trkpt lat="46.60794" lon="5.50659">
        <ele>342</ele>
        <time>2011-09-20T09:12:50Z</time>
      </trkpt>
      <trkpt lat="46.60802" lon="5.50666">
        <ele>342</ele>
        <time>2011-09-20T09:12:53Z</time>
      </trkpt>
      <trkpt lat="46.60809" lon="5.50675">
        <ele>342</ele>
        <time>2011-09-20T09:12:56Z</time>
      </trkpt>
      <trkpt lat="46.60816" lon="5.50685">
        <ele>342</ele>
        <time>2011-09-20T09:12:59Z</time>
      </trkpt>
      <trkpt lat="46.6082" lon="5.507">
        <ele>342</ele>
        <time>2011-09-20T09:13:02Z</time>
      </trkpt>
      <trkpt lat="46.60816" lon="5.50712">
        <ele>342</ele>
        <time>2011-09-20T09:13:05Z</time>
      </trkpt>
      <trkpt lat="46.60807" lon="5.50717">
        <ele>342</ele>
        <time>2011-09-20T09:13:08Z</time>
      </trkpt>
      <trkpt lat="46.60796" lon="5.50717">
        <ele>342</ele>
        <time>2011-09-20T09:13:11Z</time>
      </trkpt>
      <trkpt lat="46.60786" lon="5.50716">
        <ele>342</ele>
        <time>2011-09-20T09:13:14Z</time>
      </trkpt>
      <trkpt lat="46.60775" lon="5.50716">
        <ele>342</ele>
        <time>2011-09-20T09:13:17Z</time>
      </trkpt>
      <trkpt lat="46.60765" lon="5.50716">
        <ele>342</ele>
        <time>2011-09-20T09:13:20Z</time>
      </trkpt>
      <trkpt lat="46.60754" lon="5.50716">
        <ele>342</ele>
        <time>2011-09-20T09:13:23Z</time>
      </trkpt>
      <trkpt lat="46.60743" lon="5.50716">
        <ele>342</ele>
        <time>2011-09-20T09:13:26Z</time>
      </trkpt>
      <trkpt lat="46.60732" lon="5.50719">
        <ele>342</ele>
        <time>2011-09-20T09:13:29Z</time>
      </trkpt>
      <trkpt lat="46.60721" lon="5.50723">
        <ele>342</ele>
        <time>2011-09-20T09:13:32Z</time>
      </trkpt>
      <trkpt lat="46.60711" lon="5.50728">
        <ele>342</ele>
        <time>2011-09-20T09:13:35Z</time>
      </trkpt>
      <trkpt lat="46.607" lon="5.50735">
        <ele>342</ele>
        <time>2011-09-20T09:13:38Z</time>
      </trkpt>
      <trkpt lat="46.6069" lon="5.50741">
        <ele>342</ele>
        <time>2011-09-20T09:13:41Z</time>
      </trkpt>
      <trkpt lat="46.60679" lon="5.50747">
        <ele>342</ele>
        <time>2011-09-20T09:13:44Z</time>
      </trkpt>
      <trkpt lat="46.60668" lon="5.50754">
        <ele>342</ele>
        <time>2011-09-20T09:13:47Z</time>
      </trkpt>
      <trkpt lat="46.60656" lon="5.5076">
        <ele>342</ele>
        <time>2011-09-20T09:13:50Z</time>
      </trkpt>
      <trkpt lat="46.60645" lon="5.50765">
        <ele>348</ele>
        <time>2011-09-20T09:13:53Z</time>
      </trkpt>
      <trkpt lat="46.60632" lon="5.50769">
        <ele>348</ele>
        <time>2011-09-20T09:13:56Z</time>
      </trkpt>
      <trkpt lat="46.60619" lon="5.50769">
        <ele>348</ele>
        <time>2011-09-20T09:13:59Z</time>
      </trkpt>
      <trkpt lat="46.60607" lon="5.50771">
        <ele>348</ele>
        <time>2011-09-20T09:14:02Z</time>
      </trkpt>
      <trkpt lat="46.60595" lon="5.50773">
        <ele>348</ele>
        <time>2011-09-20T09:14:05Z</time>
      </trkpt>
      <trkpt lat="46.60583" lon="5.50774">
        <ele>348</ele>
        <time>2011-09-20T09:14:08Z</time>
      </trkpt>
      <trkpt lat="46.6057" lon="5.50775">
        <ele>353</ele>
        <time>2011-09-20T09:14:11Z</time>
      </trkpt>
      <trkpt lat="46.60557" lon="5.50774">
        <ele>353</ele>
        <time>2011-09-20T09:14:14Z</time>
      </trkpt>
      <trkpt lat="46.60545" lon="5.50774">
        <ele>353</ele>
        <time>2011-09-20T09:14:17Z</time>
      </trkpt>
      <trkpt lat="46.60533" lon="5.50775">
        <ele>353</ele>
        <time>2011-09-20T09:14:20Z</time>
      </trkpt>
      <trkpt lat="46.60521" lon="5.50775">
        <ele>353</ele>
        <time>2011-09-20T09:14:23Z</time>
      </trkpt>
      <trkpt lat="46.60508" lon="5.50775">
        <ele>353</ele>
        <time>2011-09-20T09:14:26Z</time>
      </trkpt>
      <trkpt lat="46.60496" lon="5.50774">
        <ele>353</ele>
        <time>2011-09-20T09:14:29Z</time>
      </trkpt>
      <trkpt lat="46.60484" lon="5.50773">
        <ele>359</ele>
        <time>2011-09-20T09:14:32Z</time>
      </trkpt>
      <trkpt lat="46.60473" lon="5.50772">
        <ele>359</ele>
        <time>2011-09-20T09:14:35Z</time>
      </trkpt>
      <trkpt lat="46.6046" lon="5.5077">
        <ele>359</ele>
        <time>2011-09-20T09:14:38Z</time>
      </trkpt>
      <trkpt lat="46.60447" lon="5.50767">
        <ele>359</ele>
        <time>2011-09-20T09:14:41Z</time>
      </trkpt>
      <trkpt lat="46.60434" lon="5.50764">
        <ele>359</ele>
        <time>2011-09-20T09:14:44Z</time>
      </trkpt>
      <trkpt lat="46.60422" lon="5.50762">
        <ele>359</ele>
        <time>2011-09-20T09:14:47Z</time>
      </trkpt>
      <trkpt lat="46.60411" lon="5.50758">
        <ele>359</ele>
        <time>2011-09-20T09:14:50Z</time>
      </trkpt>
      <trkpt lat="46.60398" lon="5.50754">
        <ele>359</ele>
        <time>2011-09-20T09:14:53Z</time>
      </trkpt>
      <trkpt lat="46.60386" lon="5.50748">
        <ele>359</ele>
        <time>2011-09-20T09:14:56Z</time>
      </trkpt>
      <trkpt lat="46.60374" lon="5.50743">
        <ele>359</ele>
        <time>2011-09-20T09:14:59Z</time>
      </trkpt>
      <trkpt lat="46.60362" lon="5.50738">
        <ele>359</ele>
        <time>2011-09-20T09:15:02Z</time>
      </trkpt>
      <trkpt lat="46.60351" lon="5.50734">
        <ele>359</ele>
        <time>2011-09-20T09:15:05Z</time>
      </trkpt>
      <trkpt lat="46.60339" lon="5.5073">
        <ele>359</ele>
        <time>2011-09-20T09:15:08Z</time>
      </trkpt>
      <trkpt lat="46.60326" lon="5.50728">
        <ele>359</ele>
        <time>2011-09-20T09:15:11Z</time>
      </trkpt>
      <trkpt lat="46.60313" lon="5.50727">
        <ele>359</ele>
        <time>2011-09-20T09:15:14Z</time>
      </trkpt>
      <trkpt lat="46.60304" lon="5.50727">
        <ele>364</ele>
        <time>2011-09-20T09:15:16Z</time>
      </trkpt>
      <trkpt lat="46.60291" lon="5.50728">
        <ele>364</ele>
        <time>2011-09-20T09:15:19Z</time>
      </trkpt>
      <trkpt lat="46.60282" lon="5.50729">
        <ele>364</ele>
        <time>2011-09-20T09:15:21Z</time>
      </trkpt>
      <trkpt lat="46.60268" lon="5.5073">
        <ele>364</ele>
        <time>2011-09-20T09:15:24Z</time>
      </trkpt>
      <trkpt lat="46.60256" lon="5.50731">
        <ele>364</ele>
        <time>2011-09-20T09:15:27Z</time>
      </trkpt>
      <trkpt lat="46.60243" lon="5.5073">
        <ele>364</ele>
        <time>2011-09-20T09:15:30Z</time>
      </trkpt>
      <trkpt lat="46.60234" lon="5.50728">
        <ele>364</ele>
        <time>2011-09-20T09:15:32Z</time>
      </trkpt>
      <trkpt lat="46.60225" lon="5.50727">
        <ele>369</ele>
        <time>2011-09-20T09:15:34Z</time>
      </trkpt>
      <trkpt lat="46.60212" lon="5.50723">
        <ele>369</ele>
        <time>2011-09-20T09:15:37Z</time>
      </trkpt>
      <trkpt lat="46.602" lon="5.50719">
        <ele>369</ele>
        <time>2011-09-20T09:15:40Z</time>
      </trkpt>
      <trkpt lat="46.60189" lon="5.50714">
        <ele>369</ele>
        <time>2011-09-20T09:15:43Z</time>
      </trkpt>
      <trkpt lat="46.60178" lon="5.50708">
        <ele>369</ele>
        <time>2011-09-20T09:15:46Z</time>
      </trkpt>
      <trkpt lat="46.60167" lon="5.50702">
        <ele>369</ele>
        <time>2011-09-20T09:15:49Z</time>
      </trkpt>
      <trkpt lat="46.60156" lon="5.50697">
        <ele>369</ele>
        <time>2011-09-20T09:15:52Z</time>
      </trkpt>
      <trkpt lat="46.60147" lon="5.5069">
        <ele>375</ele>
        <time>2011-09-20T09:15:54Z</time>
      </trkpt>
      <trkpt lat="46.60138" lon="5.50686">
        <ele>375</ele>
        <time>2011-09-20T09:15:56Z</time>
      </trkpt>
      <trkpt lat="46.60128" lon="5.5068">
        <ele>375</ele>
        <time>2011-09-20T09:15:59Z</time>
      </trkpt>
      <trkpt lat="46.60118" lon="5.5067">
        <ele>375</ele>
        <time>2011-09-20T09:16:02Z</time>
      </trkpt>
      <trkpt lat="46.6011" lon="5.50662">
        <ele>381</ele>
        <time>2011-09-20T09:16:04Z</time>
      </trkpt>
      <trkpt lat="46.601" lon="5.50651">
        <ele>381</ele>
        <time>2011-09-20T09:16:07Z</time>
      </trkpt>
      <trkpt lat="46.60089" lon="5.50642">
        <ele>381</ele>
        <time>2011-09-20T09:16:10Z</time>
      </trkpt>
      <trkpt lat="46.60078" lon="5.50631">
        <ele>381</ele>
        <time>2011-09-20T09:16:13Z</time>
      </trkpt>
      <trkpt lat="46.60067" lon="5.50622">
        <ele>381</ele>
        <time>2011-09-20T09:16:16Z</time>
      </trkpt>
      <trkpt lat="46.60056" lon="5.50612">
        <ele>381</ele>
        <time>2011-09-20T09:16:19Z</time>
      </trkpt>
      <trkpt lat="46.60046" lon="5.50603">
        <ele>381</ele>
        <time>2011-09-20T09:16:22Z</time>
      </trkpt>
      <trkpt lat="46.60037" lon="5.50594">
        <ele>381</ele>
        <time>2011-09-20T09:16:25Z</time>
      </trkpt>
      <trkpt lat="46.60027" lon="5.50584">
        <ele>381</ele>
        <time>2011-09-20T09:16:28Z</time>
      </trkpt>
      <trkpt lat="46.60018" lon="5.50573">
        <ele>381</ele>
        <time>2011-09-20T09:16:31Z</time>
      </trkpt>
      <trkpt lat="46.60008" lon="5.50563">
        <ele>381</ele>
        <time>2011-09-20T09:16:34Z</time>
      </trkpt>
      <trkpt lat="46.59998" lon="5.50554">
        <ele>381</ele>
        <time>2011-09-20T09:16:37Z</time>
      </trkpt>
      <trkpt lat="46.59987" lon="5.50548">
        <ele>381</ele>
        <time>2011-09-20T09:16:40Z</time>
      </trkpt>
      <trkpt lat="46.59976" lon="5.50542">
        <ele>381</ele>
        <time>2011-09-20T09:16:43Z</time>
      </trkpt>
      <trkpt lat="46.59964" lon="5.50539">
        <ele>381</ele>
        <time>2011-09-20T09:16:46Z</time>
      </trkpt>
      <trkpt lat="46.59952" lon="5.50539">
        <ele>381</ele>
        <time>2011-09-20T09:16:49Z</time>
      </trkpt>
      <trkpt lat="46.59941" lon="5.50545">
        <ele>381</ele>
        <time>2011-09-20T09:16:52Z</time>
      </trkpt>
      <trkpt lat="46.59933" lon="5.50559">
        <ele>381</ele>
        <time>2011-09-20T09:16:55Z</time>
      </trkpt>
      <trkpt lat="46.59932" lon="5.50577">
        <ele>381</ele>
        <time>2011-09-20T09:16:58Z</time>
      </trkpt>
      <trkpt lat="46.5994" lon="5.50589">
        <ele>387</ele>
        <time>2011-09-20T09:17:01Z</time>
      </trkpt>
      <trkpt lat="46.59949" lon="5.50591">
        <ele>387</ele>
        <time>2011-09-20T09:17:03Z</time>
      </trkpt>
      <trkpt lat="46.59962" lon="5.50584">
        <ele>387</ele>
        <time>2011-09-20T09:17:06Z</time>
      </trkpt>
      <trkpt lat="46.59974" lon="5.50578">
        <ele>387</ele>
        <time>2011-09-20T09:17:09Z</time>
      </trkpt>
      <trkpt lat="46.59986" lon="5.5058">
        <ele>387</ele>
        <time>2011-09-20T09:17:12Z</time>
      </trkpt>
      <trkpt lat="46.59997" lon="5.50587">
        <ele>387</ele>
        <time>2011-09-20T09:17:15Z</time>
      </trkpt>
      <trkpt lat="46.60006" lon="5.50598">
        <ele>392</ele>
        <time>2011-09-20T09:17:18Z</time>
      </trkpt>
      <trkpt lat="46.60016" lon="5.50608">
        <ele>392</ele>
        <time>2011-09-20T09:17:21Z</time>
      </trkpt>
      <trkpt lat="46.60026" lon="5.50618">
        <ele>392</ele>
        <time>2011-09-20T09:17:24Z</time>
      </trkpt>
      <trkpt lat="46.60035" lon="5.50629">
        <ele>392</ele>
        <time>2011-09-20T09:17:27Z</time>
      </trkpt>
      <trkpt lat="46.60036" lon="5.50645">
        <ele>392</ele>
        <time>2011-09-20T09:17:30Z</time>
      </trkpt>
      <trkpt lat="46.60026" lon="5.50651">
        <ele>392</ele>
        <time>2011-09-20T09:17:33Z</time>
      </trkpt>
      <trkpt lat="46.60015" lon="5.50642">
        <ele>392</ele>
        <time>2011-09-20T09:17:36Z</time>
      </trkpt>
      <trkpt lat="46.60006" lon="5.50629">
        <ele>392</ele>
        <time>2011-09-20T09:17:39Z</time>
      </trkpt>
      <trkpt lat="46.59996" lon="5.50616">
        <ele>392</ele>
        <time>2011-09-20T09:17:42Z</time>
      </trkpt>
      <trkpt lat="46.59985" lon="5.50608">
        <ele>392</ele>
        <time>2011-09-20T09:17:45Z</time>
      </trkpt>
      <trkpt lat="46.59973" lon="5.50602">
        <ele>392</ele>
        <time>2011-09-20T09:17:48Z</time>
      </trkpt>
      <trkpt lat="46.59962" lon="5.50606">
        <ele>392</ele>
        <time>2011-09-20T09:17:51Z</time>
      </trkpt>
      <trkpt lat="46.59953" lon="5.50619">
        <ele>392</ele>
        <time>2011-09-20T09:17:54Z</time>
      </trkpt>
      <trkpt lat="46.59949" lon="5.50637">
        <ele>392</ele>
        <time>2011-09-20T09:17:57Z</time>
      </trkpt>
      <trkpt lat="46.59946" lon="5.50654">
        <ele>397</ele>
        <time>2011-09-20T09:18:00Z</time>
      </trkpt>
      <trkpt lat="46.59944" lon="5.50671">
        <ele>397</ele>
        <time>2011-09-20T09:18:03Z</time>
      </trkpt>
      <trkpt lat="46.59941" lon="5.50687">
        <ele>397</ele>
        <time>2011-09-20T09:18:06Z</time>
      </trkpt>
      <trkpt lat="46.59937" lon="5.50702">
        <ele>397</ele>
        <time>2011-09-20T09:18:09Z</time>
      </trkpt>
      <trkpt lat="46.59933" lon="5.50717">
        <ele>397</ele>
        <time>2011-09-20T09:18:12Z</time>
      </trkpt>
      <trkpt lat="46.59926" lon="5.50732">
        <ele>403</ele>
        <time>2011-09-20T09:18:15Z</time>
      </trkpt>
      <trkpt lat="46.59921" lon="5.50746">
        <ele>403</ele>
        <time>2011-09-20T09:18:18Z</time>
      </trkpt>
      <trkpt lat="46.59915" lon="5.5076">
        <ele>403</ele>
        <time>2011-09-20T09:18:21Z</time>
      </trkpt>
      <trkpt lat="46.59909" lon="5.50774">
        <ele>403</ele>
        <time>2011-09-20T09:18:24Z</time>
      </trkpt>
      <trkpt lat="46.59903" lon="5.50788">
        <ele>403</ele>
        <time>2011-09-20T09:18:27Z</time>
      </trkpt>
      <trkpt lat="46.59897" lon="5.50801">
        <ele>403</ele>
        <time>2011-09-20T09:18:30Z</time>
      </trkpt>
      <trkpt lat="46.5989" lon="5.50815">
        <ele>403</ele>
        <time>2011-09-20T09:18:33Z</time>
      </trkpt>
      <trkpt lat="46.59886" lon="5.50829">
        <ele>409</ele>
        <time>2011-09-20T09:18:36Z</time>
      </trkpt>
      <trkpt lat="46.59882" lon="5.50844">
        <ele>409</ele>
        <time>2011-09-20T09:18:39Z</time>
      </trkpt>
      <trkpt lat="46.59881" lon="5.5086">
        <ele>409</ele>
        <time>2011-09-20T09:18:42Z</time>
      </trkpt>
      <trkpt lat="46.59883" lon="5.50875">
        <ele>409</ele>
        <time>2011-09-20T09:18:45Z</time>
      </trkpt>
      <trkpt lat="46.5989" lon="5.50887">
        <ele>409</ele>
        <time>2011-09-20T09:18:48Z</time>
      </trkpt>
      <trkpt lat="46.59899" lon="5.50896">
        <ele>409</ele>
        <time>2011-09-20T09:18:51Z</time>
      </trkpt>
      <trkpt lat="46.59907" lon="5.50905">
        <ele>409</ele>
        <time>2011-09-20T09:18:54Z</time>
      </trkpt>
      <trkpt lat="46.59915" lon="5.50916">
        <ele>415</ele>
        <time>2011-09-20T09:18:57Z</time>
      </trkpt>
      <trkpt lat="46.59919" lon="5.50929">
        <ele>415</ele>
        <time>2011-09-20T09:19:00Z</time>
      </trkpt>
      <trkpt lat="46.59921" lon="5.50944">
        <ele>415</ele>
        <time>2011-09-20T09:19:03Z</time>
      </trkpt>
      <trkpt lat="46.59921" lon="5.5096">
        <ele>415</ele>
        <time>2011-09-20T09:19:06Z</time>
      </trkpt>
      <trkpt lat="46.59918" lon="5.50975">
        <ele>415</ele>
        <time>2011-09-20T09:19:09Z</time>
      </trkpt>
      <trkpt lat="46.59912" lon="5.5099">
        <ele>415</ele>
        <time>2011-09-20T09:19:12Z</time>
      </trkpt>
      <trkpt lat="46.59907" lon="5.51004">
        <ele>421</ele>
        <time>2011-09-20T09:19:15Z</time>
      </trkpt>
      <trkpt lat="46.59901" lon="5.51017">
        <ele>421</ele>
        <time>2011-09-20T09:19:18Z</time>
      </trkpt>
      <trkpt lat="46.59894" lon="5.51028">
        <ele>421</ele>
        <time>2011-09-20T09:19:21Z</time>
      </trkpt>
      <trkpt lat="46.59883" lon="5.51037">
        <ele>421</ele>
        <time>2011-09-20T09:19:25Z</time>
      </trkpt>
      <trkpt lat="46.59871" lon="5.51043">
        <ele>421</ele>
        <time>2011-09-20T09:19:29Z</time>
      </trkpt>
      <trkpt lat="46.59861" lon="5.51047">
        <ele>421</ele>
        <time>2011-09-20T09:19:32Z</time>
      </trkpt>
      <trkpt lat="46.5985" lon="5.51051">
        <ele>421</ele>
        <time>2011-09-20T09:19:35Z</time>
      </trkpt>
      <trkpt lat="46.59838" lon="5.51054">
        <ele>421</ele>
        <time>2011-09-20T09:19:38Z</time>
      </trkpt>
      <trkpt lat="46.59829" lon="5.51058">
        <ele>421</ele>
        <time>2011-09-20T09:19:41Z</time>
      </trkpt>
      <trkpt lat="46.59817" lon="5.5106">
        <ele>428</ele>
        <time>2011-09-20T09:19:44Z</time>
      </trkpt>
      <trkpt lat="46.59805" lon="5.51063">
        <ele>428</ele>
        <time>2011-09-20T09:19:47Z</time>
      </trkpt>
      <trkpt lat="46.59796" lon="5.51066">
        <ele>428</ele>
        <time>2011-09-20T09:19:49Z</time>
      </trkpt>
      <trkpt lat="46.59787" lon="5.51068">
        <ele>428</ele>
        <time>2011-09-20T09:19:52Z</time>
      </trkpt>
      <trkpt lat="46.59778" lon="5.51068">
        <ele>428</ele>
        <time>2011-09-20T09:19:54Z</time>
      </trkpt>
      <trkpt lat="46.59767" lon="5.51063">
        <ele>428</ele>
        <time>2011-09-20T09:19:57Z</time>
      </trkpt>
      <trkpt lat="46.59755" lon="5.51057">
        <ele>428</ele>
        <time>2011-09-20T09:20:00Z</time>
      </trkpt>
      <trkpt lat="46.59745" lon="5.51054">
        <ele>428</ele>
        <time>2011-09-20T09:20:03Z</time>
      </trkpt>
      <trkpt lat="46.59734" lon="5.51048">
        <ele>428</ele>
        <time>2011-09-20T09:20:06Z</time>
      </trkpt>
      <trkpt lat="46.59725" lon="5.51044">
        <ele>428</ele>
        <time>2011-09-20T09:20:09Z</time>
      </trkpt>
      <trkpt lat="46.59715" lon="5.51037">
        <ele>428</ele>
        <time>2011-09-20T09:20:12Z</time>
      </trkpt>
      <trkpt lat="46.59705" lon="5.51034">
        <ele>428</ele>
        <time>2011-09-20T09:20:15Z</time>
      </trkpt>
      <trkpt lat="46.59695" lon="5.51032">
        <ele>428</ele>
        <time>2011-09-20T09:20:18Z</time>
      </trkpt>
      <trkpt lat="46.59684" lon="5.5103">
        <ele>435</ele>
        <time>2011-09-20T09:20:21Z</time>
      </trkpt>
      <trkpt lat="46.59673" lon="5.51029">
        <ele>435</ele>
        <time>2011-09-20T09:20:24Z</time>
      </trkpt>
      <trkpt lat="46.59663" lon="5.51028">
        <ele>435</ele>
        <time>2011-09-20T09:20:27Z</time>
      </trkpt>
      <trkpt lat="46.59654" lon="5.51022">
        <ele>435</ele>
        <time>2011-09-20T09:20:30Z</time>
      </trkpt>
      <trkpt lat="46.59644" lon="5.5102">
        <ele>435</ele>
        <time>2011-09-20T09:20:33Z</time>
      </trkpt>
      <trkpt lat="46.59634" lon="5.51015">
        <ele>435</ele>
        <time>2011-09-20T09:20:36Z</time>
      </trkpt>
      <trkpt lat="46.59624" lon="5.51012">
        <ele>435</ele>
        <time>2011-09-20T09:20:39Z</time>
      </trkpt>
      <trkpt lat="46.59615" lon="5.51009">
        <ele>435</ele>
        <time>2011-09-20T09:20:42Z</time>
      </trkpt>
      <trkpt lat="46.59605" lon="5.51004">
        <ele>435</ele>
        <time>2011-09-20T09:20:45Z</time>
      </trkpt>
      <trkpt lat="46.59596" lon="5.50999">
        <ele>435</ele>
        <time>2011-09-20T09:20:48Z</time>
      </trkpt>
      <trkpt lat="46.59586" lon="5.50996">
        <ele>435</ele>
        <time>2011-09-20T09:20:51Z</time>
      </trkpt>
      <trkpt lat="46.59576" lon="5.50992">
        <ele>443</ele>
        <time>2011-09-20T09:20:54Z</time>
      </trkpt>
      <trkpt lat="46.59565" lon="5.50988">
        <ele>443</ele>
        <time>2011-09-20T09:20:57Z</time>
      </trkpt>
      <trkpt lat="46.59556" lon="5.50988">
        <ele>443</ele>
        <time>2011-09-20T09:21:00Z</time>
      </trkpt>
      <trkpt lat="46.59544" lon="5.50986">
        <ele>449</ele>
        <time>2011-09-20T09:21:03Z</time>
      </trkpt>
      <trkpt lat="46.59535" lon="5.50984">
        <ele>449</ele>
        <time>2011-09-20T09:21:06Z</time>
      </trkpt>
      <trkpt lat="46.59524" lon="5.50984">
        <ele>449</ele>
        <time>2011-09-20T09:21:10Z</time>
      </trkpt>
      <trkpt lat="46.59514" lon="5.50986">
        <ele>449</ele>
        <time>2011-09-20T09:21:14Z</time>
      </trkpt>
      <trkpt lat="46.59504" lon="5.50987">
        <ele>449</ele>
        <time>2011-09-20T09:21:17Z</time>
      </trkpt>
      <trkpt lat="46.59494" lon="5.50991">
        <ele>449</ele>
        <time>2011-09-20T09:21:20Z</time>
      </trkpt>
      <trkpt lat="46.59483" lon="5.50999">
        <ele>449</ele>
        <time>2011-09-20T09:21:24Z</time>
      </trkpt>
      <trkpt lat="46.59473" lon="5.51003">
        <ele>444</ele>
        <time>2011-09-20T09:21:27Z</time>
      </trkpt>
      <trkpt lat="46.59463" lon="5.5101">
        <ele>444</ele>
        <time>2011-09-20T09:21:30Z</time>
      </trkpt>
      <trkpt lat="46.59453" lon="5.51019">
        <ele>444</ele>
        <time>2011-09-20T09:21:33Z</time>
      </trkpt>
      <trkpt lat="46.59443" lon="5.51028">
        <ele>444</ele>
        <time>2011-09-20T09:21:36Z</time>
      </trkpt>
      <trkpt lat="46.59437" lon="5.51042">
        <ele>444</ele>
        <time>2011-09-20T09:21:39Z</time>
      </trkpt>
      <trkpt lat="46.59432" lon="5.51057">
        <ele>444</ele>
        <time>2011-09-20T09:21:42Z</time>
      </trkpt>
      <trkpt lat="46.59428" lon="5.51072">
        <ele>444</ele>
        <time>2011-09-20T09:21:45Z</time>
      </trkpt>
      <trkpt lat="46.59424" lon="5.51088">
        <ele>444</ele>
        <time>2011-09-20T09:21:48Z</time>
      </trkpt>
      <trkpt lat="46.59422" lon="5.51103">
        <ele>444</ele>
        <time>2011-09-20T09:21:51Z</time>
      </trkpt>
      <trkpt lat="46.5942" lon="5.51118">
        <ele>444</ele>
        <time>2011-09-20T09:21:54Z</time>
      </trkpt>
      <trkpt lat="46.59419" lon="5.51134">
        <ele>444</ele>
        <time>2011-09-20T09:21:57Z</time>
      </trkpt>
      <trkpt lat="46.59421" lon="5.51149">
        <ele>444</ele>
        <time>2011-09-20T09:22:00Z</time>
      </trkpt>
      <trkpt lat="46.59425" lon="5.51162">
        <ele>444</ele>
        <time>2011-09-20T09:22:03Z</time>
      </trkpt>
      <trkpt lat="46.59428" lon="5.51177">
        <ele>444</ele>
        <time>2011-09-20T09:22:06Z</time>
      </trkpt>
      <trkpt lat="46.5943" lon="5.51192">
        <ele>444</ele>
        <time>2011-09-20T09:22:09Z</time>
      </trkpt>
      <trkpt lat="46.5943" lon="5.51207">
        <ele>444</ele>
        <time>2011-09-20T09:22:12Z</time>
      </trkpt>
      <trkpt lat="46.5943" lon="5.51222">
        <ele>444</ele>
        <time>2011-09-20T09:22:15Z</time>
      </trkpt>
      <trkpt lat="46.59427" lon="5.51236">
        <ele>449</ele>
        <time>2011-09-20T09:22:18Z</time>
      </trkpt>
      <trkpt lat="46.59425" lon="5.51251">
        <ele>449</ele>
        <time>2011-09-20T09:22:21Z</time>
      </trkpt>
      <trkpt lat="46.59425" lon="5.51266">
        <ele>449</ele>
        <time>2011-09-20T09:22:24Z</time>
      </trkpt>
      <trkpt lat="46.5943" lon="5.51278">
        <ele>449</ele>
        <time>2011-09-20T09:22:27Z</time>
      </trkpt>
      <trkpt lat="46.59438" lon="5.51291">
        <ele>449</ele>
        <time>2011-09-20T09:22:30Z</time>
      </trkpt>
      <trkpt lat="46.59446" lon="5.51303">
        <ele>456</ele>
        <time>2011-09-20T09:22:33Z</time>
      </trkpt>
      <trkpt lat="46.59455" lon="5.51315">
        <ele>456</ele>
        <time>2011-09-20T09:22:36Z</time>
      </trkpt>
      <trkpt lat="46.59463" lon="5.51328">
        <ele>456</ele>
        <time>2011-09-20T09:22:39Z</time>
      </trkpt>
      <trkpt lat="46.59469" lon="5.51338">
        <ele>461</ele>
        <time>2011-09-20T09:22:41Z</time>
      </trkpt>
      <trkpt lat="46.59479" lon="5.51351">
        <ele>461</ele>
        <time>2011-09-20T09:22:44Z</time>
      </trkpt>
      <trkpt lat="46.59486" lon="5.51359">
        <ele>461</ele>
        <time>2011-09-20T09:22:46Z</time>
      </trkpt>
      <trkpt lat="46.59494" lon="5.51366">
        <ele>461</ele>
        <time>2011-09-20T09:22:48Z</time>
      </trkpt>
      <trkpt lat="46.59504" lon="5.51372">
        <ele>461</ele>
        <time>2011-09-20T09:22:50Z</time>
      </trkpt>
      <trkpt lat="46.59516" lon="5.51379">
        <ele>461</ele>
        <time>2011-09-20T09:22:52Z</time>
      </trkpt>
      <trkpt lat="46.59528" lon="5.51383">
        <ele>461</ele>
        <time>2011-09-20T09:22:54Z</time>
      </trkpt>
      <trkpt lat="46.59542" lon="5.51387">
        <ele>461</ele>
        <time>2011-09-20T09:22:56Z</time>
      </trkpt>
      <trkpt lat="46.59557" lon="5.5139">
        <ele>461</ele>
        <time>2011-09-20T09:22:58Z</time>
      </trkpt>
      <trkpt lat="46.59573" lon="5.51392">
        <ele>461</ele>
        <time>2011-09-20T09:23:00Z</time>
      </trkpt>
      <trkpt lat="46.59589" lon="5.51394">
        <ele>461</ele>
        <time>2011-09-20T09:23:02Z</time>
      </trkpt>
      <trkpt lat="46.59605" lon="5.514">
        <ele>461</ele>
        <time>2011-09-20T09:23:04Z</time>
      </trkpt>
      <trkpt lat="46.59618" lon="5.51411">
        <ele>461</ele>
        <time>2011-09-20T09:23:06Z</time>
      </trkpt>
      <trkpt lat="46.5963" lon="5.51422">
        <ele>461</ele>
        <time>2011-09-20T09:23:08Z</time>
      </trkpt>
      <trkpt lat="46.5964" lon="5.51431">
        <ele>461</ele>
        <time>2011-09-20T09:23:10Z</time>
      </trkpt>
      <trkpt lat="46.5965" lon="5.51438">
        <ele>466</ele>
        <time>2011-09-20T09:23:12Z</time>
      </trkpt>
      <trkpt lat="46.5966" lon="5.51443">
        <ele>466</ele>
        <time>2011-09-20T09:23:14Z</time>
      </trkpt>
      <trkpt lat="46.59669" lon="5.51448">
        <ele>466</ele>
        <time>2011-09-20T09:23:16Z</time>
      </trkpt>
      <trkpt lat="46.59678" lon="5.51452">
        <ele>466</ele>
        <time>2011-09-20T09:23:18Z</time>
      </trkpt>
      <trkpt lat="46.59687" lon="5.51456">
        <ele>466</ele>
        <time>2011-09-20T09:23:20Z</time>
      </trkpt>
      <trkpt lat="46.59699" lon="5.51462">
        <ele>466</ele>
        <time>2011-09-20T09:23:23Z</time>
      </trkpt>
      <trkpt lat="46.5971" lon="5.51467">
        <ele>466</ele>
        <time>2011-09-20T09:23:26Z</time>
      </trkpt>
      <trkpt lat="46.59722" lon="5.51472">
        <ele>466</ele>
        <time>2011-09-20T09:23:29Z</time>
      </trkpt>
      <trkpt lat="46.59731" lon="5.51476">
        <ele>466</ele>
        <time>2011-09-20T09:23:31Z</time>
      </trkpt>
      <trkpt lat="46.59741" lon="5.51479">
        <ele>472</ele>
        <time>2011-09-20T09:23:33Z</time>
      </trkpt>
      <trkpt lat="46.59751" lon="5.51482">
        <ele>472</ele>
        <time>2011-09-20T09:23:35Z</time>
      </trkpt>
      <trkpt lat="46.5976" lon="5.51482">
        <ele>472</ele>
        <time>2011-09-20T09:23:37Z</time>
      </trkpt>
      <trkpt lat="46.5977" lon="5.51481">
        <ele>472</ele>
        <time>2011-09-20T09:23:41Z</time>
      </trkpt>
      <trkpt lat="46.59773" lon="5.51494">
        <ele>457</ele>
        <time>2011-09-20T09:26:48Z</time>
      </trkpt>
      <trkpt lat="46.59775" lon="5.51479">
        <ele>457</ele>
        <time>2011-09-20T09:33:00Z</time>
      </trkpt>
      <trkpt lat="46.59784" lon="5.51468">
        <ele>457</ele>
        <time>2011-09-20T09:33:05Z</time>
      </trkpt>
      <trkpt lat="46.59793" lon="5.51461">
        <ele>457</ele>
        <time>2011-09-20T09:33:08Z</time>
      </trkpt>
      <trkpt lat="46.59803" lon="5.51454">
        <ele>457</ele>
        <time>2011-09-20T09:33:11Z</time>
      </trkpt>
      <trkpt lat="46.59814" lon="5.51449">
        <ele>457</ele>
        <time>2011-09-20T09:33:14Z</time>
      </trkpt>
      <trkpt lat="46.59823" lon="5.51444">
        <ele>457</ele>
        <time>2011-09-20T09:33:17Z</time>
      </trkpt>
      <trkpt lat="46.59833" lon="5.51439">
        <ele>463</ele>
        <time>2011-09-20T09:33:20Z</time>
      </trkpt>
      <trkpt lat="46.59843" lon="5.51434">
        <ele>463</ele>
        <time>2011-09-20T09:33:23Z</time>
      </trkpt>
      <trkpt lat="46.59854" lon="5.5143">
        <ele>463</ele>
        <time>2011-09-20T09:33:26Z</time>
      </trkpt>
      <trkpt lat="46.59864" lon="5.51425">
        <ele>463</ele>
        <time>2011-09-20T09:33:29Z</time>
      </trkpt>
      <trkpt lat="46.59873" lon="5.51419">
        <ele>463</ele>
        <time>2011-09-20T09:33:32Z</time>
      </trkpt>
      <trkpt lat="46.59882" lon="5.51411">
        <ele>469</ele>
        <time>2011-09-20T09:33:36Z</time>
      </trkpt>
      <trkpt lat="46.59872" lon="5.51403">
        <ele>469</ele>
        <time>2011-09-20T09:33:42Z</time>
      </trkpt>
      <trkpt lat="46.59863" lon="5.51403">
        <ele>469</ele>
        <time>2011-09-20T09:33:45Z</time>
      </trkpt>
      <trkpt lat="46.59853" lon="5.51404">
        <ele>469</ele>
        <time>2011-09-20T09:33:48Z</time>
      </trkpt>
      <trkpt lat="46.59842" lon="5.51405">
        <ele>469</ele>
        <time>2011-09-20T09:33:51Z</time>
      </trkpt>
      <trkpt lat="46.59832" lon="5.51406">
        <ele>469</ele>
        <time>2011-09-20T09:33:54Z</time>
      </trkpt>
      <trkpt lat="46.59822" lon="5.51405">
        <ele>469</ele>
        <time>2011-09-20T09:33:57Z</time>
      </trkpt>
      <trkpt lat="46.59813" lon="5.514">
        <ele>469</ele>
        <time>2011-09-20T09:34:00Z</time>
      </trkpt>
      <trkpt lat="46.59806" lon="5.51389">
        <ele>469</ele>
        <time>2011-09-20T09:34:03Z</time>
      </trkpt>
      <trkpt lat="46.59806" lon="5.51373">
        <ele>469</ele>
        <time>2011-09-20T09:34:06Z</time>
      </trkpt>
      <trkpt lat="46.59813" lon="5.51362">
        <ele>469</ele>
        <time>2011-09-20T09:34:09Z</time>
      </trkpt>
      <trkpt lat="46.59822" lon="5.51357">
        <ele>469</ele>
        <time>2011-09-20T09:34:12Z</time>
      </trkpt>
      <trkpt lat="46.59833" lon="5.51355">
        <ele>469</ele>
        <time>2011-09-20T09:34:15Z</time>
      </trkpt>
      <trkpt lat="46.59843" lon="5.51355">
        <ele>469</ele>
        <time>2011-09-20T09:34:18Z</time>
      </trkpt>
      <trkpt lat="46.59853" lon="5.51355">
        <ele>475</ele>
        <time>2011-09-20T09:34:21Z</time>
      </trkpt>
      <trkpt lat="46.59863" lon="5.51355">
        <ele>475</ele>
        <time>2011-09-20T09:34:24Z</time>
      </trkpt>
      <trkpt lat="46.59874" lon="5.51355">
        <ele>475</ele>
        <time>2011-09-20T09:34:27Z</time>
      </trkpt>
      <trkpt lat="46.59885" lon="5.51353">
        <ele>475</ele>
        <time>2011-09-20T09:34:30Z</time>
      </trkpt>
      <trkpt lat="46.59895" lon="5.51351">
        <ele>475</ele>
        <time>2011-09-20T09:34:33Z</time>
      </trkpt>
      <trkpt lat="46.59906" lon="5.51346">
        <ele>475</ele>
        <time>2011-09-20T09:34:36Z</time>
      </trkpt>
      <trkpt lat="46.59916" lon="5.51338">
        <ele>475</ele>
        <time>2011-09-20T09:34:39Z</time>
      </trkpt>
      <trkpt lat="46.59925" lon="5.51328">
        <ele>475</ele>
        <time>2011-09-20T09:34:42Z</time>
      </trkpt>
      <trkpt lat="46.59933" lon="5.51318">
        <ele>475</ele>
        <time>2011-09-20T09:34:45Z</time>
      </trkpt>
      <trkpt lat="46.5994" lon="5.51306">
        <ele>475</ele>
        <time>2011-09-20T09:34:48Z</time>
      </trkpt>
      <trkpt lat="46.59947" lon="5.51295">
        <ele>475</ele>
        <time>2011-09-20T09:34:51Z</time>
      </trkpt>
      <trkpt lat="46.59956" lon="5.51284">
        <ele>475</ele>
        <time>2011-09-20T09:34:55Z</time>
      </trkpt>
      <trkpt lat="46.59966" lon="5.5128">
        <ele>482</ele>
        <time>2011-09-20T09:34:58Z</time>
      </trkpt>
      <trkpt lat="46.59978" lon="5.51277">
        <ele>482</ele>
        <time>2011-09-20T09:35:02Z</time>
      </trkpt>
      <trkpt lat="46.59989" lon="5.51275">
        <ele>489</ele>
        <time>2011-09-20T09:35:06Z</time>
      </trkpt>
      <trkpt lat="46.59999" lon="5.51271">
        <ele>489</ele>
        <time>2011-09-20T09:35:09Z</time>
      </trkpt>
      <trkpt lat="46.60008" lon="5.51265">
        <ele>489</ele>
        <time>2011-09-20T09:35:13Z</time>
      </trkpt>
      <trkpt lat="46.60013" lon="5.51253">
        <ele>489</ele>
        <time>2011-09-20T09:35:17Z</time>
      </trkpt>
      <trkpt lat="46.60021" lon="5.51242">
        <ele>489</ele>
        <time>2011-09-20T09:35:22Z</time>
      </trkpt>
      <trkpt lat="46.60029" lon="5.51232">
        <ele>489</ele>
        <time>2011-09-20T09:35:27Z</time>
      </trkpt>
      <trkpt lat="46.60034" lon="5.51219">
        <ele>489</ele>
        <time>2011-09-20T09:35:33Z</time>
      </trkpt>
      <trkpt lat="46.60043" lon="5.51211">
        <ele>495</ele>
        <time>2011-09-20T09:35:39Z</time>
      </trkpt>
      <trkpt lat="46.60052" lon="5.51209">
        <ele>495</ele>
        <time>2011-09-20T09:35:44Z</time>
      </trkpt>
      <trkpt lat="46.60062" lon="5.51205">
        <ele>495</ele>
        <time>2011-09-20T09:35:49Z</time>
      </trkpt>
      <trkpt lat="46.60072" lon="5.512">
        <ele>495</ele>
        <time>2011-09-20T09:35:55Z</time>
      </trkpt>
      <trkpt lat="46.60081" lon="5.51195">
        <ele>502</ele>
        <time>2011-09-20T09:36:40Z</time>
      </trkpt>
      <trkpt lat="46.6009" lon="5.51196">
        <ele>493</ele>
        <time>2011-09-20T09:37:28Z</time>
      </trkpt>
      <trkpt lat="46.60099" lon="5.51192">
        <ele>493</ele>
        <time>2011-09-20T09:49:26Z</time>
      </trkpt>
      <trkpt lat="46.60111" lon="5.51192">
        <ele>493</ele>
        <time>2011-09-20T09:49:29Z</time>
      </trkpt>
      <trkpt lat="46.60121" lon="5.51191">
        <ele>493</ele>
        <time>2011-09-20T09:49:31Z</time>
      </trkpt>
      <trkpt lat="46.60134" lon="5.51192">
        <ele>493</ele>
        <time>2011-09-20T09:49:33Z</time>
      </trkpt>
      <trkpt lat="46.60146" lon="5.51192">
        <ele>493</ele>
        <time>2011-09-20T09:49:35Z</time>
      </trkpt>
      <trkpt lat="46.60156" lon="5.51191">
        <ele>493</ele>
        <time>2011-09-20T09:49:37Z</time>
      </trkpt>
      <trkpt lat="46.60167" lon="5.51193">
        <ele>493</ele>
        <time>2011-09-20T09:49:39Z</time>
      </trkpt>
      <trkpt lat="46.60178" lon="5.51196">
        <ele>493</ele>
        <time>2011-09-20T09:49:41Z</time>
      </trkpt>
      <trkpt lat="46.60188" lon="5.51203">
        <ele>493</ele>
        <time>2011-09-20T09:49:43Z</time>
      </trkpt>
      <trkpt lat="46.602" lon="5.5121">
        <ele>493</ele>
        <time>2011-09-20T09:49:45Z</time>
      </trkpt>
      <trkpt lat="46.60211" lon="5.51218">
        <ele>493</ele>
        <time>2011-09-20T09:49:47Z</time>
      </trkpt>
      <trkpt lat="46.60224" lon="5.51227">
        <ele>487</ele>
        <time>2011-09-20T09:49:49Z</time>
      </trkpt>
      <trkpt lat="46.60238" lon="5.51238">
        <ele>487</ele>
        <time>2011-09-20T09:49:51Z</time>
      </trkpt>
      <trkpt lat="46.60252" lon="5.51249">
        <ele>487</ele>
        <time>2011-09-20T09:49:53Z</time>
      </trkpt>
      <trkpt lat="46.60263" lon="5.51258">
        <ele>487</ele>
        <time>2011-09-20T09:49:55Z</time>
      </trkpt>
      <trkpt lat="46.60274" lon="5.51267">
        <ele>487</ele>
        <time>2011-09-20T09:49:57Z</time>
      </trkpt>
      <trkpt lat="46.60286" lon="5.51274">
        <ele>487</ele>
        <time>2011-09-20T09:49:59Z</time>
      </trkpt>
      <trkpt lat="46.60299" lon="5.51275">
        <ele>487</ele>
        <time>2011-09-20T09:50:01Z</time>
      </trkpt>
      <trkpt lat="46.60311" lon="5.51275">
        <ele>487</ele>
        <time>2011-09-20T09:50:03Z</time>
      </trkpt>
      <trkpt lat="46.60324" lon="5.51278">
        <ele>482</ele>
        <time>2011-09-20T09:50:05Z</time>
      </trkpt>
      <trkpt lat="46.60336" lon="5.51286">
        <ele>482</ele>
        <time>2011-09-20T09:50:07Z</time>
      </trkpt>
      <trkpt lat="46.60346" lon="5.51298">
        <ele>482</ele>
        <time>2011-09-20T09:50:09Z</time>
      </trkpt>
      <trkpt lat="46.60354" lon="5.51314">
        <ele>482</ele>
        <time>2011-09-20T09:50:11Z</time>
      </trkpt>
      <trkpt lat="46.60357" lon="5.51335">
        <ele>482</ele>
        <time>2011-09-20T09:50:13Z</time>
      </trkpt>
      <trkpt lat="46.60359" lon="5.51355">
        <ele>482</ele>
        <time>2011-09-20T09:50:15Z</time>
      </trkpt>
      <trkpt lat="46.6036" lon="5.51375">
        <ele>482</ele>
        <time>2011-09-20T09:50:17Z</time>
      </trkpt>
      <trkpt lat="46.6036" lon="5.51392">
        <ele>482</ele>
        <time>2011-09-20T09:50:19Z</time>
      </trkpt>
      <trkpt lat="46.60355" lon="5.51408">
        <ele>482</ele>
        <time>2011-09-20T09:50:22Z</time>
      </trkpt>
      <trkpt lat="46.60346" lon="5.51408">
        <ele>482</ele>
        <time>2011-09-20T09:50:24Z</time>
      </trkpt>
      <trkpt lat="46.60335" lon="5.51403">
        <ele>482</ele>
        <time>2011-09-20T09:50:26Z</time>
      </trkpt>
      <trkpt lat="46.60323" lon="5.51399">
        <ele>482</ele>
        <time>2011-09-20T09:50:28Z</time>
      </trkpt>
      <trkpt lat="46.6031" lon="5.51395">
        <ele>476</ele>
        <time>2011-09-20T09:50:30Z</time>
      </trkpt>
      <trkpt lat="46.60294" lon="5.5139">
        <ele>476</ele>
        <time>2011-09-20T09:50:32Z</time>
      </trkpt>
      <trkpt lat="46.60278" lon="5.51382">
        <ele>476</ele>
        <time>2011-09-20T09:50:34Z</time>
      </trkpt>
      <trkpt lat="46.60269" lon="5.51379">
        <ele>476</ele>
        <time>2011-09-20T09:50:35Z</time>
      </trkpt>
      <trkpt lat="46.60254" lon="5.5137">
        <ele>471</ele>
        <time>2011-09-20T09:50:37Z</time>
      </trkpt>
      <trkpt lat="46.60239" lon="5.5136">
        <ele>471</ele>
        <time>2011-09-20T09:50:39Z</time>
      </trkpt>
      <trkpt lat="46.60224" lon="5.51349">
        <ele>471</ele>
        <time>2011-09-20T09:50:41Z</time>
      </trkpt>
      <trkpt lat="46.60211" lon="5.51342">
        <ele>471</ele>
        <time>2011-09-20T09:50:43Z</time>
      </trkpt>
      <trkpt lat="46.602" lon="5.51337">
        <ele>471</ele>
        <time>2011-09-20T09:50:45Z</time>
      </trkpt>
      <trkpt lat="46.60191" lon="5.51336">
        <ele>471</ele>
        <time>2011-09-20T09:50:47Z</time>
      </trkpt>
      <trkpt lat="46.60183" lon="5.51342">
        <ele>471</ele>
        <time>2011-09-20T09:50:49Z</time>
      </trkpt>
      <trkpt lat="46.60176" lon="5.51353">
        <ele>471</ele>
        <time>2011-09-20T09:50:51Z</time>
      </trkpt>
      <trkpt lat="46.60169" lon="5.51365">
        <ele>471</ele>
        <time>2011-09-20T09:50:53Z</time>
      </trkpt>
      <trkpt lat="46.60164" lon="5.51381">
        <ele>466</ele>
        <time>2011-09-20T09:50:55Z</time>
      </trkpt>
      <trkpt lat="46.60159" lon="5.51402">
        <ele>466</ele>
        <time>2011-09-20T09:50:57Z</time>
      </trkpt>
      <trkpt lat="46.60157" lon="5.51424">
        <ele>466</ele>
        <time>2011-09-20T09:50:59Z</time>
      </trkpt>
      <trkpt lat="46.60154" lon="5.51446">
        <ele>466</ele>
        <time>2011-09-20T09:51:01Z</time>
      </trkpt>
      <trkpt lat="46.60149" lon="5.51464">
        <ele>466</ele>
        <time>2011-09-20T09:51:03Z</time>
      </trkpt>
      <trkpt lat="46.60142" lon="5.51478">
        <ele>466</ele>
        <time>2011-09-20T09:51:05Z</time>
      </trkpt>
      <trkpt lat="46.60135" lon="5.51487">
        <ele>466</ele>
        <time>2011-09-20T09:51:07Z</time>
      </trkpt>
      <trkpt lat="46.60123" lon="5.51494">
        <ele>466</ele>
        <time>2011-09-20T09:51:10Z</time>
      </trkpt>
      <trkpt lat="46.60113" lon="5.51495">
        <ele>466</ele>
        <time>2011-09-20T09:51:12Z</time>
      </trkpt>
      <trkpt lat="46.60104" lon="5.51495">
        <ele>466</ele>
        <time>2011-09-20T09:51:14Z</time>
      </trkpt>
      <trkpt lat="46.60095" lon="5.51496">
        <ele>466</ele>
        <time>2011-09-20T09:51:16Z</time>
      </trkpt>
      <trkpt lat="46.60086" lon="5.51497">
        <ele>466</ele>
        <time>2011-09-20T09:51:18Z</time>
      </trkpt>
      <trkpt lat="46.60072" lon="5.51502">
        <ele>466</ele>
        <time>2011-09-20T09:51:21Z</time>
      </trkpt>
      <trkpt lat="46.60058" lon="5.51505">
        <ele>466</ele>
        <time>2011-09-20T09:51:24Z</time>
      </trkpt>
      <trkpt lat="46.60049" lon="5.51508">
        <ele>466</ele>
        <time>2011-09-20T09:51:26Z</time>
      </trkpt>
      <trkpt lat="46.60039" lon="5.51512">
        <ele>466</ele>
        <time>2011-09-20T09:51:28Z</time>
      </trkpt>
      <trkpt lat="46.60029" lon="5.51518">
        <ele>466</ele>
        <time>2011-09-20T09:51:30Z</time>
      </trkpt>
      <trkpt lat="46.60018" lon="5.51525">
        <ele>466</ele>
        <time>2011-09-20T09:51:32Z</time>
      </trkpt>
      <trkpt lat="46.60009" lon="5.51533">
        <ele>466</ele>
        <time>2011-09-20T09:51:34Z</time>
      </trkpt>
      <trkpt lat="46.6" lon="5.5154">
        <ele>466</ele>
        <time>2011-09-20T09:51:36Z</time>
      </trkpt>
      <trkpt lat="46.59991" lon="5.51546">
        <ele>466</ele>
        <time>2011-09-20T09:51:38Z</time>
      </trkpt>
      <trkpt lat="46.59983" lon="5.51555">
        <ele>466</ele>
        <time>2011-09-20T09:51:41Z</time>
      </trkpt>
      <trkpt lat="46.59978" lon="5.5157">
        <ele>466</ele>
        <time>2011-09-20T09:51:44Z</time>
      </trkpt>
      <trkpt lat="46.59975" lon="5.51587">
        <ele>466</ele>
        <time>2011-09-20T09:51:47Z</time>
      </trkpt>
      <trkpt lat="46.59973" lon="5.51605">
        <ele>466</ele>
        <time>2011-09-20T09:51:50Z</time>
      </trkpt>
      <trkpt lat="46.59968" lon="5.51621">
        <ele>466</ele>
        <time>2011-09-20T09:51:53Z</time>
      </trkpt>
      <trkpt lat="46.59961" lon="5.51637">
        <ele>466</ele>
        <time>2011-09-20T09:51:56Z</time>
      </trkpt>
      <trkpt lat="46.59953" lon="5.5165">
        <ele>466</ele>
        <time>2011-09-20T09:51:59Z</time>
      </trkpt>
      <trkpt lat="46.59945" lon="5.51663">
        <ele>466</ele>
        <time>2011-09-20T09:52:02Z</time>
      </trkpt>
      <trkpt lat="46.59938" lon="5.51673">
        <ele>466</ele>
        <time>2011-09-20T09:52:05Z</time>
      </trkpt>
      <trkpt lat="46.5993" lon="5.51686">
        <ele>471</ele>
        <time>2011-09-20T09:52:08Z</time>
      </trkpt>
      <trkpt lat="46.59923" lon="5.51699">
        <ele>471</ele>
        <time>2011-09-20T09:52:11Z</time>
      </trkpt>
      <trkpt lat="46.59917" lon="5.51714">
        <ele>471</ele>
        <time>2011-09-20T09:52:14Z</time>
      </trkpt>
      <trkpt lat="46.59914" lon="5.51731">
        <ele>471</ele>
        <time>2011-09-20T09:52:17Z</time>
      </trkpt>
      <trkpt lat="46.59911" lon="5.51748">
        <ele>471</ele>
        <time>2011-09-20T09:52:20Z</time>
      </trkpt>
      <trkpt lat="46.59907" lon="5.51765">
        <ele>471</ele>
        <time>2011-09-20T09:52:23Z</time>
      </trkpt>
      <trkpt lat="46.59902" lon="5.51781">
        <ele>471</ele>
        <time>2011-09-20T09:52:26Z</time>
      </trkpt>
      <trkpt lat="46.59895" lon="5.51796">
        <ele>471</ele>
        <time>2011-09-20T09:52:29Z</time>
      </trkpt>
      <trkpt lat="46.59887" lon="5.51808">
        <ele>471</ele>
        <time>2011-09-20T09:52:32Z</time>
      </trkpt>
      <trkpt lat="46.59878" lon="5.51821">
        <ele>477</ele>
        <time>2011-09-20T09:52:35Z</time>
      </trkpt>
      <trkpt lat="46.59868" lon="5.51833">
        <ele>477</ele>
        <time>2011-09-20T09:52:38Z</time>
      </trkpt>
      <trkpt lat="46.59858" lon="5.51844">
        <ele>477</ele>
        <time>2011-09-20T09:52:41Z</time>
      </trkpt>
      <trkpt lat="46.59848" lon="5.51855">
        <ele>477</ele>
        <time>2011-09-20T09:52:44Z</time>
      </trkpt>
      <trkpt lat="46.59837" lon="5.51865">
        <ele>477</ele>
        <time>2011-09-20T09:52:47Z</time>
      </trkpt>
      <trkpt lat="46.59829" lon="5.51871">
        <ele>477</ele>
        <time>2011-09-20T09:52:49Z</time>
      </trkpt>
      <trkpt lat="46.59821" lon="5.51877">
        <ele>477</ele>
        <time>2011-09-20T09:52:51Z</time>
      </trkpt>
      <trkpt lat="46.59809" lon="5.51885">
        <ele>477</ele>
        <time>2011-09-20T09:52:54Z</time>
      </trkpt>
      <trkpt lat="46.59798" lon="5.51892">
        <ele>477</ele>
        <time>2011-09-20T09:52:57Z</time>
      </trkpt>
      <trkpt lat="46.59787" lon="5.51897">
        <ele>477</ele>
        <time>2011-09-20T09:53:00Z</time>
      </trkpt>
      <trkpt lat="46.59775" lon="5.51902">
        <ele>477</ele>
        <time>2011-09-20T09:53:03Z</time>
      </trkpt>
      <trkpt lat="46.59764" lon="5.51908">
        <ele>482</ele>
        <time>2011-09-20T09:53:06Z</time>
      </trkpt>
      <trkpt lat="46.59752" lon="5.51913">
        <ele>482</ele>
        <time>2011-09-20T09:53:09Z</time>
      </trkpt>
      <trkpt lat="46.59739" lon="5.5192">
        <ele>482</ele>
        <time>2011-09-20T09:53:12Z</time>
      </trkpt>
      <trkpt lat="46.59731" lon="5.51923">
        <ele>482</ele>
        <time>2011-09-20T09:53:14Z</time>
      </trkpt>
      <trkpt lat="46.59722" lon="5.51928">
        <ele>482</ele>
        <time>2011-09-20T09:53:16Z</time>
      </trkpt>
      <trkpt lat="46.59712" lon="5.5193">
        <ele>482</ele>
        <time>2011-09-20T09:53:18Z</time>
      </trkpt>
      <trkpt lat="46.59702" lon="5.51929">
        <ele>482</ele>
        <time>2011-09-20T09:53:20Z</time>
      </trkpt>
      <trkpt lat="46.59692" lon="5.51926">
        <ele>482</ele>
        <time>2011-09-20T09:53:22Z</time>
      </trkpt>
      <trkpt lat="46.59683" lon="5.51923">
        <ele>482</ele>
        <time>2011-09-20T09:53:24Z</time>
      </trkpt>
      <trkpt lat="46.59674" lon="5.51923">
        <ele>482</ele>
        <time>2011-09-20T09:53:26Z</time>
      </trkpt>
      <trkpt lat="46.59665" lon="5.51937">
        <ele>482</ele>
        <time>2011-09-20T09:53:29Z</time>
      </trkpt>
      <trkpt lat="46.59661" lon="5.51949">
        <ele>482</ele>
        <time>2011-09-20T09:53:31Z</time>
      </trkpt>
      <trkpt lat="46.59656" lon="5.51962">
        <ele>482</ele>
        <time>2011-09-20T09:53:33Z</time>
      </trkpt>
      <trkpt lat="46.59648" lon="5.51969">
        <ele>482</ele>
        <time>2011-09-20T09:53:35Z</time>
      </trkpt>
      <trkpt lat="46.59637" lon="5.51973">
        <ele>482</ele>
        <time>2011-09-20T09:53:37Z</time>
      </trkpt>
      <trkpt lat="46.59625" lon="5.51974">
        <ele>482</ele>
        <time>2011-09-20T09:53:39Z</time>
      </trkpt>
      <trkpt lat="46.59612" lon="5.51976">
        <ele>482</ele>
        <time>2011-09-20T09:53:41Z</time>
      </trkpt>
      <trkpt lat="46.59598" lon="5.51977">
        <ele>482</ele>
        <time>2011-09-20T09:53:43Z</time>
      </trkpt>
      <trkpt lat="46.59583" lon="5.51978">
        <ele>482</ele>
        <time>2011-09-20T09:53:45Z</time>
      </trkpt>
      <trkpt lat="46.59567" lon="5.51979">
        <ele>482</ele>
        <time>2011-09-20T09:53:47Z</time>
      </trkpt>
      <trkpt lat="46.59551" lon="5.5198">
        <ele>482</ele>
        <time>2011-09-20T09:53:49Z</time>
      </trkpt>
      <trkpt lat="46.59535" lon="5.51981">
        <ele>482</ele>
        <time>2011-09-20T09:53:51Z</time>
      </trkpt>
      <trkpt lat="46.59518" lon="5.51982">
        <ele>482</ele>
        <time>2011-09-20T09:53:53Z</time>
      </trkpt>
      <trkpt lat="46.595" lon="5.51984">
        <ele>482</ele>
        <time>2011-09-20T09:53:55Z</time>
      </trkpt>
      <trkpt lat="46.59482" lon="5.51985">
        <ele>482</ele>
        <time>2011-09-20T09:53:57Z</time>
      </trkpt>
      <trkpt lat="46.59473" lon="5.51986">
        <ele>482</ele>
        <time>2011-09-20T09:53:58Z</time>
      </trkpt>
      <trkpt lat="46.59463" lon="5.51987">
        <ele>482</ele>
        <time>2011-09-20T09:53:59Z</time>
      </trkpt>
      <trkpt lat="46.59453" lon="5.51987">
        <ele>482</ele>
        <time>2011-09-20T09:54:00Z</time>
      </trkpt>
      <trkpt lat="46.59443" lon="5.51989">
        <ele>482</ele>
        <time>2011-09-20T09:54:01Z</time>
      </trkpt>
      <trkpt lat="46.59434" lon="5.5199">
        <ele>482</ele>
        <time>2011-09-20T09:54:02Z</time>
      </trkpt>
      <trkpt lat="46.59424" lon="5.51991">
        <ele>482</ele>
        <time>2011-09-20T09:54:03Z</time>
      </trkpt>
      <trkpt lat="46.59414" lon="5.51991">
        <ele>482</ele>
        <time>2011-09-20T09:54:04Z</time>
      </trkpt>
      <trkpt lat="46.59405" lon="5.51991">
        <ele>482</ele>
        <time>2011-09-20T09:54:05Z</time>
      </trkpt>
      <trkpt lat="46.59388" lon="5.51993">
        <ele>482</ele>
        <time>2011-09-20T09:54:07Z</time>
      </trkpt>
      <trkpt lat="46.59372" lon="5.51994">
        <ele>482</ele>
        <time>2011-09-20T09:54:09Z</time>
      </trkpt>
      <trkpt lat="46.59357" lon="5.51995">
        <ele>482</ele>
        <time>2011-09-20T09:54:11Z</time>
      </trkpt>
      <trkpt lat="46.59342" lon="5.51995">
        <ele>477</ele>
        <time>2011-09-20T09:54:13Z</time>
      </trkpt>
      <trkpt lat="46.59328" lon="5.51994">
        <ele>477</ele>
        <time>2011-09-20T09:54:15Z</time>
      </trkpt>
      <trkpt lat="46.59313" lon="5.51994">
        <ele>477</ele>
        <time>2011-09-20T09:54:17Z</time>
      </trkpt>
      <trkpt lat="46.593" lon="5.51992">
        <ele>477</ele>
        <time>2011-09-20T09:54:19Z</time>
      </trkpt>
      <trkpt lat="46.59286" lon="5.51991">
        <ele>477</ele>
        <time>2011-09-20T09:54:21Z</time>
      </trkpt>
      <trkpt lat="46.59272" lon="5.5199">
        <ele>477</ele>
        <time>2011-09-20T09:54:23Z</time>
      </trkpt>
      <trkpt lat="46.59258" lon="5.51989">
        <ele>477</ele>
        <time>2011-09-20T09:54:25Z</time>
      </trkpt>
      <trkpt lat="46.59244" lon="5.51987">
        <ele>477</ele>
        <time>2011-09-20T09:54:27Z</time>
      </trkpt>
      <trkpt lat="46.59231" lon="5.51984">
        <ele>477</ele>
        <time>2011-09-20T09:54:29Z</time>
      </trkpt>
      <trkpt lat="46.59218" lon="5.51982">
        <ele>477</ele>
        <time>2011-09-20T09:54:31Z</time>
      </trkpt>
      <trkpt lat="46.59204" lon="5.51979">
        <ele>477</ele>
        <time>2011-09-20T09:54:33Z</time>
      </trkpt>
      <trkpt lat="46.59191" lon="5.51976">
        <ele>477</ele>
        <time>2011-09-20T09:54:35Z</time>
      </trkpt>
      <trkpt lat="46.59178" lon="5.51973">
        <ele>477</ele>
        <time>2011-09-20T09:54:37Z</time>
      </trkpt>
      <trkpt lat="46.59166" lon="5.51971">
        <ele>477</ele>
        <time>2011-09-20T09:54:39Z</time>
      </trkpt>
      <trkpt lat="46.59153" lon="5.51968">
        <ele>477</ele>
        <time>2011-09-20T09:54:41Z</time>
      </trkpt>
      <trkpt lat="46.5914" lon="5.51965">
        <ele>477</ele>
        <time>2011-09-20T09:54:43Z</time>
      </trkpt>
      <trkpt lat="46.59126" lon="5.51962">
        <ele>477</ele>
        <time>2011-09-20T09:54:45Z</time>
      </trkpt>
      <trkpt lat="46.59112" lon="5.5196">
        <ele>477</ele>
        <time>2011-09-20T09:54:47Z</time>
      </trkpt>
      <trkpt lat="46.59099" lon="5.51957">
        <ele>477</ele>
        <time>2011-09-20T09:54:49Z</time>
      </trkpt>
      <trkpt lat="46.59086" lon="5.51955">
        <ele>477</ele>
        <time>2011-09-20T09:54:51Z</time>
      </trkpt>
      <trkpt lat="46.59073" lon="5.51952">
        <ele>477</ele>
        <time>2011-09-20T09:54:53Z</time>
      </trkpt>
      <trkpt lat="46.59058" lon="5.51949">
        <ele>477</ele>
        <time>2011-09-20T09:54:55Z</time>
      </trkpt>
      <trkpt lat="46.59045" lon="5.51948">
        <ele>482</ele>
        <time>2011-09-20T09:54:57Z</time>
      </trkpt>
      <trkpt lat="46.59031" lon="5.51947">
        <ele>482</ele>
        <time>2011-09-20T09:54:59Z</time>
      </trkpt>
      <trkpt lat="46.59017" lon="5.51947">
        <ele>482</ele>
        <time>2011-09-20T09:55:01Z</time>
      </trkpt>
      <trkpt lat="46.59004" lon="5.51947">
        <ele>482</ele>
        <time>2011-09-20T09:55:03Z</time>
      </trkpt>
      <trkpt lat="46.5899" lon="5.51947">
        <ele>482</ele>
        <time>2011-09-20T09:55:05Z</time>
      </trkpt>
      <trkpt lat="46.58975" lon="5.51947">
        <ele>482</ele>
        <time>2011-09-20T09:55:07Z</time>
      </trkpt>
      <trkpt lat="46.5896" lon="5.51947">
        <ele>482</ele>
        <time>2011-09-20T09:55:09Z</time>
      </trkpt>
      <trkpt lat="46.58944" lon="5.51945">
        <ele>482</ele>
        <time>2011-09-20T09:55:11Z</time>
      </trkpt>
      <trkpt lat="46.58929" lon="5.51943">
        <ele>482</ele>
        <time>2011-09-20T09:55:13Z</time>
      </trkpt>
      <trkpt lat="46.58915" lon="5.51939">
        <ele>482</ele>
        <time>2011-09-20T09:55:15Z</time>
      </trkpt>
      <trkpt lat="46.589" lon="5.51937">
        <ele>482</ele>
        <time>2011-09-20T09:55:17Z</time>
      </trkpt>
      <trkpt lat="46.58885" lon="5.51933">
        <ele>482</ele>
        <time>2011-09-20T09:55:19Z</time>
      </trkpt>
      <trkpt lat="46.58871" lon="5.5193">
        <ele>482</ele>
        <time>2011-09-20T09:55:21Z</time>
      </trkpt>
      <trkpt lat="46.58857" lon="5.51928">
        <ele>482</ele>
        <time>2011-09-20T09:55:23Z</time>
      </trkpt>
      <trkpt lat="46.58843" lon="5.51925">
        <ele>482</ele>
        <time>2011-09-20T09:55:25Z</time>
      </trkpt>
      <trkpt lat="46.5883" lon="5.51923">
        <ele>482</ele>
        <time>2011-09-20T09:55:27Z</time>
      </trkpt>
      <trkpt lat="46.58816" lon="5.51922">
        <ele>482</ele>
        <time>2011-09-20T09:55:29Z</time>
      </trkpt>
      <trkpt lat="46.58802" lon="5.51921">
        <ele>482</ele>
        <time>2011-09-20T09:55:31Z</time>
      </trkpt>
      <trkpt lat="46.58788" lon="5.51922">
        <ele>482</ele>
        <time>2011-09-20T09:55:33Z</time>
      </trkpt>
      <trkpt lat="46.58773" lon="5.51921">
        <ele>482</ele>
        <time>2011-09-20T09:55:35Z</time>
      </trkpt>
      <trkpt lat="46.58759" lon="5.5192">
        <ele>482</ele>
        <time>2011-09-20T09:55:37Z</time>
      </trkpt>
      <trkpt lat="46.58744" lon="5.51918">
        <ele>482</ele>
        <time>2011-09-20T09:55:39Z</time>
      </trkpt>
      <trkpt lat="46.5873" lon="5.51913">
        <ele>482</ele>
        <time>2011-09-20T09:55:41Z</time>
      </trkpt>
      <trkpt lat="46.58715" lon="5.51908">
        <ele>482</ele>
        <time>2011-09-20T09:55:43Z</time>
      </trkpt>
      <trkpt lat="46.58701" lon="5.51901">
        <ele>482</ele>
        <time>2011-09-20T09:55:45Z</time>
      </trkpt>
      <trkpt lat="46.58687" lon="5.51892">
        <ele>482</ele>
        <time>2011-09-20T09:55:47Z</time>
      </trkpt>
      <trkpt lat="46.58674" lon="5.51882">
        <ele>482</ele>
        <time>2011-09-20T09:55:49Z</time>
      </trkpt>
      <trkpt lat="46.5866" lon="5.51873">
        <ele>482</ele>
        <time>2011-09-20T09:55:51Z</time>
      </trkpt>
      <trkpt lat="46.58646" lon="5.51864">
        <ele>482</ele>
        <time>2011-09-20T09:55:53Z</time>
      </trkpt>
      <trkpt lat="46.58632" lon="5.51855">
        <ele>482</ele>
        <time>2011-09-20T09:55:55Z</time>
      </trkpt>
      <trkpt lat="46.58616" lon="5.51847">
        <ele>482</ele>
        <time>2011-09-20T09:55:57Z</time>
      </trkpt>
      <trkpt lat="46.58601" lon="5.5184">
        <ele>482</ele>
        <time>2011-09-20T09:55:59Z</time>
      </trkpt>
      <trkpt lat="46.58584" lon="5.51833">
        <ele>482</ele>
        <time>2011-09-20T09:56:01Z</time>
      </trkpt>
      <trkpt lat="46.58567" lon="5.51828">
        <ele>482</ele>
        <time>2011-09-20T09:56:03Z</time>
      </trkpt>
      <trkpt lat="46.58558" lon="5.51824">
        <ele>482</ele>
        <time>2011-09-20T09:56:04Z</time>
      </trkpt>
      <trkpt lat="46.58542" lon="5.51818">
        <ele>482</ele>
        <time>2011-09-20T09:56:06Z</time>
      </trkpt>
      <trkpt lat="46.58526" lon="5.51812">
        <ele>482</ele>
        <time>2011-09-20T09:56:08Z</time>
      </trkpt>
      <trkpt lat="46.58509" lon="5.51806">
        <ele>482</ele>
        <time>2011-09-20T09:56:10Z</time>
      </trkpt>
      <trkpt lat="46.585" lon="5.51803">
        <ele>482</ele>
        <time>2011-09-20T09:56:11Z</time>
      </trkpt>
      <trkpt lat="46.58484" lon="5.51797">
        <ele>476</ele>
        <time>2011-09-20T09:56:13Z</time>
      </trkpt>
      <trkpt lat="46.58466" lon="5.51791">
        <ele>476</ele>
        <time>2011-09-20T09:56:15Z</time>
      </trkpt>
      <trkpt lat="46.58449" lon="5.51786">
        <ele>476</ele>
        <time>2011-09-20T09:56:17Z</time>
      </trkpt>
      <trkpt lat="46.5844" lon="5.51783">
        <ele>476</ele>
        <time>2011-09-20T09:56:18Z</time>
      </trkpt>
      <trkpt lat="46.58422" lon="5.51779">
        <ele>476</ele>
        <time>2011-09-20T09:56:20Z</time>
      </trkpt>
      <trkpt lat="46.58412" lon="5.51777">
        <ele>476</ele>
        <time>2011-09-20T09:56:21Z</time>
      </trkpt>
      <trkpt lat="46.58403" lon="5.51774">
        <ele>476</ele>
        <time>2011-09-20T09:56:22Z</time>
      </trkpt>
      <trkpt lat="46.58393" lon="5.51771">
        <ele>476</ele>
        <time>2011-09-20T09:56:23Z</time>
      </trkpt>
      <trkpt lat="46.58384" lon="5.51769">
        <ele>476</ele>
        <time>2011-09-20T09:56:24Z</time>
      </trkpt>
      <trkpt lat="46.58375" lon="5.51765">
        <ele>476</ele>
        <time>2011-09-20T09:56:25Z</time>
      </trkpt>
      <trkpt lat="46.58365" lon="5.51761">
        <ele>476</ele>
        <time>2011-09-20T09:56:26Z</time>
      </trkpt>
      <trkpt lat="46.58355" lon="5.51756">
        <ele>476</ele>
        <time>2011-09-20T09:56:27Z</time>
      </trkpt>
      <trkpt lat="46.58346" lon="5.51752">
        <ele>476</ele>
        <time>2011-09-20T09:56:28Z</time>
      </trkpt>
      <trkpt lat="46.58337" lon="5.51746">
        <ele>476</ele>
        <time>2011-09-20T09:56:29Z</time>
      </trkpt>
      <trkpt lat="46.58327" lon="5.5174">
        <ele>471</ele>
        <time>2011-09-20T09:56:30Z</time>
      </trkpt>
      <trkpt lat="46.58318" lon="5.51734">
        <ele>471</ele>
        <time>2011-09-20T09:56:31Z</time>
      </trkpt>
      <trkpt lat="46.58309" lon="5.51727">
        <ele>471</ele>
        <time>2011-09-20T09:56:32Z</time>
      </trkpt>
      <trkpt lat="46.58301" lon="5.51721">
        <ele>471</ele>
        <time>2011-09-20T09:56:33Z</time>
      </trkpt>
      <trkpt lat="46.58292" lon="5.51715">
        <ele>471</ele>
        <time>2011-09-20T09:56:34Z</time>
      </trkpt>
      <trkpt lat="46.58284" lon="5.51708">
        <ele>471</ele>
        <time>2011-09-20T09:56:35Z</time>
      </trkpt>
      <trkpt lat="46.58276" lon="5.51702">
        <ele>471</ele>
        <time>2011-09-20T09:56:36Z</time>
      </trkpt>
      <trkpt lat="46.58261" lon="5.5169">
        <ele>471</ele>
        <time>2011-09-20T09:56:38Z</time>
      </trkpt>
      <trkpt lat="46.58247" lon="5.51679">
        <ele>471</ele>
        <time>2011-09-20T09:56:40Z</time>
      </trkpt>
      <trkpt lat="46.58231" lon="5.51669">
        <ele>471</ele>
        <time>2011-09-20T09:56:42Z</time>
      </trkpt>
      <trkpt lat="46.58216" lon="5.5166">
        <ele>471</ele>
        <time>2011-09-20T09:56:44Z</time>
      </trkpt>
      <trkpt lat="46.582" lon="5.51653">
        <ele>471</ele>
        <time>2011-09-20T09:56:46Z</time>
      </trkpt>
      <trkpt lat="46.58191" lon="5.51649">
        <ele>471</ele>
        <time>2011-09-20T09:56:47Z</time>
      </trkpt>
      <trkpt lat="46.58174" lon="5.51644">
        <ele>471</ele>
        <time>2011-09-20T09:56:49Z</time>
      </trkpt>
      <trkpt lat="46.58165" lon="5.51642">
        <ele>471</ele>
        <time>2011-09-20T09:56:50Z</time>
      </trkpt>
      <trkpt lat="46.58147" lon="5.51637">
        <ele>471</ele>
        <time>2011-09-20T09:56:52Z</time>
      </trkpt>
      <trkpt lat="46.5813" lon="5.51634">
        <ele>471</ele>
        <time>2011-09-20T09:56:54Z</time>
      </trkpt>
      <trkpt lat="46.58113" lon="5.51629">
        <ele>471</ele>
        <time>2011-09-20T09:56:56Z</time>
      </trkpt>
      <trkpt lat="46.58096" lon="5.51625">
        <ele>466</ele>
        <time>2011-09-20T09:56:58Z</time>
      </trkpt>
      <trkpt lat="46.58087" lon="5.51623">
        <ele>466</ele>
        <time>2011-09-20T09:56:59Z</time>
      </trkpt>
      <trkpt lat="46.58077" lon="5.51621">
        <ele>466</ele>
        <time>2011-09-20T09:57:00Z</time>
      </trkpt>
      <trkpt lat="46.58067" lon="5.51619">
        <ele>466</ele>
        <time>2011-09-20T09:57:01Z</time>
      </trkpt>
      <trkpt lat="46.58058" lon="5.51617">
        <ele>466</ele>
        <time>2011-09-20T09:57:02Z</time>
      </trkpt>
      <trkpt lat="46.58048" lon="5.51615">
        <ele>466</ele>
        <time>2011-09-20T09:57:03Z</time>
      </trkpt>
      <trkpt lat="46.58038" lon="5.51612">
        <ele>466</ele>
        <time>2011-09-20T09:57:04Z</time>
      </trkpt>
      <trkpt lat="46.58028" lon="5.51611">
        <ele>466</ele>
        <time>2011-09-20T09:57:05Z</time>
      </trkpt>
      <trkpt lat="46.58019" lon="5.51608">
        <ele>466</ele>
        <time>2011-09-20T09:57:06Z</time>
      </trkpt>
      <trkpt lat="46.58009" lon="5.51606">
        <ele>466</ele>
        <time>2011-09-20T09:57:07Z</time>
      </trkpt>
      <trkpt lat="46.57999" lon="5.51603">
        <ele>466</ele>
        <time>2011-09-20T09:57:08Z</time>
      </trkpt>
      <trkpt lat="46.57989" lon="5.51601">
        <ele>466</ele>
        <time>2011-09-20T09:57:09Z</time>
      </trkpt>
      <trkpt lat="46.5798" lon="5.51598">
        <ele>466</ele>
        <time>2011-09-20T09:57:10Z</time>
      </trkpt>
      <trkpt lat="46.5797" lon="5.51595">
        <ele>466</ele>
        <time>2011-09-20T09:57:11Z</time>
      </trkpt>
      <trkpt lat="46.5796" lon="5.51592">
        <ele>466</ele>
        <time>2011-09-20T09:57:12Z</time>
      </trkpt>
      <trkpt lat="46.5795" lon="5.51588">
        <ele>466</ele>
        <time>2011-09-20T09:57:13Z</time>
      </trkpt>
      <trkpt lat="46.5794" lon="5.51584">
        <ele>460</ele>
        <time>2011-09-20T09:57:14Z</time>
      </trkpt>
      <trkpt lat="46.5793" lon="5.51581">
        <ele>460</ele>
        <time>2011-09-20T09:57:15Z</time>
      </trkpt>
      <trkpt lat="46.57919" lon="5.51577">
        <ele>460</ele>
        <time>2011-09-20T09:57:16Z</time>
      </trkpt>
      <trkpt lat="46.57909" lon="5.51573">
        <ele>460</ele>
        <time>2011-09-20T09:57:17Z</time>
      </trkpt>
      <trkpt lat="46.57898" lon="5.51569">
        <ele>460</ele>
        <time>2011-09-20T09:57:18Z</time>
      </trkpt>
      <trkpt lat="46.57887" lon="5.51565">
        <ele>460</ele>
        <time>2011-09-20T09:57:19Z</time>
      </trkpt>
      <trkpt lat="46.57877" lon="5.5156">
        <ele>460</ele>
        <time>2011-09-20T09:57:20Z</time>
      </trkpt>
      <trkpt lat="46.57865" lon="5.51557">
        <ele>460</ele>
        <time>2011-09-20T09:57:21Z</time>
      </trkpt>
      <trkpt lat="46.57854" lon="5.51552">
        <ele>455</ele>
        <time>2011-09-20T09:57:22Z</time>
      </trkpt>
      <trkpt lat="46.57844" lon="5.51548">
        <ele>455</ele>
        <time>2011-09-20T09:57:23Z</time>
      </trkpt>
      <trkpt lat="46.57833" lon="5.51544">
        <ele>455</ele>
        <time>2011-09-20T09:57:24Z</time>
      </trkpt>
      <trkpt lat="46.57822" lon="5.5154">
        <ele>455</ele>
        <time>2011-09-20T09:57:25Z</time>
      </trkpt>
      <trkpt lat="46.57811" lon="5.51535">
        <ele>455</ele>
        <time>2011-09-20T09:57:26Z</time>
      </trkpt>
      <trkpt lat="46.57801" lon="5.51531">
        <ele>455</ele>
        <time>2011-09-20T09:57:27Z</time>
      </trkpt>
      <trkpt lat="46.5779" lon="5.51526">
        <ele>455</ele>
        <time>2011-09-20T09:57:28Z</time>
      </trkpt>
      <trkpt lat="46.57779" lon="5.51523">
        <ele>455</ele>
        <time>2011-09-20T09:57:29Z</time>
      </trkpt>
      <trkpt lat="46.57768" lon="5.51518">
        <ele>455</ele>
        <time>2011-09-20T09:57:30Z</time>
      </trkpt>
      <trkpt lat="46.57757" lon="5.51514">
        <ele>455</ele>
        <time>2011-09-20T09:57:31Z</time>
      </trkpt>
      <trkpt lat="46.57746" lon="5.51511">
        <ele>450</ele>
        <time>2011-09-20T09:57:32Z</time>
      </trkpt>
      <trkpt lat="46.57735" lon="5.51506">
        <ele>450</ele>
        <time>2011-09-20T09:57:33Z</time>
      </trkpt>
      <trkpt lat="46.57724" lon="5.51502">
        <ele>450</ele>
        <time>2011-09-20T09:57:34Z</time>
      </trkpt>
      <trkpt lat="46.57713" lon="5.51498">
        <ele>450</ele>
        <time>2011-09-20T09:57:35Z</time>
      </trkpt>
      <trkpt lat="46.57702" lon="5.51494">
        <ele>450</ele>
        <time>2011-09-20T09:57:36Z</time>
      </trkpt>
      <trkpt lat="46.57692" lon="5.51489">
        <ele>450</ele>
        <time>2011-09-20T09:57:37Z</time>
      </trkpt>
      <trkpt lat="46.57681" lon="5.51483">
        <ele>450</ele>
        <time>2011-09-20T09:57:38Z</time>
      </trkpt>
      <trkpt lat="46.57671" lon="5.51477">
        <ele>450</ele>
        <time>2011-09-20T09:57:39Z</time>
      </trkpt>
      <trkpt lat="46.57662" lon="5.51469">
        <ele>450</ele>
        <time>2011-09-20T09:57:40Z</time>
      </trkpt>
      <trkpt lat="46.57654" lon="5.51461">
        <ele>450</ele>
        <time>2011-09-20T09:57:41Z</time>
      </trkpt>
      <trkpt lat="46.57645" lon="5.51452">
        <ele>450</ele>
        <time>2011-09-20T09:57:42Z</time>
      </trkpt>
      <trkpt lat="46.57637" lon="5.51443">
        <ele>450</ele>
        <time>2011-09-20T09:57:43Z</time>
      </trkpt>
      <trkpt lat="46.57631" lon="5.51434">
        <ele>450</ele>
        <time>2011-09-20T09:57:44Z</time>
      </trkpt>
      <trkpt lat="46.57624" lon="5.51425">
        <ele>450</ele>
        <time>2011-09-20T09:57:45Z</time>
      </trkpt>
      <trkpt lat="46.57612" lon="5.51407">
        <ele>450</ele>
        <time>2011-09-20T09:57:47Z</time>
      </trkpt>
      <trkpt lat="46.57601" lon="5.5139">
        <ele>450</ele>
        <time>2011-09-20T09:57:49Z</time>
      </trkpt>
      <trkpt lat="46.57591" lon="5.51373">
        <ele>450</ele>
        <time>2011-09-20T09:57:51Z</time>
      </trkpt>
      <trkpt lat="46.57582" lon="5.51359">
        <ele>450</ele>
        <time>2011-09-20T09:57:53Z</time>
      </trkpt>
      <trkpt lat="46.57574" lon="5.51346">
        <ele>450</ele>
        <time>2011-09-20T09:57:55Z</time>
      </trkpt>
      <trkpt lat="46.57566" lon="5.51333">
        <ele>450</ele>
        <time>2011-09-20T09:57:57Z</time>
      </trkpt>
      <trkpt lat="46.57558" lon="5.5132">
        <ele>450</ele>
        <time>2011-09-20T09:57:59Z</time>
      </trkpt>
      <trkpt lat="46.57551" lon="5.51309">
        <ele>450</ele>
        <time>2011-09-20T09:58:01Z</time>
      </trkpt>
      <trkpt lat="46.57543" lon="5.51297">
        <ele>450</ele>
        <time>2011-09-20T09:58:03Z</time>
      </trkpt>
      <trkpt lat="46.57535" lon="5.51285">
        <ele>450</ele>
        <time>2011-09-20T09:58:05Z</time>
      </trkpt>
      <trkpt lat="46.57526" lon="5.51275">
        <ele>450</ele>
        <time>2011-09-20T09:58:07Z</time>
      </trkpt>
      <trkpt lat="46.57517" lon="5.51266">
        <ele>450</ele>
        <time>2011-09-20T09:58:09Z</time>
      </trkpt>
      <trkpt lat="46.57507" lon="5.51258">
        <ele>455</ele>
        <time>2011-09-20T09:58:11Z</time>
      </trkpt>
      <trkpt lat="46.57497" lon="5.51251">
        <ele>455</ele>
        <time>2011-09-20T09:58:13Z</time>
      </trkpt>
      <trkpt lat="46.57486" lon="5.51244">
        <ele>455</ele>
        <time>2011-09-20T09:58:15Z</time>
      </trkpt>
      <trkpt lat="46.57476" lon="5.51237">
        <ele>455</ele>
        <time>2011-09-20T09:58:17Z</time>
      </trkpt>
      <trkpt lat="46.57466" lon="5.51231">
        <ele>455</ele>
        <time>2011-09-20T09:58:19Z</time>
      </trkpt>
      <trkpt lat="46.57456" lon="5.51225">
        <ele>455</ele>
        <time>2011-09-20T09:58:21Z</time>
      </trkpt>
      <trkpt lat="46.57446" lon="5.5122">
        <ele>460</ele>
        <time>2011-09-20T09:58:23Z</time>
      </trkpt>
      <trkpt lat="46.57436" lon="5.51214">
        <ele>460</ele>
        <time>2011-09-20T09:58:25Z</time>
      </trkpt>
      <trkpt lat="46.57426" lon="5.51208">
        <ele>460</ele>
        <time>2011-09-20T09:58:27Z</time>
      </trkpt>
      <trkpt lat="46.57416" lon="5.51203">
        <ele>460</ele>
        <time>2011-09-20T09:58:29Z</time>
      </trkpt>
      <trkpt lat="46.57406" lon="5.51196">
        <ele>460</ele>
        <time>2011-09-20T09:58:31Z</time>
      </trkpt>
      <trkpt lat="46.57396" lon="5.51191">
        <ele>460</ele>
        <time>2011-09-20T09:58:33Z</time>
      </trkpt>
      <trkpt lat="46.57387" lon="5.51186">
        <ele>460</ele>
        <time>2011-09-20T09:58:35Z</time>
      </trkpt>
      <trkpt lat="46.57377" lon="5.51179">
        <ele>460</ele>
        <time>2011-09-20T09:58:37Z</time>
      </trkpt>
      <trkpt lat="46.57368" lon="5.51175">
        <ele>466</ele>
        <time>2011-09-20T09:58:39Z</time>
      </trkpt>
      <trkpt lat="46.57359" lon="5.51169">
        <ele>466</ele>
        <time>2011-09-20T09:58:41Z</time>
      </trkpt>
      <trkpt lat="46.57351" lon="5.51164">
        <ele>466</ele>
        <time>2011-09-20T09:58:43Z</time>
      </trkpt>
      <trkpt lat="46.57342" lon="5.51159">
        <ele>466</ele>
        <time>2011-09-20T09:58:45Z</time>
      </trkpt>
      <trkpt lat="46.57333" lon="5.51153">
        <ele>466</ele>
        <time>2011-09-20T09:58:47Z</time>
      </trkpt>
      <trkpt lat="46.57325" lon="5.51148">
        <ele>466</ele>
        <time>2011-09-20T09:58:49Z</time>
      </trkpt>
      <trkpt lat="46.57316" lon="5.51144">
        <ele>466</ele>
        <time>2011-09-20T09:58:51Z</time>
      </trkpt>
      <trkpt lat="46.57302" lon="5.51141">
        <ele>466</ele>
        <time>2011-09-20T09:58:54Z</time>
      </trkpt>
      <trkpt lat="46.57289" lon="5.51136">
        <ele>466</ele>
        <time>2011-09-20T09:58:57Z</time>
      </trkpt>
      <trkpt lat="46.57279" lon="5.51134">
        <ele>466</ele>
        <time>2011-09-20T09:58:59Z</time>
      </trkpt>
      <trkpt lat="46.5727" lon="5.51133">
        <ele>466</ele>
        <time>2011-09-20T09:59:01Z</time>
      </trkpt>
      <trkpt lat="46.57261" lon="5.51129">
        <ele>466</ele>
        <time>2011-09-20T09:59:03Z</time>
      </trkpt>
      <trkpt lat="46.57252" lon="5.51125">
        <ele>466</ele>
        <time>2011-09-20T09:59:05Z</time>
      </trkpt>
      <trkpt lat="46.57243" lon="5.51119">
        <ele>466</ele>
        <time>2011-09-20T09:59:07Z</time>
      </trkpt>
      <trkpt lat="46.57232" lon="5.51109">
        <ele>471</ele>
        <time>2011-09-20T09:59:10Z</time>
      </trkpt>
      <trkpt lat="46.57221" lon="5.51098">
        <ele>471</ele>
        <time>2011-09-20T09:59:13Z</time>
      </trkpt>
      <trkpt lat="46.5721" lon="5.51085">
        <ele>471</ele>
        <time>2011-09-20T09:59:16Z</time>
      </trkpt>
      <trkpt lat="46.57204" lon="5.51075">
        <ele>471</ele>
        <time>2011-09-20T09:59:18Z</time>
      </trkpt>
      <trkpt lat="46.57194" lon="5.51062">
        <ele>471</ele>
        <time>2011-09-20T09:59:21Z</time>
      </trkpt>
      <trkpt lat="46.57188" lon="5.51053">
        <ele>471</ele>
        <time>2011-09-20T09:59:23Z</time>
      </trkpt>
      <trkpt lat="46.57177" lon="5.51041">
        <ele>471</ele>
        <time>2011-09-20T09:59:26Z</time>
      </trkpt>
      <trkpt lat="46.57166" lon="5.5103">
        <ele>471</ele>
        <time>2011-09-20T09:59:29Z</time>
      </trkpt>
      <trkpt lat="46.57158" lon="5.51024">
        <ele>471</ele>
        <time>2011-09-20T09:59:31Z</time>
      </trkpt>
      <trkpt lat="46.57146" lon="5.51017">
        <ele>476</ele>
        <time>2011-09-20T09:59:34Z</time>
      </trkpt>
      <trkpt lat="46.57137" lon="5.51011">
        <ele>476</ele>
        <time>2011-09-20T09:59:36Z</time>
      </trkpt>
      <trkpt lat="46.57129" lon="5.51007">
        <ele>476</ele>
        <time>2011-09-20T09:59:38Z</time>
      </trkpt>
      <trkpt lat="46.5712" lon="5.51002">
        <ele>476</ele>
        <time>2011-09-20T09:59:40Z</time>
      </trkpt>
      <trkpt lat="46.57111" lon="5.50998">
        <ele>476</ele>
        <time>2011-09-20T09:59:42Z</time>
      </trkpt>
      <trkpt lat="46.57102" lon="5.50994">
        <ele>476</ele>
        <time>2011-09-20T09:59:44Z</time>
      </trkpt>
      <trkpt lat="46.57092" lon="5.50992">
        <ele>476</ele>
        <time>2011-09-20T09:59:46Z</time>
      </trkpt>
      <trkpt lat="46.57083" lon="5.50988">
        <ele>476</ele>
        <time>2011-09-20T09:59:48Z</time>
      </trkpt>
      <trkpt lat="46.57074" lon="5.50984">
        <ele>476</ele>
        <time>2011-09-20T09:59:50Z</time>
      </trkpt>
      <trkpt lat="46.57064" lon="5.50978">
        <ele>476</ele>
        <time>2011-09-20T09:59:52Z</time>
      </trkpt>
      <trkpt lat="46.57054" lon="5.50972">
        <ele>476</ele>
        <time>2011-09-20T09:59:54Z</time>
      </trkpt>
      <trkpt lat="46.57046" lon="5.50965">
        <ele>476</ele>
        <time>2011-09-20T09:59:56Z</time>
      </trkpt>
      <trkpt lat="46.57037" lon="5.50957">
        <ele>481</ele>
        <time>2011-09-20T09:59:58Z</time>
      </trkpt>
      <trkpt lat="46.57028" lon="5.5095">
        <ele>481</ele>
        <time>2011-09-20T10:00:00Z</time>
      </trkpt>
      <trkpt lat="46.57021" lon="5.50941">
        <ele>481</ele>
        <time>2011-09-20T10:00:02Z</time>
      </trkpt>
      <trkpt lat="46.57014" lon="5.50932">
        <ele>481</ele>
        <time>2011-09-20T10:00:04Z</time>
      </trkpt>
      <trkpt lat="46.57007" lon="5.50922">
        <ele>481</ele>
        <time>2011-09-20T10:00:06Z</time>
      </trkpt>
      <trkpt lat="46.57001" lon="5.50912">
        <ele>481</ele>
        <time>2011-09-20T10:00:08Z</time>
      </trkpt>
      <trkpt lat="46.56995" lon="5.50901">
        <ele>481</ele>
        <time>2011-09-20T10:00:10Z</time>
      </trkpt>
      <trkpt lat="46.56989" lon="5.5089">
        <ele>481</ele>
        <time>2011-09-20T10:00:12Z</time>
      </trkpt>
      <trkpt lat="46.56982" lon="5.50874">
        <ele>481</ele>
        <time>2011-09-20T10:00:15Z</time>
      </trkpt>
      <trkpt lat="46.56978" lon="5.50862">
        <ele>481</ele>
        <time>2011-09-20T10:00:17Z</time>
      </trkpt>
      <trkpt lat="46.56974" lon="5.5085">
        <ele>481</ele>
        <time>2011-09-20T10:00:19Z</time>
      </trkpt>
      <trkpt lat="46.56971" lon="5.50837">
        <ele>487</ele>
        <time>2011-09-20T10:00:21Z</time>
      </trkpt>
      <trkpt lat="46.56968" lon="5.50825">
        <ele>487</ele>
        <time>2011-09-20T10:00:23Z</time>
      </trkpt>
      <trkpt lat="46.56965" lon="5.50811">
        <ele>487</ele>
        <time>2011-09-20T10:00:25Z</time>
      </trkpt>
      <trkpt lat="46.56962" lon="5.50798">
        <ele>487</ele>
        <time>2011-09-20T10:00:27Z</time>
      </trkpt>
      <trkpt lat="46.5696" lon="5.50785">
        <ele>487</ele>
        <time>2011-09-20T10:00:29Z</time>
      </trkpt>
      <trkpt lat="46.56957" lon="5.50772">
        <ele>487</ele>
        <time>2011-09-20T10:00:31Z</time>
      </trkpt>
      <trkpt lat="46.56954" lon="5.50759">
        <ele>487</ele>
        <time>2011-09-20T10:00:33Z</time>
      </trkpt>
      <trkpt lat="46.56952" lon="5.50746">
        <ele>487</ele>
        <time>2011-09-20T10:00:35Z</time>
      </trkpt>
      <trkpt lat="46.56949" lon="5.50734">
        <ele>487</ele>
        <time>2011-09-20T10:00:37Z</time>
      </trkpt>
      <trkpt lat="46.56945" lon="5.50721">
        <ele>487</ele>
        <time>2011-09-20T10:00:39Z</time>
      </trkpt>
      <trkpt lat="46.56941" lon="5.5071">
        <ele>487</ele>
        <time>2011-09-20T10:00:41Z</time>
      </trkpt>
      <trkpt lat="46.56937" lon="5.50697">
        <ele>487</ele>
        <time>2011-09-20T10:00:43Z</time>
      </trkpt>
      <trkpt lat="46.56931" lon="5.5068">
        <ele>487</ele>
        <time>2011-09-20T10:00:46Z</time>
      </trkpt>
      <trkpt lat="46.56923" lon="5.50665">
        <ele>487</ele>
        <time>2011-09-20T10:00:49Z</time>
      </trkpt>
      <trkpt lat="46.56916" lon="5.50655">
        <ele>487</ele>
        <time>2011-09-20T10:00:51Z</time>
      </trkpt>
      <trkpt lat="46.56907" lon="5.50641">
        <ele>487</ele>
        <time>2011-09-20T10:00:54Z</time>
      </trkpt>
      <trkpt lat="46.569" lon="5.50632">
        <ele>492</ele>
        <time>2011-09-20T10:00:56Z</time>
      </trkpt>
      <trkpt lat="46.56892" lon="5.50623">
        <ele>492</ele>
        <time>2011-09-20T10:00:58Z</time>
      </trkpt>
      <trkpt lat="46.56883" lon="5.50615">
        <ele>492</ele>
        <time>2011-09-20T10:01:00Z</time>
      </trkpt>
      <trkpt lat="46.56875" lon="5.50608">
        <ele>492</ele>
        <time>2011-09-20T10:01:02Z</time>
      </trkpt>
      <trkpt lat="46.56866" lon="5.50602">
        <ele>492</ele>
        <time>2011-09-20T10:01:04Z</time>
      </trkpt>
      <trkpt lat="46.56855" lon="5.50596">
        <ele>492</ele>
        <time>2011-09-20T10:01:06Z</time>
      </trkpt>
      <trkpt lat="46.56845" lon="5.5059">
        <ele>492</ele>
        <time>2011-09-20T10:01:08Z</time>
      </trkpt>
      <trkpt lat="46.56835" lon="5.50585">
        <ele>492</ele>
        <time>2011-09-20T10:01:10Z</time>
      </trkpt>
      <trkpt lat="46.56823" lon="5.5058">
        <ele>492</ele>
        <time>2011-09-20T10:01:12Z</time>
      </trkpt>
      <trkpt lat="46.56812" lon="5.50576">
        <ele>492</ele>
        <time>2011-09-20T10:01:14Z</time>
      </trkpt>
      <trkpt lat="46.568" lon="5.50571">
        <ele>492</ele>
        <time>2011-09-20T10:01:16Z</time>
      </trkpt>
      <trkpt lat="46.56788" lon="5.50566">
        <ele>492</ele>
        <time>2011-09-20T10:01:18Z</time>
      </trkpt>
      <trkpt lat="46.56776" lon="5.5056">
        <ele>492</ele>
        <time>2011-09-20T10:01:20Z</time>
      </trkpt>
      <trkpt lat="46.56763" lon="5.50555">
        <ele>492</ele>
        <time>2011-09-20T10:01:22Z</time>
      </trkpt>
      <trkpt lat="46.5675" lon="5.5055">
        <ele>492</ele>
        <time>2011-09-20T10:01:24Z</time>
      </trkpt>
      <trkpt lat="46.56737" lon="5.50544">
        <ele>492</ele>
        <time>2011-09-20T10:01:26Z</time>
      </trkpt>
      <trkpt lat="46.56723" lon="5.50538">
        <ele>492</ele>
        <time>2011-09-20T10:01:28Z</time>
      </trkpt>
      <trkpt lat="46.56709" lon="5.50533">
        <ele>492</ele>
        <time>2011-09-20T10:01:30Z</time>
      </trkpt>
      <trkpt lat="46.56695" lon="5.50526">
        <ele>492</ele>
        <time>2011-09-20T10:01:32Z</time>
      </trkpt>
      <trkpt lat="46.5668" lon="5.5052">
        <ele>492</ele>
        <time>2011-09-20T10:01:34Z</time>
      </trkpt>
      <trkpt lat="46.56666" lon="5.50515">
        <ele>492</ele>
        <time>2011-09-20T10:01:36Z</time>
      </trkpt>
      <trkpt lat="46.56651" lon="5.50508">
        <ele>492</ele>
        <time>2011-09-20T10:01:38Z</time>
      </trkpt>
      <trkpt lat="46.56636" lon="5.50502">
        <ele>492</ele>
        <time>2011-09-20T10:01:40Z</time>
      </trkpt>
      <trkpt lat="46.56621" lon="5.50497">
        <ele>492</ele>
        <time>2011-09-20T10:01:42Z</time>
      </trkpt>
      <trkpt lat="46.56607" lon="5.5049">
        <ele>492</ele>
        <time>2011-09-20T10:01:44Z</time>
      </trkpt>
      <trkpt lat="46.56592" lon="5.50485">
        <ele>492</ele>
        <time>2011-09-20T10:01:46Z</time>
      </trkpt>
      <trkpt lat="46.56578" lon="5.50479">
        <ele>492</ele>
        <time>2011-09-20T10:01:48Z</time>
      </trkpt>
      <trkpt lat="46.56564" lon="5.50473">
        <ele>492</ele>
        <time>2011-09-20T10:01:50Z</time>
      </trkpt>
      <trkpt lat="46.5655" lon="5.50468">
        <ele>492</ele>
        <time>2011-09-20T10:01:52Z</time>
      </trkpt>
      <trkpt lat="46.56536" lon="5.50463">
        <ele>492</ele>
        <time>2011-09-20T10:01:54Z</time>
      </trkpt>
      <trkpt lat="46.56523" lon="5.50457">
        <ele>492</ele>
        <time>2011-09-20T10:01:56Z</time>
      </trkpt>
      <trkpt lat="46.56509" lon="5.5045">
        <ele>492</ele>
        <time>2011-09-20T10:01:58Z</time>
      </trkpt>
      <trkpt lat="46.56496" lon="5.50444">
        <ele>492</ele>
        <time>2011-09-20T10:02:00Z</time>
      </trkpt>
      <trkpt lat="46.56483" lon="5.50436">
        <ele>492</ele>
        <time>2011-09-20T10:02:02Z</time>
      </trkpt>
      <trkpt lat="46.5647" lon="5.50427">
        <ele>492</ele>
        <time>2011-09-20T10:02:04Z</time>
      </trkpt>
      <trkpt lat="46.56456" lon="5.50419">
        <ele>492</ele>
        <time>2011-09-20T10:02:06Z</time>
      </trkpt>
      <trkpt lat="46.56442" lon="5.5041">
        <ele>492</ele>
        <time>2011-09-20T10:02:08Z</time>
      </trkpt>
      <trkpt lat="46.56429" lon="5.504">
        <ele>492</ele>
        <time>2011-09-20T10:02:10Z</time>
      </trkpt>
      <trkpt lat="46.56416" lon="5.50389">
        <ele>492</ele>
        <time>2011-09-20T10:02:12Z</time>
      </trkpt>
      <trkpt lat="46.56403" lon="5.50378">
        <ele>492</ele>
        <time>2011-09-20T10:02:14Z</time>
      </trkpt>
      <trkpt lat="46.5639" lon="5.50365">
        <ele>492</ele>
        <time>2011-09-20T10:02:16Z</time>
      </trkpt>
      <trkpt lat="46.56376" lon="5.50354">
        <ele>492</ele>
        <time>2011-09-20T10:02:18Z</time>
      </trkpt>
      <trkpt lat="46.56362" lon="5.50341">
        <ele>492</ele>
        <time>2011-09-20T10:02:20Z</time>
      </trkpt>
      <trkpt lat="46.56348" lon="5.50329">
        <ele>492</ele>
        <time>2011-09-20T10:02:22Z</time>
      </trkpt>
      <trkpt lat="46.56334" lon="5.50315">
        <ele>492</ele>
        <time>2011-09-20T10:02:24Z</time>
      </trkpt>
      <trkpt lat="46.56319" lon="5.50302">
        <ele>492</ele>
        <time>2011-09-20T10:02:26Z</time>
      </trkpt>
      <trkpt lat="46.56304" lon="5.50288">
        <ele>492</ele>
        <time>2011-09-20T10:02:28Z</time>
      </trkpt>
      <trkpt lat="46.56288" lon="5.50275">
        <ele>487</ele>
        <time>2011-09-20T10:02:30Z</time>
      </trkpt>
      <trkpt lat="46.5628" lon="5.50268">
        <ele>487</ele>
        <time>2011-09-20T10:02:31Z</time>
      </trkpt>
      <trkpt lat="46.56272" lon="5.5026">
        <ele>487</ele>
        <time>2011-09-20T10:02:32Z</time>
      </trkpt>
      <trkpt lat="46.56264" lon="5.50253">
        <ele>487</ele>
        <time>2011-09-20T10:02:33Z</time>
      </trkpt>
      <trkpt lat="46.56256" lon="5.50246">
        <ele>487</ele>
        <time>2011-09-20T10:02:34Z</time>
      </trkpt>
      <trkpt lat="46.56248" lon="5.50239">
        <ele>487</ele>
        <time>2011-09-20T10:02:35Z</time>
      </trkpt>
      <trkpt lat="46.56239" lon="5.50232">
        <ele>487</ele>
        <time>2011-09-20T10:02:36Z</time>
      </trkpt>
      <trkpt lat="46.56231" lon="5.50224">
        <ele>487</ele>
        <time>2011-09-20T10:02:37Z</time>
      </trkpt>
      <trkpt lat="46.56223" lon="5.50217">
        <ele>487</ele>
        <time>2011-09-20T10:02:38Z</time>
      </trkpt>
      <trkpt lat="46.56215" lon="5.50209">
        <ele>487</ele>
        <time>2011-09-20T10:02:39Z</time>
      </trkpt>
      <trkpt lat="46.56206" lon="5.50203">
        <ele>487</ele>
        <time>2011-09-20T10:02:40Z</time>
      </trkpt>
      <trkpt lat="46.56198" lon="5.50196">
        <ele>487</ele>
        <time>2011-09-20T10:02:41Z</time>
      </trkpt>
      <trkpt lat="46.5619" lon="5.50189">
        <ele>487</ele>
        <time>2011-09-20T10:02:42Z</time>
      </trkpt>
      <trkpt lat="46.56181" lon="5.50182">
        <ele>487</ele>
        <time>2011-09-20T10:02:43Z</time>
      </trkpt>
      <trkpt lat="46.56173" lon="5.50176">
        <ele>487</ele>
        <time>2011-09-20T10:02:44Z</time>
      </trkpt>
      <trkpt lat="46.56165" lon="5.5017">
        <ele>482</ele>
        <time>2011-09-20T10:02:45Z</time>
      </trkpt>
      <trkpt lat="46.56156" lon="5.50164">
        <ele>482</ele>
        <time>2011-09-20T10:02:46Z</time>
      </trkpt>
      <trkpt lat="46.56147" lon="5.50159">
        <ele>482</ele>
        <time>2011-09-20T10:02:47Z</time>
      </trkpt>
      <trkpt lat="46.56139" lon="5.50153">
        <ele>482</ele>
        <time>2011-09-20T10:02:48Z</time>
      </trkpt>
      <trkpt lat="46.56129" lon="5.50149">
        <ele>482</ele>
        <time>2011-09-20T10:02:49Z</time>
      </trkpt>
      <trkpt lat="46.56121" lon="5.50144">
        <ele>482</ele>
        <time>2011-09-20T10:02:50Z</time>
      </trkpt>
      <trkpt lat="46.56112" lon="5.50138">
        <ele>482</ele>
        <time>2011-09-20T10:02:51Z</time>
      </trkpt>
      <trkpt lat="46.56103" lon="5.50133">
        <ele>482</ele>
        <time>2011-09-20T10:02:52Z</time>
      </trkpt>
      <trkpt lat="46.56095" lon="5.50127">
        <ele>482</ele>
        <time>2011-09-20T10:02:53Z</time>
      </trkpt>
      <trkpt lat="46.56086" lon="5.50122">
        <ele>482</ele>
        <time>2011-09-20T10:02:54Z</time>
      </trkpt>
      <trkpt lat="46.56077" lon="5.50118">
        <ele>482</ele>
        <time>2011-09-20T10:02:55Z</time>
      </trkpt>
      <trkpt lat="46.56069" lon="5.50112">
        <ele>482</ele>
        <time>2011-09-20T10:02:56Z</time>
      </trkpt>
      <trkpt lat="46.5606" lon="5.50108">
        <ele>482</ele>
        <time>2011-09-20T10:02:57Z</time>
      </trkpt>
      <trkpt lat="46.56043" lon="5.50099">
        <ele>482</ele>
        <time>2011-09-20T10:02:59Z</time>
      </trkpt>
      <trkpt lat="46.56027" lon="5.5009">
        <ele>482</ele>
        <time>2011-09-20T10:03:01Z</time>
      </trkpt>
      <trkpt lat="46.5601" lon="5.50082">
        <ele>482</ele>
        <time>2011-09-20T10:03:03Z</time>
      </trkpt>
      <trkpt lat="46.56002" lon="5.50078">
        <ele>482</ele>
        <time>2011-09-20T10:03:04Z</time>
      </trkpt>
      <trkpt lat="46.55986" lon="5.50071">
        <ele>482</ele>
        <time>2011-09-20T10:03:06Z</time>
      </trkpt>
      <trkpt lat="46.55977" lon="5.50067">
        <ele>482</ele>
        <time>2011-09-20T10:03:07Z</time>
      </trkpt>
      <trkpt lat="46.55968" lon="5.50064">
        <ele>482</ele>
        <time>2011-09-20T10:03:08Z</time>
      </trkpt>
      <trkpt lat="46.55952" lon="5.50057">
        <ele>482</ele>
        <time>2011-09-20T10:03:10Z</time>
      </trkpt>
      <trkpt lat="46.55935" lon="5.50052">
        <ele>482</ele>
        <time>2011-09-20T10:03:12Z</time>
      </trkpt>
      <trkpt lat="46.55926" lon="5.50048">
        <ele>482</ele>
        <time>2011-09-20T10:03:13Z</time>
      </trkpt>
      <trkpt lat="46.5591" lon="5.50039">
        <ele>482</ele>
        <time>2011-09-20T10:03:15Z</time>
      </trkpt>
      <trkpt lat="46.55902" lon="5.50033">
        <ele>482</ele>
        <time>2011-09-20T10:03:16Z</time>
      </trkpt>
      <trkpt lat="46.55887" lon="5.5002">
        <ele>482</ele>
        <time>2011-09-20T10:03:18Z</time>
      </trkpt>
      <trkpt lat="46.55873" lon="5.50004">
        <ele>482</ele>
        <time>2011-09-20T10:03:20Z</time>
      </trkpt>
      <trkpt lat="46.55859" lon="5.4999">
        <ele>482</ele>
        <time>2011-09-20T10:03:22Z</time>
      </trkpt>
      <trkpt lat="46.55846" lon="5.49974">
        <ele>482</ele>
        <time>2011-09-20T10:03:24Z</time>
      </trkpt>
      <trkpt lat="46.55832" lon="5.49959">
        <ele>482</ele>
        <time>2011-09-20T10:03:26Z</time>
      </trkpt>
      <trkpt lat="46.55825" lon="5.4995">
        <ele>482</ele>
        <time>2011-09-20T10:03:27Z</time>
      </trkpt>
      <trkpt lat="46.55811" lon="5.49935">
        <ele>482</ele>
        <time>2011-09-20T10:03:29Z</time>
      </trkpt>
      <trkpt lat="46.55797" lon="5.4992">
        <ele>482</ele>
        <time>2011-09-20T10:03:31Z</time>
      </trkpt>
      <trkpt lat="46.55783" lon="5.49905">
        <ele>482</ele>
        <time>2011-09-20T10:03:33Z</time>
      </trkpt>
      <trkpt lat="46.55769" lon="5.49888">
        <ele>482</ele>
        <time>2011-09-20T10:03:35Z</time>
      </trkpt>
      <trkpt lat="46.55757" lon="5.49872">
        <ele>482</ele>
        <time>2011-09-20T10:03:37Z</time>
      </trkpt>
      <trkpt lat="46.55745" lon="5.49853">
        <ele>482</ele>
        <time>2011-09-20T10:03:39Z</time>
      </trkpt>
      <trkpt lat="46.55734" lon="5.49835">
        <ele>482</ele>
        <time>2011-09-20T10:03:41Z</time>
      </trkpt>
      <trkpt lat="46.55723" lon="5.49818">
        <ele>482</ele>
        <time>2011-09-20T10:03:43Z</time>
      </trkpt>
      <trkpt lat="46.55712" lon="5.498">
        <ele>482</ele>
        <time>2011-09-20T10:03:45Z</time>
      </trkpt>
      <trkpt lat="46.55703" lon="5.49782">
        <ele>482</ele>
        <time>2011-09-20T10:03:47Z</time>
      </trkpt>
      <trkpt lat="46.55692" lon="5.49765">
        <ele>482</ele>
        <time>2011-09-20T10:03:49Z</time>
      </trkpt>
      <trkpt lat="46.55682" lon="5.49747">
        <ele>482</ele>
        <time>2011-09-20T10:03:51Z</time>
      </trkpt>
      <trkpt lat="46.55672" lon="5.4973">
        <ele>482</ele>
        <time>2011-09-20T10:03:53Z</time>
      </trkpt>
      <trkpt lat="46.55662" lon="5.49714">
        <ele>482</ele>
        <time>2011-09-20T10:03:55Z</time>
      </trkpt>
      <trkpt lat="46.55651" lon="5.49699">
        <ele>482</ele>
        <time>2011-09-20T10:03:57Z</time>
      </trkpt>
      <trkpt lat="46.55641" lon="5.49684">
        <ele>482</ele>
        <time>2011-09-20T10:03:59Z</time>
      </trkpt>
      <trkpt lat="46.5563" lon="5.49667">
        <ele>482</ele>
        <time>2011-09-20T10:04:01Z</time>
      </trkpt>
      <trkpt lat="46.55619" lon="5.49653">
        <ele>482</ele>
        <time>2011-09-20T10:04:03Z</time>
      </trkpt>
      <trkpt lat="46.55608" lon="5.49638">
        <ele>482</ele>
        <time>2011-09-20T10:04:05Z</time>
      </trkpt>
      <trkpt lat="46.55598" lon="5.49623">
        <ele>482</ele>
        <time>2011-09-20T10:04:07Z</time>
      </trkpt>
      <trkpt lat="46.55587" lon="5.49607">
        <ele>482</ele>
        <time>2011-09-20T10:04:09Z</time>
      </trkpt>
      <trkpt lat="46.55576" lon="5.49593">
        <ele>482</ele>
        <time>2011-09-20T10:04:11Z</time>
      </trkpt>
      <trkpt lat="46.55565" lon="5.49579">
        <ele>482</ele>
        <time>2011-09-20T10:04:13Z</time>
      </trkpt>
      <trkpt lat="46.55554" lon="5.49565">
        <ele>482</ele>
        <time>2011-09-20T10:04:15Z</time>
      </trkpt>
      <trkpt lat="46.55543" lon="5.49551">
        <ele>482</ele>
        <time>2011-09-20T10:04:17Z</time>
      </trkpt>
      <trkpt lat="46.55533" lon="5.49537">
        <ele>482</ele>
        <time>2011-09-20T10:04:19Z</time>
      </trkpt>
      <trkpt lat="46.55522" lon="5.49523">
        <ele>482</ele>
        <time>2011-09-20T10:04:21Z</time>
      </trkpt>
      <trkpt lat="46.55511" lon="5.49509">
        <ele>482</ele>
        <time>2011-09-20T10:04:23Z</time>
      </trkpt>
      <trkpt lat="46.555" lon="5.49496">
        <ele>487</ele>
        <time>2011-09-20T10:04:25Z</time>
      </trkpt>
      <trkpt lat="46.55489" lon="5.49483">
        <ele>487</ele>
        <time>2011-09-20T10:04:27Z</time>
      </trkpt>
      <trkpt lat="46.55479" lon="5.49471">
        <ele>487</ele>
        <time>2011-09-20T10:04:29Z</time>
      </trkpt>
      <trkpt lat="46.55469" lon="5.49458">
        <ele>487</ele>
        <time>2011-09-20T10:04:31Z</time>
      </trkpt>
      <trkpt lat="46.5546" lon="5.49447">
        <ele>487</ele>
        <time>2011-09-20T10:04:33Z</time>
      </trkpt>
      <trkpt lat="46.55452" lon="5.49438">
        <ele>487</ele>
        <time>2011-09-20T10:04:35Z</time>
      </trkpt>
      <trkpt lat="46.55443" lon="5.49428">
        <ele>487</ele>
        <time>2011-09-20T10:04:37Z</time>
      </trkpt>
      <trkpt lat="46.55435" lon="5.49418">
        <ele>487</ele>
        <time>2011-09-20T10:04:39Z</time>
      </trkpt>
      <trkpt lat="46.55427" lon="5.49409">
        <ele>487</ele>
        <time>2011-09-20T10:04:41Z</time>
      </trkpt>
      <trkpt lat="46.55419" lon="5.49399">
        <ele>487</ele>
        <time>2011-09-20T10:04:43Z</time>
      </trkpt>
      <trkpt lat="46.55411" lon="5.49391">
        <ele>487</ele>
        <time>2011-09-20T10:04:45Z</time>
      </trkpt>
      <trkpt lat="46.55402" lon="5.49382">
        <ele>492</ele>
        <time>2011-09-20T10:04:47Z</time>
      </trkpt>
      <trkpt lat="46.55392" lon="5.49375">
        <ele>492</ele>
        <time>2011-09-20T10:04:49Z</time>
      </trkpt>
      <trkpt lat="46.55382" lon="5.49367">
        <ele>492</ele>
        <time>2011-09-20T10:04:51Z</time>
      </trkpt>
      <trkpt lat="46.55372" lon="5.49361">
        <ele>492</ele>
        <time>2011-09-20T10:04:53Z</time>
      </trkpt>
      <trkpt lat="46.55362" lon="5.49357">
        <ele>492</ele>
        <time>2011-09-20T10:04:55Z</time>
      </trkpt>
      <trkpt lat="46.55352" lon="5.49352">
        <ele>492</ele>
        <time>2011-09-20T10:04:57Z</time>
      </trkpt>
      <trkpt lat="46.55342" lon="5.49349">
        <ele>492</ele>
        <time>2011-09-20T10:04:59Z</time>
      </trkpt>
      <trkpt lat="46.55331" lon="5.49345">
        <ele>492</ele>
        <time>2011-09-20T10:05:01Z</time>
      </trkpt>
      <trkpt lat="46.55321" lon="5.49343">
        <ele>492</ele>
        <time>2011-09-20T10:05:03Z</time>
      </trkpt>
      <trkpt lat="46.55311" lon="5.49341">
        <ele>492</ele>
        <time>2011-09-20T10:05:05Z</time>
      </trkpt>
      <trkpt lat="46.55302" lon="5.49338">
        <ele>492</ele>
        <time>2011-09-20T10:05:07Z</time>
      </trkpt>
      <trkpt lat="46.55288" lon="5.49335">
        <ele>492</ele>
        <time>2011-09-20T10:05:10Z</time>
      </trkpt>
      <trkpt lat="46.55279" lon="5.49332">
        <ele>492</ele>
        <time>2011-09-20T10:05:12Z</time>
      </trkpt>
      <trkpt lat="46.55268" lon="5.49324">
        <ele>492</ele>
        <time>2011-09-20T10:05:15Z</time>
      </trkpt>
      <trkpt lat="46.5526" lon="5.49315">
        <ele>492</ele>
        <time>2011-09-20T10:05:18Z</time>
      </trkpt>
      <trkpt lat="46.55252" lon="5.49307">
        <ele>492</ele>
        <time>2011-09-20T10:05:21Z</time>
      </trkpt>
      <trkpt lat="46.55245" lon="5.49298">
        <ele>492</ele>
        <time>2011-09-20T10:05:46Z</time>
      </trkpt>
      <trkpt lat="46.55251" lon="5.49287">
        <ele>492</ele>
        <time>2011-09-20T10:06:26Z</time>
      </trkpt>
      <trkpt lat="46.55258" lon="5.49279">
        <ele>497</ele>
        <time>2011-09-20T10:07:40Z</time>
      </trkpt>
      <trkpt lat="46.55264" lon="5.49264">
        <ele>497</ele>
        <time>2011-09-20T10:08:03Z</time>
      </trkpt>
      <trkpt lat="46.55271" lon="5.49252">
        <ele>497</ele>
        <time>2011-09-20T10:08:06Z</time>
      </trkpt>
      <trkpt lat="46.5528" lon="5.49239">
        <ele>492</ele>
        <time>2011-09-20T10:08:09Z</time>
      </trkpt>
      <trkpt lat="46.55286" lon="5.49228">
        <ele>492</ele>
        <time>2011-09-20T10:08:11Z</time>
      </trkpt>
      <trkpt lat="46.55292" lon="5.49218">
        <ele>492</ele>
        <time>2011-09-20T10:08:13Z</time>
      </trkpt>
      <trkpt lat="46.55298" lon="5.49208">
        <ele>492</ele>
        <time>2011-09-20T10:08:15Z</time>
      </trkpt>
      <trkpt lat="46.55304" lon="5.49195">
        <ele>492</ele>
        <time>2011-09-20T10:08:17Z</time>
      </trkpt>
      <trkpt lat="46.55309" lon="5.49182">
        <ele>492</ele>
        <time>2011-09-20T10:08:19Z</time>
      </trkpt>
      <trkpt lat="46.55314" lon="5.4917">
        <ele>492</ele>
        <time>2011-09-20T10:08:21Z</time>
      </trkpt>
      <trkpt lat="46.55319" lon="5.49155">
        <ele>492</ele>
        <time>2011-09-20T10:08:23Z</time>
      </trkpt>
      <trkpt lat="46.55324" lon="5.49143">
        <ele>492</ele>
        <time>2011-09-20T10:08:25Z</time>
      </trkpt>
      <trkpt lat="46.55331" lon="5.4913">
        <ele>492</ele>
        <time>2011-09-20T10:08:27Z</time>
      </trkpt>
      <trkpt lat="46.55338" lon="5.4912">
        <ele>492</ele>
        <time>2011-09-20T10:08:29Z</time>
      </trkpt>
      <trkpt lat="46.55346" lon="5.49113">
        <ele>492</ele>
        <time>2011-09-20T10:08:31Z</time>
      </trkpt>
      <trkpt lat="46.55358" lon="5.49107">
        <ele>492</ele>
        <time>2011-09-20T10:08:34Z</time>
      </trkpt>
      <trkpt lat="46.5537" lon="5.49104">
        <ele>492</ele>
        <time>2011-09-20T10:08:37Z</time>
      </trkpt>
      <trkpt lat="46.55383" lon="5.49102">
        <ele>492</ele>
        <time>2011-09-20T10:08:40Z</time>
      </trkpt>
      <trkpt lat="46.55395" lon="5.491">
        <ele>492</ele>
        <time>2011-09-20T10:08:43Z</time>
      </trkpt>
      <trkpt lat="46.55408" lon="5.49099">
        <ele>492</ele>
        <time>2011-09-20T10:08:46Z</time>
      </trkpt>
      <trkpt lat="46.55417" lon="5.49099">
        <ele>492</ele>
        <time>2011-09-20T10:08:48Z</time>
      </trkpt>
      <trkpt lat="46.55429" lon="5.49107">
        <ele>492</ele>
        <time>2011-09-20T10:08:51Z</time>
      </trkpt>
      <trkpt lat="46.55436" lon="5.49115">
        <ele>492</ele>
        <time>2011-09-20T10:08:53Z</time>
      </trkpt>
      <trkpt lat="46.55443" lon="5.49123">
        <ele>492</ele>
        <time>2011-09-20T10:08:55Z</time>
      </trkpt>
      <trkpt lat="46.55452" lon="5.49131">
        <ele>492</ele>
        <time>2011-09-20T10:08:57Z</time>
      </trkpt>
      <trkpt lat="46.5546" lon="5.49139">
        <ele>492</ele>
        <time>2011-09-20T10:08:59Z</time>
      </trkpt>
      <trkpt lat="46.55468" lon="5.49149">
        <ele>492</ele>
        <time>2011-09-20T10:09:01Z</time>
      </trkpt>
      <trkpt lat="46.55476" lon="5.49159">
        <ele>492</ele>
        <time>2011-09-20T10:09:03Z</time>
      </trkpt>
      <trkpt lat="46.55484" lon="5.49169">
        <ele>492</ele>
        <time>2011-09-20T10:09:05Z</time>
      </trkpt>
      <trkpt lat="46.55494" lon="5.49179">
        <ele>492</ele>
        <time>2011-09-20T10:09:07Z</time>
      </trkpt>
      <trkpt lat="46.55503" lon="5.49188">
        <ele>492</ele>
        <time>2011-09-20T10:09:09Z</time>
      </trkpt>
      <trkpt lat="46.55513" lon="5.49195">
        <ele>492</ele>
        <time>2011-09-20T10:09:11Z</time>
      </trkpt>
      <trkpt lat="46.55523" lon="5.49202">
        <ele>492</ele>
        <time>2011-09-20T10:09:13Z</time>
      </trkpt>
      <trkpt lat="46.55534" lon="5.49209">
        <ele>492</ele>
        <time>2011-09-20T10:09:15Z</time>
      </trkpt>
      <trkpt lat="46.55543" lon="5.49216">
        <ele>492</ele>
        <time>2011-09-20T10:09:17Z</time>
      </trkpt>
      <trkpt lat="46.55555" lon="5.49221">
        <ele>492</ele>
        <time>2011-09-20T10:09:19Z</time>
      </trkpt>
      <trkpt lat="46.55567" lon="5.49227">
        <ele>492</ele>
        <time>2011-09-20T10:09:21Z</time>
      </trkpt>
      <trkpt lat="46.5558" lon="5.49234">
        <ele>492</ele>
        <time>2011-09-20T10:09:23Z</time>
      </trkpt>
      <trkpt lat="46.55593" lon="5.4924">
        <ele>492</ele>
        <time>2011-09-20T10:09:25Z</time>
      </trkpt>
      <trkpt lat="46.55607" lon="5.49247">
        <ele>492</ele>
        <time>2011-09-20T10:09:27Z</time>
      </trkpt>
      <trkpt lat="46.5562" lon="5.49254">
        <ele>492</ele>
        <time>2011-09-20T10:09:29Z</time>
      </trkpt>
      <trkpt lat="46.55633" lon="5.49261">
        <ele>492</ele>
        <time>2011-09-20T10:09:31Z</time>
      </trkpt>
      <trkpt lat="46.55645" lon="5.49268">
        <ele>492</ele>
        <time>2011-09-20T10:09:33Z</time>
      </trkpt>
      <trkpt lat="46.55659" lon="5.49275">
        <ele>492</ele>
        <time>2011-09-20T10:09:35Z</time>
      </trkpt>
      <trkpt lat="46.55672" lon="5.49285">
        <ele>492</ele>
        <time>2011-09-20T10:09:37Z</time>
      </trkpt>
      <trkpt lat="46.55685" lon="5.49292">
        <ele>492</ele>
        <time>2011-09-20T10:09:39Z</time>
      </trkpt>
      <trkpt lat="46.55695" lon="5.49289">
        <ele>492</ele>
        <time>2011-09-20T10:09:41Z</time>
      </trkpt>
      <trkpt lat="46.55699" lon="5.49272">
        <ele>492</ele>
        <time>2011-09-20T10:09:43Z</time>
      </trkpt>
      <trkpt lat="46.55691" lon="5.49253">
        <ele>492</ele>
        <time>2011-09-20T10:09:45Z</time>
      </trkpt>
      <trkpt lat="46.55685" lon="5.49244">
        <ele>492</ele>
        <time>2011-09-20T10:09:46Z</time>
      </trkpt>
      <trkpt lat="46.55672" lon="5.49226">
        <ele>492</ele>
        <time>2011-09-20T10:09:48Z</time>
      </trkpt>
      <trkpt lat="46.55667" lon="5.49215">
        <ele>487</ele>
        <time>2011-09-20T10:09:49Z</time>
      </trkpt>
      <trkpt lat="46.55662" lon="5.49201">
        <ele>487</ele>
        <time>2011-09-20T10:09:50Z</time>
      </trkpt>
      <trkpt lat="46.55659" lon="5.49188">
        <ele>487</ele>
        <time>2011-09-20T10:09:51Z</time>
      </trkpt>
      <trkpt lat="46.55658" lon="5.49173">
        <ele>487</ele>
        <time>2011-09-20T10:09:52Z</time>
      </trkpt>
      <trkpt lat="46.55658" lon="5.49159">
        <ele>487</ele>
        <time>2011-09-20T10:09:53Z</time>
      </trkpt>
      <trkpt lat="46.5566" lon="5.49145">
        <ele>487</ele>
        <time>2011-09-20T10:09:54Z</time>
      </trkpt>
      <trkpt lat="46.55664" lon="5.4913">
        <ele>487</ele>
        <time>2011-09-20T10:09:55Z</time>
      </trkpt>
      <trkpt lat="46.5567" lon="5.49115">
        <ele>487</ele>
        <time>2011-09-20T10:09:56Z</time>
      </trkpt>
      <trkpt lat="46.55676" lon="5.49102">
        <ele>481</ele>
        <time>2011-09-20T10:09:57Z</time>
      </trkpt>
      <trkpt lat="46.55684" lon="5.4909">
        <ele>481</ele>
        <time>2011-09-20T10:09:58Z</time>
      </trkpt>
      <trkpt lat="46.55692" lon="5.49077">
        <ele>481</ele>
        <time>2011-09-20T10:09:59Z</time>
      </trkpt>
      <trkpt lat="46.55701" lon="5.49067">
        <ele>481</ele>
        <time>2011-09-20T10:10:00Z</time>
      </trkpt>
      <trkpt lat="46.5571" lon="5.49057">
        <ele>481</ele>
        <time>2011-09-20T10:10:01Z</time>
      </trkpt>
      <trkpt lat="46.5572" lon="5.49048">
        <ele>481</ele>
        <time>2011-09-20T10:10:02Z</time>
      </trkpt>
      <trkpt lat="46.5573" lon="5.49039">
        <ele>475</ele>
        <time>2011-09-20T10:10:03Z</time>
      </trkpt>
      <trkpt lat="46.5574" lon="5.4903">
        <ele>475</ele>
        <time>2011-09-20T10:10:04Z</time>
      </trkpt>
      <trkpt lat="46.5575" lon="5.4902">
        <ele>475</ele>
        <time>2011-09-20T10:10:05Z</time>
      </trkpt>
      <trkpt lat="46.55758" lon="5.49008">
        <ele>475</ele>
        <time>2011-09-20T10:10:06Z</time>
      </trkpt>
      <trkpt lat="46.55766" lon="5.48995">
        <ele>475</ele>
        <time>2011-09-20T10:10:07Z</time>
      </trkpt>
      <trkpt lat="46.55771" lon="5.48979">
        <ele>475</ele>
        <time>2011-09-20T10:10:08Z</time>
      </trkpt>
      <trkpt lat="46.55775" lon="5.48963">
        <ele>475</ele>
        <time>2011-09-20T10:10:09Z</time>
      </trkpt>
      <trkpt lat="46.55779" lon="5.48947">
        <ele>470</ele>
        <time>2011-09-20T10:10:10Z</time>
      </trkpt>
      <trkpt lat="46.55782" lon="5.4893">
        <ele>470</ele>
        <time>2011-09-20T10:10:11Z</time>
      </trkpt>
      <trkpt lat="46.55784" lon="5.48914">
        <ele>470</ele>
        <time>2011-09-20T10:10:12Z</time>
      </trkpt>
      <trkpt lat="46.55784" lon="5.48896">
        <ele>470</ele>
        <time>2011-09-20T10:10:13Z</time>
      </trkpt>
      <trkpt lat="46.55784" lon="5.48879">
        <ele>470</ele>
        <time>2011-09-20T10:10:14Z</time>
      </trkpt>
      <trkpt lat="46.55782" lon="5.48862">
        <ele>470</ele>
        <time>2011-09-20T10:10:15Z</time>
      </trkpt>
      <trkpt lat="46.55782" lon="5.48845">
        <ele>470</ele>
        <time>2011-09-20T10:10:16Z</time>
      </trkpt>
      <trkpt lat="46.55781" lon="5.48828">
        <ele>470</ele>
        <time>2011-09-20T10:10:17Z</time>
      </trkpt>
      <trkpt lat="46.5578" lon="5.48811">
        <ele>470</ele>
        <time>2011-09-20T10:10:18Z</time>
      </trkpt>
      <trkpt lat="46.55779" lon="5.48793">
        <ele>465</ele>
        <time>2011-09-20T10:10:19Z</time>
      </trkpt>
      <trkpt lat="46.55778" lon="5.48776">
        <ele>465</ele>
        <time>2011-09-20T10:10:20Z</time>
      </trkpt>
      <trkpt lat="46.55777" lon="5.48759">
        <ele>465</ele>
        <time>2011-09-20T10:10:21Z</time>
      </trkpt>
      <trkpt lat="46.55776" lon="5.48743">
        <ele>465</ele>
        <time>2011-09-20T10:10:22Z</time>
      </trkpt>
      <trkpt lat="46.55775" lon="5.48728">
        <ele>465</ele>
        <time>2011-09-20T10:10:23Z</time>
      </trkpt>
      <trkpt lat="46.55774" lon="5.48713">
        <ele>465</ele>
        <time>2011-09-20T10:10:24Z</time>
      </trkpt>
      <trkpt lat="46.55773" lon="5.48698">
        <ele>465</ele>
        <time>2011-09-20T10:10:25Z</time>
      </trkpt>
      <trkpt lat="46.55774" lon="5.48685">
        <ele>465</ele>
        <time>2011-09-20T10:10:26Z</time>
      </trkpt>
      <trkpt lat="46.55779" lon="5.4866">
        <ele>465</ele>
        <time>2011-09-20T10:10:28Z</time>
      </trkpt>
      <trkpt lat="46.5579" lon="5.48643">
        <ele>465</ele>
        <time>2011-09-20T10:10:30Z</time>
      </trkpt>
      <trkpt lat="46.55803" lon="5.48625">
        <ele>465</ele>
        <time>2011-09-20T10:10:32Z</time>
      </trkpt>
      <trkpt lat="46.55815" lon="5.48607">
        <ele>465</ele>
        <time>2011-09-20T10:10:34Z</time>
      </trkpt>
      <trkpt lat="46.55826" lon="5.4859">
        <ele>465</ele>
        <time>2011-09-20T10:10:36Z</time>
      </trkpt>
      <trkpt lat="46.55837" lon="5.48572">
        <ele>465</ele>
        <time>2011-09-20T10:10:38Z</time>
      </trkpt>
      <trkpt lat="46.55848" lon="5.48554">
        <ele>465</ele>
        <time>2011-09-20T10:10:40Z</time>
      </trkpt>
      <trkpt lat="46.55857" lon="5.48539">
        <ele>465</ele>
        <time>2011-09-20T10:10:42Z</time>
      </trkpt>
      <trkpt lat="46.55868" lon="5.48527">
        <ele>465</ele>
        <time>2011-09-20T10:10:44Z</time>
      </trkpt>
      <trkpt lat="46.55879" lon="5.48519">
        <ele>465</ele>
        <time>2011-09-20T10:10:46Z</time>
      </trkpt>
      <trkpt lat="46.55889" lon="5.48515">
        <ele>465</ele>
        <time>2011-09-20T10:10:48Z</time>
      </trkpt>
      <trkpt lat="46.55898" lon="5.4851">
        <ele>465</ele>
        <time>2011-09-20T10:10:50Z</time>
      </trkpt>
      <trkpt lat="46.55908" lon="5.48508">
        <ele>465</ele>
        <time>2011-09-20T10:10:52Z</time>
      </trkpt>
      <trkpt lat="46.55917" lon="5.48506">
        <ele>465</ele>
        <time>2011-09-20T10:10:54Z</time>
      </trkpt>
      <trkpt lat="46.55926" lon="5.48505">
        <ele>465</ele>
        <time>2011-09-20T10:10:56Z</time>
      </trkpt>
      <trkpt lat="46.55935" lon="5.48504">
        <ele>465</ele>
        <time>2011-09-20T10:10:58Z</time>
      </trkpt>
      <trkpt lat="46.55945" lon="5.48504">
        <ele>465</ele>
        <time>2011-09-20T10:11:00Z</time>
      </trkpt>
      <trkpt lat="46.55958" lon="5.48506">
        <ele>465</ele>
        <time>2011-09-20T10:11:03Z</time>
      </trkpt>
      <trkpt lat="46.55972" lon="5.48506">
        <ele>465</ele>
        <time>2011-09-20T10:11:06Z</time>
      </trkpt>
      <trkpt lat="46.55986" lon="5.48508">
        <ele>470</ele>
        <time>2011-09-20T10:11:09Z</time>
      </trkpt>
      <trkpt lat="46.55995" lon="5.4851">
        <ele>470</ele>
        <time>2011-09-20T10:11:11Z</time>
      </trkpt>
      <trkpt lat="46.56004" lon="5.48514">
        <ele>470</ele>
        <time>2011-09-20T10:11:13Z</time>
      </trkpt>
      <trkpt lat="46.56014" lon="5.4852">
        <ele>470</ele>
        <time>2011-09-20T10:11:15Z</time>
      </trkpt>
      <trkpt lat="46.56023" lon="5.48528">
        <ele>470</ele>
        <time>2011-09-20T10:11:17Z</time>
      </trkpt>
      <trkpt lat="46.56034" lon="5.48535">
        <ele>470</ele>
        <time>2011-09-20T10:11:19Z</time>
      </trkpt>
      <trkpt lat="46.56045" lon="5.48542">
        <ele>470</ele>
        <time>2011-09-20T10:11:21Z</time>
      </trkpt>
      <trkpt lat="46.56057" lon="5.48547">
        <ele>470</ele>
        <time>2011-09-20T10:11:23Z</time>
      </trkpt>
      <trkpt lat="46.56069" lon="5.48552">
        <ele>470</ele>
        <time>2011-09-20T10:11:25Z</time>
      </trkpt>
      <trkpt lat="46.56081" lon="5.48555">
        <ele>470</ele>
        <time>2011-09-20T10:11:27Z</time>
      </trkpt>
      <trkpt lat="46.56094" lon="5.48557">
        <ele>470</ele>
        <time>2011-09-20T10:11:29Z</time>
      </trkpt>
      <trkpt lat="46.56107" lon="5.48559">
        <ele>470</ele>
        <time>2011-09-20T10:11:31Z</time>
      </trkpt>
      <trkpt lat="46.5612" lon="5.48561">
        <ele>470</ele>
        <time>2011-09-20T10:11:33Z</time>
      </trkpt>
      <trkpt lat="46.56132" lon="5.48563">
        <ele>470</ele>
        <time>2011-09-20T10:11:35Z</time>
      </trkpt>
      <trkpt lat="46.56144" lon="5.48567">
        <ele>470</ele>
        <time>2011-09-20T10:11:37Z</time>
      </trkpt>
      <trkpt lat="46.56155" lon="5.48574">
        <ele>470</ele>
        <time>2011-09-20T10:11:39Z</time>
      </trkpt>
      <trkpt lat="46.56165" lon="5.48587">
        <ele>470</ele>
        <time>2011-09-20T10:11:41Z</time>
      </trkpt>
      <trkpt lat="46.56174" lon="5.48601">
        <ele>470</ele>
        <time>2011-09-20T10:11:43Z</time>
      </trkpt>
      <trkpt lat="46.56183" lon="5.48616">
        <ele>470</ele>
        <time>2011-09-20T10:11:45Z</time>
      </trkpt>
      <trkpt lat="46.56193" lon="5.48628">
        <ele>470</ele>
        <time>2011-09-20T10:11:47Z</time>
      </trkpt>
      <trkpt lat="46.56206" lon="5.48635">
        <ele>470</ele>
        <time>2011-09-20T10:11:49Z</time>
      </trkpt>
      <trkpt lat="46.56217" lon="5.48635">
        <ele>470</ele>
        <time>2011-09-20T10:11:51Z</time>
      </trkpt>
      <trkpt lat="46.56232" lon="5.48641">
        <ele>476</ele>
        <time>2011-09-20T10:11:53Z</time>
      </trkpt>
      <trkpt lat="46.56247" lon="5.48647">
        <ele>476</ele>
        <time>2011-09-20T10:11:55Z</time>
      </trkpt>
      <trkpt lat="46.56262" lon="5.48653">
        <ele>476</ele>
        <time>2011-09-20T10:11:57Z</time>
      </trkpt>
      <trkpt lat="46.56276" lon="5.48662">
        <ele>476</ele>
        <time>2011-09-20T10:11:59Z</time>
      </trkpt>
      <trkpt lat="46.56289" lon="5.48675">
        <ele>476</ele>
        <time>2011-09-20T10:12:01Z</time>
      </trkpt>
      <trkpt lat="46.563" lon="5.48691">
        <ele>476</ele>
        <time>2011-09-20T10:12:03Z</time>
      </trkpt>
      <trkpt lat="46.5631" lon="5.48707">
        <ele>476</ele>
        <time>2011-09-20T10:12:05Z</time>
      </trkpt>
      <trkpt lat="46.5632" lon="5.48722">
        <ele>476</ele>
        <time>2011-09-20T10:12:07Z</time>
      </trkpt>
      <trkpt lat="46.5633" lon="5.48736">
        <ele>476</ele>
        <time>2011-09-20T10:12:09Z</time>
      </trkpt>
      <trkpt lat="46.56342" lon="5.48745">
        <ele>476</ele>
        <time>2011-09-20T10:12:11Z</time>
      </trkpt>
      <trkpt lat="46.56354" lon="5.48748">
        <ele>476</ele>
        <time>2011-09-20T10:12:13Z</time>
      </trkpt>
      <trkpt lat="46.56367" lon="5.48743">
        <ele>476</ele>
        <time>2011-09-20T10:12:15Z</time>
      </trkpt>
      <trkpt lat="46.56379" lon="5.48735">
        <ele>476</ele>
        <time>2011-09-20T10:12:17Z</time>
      </trkpt>
      <trkpt lat="46.5639" lon="5.48727">
        <ele>476</ele>
        <time>2011-09-20T10:12:19Z</time>
      </trkpt>
      <trkpt lat="46.56402" lon="5.4872">
        <ele>476</ele>
        <time>2011-09-20T10:12:21Z</time>
      </trkpt>
      <trkpt lat="46.56415" lon="5.48717">
        <ele>476</ele>
        <time>2011-09-20T10:12:23Z</time>
      </trkpt>
      <trkpt lat="46.56429" lon="5.48716">
        <ele>476</ele>
        <time>2011-09-20T10:12:25Z</time>
      </trkpt>
      <trkpt lat="46.56444" lon="5.48717">
        <ele>476</ele>
        <time>2011-09-20T10:12:27Z</time>
      </trkpt>
      <trkpt lat="46.56457" lon="5.48721">
        <ele>476</ele>
        <time>2011-09-20T10:12:29Z</time>
      </trkpt>
      <trkpt lat="46.5647" lon="5.48725">
        <ele>476</ele>
        <time>2011-09-20T10:12:31Z</time>
      </trkpt>
      <trkpt lat="46.56483" lon="5.4873">
        <ele>476</ele>
        <time>2011-09-20T10:12:33Z</time>
      </trkpt>
      <trkpt lat="46.56495" lon="5.48736">
        <ele>476</ele>
        <time>2011-09-20T10:12:35Z</time>
      </trkpt>
      <trkpt lat="46.56507" lon="5.48741">
        <ele>476</ele>
        <time>2011-09-20T10:12:37Z</time>
      </trkpt>
      <trkpt lat="46.5652" lon="5.48749">
        <ele>476</ele>
        <time>2011-09-20T10:12:39Z</time>
      </trkpt>
      <trkpt lat="46.56531" lon="5.48758">
        <ele>476</ele>
        <time>2011-09-20T10:12:41Z</time>
      </trkpt>
      <trkpt lat="46.5654" lon="5.48771">
        <ele>476</ele>
        <time>2011-09-20T10:12:43Z</time>
      </trkpt>
      <trkpt lat="46.56548" lon="5.48787">
        <ele>476</ele>
        <time>2011-09-20T10:12:45Z</time>
      </trkpt>
      <trkpt lat="46.56553" lon="5.48804">
        <ele>476</ele>
        <time>2011-09-20T10:12:47Z</time>
      </trkpt>
      <trkpt lat="46.56557" lon="5.48823">
        <ele>476</ele>
        <time>2011-09-20T10:12:49Z</time>
      </trkpt>
      <trkpt lat="46.56562" lon="5.48841">
        <ele>476</ele>
        <time>2011-09-20T10:12:51Z</time>
      </trkpt>
      <trkpt lat="46.56569" lon="5.48857">
        <ele>476</ele>
        <time>2011-09-20T10:12:53Z</time>
      </trkpt>
      <trkpt lat="46.56577" lon="5.48872">
        <ele>476</ele>
        <time>2011-09-20T10:12:55Z</time>
      </trkpt>
      <trkpt lat="46.56587" lon="5.48883">
        <ele>476</ele>
        <time>2011-09-20T10:12:57Z</time>
      </trkpt>
      <trkpt lat="46.56598" lon="5.48891">
        <ele>476</ele>
        <time>2011-09-20T10:12:59Z</time>
      </trkpt>
      <trkpt lat="46.5661" lon="5.48899">
        <ele>476</ele>
        <time>2011-09-20T10:13:01Z</time>
      </trkpt>
      <trkpt lat="46.56621" lon="5.48906">
        <ele>476</ele>
        <time>2011-09-20T10:13:03Z</time>
      </trkpt>
      <trkpt lat="46.56633" lon="5.48911">
        <ele>476</ele>
        <time>2011-09-20T10:13:05Z</time>
      </trkpt>
      <trkpt lat="46.56644" lon="5.48917">
        <ele>476</ele>
        <time>2011-09-20T10:13:07Z</time>
      </trkpt>
      <trkpt lat="46.56657" lon="5.48922">
        <ele>476</ele>
        <time>2011-09-20T10:13:09Z</time>
      </trkpt>
      <trkpt lat="46.56669" lon="5.48926">
        <ele>476</ele>
        <time>2011-09-20T10:13:11Z</time>
      </trkpt>
      <trkpt lat="46.56681" lon="5.48931">
        <ele>476</ele>
        <time>2011-09-20T10:13:13Z</time>
      </trkpt>
      <trkpt lat="46.56693" lon="5.48936">
        <ele>476</ele>
        <time>2011-09-20T10:13:15Z</time>
      </trkpt>
      <trkpt lat="46.56704" lon="5.48942">
        <ele>476</ele>
        <time>2011-09-20T10:13:17Z</time>
      </trkpt>
      <trkpt lat="46.56716" lon="5.48946">
        <ele>476</ele>
        <time>2011-09-20T10:13:19Z</time>
      </trkpt>
      <trkpt lat="46.56727" lon="5.48952">
        <ele>476</ele>
        <time>2011-09-20T10:13:21Z</time>
      </trkpt>
      <trkpt lat="46.56739" lon="5.4896">
        <ele>476</ele>
        <time>2011-09-20T10:13:23Z</time>
      </trkpt>
      <trkpt lat="46.5675" lon="5.48967">
        <ele>476</ele>
        <time>2011-09-20T10:13:25Z</time>
      </trkpt>
      <trkpt lat="46.56761" lon="5.48975">
        <ele>476</ele>
        <time>2011-09-20T10:13:27Z</time>
      </trkpt>
      <trkpt lat="46.56772" lon="5.48983">
        <ele>476</ele>
        <time>2011-09-20T10:13:29Z</time>
      </trkpt>
      <trkpt lat="46.56782" lon="5.48991">
        <ele>476</ele>
        <time>2011-09-20T10:13:31Z</time>
      </trkpt>
      <trkpt lat="46.56793" lon="5.48998">
        <ele>476</ele>
        <time>2011-09-20T10:13:33Z</time>
      </trkpt>
      <trkpt lat="46.56804" lon="5.49006">
        <ele>476</ele>
        <time>2011-09-20T10:13:35Z</time>
      </trkpt>
      <trkpt lat="46.56813" lon="5.49016">
        <ele>476</ele>
        <time>2011-09-20T10:13:37Z</time>
      </trkpt>
      <trkpt lat="46.56822" lon="5.49029">
        <ele>476</ele>
        <time>2011-09-20T10:13:39Z</time>
      </trkpt>
      <trkpt lat="46.56829" lon="5.49042">
        <ele>476</ele>
        <time>2011-09-20T10:13:41Z</time>
      </trkpt>
      <trkpt lat="46.56836" lon="5.49057">
        <ele>476</ele>
        <time>2011-09-20T10:13:43Z</time>
      </trkpt>
      <trkpt lat="46.56842" lon="5.49071">
        <ele>476</ele>
        <time>2011-09-20T10:13:45Z</time>
      </trkpt>
      <trkpt lat="46.56848" lon="5.49086">
        <ele>476</ele>
        <time>2011-09-20T10:13:47Z</time>
      </trkpt>
      <trkpt lat="46.56853" lon="5.49102">
        <ele>476</ele>
        <time>2011-09-20T10:13:49Z</time>
      </trkpt>
      <trkpt lat="46.5686" lon="5.49114">
        <ele>476</ele>
        <time>2011-09-20T10:13:51Z</time>
      </trkpt>
      <trkpt lat="46.5687" lon="5.49122">
        <ele>476</ele>
        <time>2011-09-20T10:13:53Z</time>
      </trkpt>
      <trkpt lat="46.56882" lon="5.49124">
        <ele>482</ele>
        <time>2011-09-20T10:13:55Z</time>
      </trkpt>
      <trkpt lat="46.56895" lon="5.49126">
        <ele>482</ele>
        <time>2011-09-20T10:13:57Z</time>
      </trkpt>
      <trkpt lat="46.56906" lon="5.49127">
        <ele>482</ele>
        <time>2011-09-20T10:13:59Z</time>
      </trkpt>
      <trkpt lat="46.56917" lon="5.49129">
        <ele>482</ele>
        <time>2011-09-20T10:14:01Z</time>
      </trkpt>
      <trkpt lat="46.56927" lon="5.49133">
        <ele>482</ele>
        <time>2011-09-20T10:14:03Z</time>
      </trkpt>
      <trkpt lat="46.56939" lon="5.49137">
        <ele>482</ele>
        <time>2011-09-20T10:14:05Z</time>
      </trkpt>
      <trkpt lat="46.56949" lon="5.49139">
        <ele>487</ele>
        <time>2011-09-20T10:14:07Z</time>
      </trkpt>
      <trkpt lat="46.5696" lon="5.49144">
        <ele>487</ele>
        <time>2011-09-20T10:14:09Z</time>
      </trkpt>
      <trkpt lat="46.56971" lon="5.49148">
        <ele>487</ele>
        <time>2011-09-20T10:14:11Z</time>
      </trkpt>
      <trkpt lat="46.56981" lon="5.49155">
        <ele>487</ele>
        <time>2011-09-20T10:14:13Z</time>
      </trkpt>
      <trkpt lat="46.56992" lon="5.49162">
        <ele>487</ele>
        <time>2011-09-20T10:14:15Z</time>
      </trkpt>
      <trkpt lat="46.57002" lon="5.49167">
        <ele>487</ele>
        <time>2011-09-20T10:14:17Z</time>
      </trkpt>
      <trkpt lat="46.57011" lon="5.49175">
        <ele>487</ele>
        <time>2011-09-20T10:14:19Z</time>
      </trkpt>
      <trkpt lat="46.57019" lon="5.49184">
        <ele>487</ele>
        <time>2011-09-20T10:14:21Z</time>
      </trkpt>
      <trkpt lat="46.57026" lon="5.49197">
        <ele>487</ele>
        <time>2011-09-20T10:14:23Z</time>
      </trkpt>
      <trkpt lat="46.57033" lon="5.49208">
        <ele>487</ele>
        <time>2011-09-20T10:14:25Z</time>
      </trkpt>
      <trkpt lat="46.5704" lon="5.49217">
        <ele>487</ele>
        <time>2011-09-20T10:14:27Z</time>
      </trkpt>
      <trkpt lat="46.5705" lon="5.4922">
        <ele>487</ele>
        <time>2011-09-20T10:14:29Z</time>
      </trkpt>
      <trkpt lat="46.5706" lon="5.49226">
        <ele>492</ele>
        <time>2011-09-20T10:14:31Z</time>
      </trkpt>
      <trkpt lat="46.57072" lon="5.49225">
        <ele>498</ele>
        <time>2011-09-20T10:14:33Z</time>
      </trkpt>
      <trkpt lat="46.57082" lon="5.49225">
        <ele>498</ele>
        <time>2011-09-20T10:14:35Z</time>
      </trkpt>
      <trkpt lat="46.57093" lon="5.49227">
        <ele>498</ele>
        <time>2011-09-20T10:14:37Z</time>
      </trkpt>
      <trkpt lat="46.57104" lon="5.49229">
        <ele>498</ele>
        <time>2011-09-20T10:14:39Z</time>
      </trkpt>
      <trkpt lat="46.57115" lon="5.49232">
        <ele>498</ele>
        <time>2011-09-20T10:14:41Z</time>
      </trkpt>
      <trkpt lat="46.57126" lon="5.49236">
        <ele>498</ele>
        <time>2011-09-20T10:14:43Z</time>
      </trkpt>
      <trkpt lat="46.57136" lon="5.49242">
        <ele>498</ele>
        <time>2011-09-20T10:14:45Z</time>
      </trkpt>
      <trkpt lat="46.57146" lon="5.49246">
        <ele>498</ele>
        <time>2011-09-20T10:14:47Z</time>
      </trkpt>
      <trkpt lat="46.57155" lon="5.49251">
        <ele>498</ele>
        <time>2011-09-20T10:14:49Z</time>
      </trkpt>
      <trkpt lat="46.57165" lon="5.49257">
        <ele>498</ele>
        <time>2011-09-20T10:14:51Z</time>
      </trkpt>
      <trkpt lat="46.57175" lon="5.49264">
        <ele>498</ele>
        <time>2011-09-20T10:14:53Z</time>
      </trkpt>
      <trkpt lat="46.57185" lon="5.49271">
        <ele>491</ele>
        <time>2011-09-20T10:14:55Z</time>
      </trkpt>
      <trkpt lat="46.57195" lon="5.49278">
        <ele>491</ele>
        <time>2011-09-20T10:14:57Z</time>
      </trkpt>
      <trkpt lat="46.57206" lon="5.49278">
        <ele>491</ele>
        <time>2011-09-20T10:14:59Z</time>
      </trkpt>
      <trkpt lat="46.57217" lon="5.49278">
        <ele>491</ele>
        <time>2011-09-20T10:15:01Z</time>
      </trkpt>
      <trkpt lat="46.57228" lon="5.49279">
        <ele>491</ele>
        <time>2011-09-20T10:15:03Z</time>
      </trkpt>
      <trkpt lat="46.57239" lon="5.49277">
        <ele>491</ele>
        <time>2011-09-20T10:15:05Z</time>
      </trkpt>
      <trkpt lat="46.5725" lon="5.49277">
        <ele>491</ele>
        <time>2011-09-20T10:15:07Z</time>
      </trkpt>
      <trkpt lat="46.57261" lon="5.49277">
        <ele>491</ele>
        <time>2011-09-20T10:15:09Z</time>
      </trkpt>
      <trkpt lat="46.57271" lon="5.49278">
        <ele>491</ele>
        <time>2011-09-20T10:15:11Z</time>
      </trkpt>
      <trkpt lat="46.57282" lon="5.4928">
        <ele>491</ele>
        <time>2011-09-20T10:15:13Z</time>
      </trkpt>
      <trkpt lat="46.57292" lon="5.49283">
        <ele>491</ele>
        <time>2011-09-20T10:15:15Z</time>
      </trkpt>
      <trkpt lat="46.57304" lon="5.49286">
        <ele>491</ele>
        <time>2011-09-20T10:15:17Z</time>
      </trkpt>
      <trkpt lat="46.57313" lon="5.49289">
        <ele>491</ele>
        <time>2011-09-20T10:15:19Z</time>
      </trkpt>
      <trkpt lat="46.57324" lon="5.49293">
        <ele>491</ele>
        <time>2011-09-20T10:15:21Z</time>
      </trkpt>
      <trkpt lat="46.57334" lon="5.49296">
        <ele>491</ele>
        <time>2011-09-20T10:15:23Z</time>
      </trkpt>
      <trkpt lat="46.57346" lon="5.49301">
        <ele>491</ele>
        <time>2011-09-20T10:15:25Z</time>
      </trkpt>
      <trkpt lat="46.57356" lon="5.49305">
        <ele>491</ele>
        <time>2011-09-20T10:15:27Z</time>
      </trkpt>
      <trkpt lat="46.57367" lon="5.49311">
        <ele>491</ele>
        <time>2011-09-20T10:15:29Z</time>
      </trkpt>
      <trkpt lat="46.57378" lon="5.49314">
        <ele>491</ele>
        <time>2011-09-20T10:15:31Z</time>
      </trkpt>
      <trkpt lat="46.57389" lon="5.49319">
        <ele>491</ele>
        <time>2011-09-20T10:15:33Z</time>
      </trkpt>
      <trkpt lat="46.574" lon="5.49323">
        <ele>491</ele>
        <time>2011-09-20T10:15:35Z</time>
      </trkpt>
      <trkpt lat="46.57411" lon="5.49324">
        <ele>491</ele>
        <time>2011-09-20T10:15:37Z</time>
      </trkpt>
      <trkpt lat="46.57422" lon="5.49326">
        <ele>491</ele>
        <time>2011-09-20T10:15:39Z</time>
      </trkpt>
      <trkpt lat="46.57433" lon="5.49327">
        <ele>491</ele>
        <time>2011-09-20T10:15:41Z</time>
      </trkpt>
      <trkpt lat="46.57444" lon="5.49327">
        <ele>491</ele>
        <time>2011-09-20T10:15:43Z</time>
      </trkpt>
      <trkpt lat="46.57454" lon="5.49326">
        <ele>491</ele>
        <time>2011-09-20T10:15:45Z</time>
      </trkpt>
      <trkpt lat="46.57464" lon="5.49326">
        <ele>491</ele>
        <time>2011-09-20T10:15:47Z</time>
      </trkpt>
      <trkpt lat="46.57474" lon="5.49325">
        <ele>491</ele>
        <time>2011-09-20T10:15:49Z</time>
      </trkpt>
      <trkpt lat="46.57484" lon="5.49323">
        <ele>491</ele>
        <time>2011-09-20T10:15:51Z</time>
      </trkpt>
      <trkpt lat="46.57494" lon="5.49323">
        <ele>491</ele>
        <time>2011-09-20T10:15:53Z</time>
      </trkpt>
      <trkpt lat="46.57503" lon="5.49323">
        <ele>491</ele>
        <time>2011-09-20T10:15:55Z</time>
      </trkpt>
      <trkpt lat="46.57517" lon="5.49326">
        <ele>491</ele>
        <time>2011-09-20T10:15:58Z</time>
      </trkpt>
      <trkpt lat="46.5753" lon="5.4933">
        <ele>491</ele>
        <time>2011-09-20T10:16:01Z</time>
      </trkpt>
      <trkpt lat="46.57539" lon="5.49333">
        <ele>491</ele>
        <time>2011-09-20T10:16:03Z</time>
      </trkpt>
      <trkpt lat="46.57548" lon="5.49337">
        <ele>491</ele>
        <time>2011-09-20T10:16:05Z</time>
      </trkpt>
      <trkpt lat="46.5756" lon="5.49341">
        <ele>491</ele>
        <time>2011-09-20T10:16:08Z</time>
      </trkpt>
      <trkpt lat="46.57572" lon="5.49347">
        <ele>491</ele>
        <time>2011-09-20T10:16:11Z</time>
      </trkpt>
      <trkpt lat="46.57585" lon="5.49351">
        <ele>491</ele>
        <time>2011-09-20T10:16:14Z</time>
      </trkpt>
      <trkpt lat="46.57598" lon="5.49355">
        <ele>491</ele>
        <time>2011-09-20T10:16:17Z</time>
      </trkpt>
      <trkpt lat="46.57607" lon="5.49356">
        <ele>491</ele>
        <time>2011-09-20T10:16:19Z</time>
      </trkpt>
      <trkpt lat="46.57616" lon="5.49356">
        <ele>491</ele>
        <time>2011-09-20T10:16:21Z</time>
      </trkpt>
      <trkpt lat="46.57629" lon="5.49352">
        <ele>491</ele>
        <time>2011-09-20T10:16:24Z</time>
      </trkpt>
      <trkpt lat="46.57637" lon="5.49346">
        <ele>491</ele>
        <time>2011-09-20T10:16:26Z</time>
      </trkpt>
      <trkpt lat="46.57645" lon="5.49333">
        <ele>497</ele>
        <time>2011-09-20T10:16:29Z</time>
      </trkpt>
      <trkpt lat="46.57648" lon="5.49315">
        <ele>497</ele>
        <time>2011-09-20T10:16:32Z</time>
      </trkpt>
      <trkpt lat="46.57647" lon="5.49296">
        <ele>497</ele>
        <time>2011-09-20T10:16:35Z</time>
      </trkpt>
      <trkpt lat="46.57646" lon="5.49283">
        <ele>497</ele>
        <time>2011-09-20T10:16:37Z</time>
      </trkpt>
      <trkpt lat="46.57643" lon="5.4927">
        <ele>497</ele>
        <time>2011-09-20T10:16:39Z</time>
      </trkpt>
      <trkpt lat="46.57639" lon="5.49257">
        <ele>497</ele>
        <time>2011-09-20T10:16:41Z</time>
      </trkpt>
      <trkpt lat="46.57632" lon="5.49241">
        <ele>502</ele>
        <time>2011-09-20T10:16:44Z</time>
      </trkpt>
      <trkpt lat="46.57625" lon="5.49225">
        <ele>502</ele>
        <time>2011-09-20T10:16:47Z</time>
      </trkpt>
      <trkpt lat="46.57619" lon="5.49209">
        <ele>502</ele>
        <time>2011-09-20T10:16:50Z</time>
      </trkpt>
      <trkpt lat="46.57613" lon="5.49196">
        <ele>502</ele>
        <time>2011-09-20T10:16:53Z</time>
      </trkpt>
      <trkpt lat="46.57606" lon="5.49182">
        <ele>502</ele>
        <time>2011-09-20T10:16:56Z</time>
      </trkpt>
      <trkpt lat="46.576" lon="5.49167">
        <ele>502</ele>
        <time>2011-09-20T10:16:59Z</time>
      </trkpt>
      <trkpt lat="46.57595" lon="5.49153">
        <ele>502</ele>
        <time>2011-09-20T10:17:02Z</time>
      </trkpt>
      <trkpt lat="46.57589" lon="5.49138">
        <ele>502</ele>
        <time>2011-09-20T10:17:05Z</time>
      </trkpt>
      <trkpt lat="46.57584" lon="5.49124">
        <ele>502</ele>
        <time>2011-09-20T10:17:08Z</time>
      </trkpt>
      <trkpt lat="46.57579" lon="5.4911">
        <ele>502</ele>
        <time>2011-09-20T10:17:11Z</time>
      </trkpt>
      <trkpt lat="46.57575" lon="5.49096">
        <ele>502</ele>
        <time>2011-09-20T10:17:14Z</time>
      </trkpt>
      <trkpt lat="46.57571" lon="5.49082">
        <ele>508</ele>
        <time>2011-09-20T10:17:17Z</time>
      </trkpt>
      <trkpt lat="46.57568" lon="5.49068">
        <ele>508</ele>
        <time>2011-09-20T10:17:20Z</time>
      </trkpt>
      <trkpt lat="46.57566" lon="5.49055">
        <ele>508</ele>
        <time>2011-09-20T10:17:23Z</time>
      </trkpt>
      <trkpt lat="46.57563" lon="5.4904">
        <ele>508</ele>
        <time>2011-09-20T10:17:26Z</time>
      </trkpt>
      <trkpt lat="46.57559" lon="5.49026">
        <ele>508</ele>
        <time>2011-09-20T10:17:29Z</time>
      </trkpt>
      <trkpt lat="46.57555" lon="5.49012">
        <ele>508</ele>
        <time>2011-09-20T10:17:32Z</time>
      </trkpt>
      <trkpt lat="46.57549" lon="5.48997">
        <ele>508</ele>
        <time>2011-09-20T10:17:35Z</time>
      </trkpt>
      <trkpt lat="46.57544" lon="5.48982">
        <ele>513</ele>
        <time>2011-09-20T10:17:38Z</time>
      </trkpt>
      <trkpt lat="46.57538" lon="5.48969">
        <ele>513</ele>
        <time>2011-09-20T10:17:41Z</time>
      </trkpt>
      <trkpt lat="46.57531" lon="5.48956">
        <ele>513</ele>
        <time>2011-09-20T10:17:44Z</time>
      </trkpt>
      <trkpt lat="46.57523" lon="5.48943">
        <ele>513</ele>
        <time>2011-09-20T10:17:47Z</time>
      </trkpt>
      <trkpt lat="46.57516" lon="5.48932">
        <ele>513</ele>
        <time>2011-09-20T10:17:50Z</time>
      </trkpt>
      <trkpt lat="46.57509" lon="5.4892">
        <ele>513</ele>
        <time>2011-09-20T10:17:53Z</time>
      </trkpt>
      <trkpt lat="46.57505" lon="5.48905">
        <ele>513</ele>
        <time>2011-09-20T10:17:56Z</time>
      </trkpt>
      <trkpt lat="46.5751" lon="5.48893">
        <ele>513</ele>
        <time>2011-09-20T10:17:59Z</time>
      </trkpt>
      <trkpt lat="46.57521" lon="5.48895">
        <ele>518</ele>
        <time>2011-09-20T10:18:02Z</time>
      </trkpt>
      <trkpt lat="46.5753" lon="5.48904">
        <ele>518</ele>
        <time>2011-09-20T10:18:05Z</time>
      </trkpt>
      <trkpt lat="46.57539" lon="5.48911">
        <ele>518</ele>
        <time>2011-09-20T10:18:08Z</time>
      </trkpt>
      <trkpt lat="46.57548" lon="5.48919">
        <ele>518</ele>
        <time>2011-09-20T10:18:11Z</time>
      </trkpt>
      <trkpt lat="46.57556" lon="5.48927">
        <ele>518</ele>
        <time>2011-09-20T10:18:14Z</time>
      </trkpt>
      <trkpt lat="46.57566" lon="5.48934">
        <ele>518</ele>
        <time>2011-09-20T10:18:17Z</time>
      </trkpt>
      <trkpt lat="46.57576" lon="5.4894">
        <ele>518</ele>
        <time>2011-09-20T10:18:20Z</time>
      </trkpt>
      <trkpt lat="46.57586" lon="5.48944">
        <ele>518</ele>
        <time>2011-09-20T10:18:23Z</time>
      </trkpt>
      <trkpt lat="46.57596" lon="5.48946">
        <ele>518</ele>
        <time>2011-09-20T10:18:26Z</time>
      </trkpt>
      <trkpt lat="46.57606" lon="5.48947">
        <ele>518</ele>
        <time>2011-09-20T10:18:29Z</time>
      </trkpt>
      <trkpt lat="46.57616" lon="5.48946">
        <ele>524</ele>
        <time>2011-09-20T10:18:32Z</time>
      </trkpt>
      <trkpt lat="46.57626" lon="5.48943">
        <ele>524</ele>
        <time>2011-09-20T10:18:35Z</time>
      </trkpt>
      <trkpt lat="46.57635" lon="5.48942">
        <ele>524</ele>
        <time>2011-09-20T10:18:38Z</time>
      </trkpt>
      <trkpt lat="46.57644" lon="5.48939">
        <ele>524</ele>
        <time>2011-09-20T10:18:41Z</time>
      </trkpt>
      <trkpt lat="46.57654" lon="5.48937">
        <ele>524</ele>
        <time>2011-09-20T10:18:44Z</time>
      </trkpt>
      <trkpt lat="46.57663" lon="5.48936">
        <ele>524</ele>
        <time>2011-09-20T10:18:47Z</time>
      </trkpt>
      <trkpt lat="46.57674" lon="5.48935">
        <ele>529</ele>
        <time>2011-09-20T10:18:50Z</time>
      </trkpt>
      <trkpt lat="46.57684" lon="5.48935">
        <ele>529</ele>
        <time>2011-09-20T10:18:53Z</time>
      </trkpt>
      <trkpt lat="46.57696" lon="5.48934">
        <ele>529</ele>
        <time>2011-09-20T10:18:56Z</time>
      </trkpt>
      <trkpt lat="46.57707" lon="5.48933">
        <ele>529</ele>
        <time>2011-09-20T10:18:59Z</time>
      </trkpt>
      <trkpt lat="46.57719" lon="5.48931">
        <ele>536</ele>
        <time>2011-09-20T10:19:02Z</time>
      </trkpt>
      <trkpt lat="46.5773" lon="5.48928">
        <ele>536</ele>
        <time>2011-09-20T10:19:05Z</time>
      </trkpt>
      <trkpt lat="46.5774" lon="5.48926">
        <ele>542</ele>
        <time>2011-09-20T10:19:08Z</time>
      </trkpt>
      <trkpt lat="46.5775" lon="5.48927">
        <ele>542</ele>
        <time>2011-09-20T10:19:11Z</time>
      </trkpt>
      <trkpt lat="46.5776" lon="5.48925">
        <ele>542</ele>
        <time>2011-09-20T10:19:14Z</time>
      </trkpt>
      <trkpt lat="46.57772" lon="5.4892">
        <ele>547</ele>
        <time>2011-09-20T10:19:17Z</time>
      </trkpt>
      <trkpt lat="46.57782" lon="5.48917">
        <ele>547</ele>
        <time>2011-09-20T10:19:19Z</time>
      </trkpt>
      <trkpt lat="46.57791" lon="5.48913">
        <ele>547</ele>
        <time>2011-09-20T10:19:21Z</time>
      </trkpt>
      <trkpt lat="46.578" lon="5.48908">
        <ele>547</ele>
        <time>2011-09-20T10:19:23Z</time>
      </trkpt>
      <trkpt lat="46.5781" lon="5.48904">
        <ele>547</ele>
        <time>2011-09-20T10:19:25Z</time>
      </trkpt>
      <trkpt lat="46.57819" lon="5.48903">
        <ele>547</ele>
        <time>2011-09-20T10:19:27Z</time>
      </trkpt>
      <trkpt lat="46.57829" lon="5.489">
        <ele>553</ele>
        <time>2011-09-20T10:19:29Z</time>
      </trkpt>
      <trkpt lat="46.57842" lon="5.48899">
        <ele>553</ele>
        <time>2011-09-20T10:19:31Z</time>
      </trkpt>
      <trkpt lat="46.57864" lon="5.48895">
        <ele>553</ele>
        <time>2011-09-20T10:19:35Z</time>
      </trkpt>
      <trkpt lat="46.5788" lon="5.48892">
        <ele>553</ele>
        <time>2011-09-20T10:19:37Z</time>
      </trkpt>
      <trkpt lat="46.5789" lon="5.4889">
        <ele>546</ele>
        <time>2011-09-20T10:19:38Z</time>
      </trkpt>
      <trkpt lat="46.57899" lon="5.4889">
        <ele>546</ele>
        <time>2011-09-20T10:19:39Z</time>
      </trkpt>
      <trkpt lat="46.57908" lon="5.48889">
        <ele>546</ele>
        <time>2011-09-20T10:19:40Z</time>
      </trkpt>
      <trkpt lat="46.57917" lon="5.4889">
        <ele>546</ele>
        <time>2011-09-20T10:19:41Z</time>
      </trkpt>
      <trkpt lat="46.57927" lon="5.4889">
        <ele>539</ele>
        <time>2011-09-20T10:19:42Z</time>
      </trkpt>
      <trkpt lat="46.57937" lon="5.48891">
        <ele>539</ele>
        <time>2011-09-20T10:19:43Z</time>
      </trkpt>
      <trkpt lat="46.57946" lon="5.48893">
        <ele>539</ele>
        <time>2011-09-20T10:19:44Z</time>
      </trkpt>
      <trkpt lat="46.57955" lon="5.48895">
        <ele>539</ele>
        <time>2011-09-20T10:19:45Z</time>
      </trkpt>
      <trkpt lat="46.57965" lon="5.48895">
        <ele>539</ele>
        <time>2011-09-20T10:19:46Z</time>
      </trkpt>
      <trkpt lat="46.57975" lon="5.48897">
        <ele>539</ele>
        <time>2011-09-20T10:19:47Z</time>
      </trkpt>
      <trkpt lat="46.57993" lon="5.48903">
        <ele>532</ele>
        <time>2011-09-20T10:19:49Z</time>
      </trkpt>
      <trkpt lat="46.5801" lon="5.489">
        <ele>532</ele>
        <time>2011-09-20T10:19:51Z</time>
      </trkpt>
      <trkpt lat="46.58019" lon="5.48895">
        <ele>532</ele>
        <time>2011-09-20T10:19:52Z</time>
      </trkpt>
      <trkpt lat="46.58032" lon="5.48879">
        <ele>527</ele>
        <time>2011-09-20T10:19:54Z</time>
      </trkpt>
      <trkpt lat="46.58042" lon="5.48858">
        <ele>527</ele>
        <time>2011-09-20T10:19:56Z</time>
      </trkpt>
      <trkpt lat="46.58047" lon="5.48846">
        <ele>527</ele>
        <time>2011-09-20T10:19:57Z</time>
      </trkpt>
      <trkpt lat="46.58054" lon="5.48837">
        <ele>527</ele>
        <time>2011-09-20T10:19:58Z</time>
      </trkpt>
      <trkpt lat="46.58061" lon="5.48828">
        <ele>521</ele>
        <time>2011-09-20T10:19:59Z</time>
      </trkpt>
      <trkpt lat="46.58069" lon="5.48819">
        <ele>521</ele>
        <time>2011-09-20T10:20:00Z</time>
      </trkpt>
      <trkpt lat="46.58078" lon="5.48813">
        <ele>521</ele>
        <time>2011-09-20T10:20:01Z</time>
      </trkpt>
      <trkpt lat="46.58088" lon="5.48808">
        <ele>521</ele>
        <time>2011-09-20T10:20:02Z</time>
      </trkpt>
      <trkpt lat="46.58098" lon="5.48804">
        <ele>516</ele>
        <time>2011-09-20T10:20:03Z</time>
      </trkpt>
      <trkpt lat="46.58108" lon="5.488">
        <ele>516</ele>
        <time>2011-09-20T10:20:04Z</time>
      </trkpt>
      <trkpt lat="46.58118" lon="5.48799">
        <ele>516</ele>
        <time>2011-09-20T10:20:05Z</time>
      </trkpt>
      <trkpt lat="46.58129" lon="5.48798">
        <ele>516</ele>
        <time>2011-09-20T10:20:06Z</time>
      </trkpt>
      <trkpt lat="46.58142" lon="5.488">
        <ele>516</ele>
        <time>2011-09-20T10:20:07Z</time>
      </trkpt>
      <trkpt lat="46.58153" lon="5.48802">
        <ele>516</ele>
        <time>2011-09-20T10:20:08Z</time>
      </trkpt>
      <trkpt lat="46.58165" lon="5.48804">
        <ele>516</ele>
        <time>2011-09-20T10:20:09Z</time>
      </trkpt>
      <trkpt lat="46.58174" lon="5.48811">
        <ele>516</ele>
        <time>2011-09-20T10:20:10Z</time>
      </trkpt>
      <trkpt lat="46.58184" lon="5.48819">
        <ele>516</ele>
        <time>2011-09-20T10:20:11Z</time>
      </trkpt>
      <trkpt lat="46.58193" lon="5.48825">
        <ele>516</ele>
        <time>2011-09-20T10:20:12Z</time>
      </trkpt>
      <trkpt lat="46.58201" lon="5.48834">
        <ele>516</ele>
        <time>2011-09-20T10:20:13Z</time>
      </trkpt>
      <trkpt lat="46.58208" lon="5.48844">
        <ele>516</ele>
        <time>2011-09-20T10:20:14Z</time>
      </trkpt>
      <trkpt lat="46.58217" lon="5.48864">
        <ele>516</ele>
        <time>2011-09-20T10:20:16Z</time>
      </trkpt>
      <trkpt lat="46.58224" lon="5.48881">
        <ele>516</ele>
        <time>2011-09-20T10:20:18Z</time>
      </trkpt>
      <trkpt lat="46.58235" lon="5.48886">
        <ele>516</ele>
        <time>2011-09-20T10:20:20Z</time>
      </trkpt>
      <trkpt lat="46.58243" lon="5.4888">
        <ele>516</ele>
        <time>2011-09-20T10:20:22Z</time>
      </trkpt>
      <trkpt lat="46.58243" lon="5.48865">
        <ele>516</ele>
        <time>2011-09-20T10:20:26Z</time>
      </trkpt>
      <trkpt lat="46.58234" lon="5.48855">
        <ele>510</ele>
        <time>2011-09-20T10:20:38Z</time>
      </trkpt>
      <trkpt lat="46.58225" lon="5.48846">
        <ele>510</ele>
        <time>2011-09-20T10:20:41Z</time>
      </trkpt>
      <trkpt lat="46.58213" lon="5.48836">
        <ele>510</ele>
        <time>2011-09-20T10:20:44Z</time>
      </trkpt>
      <trkpt lat="46.58204" lon="5.48828">
        <ele>510</ele>
        <time>2011-09-20T10:20:46Z</time>
      </trkpt>
      <trkpt lat="46.58195" lon="5.48818">
        <ele>504</ele>
        <time>2011-09-20T10:20:48Z</time>
      </trkpt>
      <trkpt lat="46.58185" lon="5.48809">
        <ele>504</ele>
        <time>2011-09-20T10:20:50Z</time>
      </trkpt>
      <trkpt lat="46.58174" lon="5.488">
        <ele>504</ele>
        <time>2011-09-20T10:20:52Z</time>
      </trkpt>
      <trkpt lat="46.58161" lon="5.48791">
        <ele>504</ele>
        <time>2011-09-20T10:20:54Z</time>
      </trkpt>
      <trkpt lat="46.58147" lon="5.48783">
        <ele>504</ele>
        <time>2011-09-20T10:20:56Z</time>
      </trkpt>
      <trkpt lat="46.58133" lon="5.48774">
        <ele>504</ele>
        <time>2011-09-20T10:20:58Z</time>
      </trkpt>
      <trkpt lat="46.58117" lon="5.48765">
        <ele>497</ele>
        <time>2011-09-20T10:21:00Z</time>
      </trkpt>
      <trkpt lat="46.58103" lon="5.48755">
        <ele>497</ele>
        <time>2011-09-20T10:21:02Z</time>
      </trkpt>
      <trkpt lat="46.58094" lon="5.4875">
        <ele>497</ele>
        <time>2011-09-20T10:21:03Z</time>
      </trkpt>
      <trkpt lat="46.58086" lon="5.48743">
        <ele>497</ele>
        <time>2011-09-20T10:21:04Z</time>
      </trkpt>
      <trkpt lat="46.58078" lon="5.48736">
        <ele>497</ele>
        <time>2011-09-20T10:21:05Z</time>
      </trkpt>
      <trkpt lat="46.58069" lon="5.48729">
        <ele>497</ele>
        <time>2011-09-20T10:21:06Z</time>
      </trkpt>
      <trkpt lat="46.5806" lon="5.48722">
        <ele>497</ele>
        <time>2011-09-20T10:21:07Z</time>
      </trkpt>
      <trkpt lat="46.58051" lon="5.48713">
        <ele>497</ele>
        <time>2011-09-20T10:21:08Z</time>
      </trkpt>
      <trkpt lat="46.58043" lon="5.48705">
        <ele>492</ele>
        <time>2011-09-20T10:21:09Z</time>
      </trkpt>
      <trkpt lat="46.58034" lon="5.48698">
        <ele>492</ele>
        <time>2011-09-20T10:21:10Z</time>
      </trkpt>
      <trkpt lat="46.58026" lon="5.48692">
        <ele>492</ele>
        <time>2011-09-20T10:21:11Z</time>
      </trkpt>
      <trkpt lat="46.58017" lon="5.48686">
        <ele>492</ele>
        <time>2011-09-20T10:21:12Z</time>
      </trkpt>
      <trkpt lat="46.58008" lon="5.48679">
        <ele>492</ele>
        <time>2011-09-20T10:21:13Z</time>
      </trkpt>
      <trkpt lat="46.58" lon="5.48672">
        <ele>492</ele>
        <time>2011-09-20T10:21:14Z</time>
      </trkpt>
      <trkpt lat="46.57991" lon="5.48665">
        <ele>492</ele>
        <time>2011-09-20T10:21:15Z</time>
      </trkpt>
      <trkpt lat="46.57982" lon="5.4866">
        <ele>492</ele>
        <time>2011-09-20T10:21:16Z</time>
      </trkpt>
      <trkpt lat="46.57973" lon="5.48651">
        <ele>492</ele>
        <time>2011-09-20T10:21:17Z</time>
      </trkpt>
      <trkpt lat="46.57964" lon="5.48643">
        <ele>486</ele>
        <time>2011-09-20T10:21:18Z</time>
      </trkpt>
      <trkpt lat="46.57956" lon="5.48634">
        <ele>486</ele>
        <time>2011-09-20T10:21:19Z</time>
      </trkpt>
      <trkpt lat="46.57947" lon="5.48625">
        <ele>486</ele>
        <time>2011-09-20T10:21:20Z</time>
      </trkpt>
      <trkpt lat="46.57938" lon="5.48617">
        <ele>486</ele>
        <time>2011-09-20T10:21:21Z</time>
      </trkpt>
      <trkpt lat="46.57931" lon="5.48608">
        <ele>486</ele>
        <time>2011-09-20T10:21:22Z</time>
      </trkpt>
      <trkpt lat="46.57923" lon="5.486">
        <ele>486</ele>
        <time>2011-09-20T10:21:23Z</time>
      </trkpt>
      <trkpt lat="46.57916" lon="5.48591">
        <ele>486</ele>
        <time>2011-09-20T10:21:24Z</time>
      </trkpt>
      <trkpt lat="46.57909" lon="5.48581">
        <ele>481</ele>
        <time>2011-09-20T10:21:25Z</time>
      </trkpt>
      <trkpt lat="46.57903" lon="5.4857">
        <ele>481</ele>
        <time>2011-09-20T10:21:26Z</time>
      </trkpt>
      <trkpt lat="46.57896" lon="5.48558">
        <ele>481</ele>
        <time>2011-09-20T10:21:27Z</time>
      </trkpt>
      <trkpt lat="46.57891" lon="5.48545">
        <ele>481</ele>
        <time>2011-09-20T10:21:28Z</time>
      </trkpt>
      <trkpt lat="46.57885" lon="5.48532">
        <ele>481</ele>
        <time>2011-09-20T10:21:29Z</time>
      </trkpt>
      <trkpt lat="46.57878" lon="5.4852">
        <ele>481</ele>
        <time>2011-09-20T10:21:30Z</time>
      </trkpt>
      <trkpt lat="46.57871" lon="5.4851">
        <ele>481</ele>
        <time>2011-09-20T10:21:31Z</time>
      </trkpt>
      <trkpt lat="46.57864" lon="5.48501">
        <ele>481</ele>
        <time>2011-09-20T10:21:32Z</time>
      </trkpt>
      <trkpt lat="46.57849" lon="5.48487">
        <ele>481</ele>
        <time>2011-09-20T10:21:34Z</time>
      </trkpt>
      <trkpt lat="46.57837" lon="5.48478">
        <ele>481</ele>
        <time>2011-09-20T10:21:36Z</time>
      </trkpt>
      <trkpt lat="46.57825" lon="5.48468">
        <ele>481</ele>
        <time>2011-09-20T10:21:38Z</time>
      </trkpt>
      <trkpt lat="46.57812" lon="5.48456">
        <ele>481</ele>
        <time>2011-09-20T10:21:40Z</time>
      </trkpt>
      <trkpt lat="46.57798" lon="5.48441">
        <ele>481</ele>
        <time>2011-09-20T10:21:42Z</time>
      </trkpt>
      <trkpt lat="46.5779" lon="5.48433">
        <ele>481</ele>
        <time>2011-09-20T10:21:43Z</time>
      </trkpt>
      <trkpt lat="46.57783" lon="5.48425">
        <ele>481</ele>
        <time>2011-09-20T10:21:44Z</time>
      </trkpt>
      <trkpt lat="46.57776" lon="5.48416">
        <ele>481</ele>
        <time>2011-09-20T10:21:45Z</time>
      </trkpt>
      <trkpt lat="46.57767" lon="5.48407">
        <ele>481</ele>
        <time>2011-09-20T10:21:46Z</time>
      </trkpt>
      <trkpt lat="46.57759" lon="5.48398">
        <ele>481</ele>
        <time>2011-09-20T10:21:47Z</time>
      </trkpt>
      <trkpt lat="46.57751" lon="5.4839">
        <ele>481</ele>
        <time>2011-09-20T10:21:48Z</time>
      </trkpt>
      <trkpt lat="46.57743" lon="5.48381">
        <ele>481</ele>
        <time>2011-09-20T10:21:49Z</time>
      </trkpt>
      <trkpt lat="46.57735" lon="5.48373">
        <ele>481</ele>
        <time>2011-09-20T10:21:50Z</time>
      </trkpt>
      <trkpt lat="46.57728" lon="5.48363">
        <ele>481</ele>
        <time>2011-09-20T10:21:51Z</time>
      </trkpt>
      <trkpt lat="46.5772" lon="5.48353">
        <ele>481</ele>
        <time>2011-09-20T10:21:52Z</time>
      </trkpt>
      <trkpt lat="46.57714" lon="5.48342">
        <ele>481</ele>
        <time>2011-09-20T10:21:53Z</time>
      </trkpt>
      <trkpt lat="46.57707" lon="5.48333">
        <ele>481</ele>
        <time>2011-09-20T10:21:54Z</time>
      </trkpt>
      <trkpt lat="46.57701" lon="5.48322">
        <ele>481</ele>
        <time>2011-09-20T10:21:55Z</time>
      </trkpt>
      <trkpt lat="46.57694" lon="5.4831">
        <ele>474</ele>
        <time>2011-09-20T10:21:56Z</time>
      </trkpt>
      <trkpt lat="46.57688" lon="5.48299">
        <ele>474</ele>
        <time>2011-09-20T10:21:57Z</time>
      </trkpt>
      <trkpt lat="46.57681" lon="5.48289">
        <ele>474</ele>
        <time>2011-09-20T10:21:58Z</time>
      </trkpt>
      <trkpt lat="46.57675" lon="5.48278">
        <ele>474</ele>
        <time>2011-09-20T10:21:59Z</time>
      </trkpt>
      <trkpt lat="46.57669" lon="5.48268">
        <ele>474</ele>
        <time>2011-09-20T10:22:00Z</time>
      </trkpt>
      <trkpt lat="46.57663" lon="5.48257">
        <ele>474</ele>
        <time>2011-09-20T10:22:01Z</time>
      </trkpt>
      <trkpt lat="46.57657" lon="5.48247">
        <ele>474</ele>
        <time>2011-09-20T10:22:02Z</time>
      </trkpt>
      <trkpt lat="46.57652" lon="5.48236">
        <ele>474</ele>
        <time>2011-09-20T10:22:03Z</time>
      </trkpt>
      <trkpt lat="46.5764" lon="5.48216">
        <ele>474</ele>
        <time>2011-09-20T10:22:05Z</time>
      </trkpt>
      <trkpt lat="46.57629" lon="5.48197">
        <ele>474</ele>
        <time>2011-09-20T10:22:07Z</time>
      </trkpt>
      <trkpt lat="46.57616" lon="5.4818">
        <ele>474</ele>
        <time>2011-09-20T10:22:09Z</time>
      </trkpt>
      <trkpt lat="46.57603" lon="5.48164">
        <ele>474</ele>
        <time>2011-09-20T10:22:11Z</time>
      </trkpt>
      <trkpt lat="46.57592" lon="5.48147">
        <ele>474</ele>
        <time>2011-09-20T10:22:13Z</time>
      </trkpt>
      <trkpt lat="46.5758" lon="5.4813">
        <ele>469</ele>
        <time>2011-09-20T10:22:15Z</time>
      </trkpt>
      <trkpt lat="46.57567" lon="5.48113">
        <ele>469</ele>
        <time>2011-09-20T10:22:17Z</time>
      </trkpt>
      <trkpt lat="46.57555" lon="5.48095">
        <ele>469</ele>
        <time>2011-09-20T10:22:19Z</time>
      </trkpt>
      <trkpt lat="46.57543" lon="5.48076">
        <ele>469</ele>
        <time>2011-09-20T10:22:21Z</time>
      </trkpt>
      <trkpt lat="46.57532" lon="5.48056">
        <ele>462</ele>
        <time>2011-09-20T10:22:23Z</time>
      </trkpt>
      <trkpt lat="46.5752" lon="5.48038">
        <ele>462</ele>
        <time>2011-09-20T10:22:25Z</time>
      </trkpt>
      <trkpt lat="46.5751" lon="5.48018">
        <ele>462</ele>
        <time>2011-09-20T10:22:27Z</time>
      </trkpt>
      <trkpt lat="46.57497" lon="5.48002">
        <ele>462</ele>
        <time>2011-09-20T10:22:29Z</time>
      </trkpt>
      <trkpt lat="46.57491" lon="5.47992">
        <ele>462</ele>
        <time>2011-09-20T10:22:30Z</time>
      </trkpt>
      <trkpt lat="46.57476" lon="5.47977">
        <ele>462</ele>
        <time>2011-09-20T10:22:32Z</time>
      </trkpt>
      <trkpt lat="46.57461" lon="5.47965">
        <ele>462</ele>
        <time>2011-09-20T10:22:34Z</time>
      </trkpt>
      <trkpt lat="46.57445" lon="5.47955">
        <ele>462</ele>
        <time>2011-09-20T10:22:36Z</time>
      </trkpt>
      <trkpt lat="46.57429" lon="5.47949">
        <ele>462</ele>
        <time>2011-09-20T10:22:38Z</time>
      </trkpt>
      <trkpt lat="46.57412" lon="5.47941">
        <ele>462</ele>
        <time>2011-09-20T10:22:40Z</time>
      </trkpt>
      <trkpt lat="46.57396" lon="5.47931">
        <ele>462</ele>
        <time>2011-09-20T10:22:42Z</time>
      </trkpt>
      <trkpt lat="46.57388" lon="5.47925">
        <ele>462</ele>
        <time>2011-09-20T10:22:43Z</time>
      </trkpt>
      <trkpt lat="46.57372" lon="5.47913">
        <ele>462</ele>
        <time>2011-09-20T10:22:45Z</time>
      </trkpt>
      <trkpt lat="46.57357" lon="5.47903">
        <ele>462</ele>
        <time>2011-09-20T10:22:47Z</time>
      </trkpt>
      <trkpt lat="46.57348" lon="5.479">
        <ele>462</ele>
        <time>2011-09-20T10:22:48Z</time>
      </trkpt>
      <trkpt lat="46.57339" lon="5.47896">
        <ele>462</ele>
        <time>2011-09-20T10:22:49Z</time>
      </trkpt>
      <trkpt lat="46.57323" lon="5.47888">
        <ele>462</ele>
        <time>2011-09-20T10:22:51Z</time>
      </trkpt>
      <trkpt lat="46.57315" lon="5.47882">
        <ele>462</ele>
        <time>2011-09-20T10:22:52Z</time>
      </trkpt>
      <trkpt lat="46.57306" lon="5.47862">
        <ele>462</ele>
        <time>2011-09-20T10:22:54Z</time>
      </trkpt>
      <trkpt lat="46.57302" lon="5.47839">
        <ele>462</ele>
        <time>2011-09-20T10:22:56Z</time>
      </trkpt>
      <trkpt lat="46.57305" lon="5.4782">
        <ele>462</ele>
        <time>2011-09-20T10:22:58Z</time>
      </trkpt>
      <trkpt lat="46.57312" lon="5.47803">
        <ele>467</ele>
        <time>2011-09-20T10:23:00Z</time>
      </trkpt>
      <trkpt lat="46.57321" lon="5.47789">
        <ele>467</ele>
        <time>2011-09-20T10:23:02Z</time>
      </trkpt>
      <trkpt lat="46.5733" lon="5.47779">
        <ele>467</ele>
        <time>2011-09-20T10:23:04Z</time>
      </trkpt>
      <trkpt lat="46.5734" lon="5.47771">
        <ele>467</ele>
        <time>2011-09-20T10:23:06Z</time>
      </trkpt>
      <trkpt lat="46.57349" lon="5.47761">
        <ele>467</ele>
        <time>2011-09-20T10:23:08Z</time>
      </trkpt>
      <trkpt lat="46.57355" lon="5.4775">
        <ele>473</ele>
        <time>2011-09-20T10:23:10Z</time>
      </trkpt>
      <trkpt lat="46.5736" lon="5.47738">
        <ele>473</ele>
        <time>2011-09-20T10:23:12Z</time>
      </trkpt>
      <trkpt lat="46.57363" lon="5.47724">
        <ele>473</ele>
        <time>2011-09-20T10:23:14Z</time>
      </trkpt>
      <trkpt lat="46.57368" lon="5.47713">
        <ele>479</ele>
        <time>2011-09-20T10:23:16Z</time>
      </trkpt>
      <trkpt lat="46.57371" lon="5.477">
        <ele>479</ele>
        <time>2011-09-20T10:23:18Z</time>
      </trkpt>
      <trkpt lat="46.57375" lon="5.47687">
        <ele>479</ele>
        <time>2011-09-20T10:23:20Z</time>
      </trkpt>
      <trkpt lat="46.5738" lon="5.47674">
        <ele>479</ele>
        <time>2011-09-20T10:23:22Z</time>
      </trkpt>
      <trkpt lat="46.57382" lon="5.4766">
        <ele>479</ele>
        <time>2011-09-20T10:23:25Z</time>
      </trkpt>
      <trkpt lat="46.57384" lon="5.47645">
        <ele>479</ele>
        <time>2011-09-20T10:23:28Z</time>
      </trkpt>
      <trkpt lat="46.57387" lon="5.47632">
        <ele>486</ele>
        <time>2011-09-20T10:23:31Z</time>
      </trkpt>
      <trkpt lat="46.57391" lon="5.47615">
        <ele>493</ele>
        <time>2011-09-20T10:23:34Z</time>
      </trkpt>
      <trkpt lat="46.5739" lon="5.476">
        <ele>493</ele>
        <time>2011-09-20T10:23:37Z</time>
      </trkpt>
      <trkpt lat="46.57393" lon="5.47584">
        <ele>500</ele>
        <time>2011-09-20T10:23:40Z</time>
      </trkpt>
      <trkpt lat="46.57394" lon="5.47568">
        <ele>500</ele>
        <time>2011-09-20T10:23:43Z</time>
      </trkpt>
      <trkpt lat="46.57396" lon="5.47554">
        <ele>506</ele>
        <time>2011-09-20T10:23:46Z</time>
      </trkpt>
      <trkpt lat="46.57403" lon="5.47536">
        <ele>506</ele>
        <time>2011-09-20T10:23:49Z</time>
      </trkpt>
      <trkpt lat="46.57408" lon="5.47518">
        <ele>501</ele>
        <time>2011-09-20T10:23:52Z</time>
      </trkpt>
      <trkpt lat="46.57416" lon="5.47503">
        <ele>501</ele>
        <time>2011-09-20T10:23:55Z</time>
      </trkpt>
      <trkpt lat="46.57426" lon="5.47488">
        <ele>501</ele>
        <time>2011-09-20T10:23:58Z</time>
      </trkpt>
      <trkpt lat="46.57431" lon="5.47474">
        <ele>501</ele>
        <time>2011-09-20T10:24:01Z</time>
      </trkpt>
      <trkpt lat="46.57434" lon="5.47459">
        <ele>501</ele>
        <time>2011-09-20T10:24:04Z</time>
      </trkpt>
      <trkpt lat="46.57434" lon="5.47441">
        <ele>501</ele>
        <time>2011-09-20T10:24:07Z</time>
      </trkpt>
      <trkpt lat="46.57432" lon="5.47423">
        <ele>501</ele>
        <time>2011-09-20T10:24:10Z</time>
      </trkpt>
      <trkpt lat="46.57429" lon="5.47404">
        <ele>496</ele>
        <time>2011-09-20T10:24:13Z</time>
      </trkpt>
      <trkpt lat="46.57423" lon="5.47385">
        <ele>496</ele>
        <time>2011-09-20T10:24:16Z</time>
      </trkpt>
      <trkpt lat="46.57418" lon="5.47371">
        <ele>496</ele>
        <time>2011-09-20T10:24:18Z</time>
      </trkpt>
      <trkpt lat="46.57414" lon="5.47354">
        <ele>496</ele>
        <time>2011-09-20T10:24:20Z</time>
      </trkpt>
      <trkpt lat="46.57409" lon="5.4734">
        <ele>496</ele>
        <time>2011-09-20T10:24:22Z</time>
      </trkpt>
      <trkpt lat="46.57405" lon="5.47325">
        <ele>496</ele>
        <time>2011-09-20T10:24:24Z</time>
      </trkpt>
      <trkpt lat="46.57401" lon="5.47309">
        <ele>496</ele>
        <time>2011-09-20T10:24:26Z</time>
      </trkpt>
      <trkpt lat="46.57396" lon="5.47295">
        <ele>496</ele>
        <time>2011-09-20T10:24:28Z</time>
      </trkpt>
      <trkpt lat="46.57391" lon="5.47281">
        <ele>496</ele>
        <time>2011-09-20T10:24:30Z</time>
      </trkpt>
      <trkpt lat="46.57387" lon="5.47265">
        <ele>496</ele>
        <time>2011-09-20T10:24:32Z</time>
      </trkpt>
      <trkpt lat="46.57383" lon="5.47248">
        <ele>490</ele>
        <time>2011-09-20T10:24:34Z</time>
      </trkpt>
      <trkpt lat="46.57377" lon="5.4723">
        <ele>490</ele>
        <time>2011-09-20T10:24:36Z</time>
      </trkpt>
      <trkpt lat="46.57369" lon="5.47212">
        <ele>490</ele>
        <time>2011-09-20T10:24:38Z</time>
      </trkpt>
      <trkpt lat="46.57361" lon="5.47194">
        <ele>490</ele>
        <time>2011-09-20T10:24:40Z</time>
      </trkpt>
      <trkpt lat="46.57352" lon="5.47174">
        <ele>484</ele>
        <time>2011-09-20T10:24:42Z</time>
      </trkpt>
      <trkpt lat="46.57346" lon="5.47163">
        <ele>484</ele>
        <time>2011-09-20T10:24:43Z</time>
      </trkpt>
      <trkpt lat="46.57336" lon="5.47142">
        <ele>484</ele>
        <time>2011-09-20T10:24:45Z</time>
      </trkpt>
      <trkpt lat="46.5733" lon="5.47132">
        <ele>484</ele>
        <time>2011-09-20T10:24:46Z</time>
      </trkpt>
      <trkpt lat="46.57323" lon="5.47123">
        <ele>484</ele>
        <time>2011-09-20T10:24:47Z</time>
      </trkpt>
      <trkpt lat="46.57315" lon="5.47113">
        <ele>477</ele>
        <time>2011-09-20T10:24:48Z</time>
      </trkpt>
      <trkpt lat="46.57307" lon="5.47103">
        <ele>477</ele>
        <time>2011-09-20T10:24:49Z</time>
      </trkpt>
      <trkpt lat="46.57299" lon="5.47094">
        <ele>477</ele>
        <time>2011-09-20T10:24:50Z</time>
      </trkpt>
      <trkpt lat="46.5729" lon="5.47085">
        <ele>477</ele>
        <time>2011-09-20T10:24:51Z</time>
      </trkpt>
      <trkpt lat="46.57281" lon="5.47076">
        <ele>477</ele>
        <time>2011-09-20T10:24:52Z</time>
      </trkpt>
      <trkpt lat="46.57271" lon="5.47068">
        <ele>477</ele>
        <time>2011-09-20T10:24:53Z</time>
      </trkpt>
      <trkpt lat="46.57261" lon="5.47059">
        <ele>472</ele>
        <time>2011-09-20T10:24:54Z</time>
      </trkpt>
      <trkpt lat="46.57251" lon="5.4705">
        <ele>472</ele>
        <time>2011-09-20T10:24:55Z</time>
      </trkpt>
      <trkpt lat="46.57242" lon="5.47039">
        <ele>472</ele>
        <time>2011-09-20T10:24:56Z</time>
      </trkpt>
      <trkpt lat="46.57234" lon="5.47029">
        <ele>472</ele>
        <time>2011-09-20T10:24:57Z</time>
      </trkpt>
      <trkpt lat="46.57225" lon="5.47019">
        <ele>472</ele>
        <time>2011-09-20T10:24:58Z</time>
      </trkpt>
      <trkpt lat="46.57219" lon="5.47008">
        <ele>472</ele>
        <time>2011-09-20T10:24:59Z</time>
      </trkpt>
      <trkpt lat="46.57211" lon="5.46997">
        <ele>472</ele>
        <time>2011-09-20T10:25:00Z</time>
      </trkpt>
      <trkpt lat="46.57204" lon="5.46984">
        <ele>472</ele>
        <time>2011-09-20T10:25:01Z</time>
      </trkpt>
      <trkpt lat="46.57198" lon="5.46972">
        <ele>472</ele>
        <time>2011-09-20T10:25:02Z</time>
      </trkpt>
      <trkpt lat="46.5719" lon="5.46959">
        <ele>465</ele>
        <time>2011-09-20T10:25:03Z</time>
      </trkpt>
      <trkpt lat="46.57183" lon="5.46945">
        <ele>465</ele>
        <time>2011-09-20T10:25:04Z</time>
      </trkpt>
      <trkpt lat="46.57177" lon="5.46929">
        <ele>465</ele>
        <time>2011-09-20T10:25:05Z</time>
      </trkpt>
      <trkpt lat="46.57171" lon="5.46914">
        <ele>465</ele>
        <time>2011-09-20T10:25:06Z</time>
      </trkpt>
      <trkpt lat="46.57165" lon="5.469">
        <ele>465</ele>
        <time>2011-09-20T10:25:07Z</time>
      </trkpt>
      <trkpt lat="46.57159" lon="5.46884">
        <ele>465</ele>
        <time>2011-09-20T10:25:08Z</time>
      </trkpt>
      <trkpt lat="46.57152" lon="5.46868">
        <ele>465</ele>
        <time>2011-09-20T10:25:09Z</time>
      </trkpt>
      <trkpt lat="46.57145" lon="5.46852">
        <ele>465</ele>
        <time>2011-09-20T10:25:10Z</time>
      </trkpt>
      <trkpt lat="46.57139" lon="5.46837">
        <ele>465</ele>
        <time>2011-09-20T10:25:11Z</time>
      </trkpt>
      <trkpt lat="46.57133" lon="5.46821">
        <ele>465</ele>
        <time>2011-09-20T10:25:12Z</time>
      </trkpt>
      <trkpt lat="46.57129" lon="5.46805">
        <ele>465</ele>
        <time>2011-09-20T10:25:13Z</time>
      </trkpt>
      <trkpt lat="46.57126" lon="5.46787">
        <ele>460</ele>
        <time>2011-09-20T10:25:14Z</time>
      </trkpt>
      <trkpt lat="46.57123" lon="5.46772">
        <ele>460</ele>
        <time>2011-09-20T10:25:15Z</time>
      </trkpt>
      <trkpt lat="46.57119" lon="5.46756">
        <ele>460</ele>
        <time>2011-09-20T10:25:16Z</time>
      </trkpt>
      <trkpt lat="46.57116" lon="5.4674">
        <ele>460</ele>
        <time>2011-09-20T10:25:17Z</time>
      </trkpt>
      <trkpt lat="46.57116" lon="5.46724">
        <ele>460</ele>
        <time>2011-09-20T10:25:18Z</time>
      </trkpt>
      <trkpt lat="46.57115" lon="5.46708">
        <ele>460</ele>
        <time>2011-09-20T10:25:19Z</time>
      </trkpt>
      <trkpt lat="46.57115" lon="5.46692">
        <ele>460</ele>
        <time>2011-09-20T10:25:20Z</time>
      </trkpt>
      <trkpt lat="46.57114" lon="5.46677">
        <ele>460</ele>
        <time>2011-09-20T10:25:21Z</time>
      </trkpt>
      <trkpt lat="46.57111" lon="5.46663">
        <ele>460</ele>
        <time>2011-09-20T10:25:22Z</time>
      </trkpt>
      <trkpt lat="46.57106" lon="5.46649">
        <ele>460</ele>
        <time>2011-09-20T10:25:23Z</time>
      </trkpt>
      <trkpt lat="46.57098" lon="5.46637">
        <ele>460</ele>
        <time>2011-09-20T10:25:24Z</time>
      </trkpt>
      <trkpt lat="46.5709" lon="5.46628">
        <ele>460</ele>
        <time>2011-09-20T10:25:25Z</time>
      </trkpt>
      <trkpt lat="46.57082" lon="5.46619">
        <ele>460</ele>
        <time>2011-09-20T10:25:26Z</time>
      </trkpt>
      <trkpt lat="46.57073" lon="5.4661">
        <ele>460</ele>
        <time>2011-09-20T10:25:27Z</time>
      </trkpt>
      <trkpt lat="46.57064" lon="5.466">
        <ele>454</ele>
        <time>2011-09-20T10:25:28Z</time>
      </trkpt>
      <trkpt lat="46.57056" lon="5.4659">
        <ele>454</ele>
        <time>2011-09-20T10:25:29Z</time>
      </trkpt>
      <trkpt lat="46.5705" lon="5.46577">
        <ele>454</ele>
        <time>2011-09-20T10:25:30Z</time>
      </trkpt>
      <trkpt lat="46.57046" lon="5.46562">
        <ele>454</ele>
        <time>2011-09-20T10:25:31Z</time>
      </trkpt>
      <trkpt lat="46.57045" lon="5.46546">
        <ele>454</ele>
        <time>2011-09-20T10:25:32Z</time>
      </trkpt>
      <trkpt lat="46.57045" lon="5.46528">
        <ele>454</ele>
        <time>2011-09-20T10:25:33Z</time>
      </trkpt>
      <trkpt lat="46.57046" lon="5.46511">
        <ele>454</ele>
        <time>2011-09-20T10:25:34Z</time>
      </trkpt>
      <trkpt lat="46.57046" lon="5.46493">
        <ele>454</ele>
        <time>2011-09-20T10:25:35Z</time>
      </trkpt>
      <trkpt lat="46.57046" lon="5.46477">
        <ele>454</ele>
        <time>2011-09-20T10:25:36Z</time>
      </trkpt>
      <trkpt lat="46.57045" lon="5.46459">
        <ele>454</ele>
        <time>2011-09-20T10:25:37Z</time>
      </trkpt>
      <trkpt lat="46.57042" lon="5.46442">
        <ele>449</ele>
        <time>2011-09-20T10:25:38Z</time>
      </trkpt>
      <trkpt lat="46.57038" lon="5.46425">
        <ele>449</ele>
        <time>2011-09-20T10:25:39Z</time>
      </trkpt>
      <trkpt lat="46.57032" lon="5.4641">
        <ele>449</ele>
        <time>2011-09-20T10:25:40Z</time>
      </trkpt>
      <trkpt lat="46.57025" lon="5.46397">
        <ele>449</ele>
        <time>2011-09-20T10:25:41Z</time>
      </trkpt>
      <trkpt lat="46.57017" lon="5.46384">
        <ele>449</ele>
        <time>2011-09-20T10:25:42Z</time>
      </trkpt>
      <trkpt lat="46.57009" lon="5.46372">
        <ele>449</ele>
        <time>2011-09-20T10:25:43Z</time>
      </trkpt>
      <trkpt lat="46.57" lon="5.4636">
        <ele>449</ele>
        <time>2011-09-20T10:25:44Z</time>
      </trkpt>
      <trkpt lat="46.56991" lon="5.46348">
        <ele>444</ele>
        <time>2011-09-20T10:25:45Z</time>
      </trkpt>
      <trkpt lat="46.56982" lon="5.46337">
        <ele>444</ele>
        <time>2011-09-20T10:25:46Z</time>
      </trkpt>
      <trkpt lat="46.56972" lon="5.46325">
        <ele>444</ele>
        <time>2011-09-20T10:25:47Z</time>
      </trkpt>
      <trkpt lat="46.56963" lon="5.46313">
        <ele>444</ele>
        <time>2011-09-20T10:25:48Z</time>
      </trkpt>
      <trkpt lat="46.56954" lon="5.46301">
        <ele>444</ele>
        <time>2011-09-20T10:25:49Z</time>
      </trkpt>
      <trkpt lat="46.56946" lon="5.46287">
        <ele>444</ele>
        <time>2011-09-20T10:25:50Z</time>
      </trkpt>
      <trkpt lat="46.56938" lon="5.46273">
        <ele>444</ele>
        <time>2011-09-20T10:25:51Z</time>
      </trkpt>
      <trkpt lat="46.56931" lon="5.46258">
        <ele>438</ele>
        <time>2011-09-20T10:25:52Z</time>
      </trkpt>
      <trkpt lat="46.56924" lon="5.46244">
        <ele>438</ele>
        <time>2011-09-20T10:25:53Z</time>
      </trkpt>
      <trkpt lat="46.56916" lon="5.4623">
        <ele>438</ele>
        <time>2011-09-20T10:25:54Z</time>
      </trkpt>
      <trkpt lat="46.56908" lon="5.46215">
        <ele>438</ele>
        <time>2011-09-20T10:25:55Z</time>
      </trkpt>
      <trkpt lat="46.569" lon="5.46202">
        <ele>438</ele>
        <time>2011-09-20T10:25:56Z</time>
      </trkpt>
      <trkpt lat="46.56891" lon="5.46188">
        <ele>438</ele>
        <time>2011-09-20T10:25:57Z</time>
      </trkpt>
      <trkpt lat="46.56882" lon="5.46177">
        <ele>438</ele>
        <time>2011-09-20T10:25:58Z</time>
      </trkpt>
      <trkpt lat="46.56872" lon="5.46163">
        <ele>432</ele>
        <time>2011-09-20T10:25:59Z</time>
      </trkpt>
      <trkpt lat="46.56864" lon="5.4615">
        <ele>432</ele>
        <time>2011-09-20T10:26:00Z</time>
      </trkpt>
      <trkpt lat="46.56856" lon="5.46134">
        <ele>432</ele>
        <time>2011-09-20T10:26:01Z</time>
      </trkpt>
      <trkpt lat="46.56849" lon="5.46118">
        <ele>432</ele>
        <time>2011-09-20T10:26:02Z</time>
      </trkpt>
      <trkpt lat="46.56843" lon="5.46102">
        <ele>432</ele>
        <time>2011-09-20T10:26:03Z</time>
      </trkpt>
      <trkpt lat="46.56837" lon="5.46086">
        <ele>432</ele>
        <time>2011-09-20T10:26:04Z</time>
      </trkpt>
      <trkpt lat="46.5683" lon="5.4607">
        <ele>432</ele>
        <time>2011-09-20T10:26:05Z</time>
      </trkpt>
      <trkpt lat="46.56823" lon="5.46054">
        <ele>432</ele>
        <time>2011-09-20T10:26:06Z</time>
      </trkpt>
      <trkpt lat="46.56815" lon="5.46039">
        <ele>427</ele>
        <time>2011-09-20T10:26:07Z</time>
      </trkpt>
      <trkpt lat="46.56806" lon="5.46025">
        <ele>427</ele>
        <time>2011-09-20T10:26:08Z</time>
      </trkpt>
      <trkpt lat="46.56797" lon="5.46011">
        <ele>427</ele>
        <time>2011-09-20T10:26:09Z</time>
      </trkpt>
      <trkpt lat="46.56787" lon="5.45999">
        <ele>427</ele>
        <time>2011-09-20T10:26:10Z</time>
      </trkpt>
      <trkpt lat="46.56778" lon="5.45986">
        <ele>427</ele>
        <time>2011-09-20T10:26:11Z</time>
      </trkpt>
      <trkpt lat="46.56768" lon="5.45973">
        <ele>427</ele>
        <time>2011-09-20T10:26:12Z</time>
      </trkpt>
      <trkpt lat="46.56759" lon="5.45958">
        <ele>427</ele>
        <time>2011-09-20T10:26:13Z</time>
      </trkpt>
      <trkpt lat="46.5675" lon="5.45946">
        <ele>427</ele>
        <time>2011-09-20T10:26:14Z</time>
      </trkpt>
      <trkpt lat="46.5674" lon="5.45933">
        <ele>421</ele>
        <time>2011-09-20T10:26:15Z</time>
      </trkpt>
      <trkpt lat="46.5673" lon="5.45921">
        <ele>421</ele>
        <time>2011-09-20T10:26:16Z</time>
      </trkpt>
      <trkpt lat="46.5672" lon="5.45909">
        <ele>421</ele>
        <time>2011-09-20T10:26:17Z</time>
      </trkpt>
      <trkpt lat="46.56709" lon="5.45898">
        <ele>421</ele>
        <time>2011-09-20T10:26:18Z</time>
      </trkpt>
      <trkpt lat="46.56698" lon="5.45887">
        <ele>421</ele>
        <time>2011-09-20T10:26:19Z</time>
      </trkpt>
      <trkpt lat="46.56687" lon="5.45878">
        <ele>421</ele>
        <time>2011-09-20T10:26:20Z</time>
      </trkpt>
      <trkpt lat="46.56676" lon="5.45869">
        <ele>421</ele>
        <time>2011-09-20T10:26:21Z</time>
      </trkpt>
      <trkpt lat="46.56665" lon="5.45859">
        <ele>416</ele>
        <time>2011-09-20T10:26:22Z</time>
      </trkpt>
      <trkpt lat="46.56654" lon="5.4585">
        <ele>416</ele>
        <time>2011-09-20T10:26:23Z</time>
      </trkpt>
      <trkpt lat="46.56642" lon="5.45842">
        <ele>416</ele>
        <time>2011-09-20T10:26:24Z</time>
      </trkpt>
      <trkpt lat="46.56631" lon="5.45834">
        <ele>416</ele>
        <time>2011-09-20T10:26:25Z</time>
      </trkpt>
      <trkpt lat="46.56618" lon="5.45828">
        <ele>416</ele>
        <time>2011-09-20T10:26:26Z</time>
      </trkpt>
      <trkpt lat="46.56606" lon="5.45823">
        <ele>416</ele>
        <time>2011-09-20T10:26:27Z</time>
      </trkpt>
      <trkpt lat="46.56594" lon="5.45817">
        <ele>416</ele>
        <time>2011-09-20T10:26:28Z</time>
      </trkpt>
      <trkpt lat="46.56581" lon="5.45812">
        <ele>416</ele>
        <time>2011-09-20T10:26:29Z</time>
      </trkpt>
      <trkpt lat="46.5657" lon="5.45805">
        <ele>416</ele>
        <time>2011-09-20T10:26:30Z</time>
      </trkpt>
      <trkpt lat="46.56559" lon="5.45795">
        <ele>411</ele>
        <time>2011-09-20T10:26:31Z</time>
      </trkpt>
      <trkpt lat="46.56551" lon="5.45782">
        <ele>411</ele>
        <time>2011-09-20T10:26:32Z</time>
      </trkpt>
      <trkpt lat="46.56543" lon="5.45769">
        <ele>411</ele>
        <time>2011-09-20T10:26:33Z</time>
      </trkpt>
      <trkpt lat="46.56535" lon="5.45755">
        <ele>411</ele>
        <time>2011-09-20T10:26:34Z</time>
      </trkpt>
      <trkpt lat="46.56528" lon="5.45743">
        <ele>411</ele>
        <time>2011-09-20T10:26:35Z</time>
      </trkpt>
      <trkpt lat="46.56522" lon="5.4573">
        <ele>411</ele>
        <time>2011-09-20T10:26:36Z</time>
      </trkpt>
      <trkpt lat="46.56515" lon="5.45719">
        <ele>411</ele>
        <time>2011-09-20T10:26:37Z</time>
      </trkpt>
      <trkpt lat="46.5651" lon="5.45709">
        <ele>411</ele>
        <time>2011-09-20T10:26:38Z</time>
      </trkpt>
      <trkpt lat="46.56502" lon="5.45688">
        <ele>411</ele>
        <time>2011-09-20T10:26:40Z</time>
      </trkpt>
      <trkpt lat="46.56502" lon="5.45666">
        <ele>411</ele>
        <time>2011-09-20T10:26:42Z</time>
      </trkpt>
      <trkpt lat="46.56513" lon="5.45648">
        <ele>411</ele>
        <time>2011-09-20T10:26:44Z</time>
      </trkpt>
      <trkpt lat="46.5653" lon="5.45644">
        <ele>411</ele>
        <time>2011-09-20T10:26:46Z</time>
      </trkpt>
      <trkpt lat="46.5654" lon="5.45648">
        <ele>411</ele>
        <time>2011-09-20T10:26:47Z</time>
      </trkpt>
      <trkpt lat="46.5655" lon="5.45651">
        <ele>406</ele>
        <time>2011-09-20T10:26:48Z</time>
      </trkpt>
      <trkpt lat="46.56559" lon="5.45655">
        <ele>406</ele>
        <time>2011-09-20T10:26:49Z</time>
      </trkpt>
      <trkpt lat="46.56569" lon="5.45655">
        <ele>406</ele>
        <time>2011-09-20T10:26:50Z</time>
      </trkpt>
      <trkpt lat="46.5658" lon="5.45652">
        <ele>406</ele>
        <time>2011-09-20T10:26:51Z</time>
      </trkpt>
      <trkpt lat="46.5659" lon="5.45648">
        <ele>406</ele>
        <time>2011-09-20T10:26:52Z</time>
      </trkpt>
      <trkpt lat="46.56599" lon="5.45642">
        <ele>406</ele>
        <time>2011-09-20T10:26:53Z</time>
      </trkpt>
      <trkpt lat="46.56609" lon="5.45635">
        <ele>406</ele>
        <time>2011-09-20T10:26:54Z</time>
      </trkpt>
      <trkpt lat="46.56618" lon="5.45628">
        <ele>406</ele>
        <time>2011-09-20T10:26:55Z</time>
      </trkpt>
      <trkpt lat="46.56628" lon="5.45621">
        <ele>406</ele>
        <time>2011-09-20T10:26:56Z</time>
      </trkpt>
      <trkpt lat="46.56636" lon="5.45614">
        <ele>406</ele>
        <time>2011-09-20T10:26:57Z</time>
      </trkpt>
      <trkpt lat="46.56646" lon="5.45607">
        <ele>406</ele>
        <time>2011-09-20T10:26:58Z</time>
      </trkpt>
      <trkpt lat="46.56656" lon="5.456">
        <ele>406</ele>
        <time>2011-09-20T10:26:59Z</time>
      </trkpt>
      <trkpt lat="46.56666" lon="5.45595">
        <ele>406</ele>
        <time>2011-09-20T10:27:00Z</time>
      </trkpt>
      <trkpt lat="46.56676" lon="5.45592">
        <ele>406</ele>
        <time>2011-09-20T10:27:01Z</time>
      </trkpt>
      <trkpt lat="46.56687" lon="5.4559">
        <ele>406</ele>
        <time>2011-09-20T10:27:02Z</time>
      </trkpt>
      <trkpt lat="46.56698" lon="5.45589">
        <ele>406</ele>
        <time>2011-09-20T10:27:03Z</time>
      </trkpt>
      <trkpt lat="46.56709" lon="5.45587">
        <ele>406</ele>
        <time>2011-09-20T10:27:04Z</time>
      </trkpt>
      <trkpt lat="46.5672" lon="5.45585">
        <ele>406</ele>
        <time>2011-09-20T10:27:05Z</time>
      </trkpt>
      <trkpt lat="46.5673" lon="5.4558">
        <ele>406</ele>
        <time>2011-09-20T10:27:06Z</time>
      </trkpt>
      <trkpt lat="46.56741" lon="5.45574">
        <ele>406</ele>
        <time>2011-09-20T10:27:07Z</time>
      </trkpt>
      <trkpt lat="46.56752" lon="5.45568">
        <ele>406</ele>
        <time>2011-09-20T10:27:08Z</time>
      </trkpt>
      <trkpt lat="46.56762" lon="5.45561">
        <ele>400</ele>
        <time>2011-09-20T10:27:09Z</time>
      </trkpt>
      <trkpt lat="46.56774" lon="5.45558">
        <ele>400</ele>
        <time>2011-09-20T10:27:10Z</time>
      </trkpt>
      <trkpt lat="46.56786" lon="5.45558">
        <ele>400</ele>
        <time>2011-09-20T10:27:11Z</time>
      </trkpt>
      <trkpt lat="46.56797" lon="5.45561">
        <ele>400</ele>
        <time>2011-09-20T10:27:12Z</time>
      </trkpt>
      <trkpt lat="46.56809" lon="5.45568">
        <ele>400</ele>
        <time>2011-09-20T10:27:13Z</time>
      </trkpt>
      <trkpt lat="46.56819" lon="5.45577">
        <ele>400</ele>
        <time>2011-09-20T10:27:14Z</time>
      </trkpt>
      <trkpt lat="46.5683" lon="5.45585">
        <ele>400</ele>
        <time>2011-09-20T10:27:15Z</time>
      </trkpt>
      <trkpt lat="46.56841" lon="5.45593">
        <ele>395</ele>
        <time>2011-09-20T10:27:16Z</time>
      </trkpt>
      <trkpt lat="46.5685" lon="5.45602">
        <ele>395</ele>
        <time>2011-09-20T10:27:17Z</time>
      </trkpt>
      <trkpt lat="46.56859" lon="5.45613">
        <ele>395</ele>
        <time>2011-09-20T10:27:18Z</time>
      </trkpt>
      <trkpt lat="46.56866" lon="5.45628">
        <ele>395</ele>
        <time>2011-09-20T10:27:19Z</time>
      </trkpt>
      <trkpt lat="46.56873" lon="5.45643">
        <ele>395</ele>
        <time>2011-09-20T10:27:20Z</time>
      </trkpt>
      <trkpt lat="46.56879" lon="5.45657">
        <ele>395</ele>
        <time>2011-09-20T10:27:21Z</time>
      </trkpt>
      <trkpt lat="46.56884" lon="5.45671">
        <ele>389</ele>
        <time>2011-09-20T10:27:22Z</time>
      </trkpt>
      <trkpt lat="46.56892" lon="5.45683">
        <ele>389</ele>
        <time>2011-09-20T10:27:23Z</time>
      </trkpt>
      <trkpt lat="46.56901" lon="5.45692">
        <ele>389</ele>
        <time>2011-09-20T10:27:24Z</time>
      </trkpt>
      <trkpt lat="46.56911" lon="5.457">
        <ele>389</ele>
        <time>2011-09-20T10:27:25Z</time>
      </trkpt>
      <trkpt lat="46.56921" lon="5.45705">
        <ele>389</ele>
        <time>2011-09-20T10:27:26Z</time>
      </trkpt>
      <trkpt lat="46.56932" lon="5.4571">
        <ele>389</ele>
        <time>2011-09-20T10:27:27Z</time>
      </trkpt>
      <trkpt lat="46.56942" lon="5.45713">
        <ele>389</ele>
        <time>2011-09-20T10:27:28Z</time>
      </trkpt>
      <trkpt lat="46.56953" lon="5.45719">
        <ele>389</ele>
        <time>2011-09-20T10:27:29Z</time>
      </trkpt>
      <trkpt lat="46.56963" lon="5.45723">
        <ele>384</ele>
        <time>2011-09-20T10:27:30Z</time>
      </trkpt>
      <trkpt lat="46.56973" lon="5.45727">
        <ele>384</ele>
        <time>2011-09-20T10:27:31Z</time>
      </trkpt>
      <trkpt lat="46.56984" lon="5.45733">
        <ele>384</ele>
        <time>2011-09-20T10:27:32Z</time>
      </trkpt>
      <trkpt lat="46.56994" lon="5.45737">
        <ele>384</ele>
        <time>2011-09-20T10:27:33Z</time>
      </trkpt>
      <trkpt lat="46.57004" lon="5.45743">
        <ele>384</ele>
        <time>2011-09-20T10:27:34Z</time>
      </trkpt>
      <trkpt lat="46.57014" lon="5.45748">
        <ele>384</ele>
        <time>2011-09-20T10:27:35Z</time>
      </trkpt>
      <trkpt lat="46.57024" lon="5.45754">
        <ele>384</ele>
        <time>2011-09-20T10:27:36Z</time>
      </trkpt>
      <trkpt lat="46.57033" lon="5.45758">
        <ele>384</ele>
        <time>2011-09-20T10:27:37Z</time>
      </trkpt>
      <trkpt lat="46.57042" lon="5.45763">
        <ele>384</ele>
        <time>2011-09-20T10:27:38Z</time>
      </trkpt>
      <trkpt lat="46.57051" lon="5.45766">
        <ele>378</ele>
        <time>2011-09-20T10:27:39Z</time>
      </trkpt>
      <trkpt lat="46.57068" lon="5.45766">
        <ele>378</ele>
        <time>2011-09-20T10:27:41Z</time>
      </trkpt>
      <trkpt lat="46.57077" lon="5.45761">
        <ele>378</ele>
        <time>2011-09-20T10:27:42Z</time>
      </trkpt>
      <trkpt lat="46.57085" lon="5.45754">
        <ele>378</ele>
        <time>2011-09-20T10:27:43Z</time>
      </trkpt>
      <trkpt lat="46.57094" lon="5.45745">
        <ele>378</ele>
        <time>2011-09-20T10:27:44Z</time>
      </trkpt>
      <trkpt lat="46.57102" lon="5.45736">
        <ele>378</ele>
        <time>2011-09-20T10:27:45Z</time>
      </trkpt>
      <trkpt lat="46.5711" lon="5.45727">
        <ele>378</ele>
        <time>2011-09-20T10:27:46Z</time>
      </trkpt>
      <trkpt lat="46.57118" lon="5.45719">
        <ele>378</ele>
        <time>2011-09-20T10:27:47Z</time>
      </trkpt>
      <trkpt lat="46.57126" lon="5.4571">
        <ele>378</ele>
        <time>2011-09-20T10:27:48Z</time>
      </trkpt>
      <trkpt lat="46.57134" lon="5.45701">
        <ele>378</ele>
        <time>2011-09-20T10:27:49Z</time>
      </trkpt>
      <trkpt lat="46.57142" lon="5.45692">
        <ele>378</ele>
        <time>2011-09-20T10:27:50Z</time>
      </trkpt>
      <trkpt lat="46.57151" lon="5.45683">
        <ele>372</ele>
        <time>2011-09-20T10:27:51Z</time>
      </trkpt>
      <trkpt lat="46.5716" lon="5.45673">
        <ele>372</ele>
        <time>2011-09-20T10:27:52Z</time>
      </trkpt>
      <trkpt lat="46.5717" lon="5.45665">
        <ele>372</ele>
        <time>2011-09-20T10:27:53Z</time>
      </trkpt>
      <trkpt lat="46.5718" lon="5.45657">
        <ele>372</ele>
        <time>2011-09-20T10:27:54Z</time>
      </trkpt>
      <trkpt lat="46.57191" lon="5.45652">
        <ele>372</ele>
        <time>2011-09-20T10:27:55Z</time>
      </trkpt>
      <trkpt lat="46.57201" lon="5.4565">
        <ele>372</ele>
        <time>2011-09-20T10:27:56Z</time>
      </trkpt>
      <trkpt lat="46.57213" lon="5.45649">
        <ele>372</ele>
        <time>2011-09-20T10:27:57Z</time>
      </trkpt>
      <trkpt lat="46.57224" lon="5.45652">
        <ele>372</ele>
        <time>2011-09-20T10:27:58Z</time>
      </trkpt>
      <trkpt lat="46.57235" lon="5.45655">
        <ele>366</ele>
        <time>2011-09-20T10:27:59Z</time>
      </trkpt>
      <trkpt lat="46.57246" lon="5.4566">
        <ele>366</ele>
        <time>2011-09-20T10:28:00Z</time>
      </trkpt>
      <trkpt lat="46.57257" lon="5.45665">
        <ele>366</ele>
        <time>2011-09-20T10:28:01Z</time>
      </trkpt>
      <trkpt lat="46.57268" lon="5.4567">
        <ele>366</ele>
        <time>2011-09-20T10:28:02Z</time>
      </trkpt>
      <trkpt lat="46.57279" lon="5.45674">
        <ele>366</ele>
        <time>2011-09-20T10:28:03Z</time>
      </trkpt>
      <trkpt lat="46.57291" lon="5.45679">
        <ele>366</ele>
        <time>2011-09-20T10:28:04Z</time>
      </trkpt>
      <trkpt lat="46.57302" lon="5.45682">
        <ele>366</ele>
        <time>2011-09-20T10:28:05Z</time>
      </trkpt>
      <trkpt lat="46.57313" lon="5.45683">
        <ele>366</ele>
        <time>2011-09-20T10:28:06Z</time>
      </trkpt>
      <trkpt lat="46.57323" lon="5.45683">
        <ele>361</ele>
        <time>2011-09-20T10:28:07Z</time>
      </trkpt>
      <trkpt lat="46.57333" lon="5.45679">
        <ele>361</ele>
        <time>2011-09-20T10:28:08Z</time>
      </trkpt>
      <trkpt lat="46.57341" lon="5.45672">
        <ele>361</ele>
        <time>2011-09-20T10:28:09Z</time>
      </trkpt>
      <trkpt lat="46.57347" lon="5.45662">
        <ele>361</ele>
        <time>2011-09-20T10:28:10Z</time>
      </trkpt>
      <trkpt lat="46.57351" lon="5.45649">
        <ele>361</ele>
        <time>2011-09-20T10:28:11Z</time>
      </trkpt>
      <trkpt lat="46.57353" lon="5.45636">
        <ele>361</ele>
        <time>2011-09-20T10:28:12Z</time>
      </trkpt>
      <trkpt lat="46.57357" lon="5.4561">
        <ele>361</ele>
        <time>2011-09-20T10:28:14Z</time>
      </trkpt>
      <trkpt lat="46.57359" lon="5.45596">
        <ele>361</ele>
        <time>2011-09-20T10:28:15Z</time>
      </trkpt>
      <trkpt lat="46.57361" lon="5.45582">
        <ele>361</ele>
        <time>2011-09-20T10:28:16Z</time>
      </trkpt>
      <trkpt lat="46.57362" lon="5.45568">
        <ele>361</ele>
        <time>2011-09-20T10:28:17Z</time>
      </trkpt>
      <trkpt lat="46.57361" lon="5.45554">
        <ele>361</ele>
        <time>2011-09-20T10:28:18Z</time>
      </trkpt>
      <trkpt lat="46.57359" lon="5.4554">
        <ele>361</ele>
        <time>2011-09-20T10:28:19Z</time>
      </trkpt>
      <trkpt lat="46.57357" lon="5.45525">
        <ele>361</ele>
        <time>2011-09-20T10:28:20Z</time>
      </trkpt>
      <trkpt lat="46.57354" lon="5.45511">
        <ele>361</ele>
        <time>2011-09-20T10:28:21Z</time>
      </trkpt>
      <trkpt lat="46.57352" lon="5.45496">
        <ele>361</ele>
        <time>2011-09-20T10:28:22Z</time>
      </trkpt>
      <trkpt lat="46.57349" lon="5.45481">
        <ele>361</ele>
        <time>2011-09-20T10:28:23Z</time>
      </trkpt>
      <trkpt lat="46.57347" lon="5.45466">
        <ele>361</ele>
        <time>2011-09-20T10:28:24Z</time>
      </trkpt>
      <trkpt lat="46.57344" lon="5.45451">
        <ele>361</ele>
        <time>2011-09-20T10:28:25Z</time>
      </trkpt>
      <trkpt lat="46.57341" lon="5.45435">
        <ele>361</ele>
        <time>2011-09-20T10:28:26Z</time>
      </trkpt>
      <trkpt lat="46.57339" lon="5.45419">
        <ele>355</ele>
        <time>2011-09-20T10:28:27Z</time>
      </trkpt>
      <trkpt lat="46.57335" lon="5.45405">
        <ele>355</ele>
        <time>2011-09-20T10:28:28Z</time>
      </trkpt>
      <trkpt lat="46.57331" lon="5.45391">
        <ele>355</ele>
        <time>2011-09-20T10:28:29Z</time>
      </trkpt>
      <trkpt lat="46.57326" lon="5.45377">
        <ele>355</ele>
        <time>2011-09-20T10:28:30Z</time>
      </trkpt>
      <trkpt lat="46.57321" lon="5.45364">
        <ele>355</ele>
        <time>2011-09-20T10:28:31Z</time>
      </trkpt>
      <trkpt lat="46.57315" lon="5.45351">
        <ele>355</ele>
        <time>2011-09-20T10:28:32Z</time>
      </trkpt>
      <trkpt lat="46.5731" lon="5.45339">
        <ele>355</ele>
        <time>2011-09-20T10:28:33Z</time>
      </trkpt>
      <trkpt lat="46.57305" lon="5.45326">
        <ele>355</ele>
        <time>2011-09-20T10:28:34Z</time>
      </trkpt>
      <trkpt lat="46.57302" lon="5.45312">
        <ele>355</ele>
        <time>2011-09-20T10:28:35Z</time>
      </trkpt>
      <trkpt lat="46.573" lon="5.45298">
        <ele>355</ele>
        <time>2011-09-20T10:28:36Z</time>
      </trkpt>
      <trkpt lat="46.573" lon="5.45284">
        <ele>355</ele>
        <time>2011-09-20T10:28:37Z</time>
      </trkpt>
      <trkpt lat="46.57304" lon="5.4527">
        <ele>355</ele>
        <time>2011-09-20T10:28:38Z</time>
      </trkpt>
      <trkpt lat="46.57308" lon="5.45256">
        <ele>355</ele>
        <time>2011-09-20T10:28:39Z</time>
      </trkpt>
      <trkpt lat="46.57311" lon="5.45241">
        <ele>355</ele>
        <time>2011-09-20T10:28:40Z</time>
      </trkpt>
      <trkpt lat="46.57315" lon="5.45227">
        <ele>355</ele>
        <time>2011-09-20T10:28:41Z</time>
      </trkpt>
      <trkpt lat="46.57318" lon="5.45213">
        <ele>355</ele>
        <time>2011-09-20T10:28:42Z</time>
      </trkpt>
      <trkpt lat="46.57322" lon="5.45197">
        <ele>349</ele>
        <time>2011-09-20T10:28:43Z</time>
      </trkpt>
      <trkpt lat="46.57325" lon="5.45183">
        <ele>349</ele>
        <time>2011-09-20T10:28:44Z</time>
      </trkpt>
      <trkpt lat="46.5733" lon="5.45168">
        <ele>349</ele>
        <time>2011-09-20T10:28:45Z</time>
      </trkpt>
      <trkpt lat="46.57335" lon="5.45153">
        <ele>349</ele>
        <time>2011-09-20T10:28:46Z</time>
      </trkpt>
      <trkpt lat="46.57339" lon="5.4514">
        <ele>349</ele>
        <time>2011-09-20T10:28:47Z</time>
      </trkpt>
      <trkpt lat="46.57344" lon="5.45125">
        <ele>349</ele>
        <time>2011-09-20T10:28:48Z</time>
      </trkpt>
      <trkpt lat="46.57349" lon="5.45111">
        <ele>349</ele>
        <time>2011-09-20T10:28:49Z</time>
      </trkpt>
      <trkpt lat="46.57353" lon="5.45098">
        <ele>344</ele>
        <time>2011-09-20T10:28:50Z</time>
      </trkpt>
      <trkpt lat="46.57359" lon="5.45084">
        <ele>344</ele>
        <time>2011-09-20T10:28:51Z</time>
      </trkpt>
      <trkpt lat="46.57364" lon="5.45072">
        <ele>344</ele>
        <time>2011-09-20T10:28:52Z</time>
      </trkpt>
      <trkpt lat="46.57368" lon="5.45058">
        <ele>344</ele>
        <time>2011-09-20T10:28:53Z</time>
      </trkpt>
      <trkpt lat="46.57371" lon="5.45046">
        <ele>344</ele>
        <time>2011-09-20T10:28:54Z</time>
      </trkpt>
      <trkpt lat="46.57373" lon="5.45031">
        <ele>344</ele>
        <time>2011-09-20T10:28:55Z</time>
      </trkpt>
      <trkpt lat="46.57372" lon="5.45018">
        <ele>344</ele>
        <time>2011-09-20T10:28:56Z</time>
      </trkpt>
      <trkpt lat="46.57367" lon="5.44992">
        <ele>344</ele>
        <time>2011-09-20T10:28:58Z</time>
      </trkpt>
      <trkpt lat="46.57364" lon="5.44978">
        <ele>344</ele>
        <time>2011-09-20T10:28:59Z</time>
      </trkpt>
      <trkpt lat="46.5736" lon="5.44966">
        <ele>344</ele>
        <time>2011-09-20T10:29:00Z</time>
      </trkpt>
      <trkpt lat="46.57355" lon="5.44954">
        <ele>344</ele>
        <time>2011-09-20T10:29:01Z</time>
      </trkpt>
      <trkpt lat="46.57349" lon="5.44944">
        <ele>344</ele>
        <time>2011-09-20T10:29:02Z</time>
      </trkpt>
      <trkpt lat="46.57341" lon="5.44937">
        <ele>344</ele>
        <time>2011-09-20T10:29:03Z</time>
      </trkpt>
      <trkpt lat="46.57331" lon="5.44933">
        <ele>344</ele>
        <time>2011-09-20T10:29:04Z</time>
      </trkpt>
      <trkpt lat="46.57321" lon="5.44932">
        <ele>344</ele>
        <time>2011-09-20T10:29:05Z</time>
      </trkpt>
      <trkpt lat="46.57311" lon="5.44934">
        <ele>344</ele>
        <time>2011-09-20T10:29:06Z</time>
      </trkpt>
      <trkpt lat="46.573" lon="5.44936">
        <ele>344</ele>
        <time>2011-09-20T10:29:07Z</time>
      </trkpt>
      <trkpt lat="46.57291" lon="5.4494">
        <ele>344</ele>
        <time>2011-09-20T10:29:08Z</time>
      </trkpt>
      <trkpt lat="46.57281" lon="5.44944">
        <ele>344</ele>
        <time>2011-09-20T10:29:09Z</time>
      </trkpt>
      <trkpt lat="46.57272" lon="5.44951">
        <ele>344</ele>
        <time>2011-09-20T10:29:10Z</time>
      </trkpt>
      <trkpt lat="46.57263" lon="5.44959">
        <ele>344</ele>
        <time>2011-09-20T10:29:11Z</time>
      </trkpt>
      <trkpt lat="46.57254" lon="5.44967">
        <ele>344</ele>
        <time>2011-09-20T10:29:12Z</time>
      </trkpt>
      <trkpt lat="46.57245" lon="5.44974">
        <ele>344</ele>
        <time>2011-09-20T10:29:13Z</time>
      </trkpt>
      <trkpt lat="46.57237" lon="5.44982">
        <ele>339</ele>
        <time>2011-09-20T10:29:14Z</time>
      </trkpt>
      <trkpt lat="46.57229" lon="5.4499">
        <ele>339</ele>
        <time>2011-09-20T10:29:15Z</time>
      </trkpt>
      <trkpt lat="46.5722" lon="5.44997">
        <ele>339</ele>
        <time>2011-09-20T10:29:16Z</time>
      </trkpt>
      <trkpt lat="46.57212" lon="5.45004">
        <ele>339</ele>
        <time>2011-09-20T10:29:17Z</time>
      </trkpt>
      <trkpt lat="46.57196" lon="5.45018">
        <ele>339</ele>
        <time>2011-09-20T10:29:19Z</time>
      </trkpt>
      <trkpt lat="46.57188" lon="5.45024">
        <ele>339</ele>
        <time>2011-09-20T10:29:20Z</time>
      </trkpt>
      <trkpt lat="46.57173" lon="5.45032">
        <ele>339</ele>
        <time>2011-09-20T10:29:22Z</time>
      </trkpt>
      <trkpt lat="46.57157" lon="5.45033">
        <ele>339</ele>
        <time>2011-09-20T10:29:24Z</time>
      </trkpt>
      <trkpt lat="46.5714" lon="5.45027">
        <ele>339</ele>
        <time>2011-09-20T10:29:26Z</time>
      </trkpt>
      <trkpt lat="46.57127" lon="5.45012">
        <ele>339</ele>
        <time>2011-09-20T10:29:28Z</time>
      </trkpt>
      <trkpt lat="46.57116" lon="5.44994">
        <ele>339</ele>
        <time>2011-09-20T10:29:30Z</time>
      </trkpt>
      <trkpt lat="46.57104" lon="5.44976">
        <ele>339</ele>
        <time>2011-09-20T10:29:32Z</time>
      </trkpt>
      <trkpt lat="46.57091" lon="5.4496">
        <ele>339</ele>
        <time>2011-09-20T10:29:34Z</time>
      </trkpt>
      <trkpt lat="46.57079" lon="5.44941">
        <ele>339</ele>
        <time>2011-09-20T10:29:36Z</time>
      </trkpt>
    </trkseg>
  </trk>
</gpx>